<?xml version="1.0" encoding="UTF-8"?>
<gpx xmlns:gpxdata="http://www.cluetrust.com/XML/GPXDATA/1/0" xmlns:xsi="http://www.w3.org/2001/XMLSchema-instance" xmlns="http://www.topografix.com/GPX/1/1" version="1.1" creator="http://ridewithgps.com/" xsi:schemaLocation="http://www.topografix.com/GPX/1/1 http://www.topografix.com/GPX/1/1/gpx.xsd http://www.cluetrust.com/XML/GPXDATA/1/0 http://www.cluetrust.com/Schemas/gpxdata10.xsd">
  <metadata>
    <name>13/07/20</name>
    <link href="https://ridewithgps.com/trips/52427596">
      <text>13/07/20</text>
    </link>
    <time>2020-07-13T07:39:45Z</time>
  </metadata>
  <trk>
    <name>13/07/20</name>
    <trkseg>
      <trkpt lat="47.978717" lon="7.596446">
        <ele>249.0</ele>
        <time>2020-07-13T05:39:45Z</time>
      </trkpt>
      <trkpt lat="47.978713" lon="7.596397">
        <ele>255.0</ele>
        <time>2020-07-13T05:39:47Z</time>
      </trkpt>
      <trkpt lat="47.978803" lon="7.596463">
        <ele>244.0</ele>
        <time>2020-07-13T05:39:49Z</time>
      </trkpt>
      <trkpt lat="47.978803" lon="7.596463">
        <ele>244.0</ele>
        <time>2020-07-13T05:39:51Z</time>
      </trkpt>
      <trkpt lat="47.978803" lon="7.596463">
        <ele>244.0</ele>
        <time>2020-07-13T05:39:53Z</time>
      </trkpt>
      <trkpt lat="47.978803" lon="7.596463">
        <ele>244.0</ele>
        <time>2020-07-13T05:39:55Z</time>
      </trkpt>
      <trkpt lat="47.978803" lon="7.596463">
        <ele>244.0</ele>
        <time>2020-07-13T05:39:56Z</time>
      </trkpt>
      <trkpt lat="47.978799" lon="7.596422">
        <ele>252.0</ele>
        <time>2020-07-13T05:39:59Z</time>
      </trkpt>
      <trkpt lat="47.978806" lon="7.596435">
        <ele>257.0</ele>
        <time>2020-07-13T05:40:01Z</time>
      </trkpt>
      <trkpt lat="47.978807" lon="7.596434">
        <ele>257.0</ele>
        <time>2020-07-13T05:40:03Z</time>
      </trkpt>
      <trkpt lat="47.978825" lon="7.596435">
        <ele>251.0</ele>
        <time>2020-07-13T05:40:05Z</time>
      </trkpt>
      <trkpt lat="47.978842" lon="7.596447">
        <ele>249.0</ele>
        <time>2020-07-13T05:40:07Z</time>
      </trkpt>
      <trkpt lat="47.978858" lon="7.596456">
        <ele>250.0</ele>
        <time>2020-07-13T05:40:08Z</time>
      </trkpt>
      <trkpt lat="47.978917" lon="7.59648">
        <ele>250.0</ele>
        <time>2020-07-13T05:40:11Z</time>
      </trkpt>
      <trkpt lat="47.978973" lon="7.596501">
        <ele>249.0</ele>
        <time>2020-07-13T05:40:13Z</time>
      </trkpt>
      <trkpt lat="47.979071" lon="7.596523">
        <ele>250.0</ele>
        <time>2020-07-13T05:40:16Z</time>
      </trkpt>
      <trkpt lat="47.979138" lon="7.59656">
        <ele>250.0</ele>
        <time>2020-07-13T05:40:18Z</time>
      </trkpt>
      <trkpt lat="47.979203" lon="7.59659">
        <ele>250.0</ele>
        <time>2020-07-13T05:40:20Z</time>
      </trkpt>
      <trkpt lat="47.979269" lon="7.596615">
        <ele>250.0</ele>
        <time>2020-07-13T05:40:22Z</time>
      </trkpt>
      <trkpt lat="47.979338" lon="7.596639">
        <ele>249.0</ele>
        <time>2020-07-13T05:40:24Z</time>
      </trkpt>
      <trkpt lat="47.979403" lon="7.596636">
        <ele>249.0</ele>
        <time>2020-07-13T05:40:26Z</time>
      </trkpt>
      <trkpt lat="47.979442" lon="7.59654">
        <ele>248.0</ele>
        <time>2020-07-13T05:40:28Z</time>
      </trkpt>
      <trkpt lat="47.979457" lon="7.596486">
        <ele>248.0</ele>
        <time>2020-07-13T05:40:29Z</time>
      </trkpt>
      <trkpt lat="47.979504" lon="7.596321">
        <ele>246.0</ele>
        <time>2020-07-13T05:40:32Z</time>
      </trkpt>
      <trkpt lat="47.979541" lon="7.596207">
        <ele>247.0</ele>
        <time>2020-07-13T05:40:34Z</time>
      </trkpt>
      <trkpt lat="47.979584" lon="7.596097">
        <ele>247.0</ele>
        <time>2020-07-13T05:40:36Z</time>
      </trkpt>
      <trkpt lat="47.979626" lon="7.596009">
        <ele>247.0</ele>
        <time>2020-07-13T05:40:38Z</time>
      </trkpt>
      <trkpt lat="47.979675" lon="7.595935">
        <ele>248.0</ele>
        <time>2020-07-13T05:40:40Z</time>
      </trkpt>
      <trkpt lat="47.979729" lon="7.595877">
        <ele>247.0</ele>
        <time>2020-07-13T05:40:42Z</time>
      </trkpt>
      <trkpt lat="47.979787" lon="7.595837">
        <ele>248.0</ele>
        <time>2020-07-13T05:40:44Z</time>
      </trkpt>
      <trkpt lat="47.979832" lon="7.595828">
        <ele>247.0</ele>
        <time>2020-07-13T05:40:46Z</time>
      </trkpt>
      <trkpt lat="47.979852" lon="7.595859">
        <ele>248.0</ele>
        <time>2020-07-13T05:40:48Z</time>
      </trkpt>
      <trkpt lat="47.979846" lon="7.595879">
        <ele>248.0</ele>
        <time>2020-07-13T05:40:50Z</time>
      </trkpt>
      <trkpt lat="47.97982" lon="7.595887">
        <ele>248.0</ele>
        <time>2020-07-13T05:40:52Z</time>
      </trkpt>
      <trkpt lat="47.979809" lon="7.595862">
        <ele>248.0</ele>
        <time>2020-07-13T05:40:54Z</time>
      </trkpt>
      <trkpt lat="47.979817" lon="7.595829">
        <ele>248.0</ele>
        <time>2020-07-13T05:40:56Z</time>
      </trkpt>
      <trkpt lat="47.979841" lon="7.595811">
        <ele>248.0</ele>
        <time>2020-07-13T05:40:58Z</time>
      </trkpt>
      <trkpt lat="47.979865" lon="7.5958">
        <ele>248.0</ele>
        <time>2020-07-13T05:41:00Z</time>
      </trkpt>
      <trkpt lat="47.979875" lon="7.595767">
        <ele>248.0</ele>
        <time>2020-07-13T05:41:02Z</time>
      </trkpt>
      <trkpt lat="47.979889" lon="7.595739">
        <ele>248.0</ele>
        <time>2020-07-13T05:41:04Z</time>
      </trkpt>
      <trkpt lat="47.979888" lon="7.595712">
        <ele>247.0</ele>
        <time>2020-07-13T05:41:06Z</time>
      </trkpt>
      <trkpt lat="47.979865" lon="7.595716">
        <ele>247.0</ele>
        <time>2020-07-13T05:41:08Z</time>
      </trkpt>
      <trkpt lat="47.979834" lon="7.595724">
        <ele>247.0</ele>
        <time>2020-07-13T05:41:10Z</time>
      </trkpt>
      <trkpt lat="47.979806" lon="7.595719">
        <ele>247.0</ele>
        <time>2020-07-13T05:41:12Z</time>
      </trkpt>
      <trkpt lat="47.979789" lon="7.595689">
        <ele>247.0</ele>
        <time>2020-07-13T05:41:14Z</time>
      </trkpt>
      <trkpt lat="47.979774" lon="7.595661">
        <ele>247.0</ele>
        <time>2020-07-13T05:41:16Z</time>
      </trkpt>
      <trkpt lat="47.979749" lon="7.595624">
        <ele>247.0</ele>
        <time>2020-07-13T05:41:18Z</time>
      </trkpt>
      <trkpt lat="47.97972" lon="7.59559">
        <ele>247.0</ele>
        <time>2020-07-13T05:41:20Z</time>
      </trkpt>
      <trkpt lat="47.979682" lon="7.595564">
        <ele>247.0</ele>
        <time>2020-07-13T05:41:22Z</time>
      </trkpt>
      <trkpt lat="47.979634" lon="7.59553">
        <ele>246.0</ele>
        <time>2020-07-13T05:41:24Z</time>
      </trkpt>
      <trkpt lat="47.979587" lon="7.595485">
        <ele>246.0</ele>
        <time>2020-07-13T05:41:26Z</time>
      </trkpt>
      <trkpt lat="47.97953" lon="7.595436">
        <ele>246.0</ele>
        <time>2020-07-13T05:41:28Z</time>
      </trkpt>
      <trkpt lat="47.979456" lon="7.595353">
        <ele>246.0</ele>
        <time>2020-07-13T05:41:30Z</time>
      </trkpt>
      <trkpt lat="47.979402" lon="7.5953">
        <ele>246.0</ele>
        <time>2020-07-13T05:41:32Z</time>
      </trkpt>
      <trkpt lat="47.979369" lon="7.595268">
        <ele>246.0</ele>
        <time>2020-07-13T05:41:34Z</time>
      </trkpt>
      <trkpt lat="47.979329" lon="7.595214">
        <ele>246.0</ele>
        <time>2020-07-13T05:41:36Z</time>
      </trkpt>
      <trkpt lat="47.979277" lon="7.595146">
        <ele>245.0</ele>
        <time>2020-07-13T05:41:38Z</time>
      </trkpt>
      <trkpt lat="47.979213" lon="7.595081">
        <ele>245.0</ele>
        <time>2020-07-13T05:41:40Z</time>
      </trkpt>
      <trkpt lat="47.979146" lon="7.595022">
        <ele>245.0</ele>
        <time>2020-07-13T05:41:42Z</time>
      </trkpt>
      <trkpt lat="47.979086" lon="7.594972">
        <ele>244.0</ele>
        <time>2020-07-13T05:41:44Z</time>
      </trkpt>
      <trkpt lat="47.979034" lon="7.594914">
        <ele>244.0</ele>
        <time>2020-07-13T05:41:46Z</time>
      </trkpt>
      <trkpt lat="47.978978" lon="7.594851">
        <ele>244.0</ele>
        <time>2020-07-13T05:41:48Z</time>
      </trkpt>
      <trkpt lat="47.978912" lon="7.594785">
        <ele>244.0</ele>
        <time>2020-07-13T05:41:50Z</time>
      </trkpt>
      <trkpt lat="47.978846" lon="7.594717">
        <ele>244.0</ele>
        <time>2020-07-13T05:41:52Z</time>
      </trkpt>
      <trkpt lat="47.97876" lon="7.594636">
        <ele>243.0</ele>
        <time>2020-07-13T05:41:54Z</time>
      </trkpt>
      <trkpt lat="47.97869" lon="7.594583">
        <ele>243.0</ele>
        <time>2020-07-13T05:41:56Z</time>
      </trkpt>
      <trkpt lat="47.978634" lon="7.594546">
        <ele>243.0</ele>
        <time>2020-07-13T05:41:58Z</time>
      </trkpt>
      <trkpt lat="47.97857" lon="7.59449">
        <ele>243.0</ele>
        <time>2020-07-13T05:42:01Z</time>
      </trkpt>
      <trkpt lat="47.978546" lon="7.594471">
        <ele>244.0</ele>
        <time>2020-07-13T05:42:02Z</time>
      </trkpt>
      <trkpt lat="47.978444" lon="7.594417">
        <ele>244.0</ele>
        <time>2020-07-13T05:42:05Z</time>
      </trkpt>
      <trkpt lat="47.978356" lon="7.594389">
        <ele>244.0</ele>
        <time>2020-07-13T05:42:07Z</time>
      </trkpt>
      <trkpt lat="47.978273" lon="7.594363">
        <ele>244.0</ele>
        <time>2020-07-13T05:42:09Z</time>
      </trkpt>
      <trkpt lat="47.978195" lon="7.594346">
        <ele>244.0</ele>
        <time>2020-07-13T05:42:11Z</time>
      </trkpt>
      <trkpt lat="47.978109" lon="7.59432">
        <ele>244.0</ele>
        <time>2020-07-13T05:42:13Z</time>
      </trkpt>
      <trkpt lat="47.978026" lon="7.594302">
        <ele>243.0</ele>
        <time>2020-07-13T05:42:15Z</time>
      </trkpt>
      <trkpt lat="47.977936" lon="7.594286">
        <ele>243.0</ele>
        <time>2020-07-13T05:42:17Z</time>
      </trkpt>
      <trkpt lat="47.977851" lon="7.594266">
        <ele>243.0</ele>
        <time>2020-07-13T05:42:19Z</time>
      </trkpt>
      <trkpt lat="47.977765" lon="7.594258">
        <ele>244.0</ele>
        <time>2020-07-13T05:42:21Z</time>
      </trkpt>
      <trkpt lat="47.977693" lon="7.594258">
        <ele>244.0</ele>
        <time>2020-07-13T05:42:23Z</time>
      </trkpt>
      <trkpt lat="47.977606" lon="7.594262">
        <ele>244.0</ele>
        <time>2020-07-13T05:42:25Z</time>
      </trkpt>
      <trkpt lat="47.977512" lon="7.594253">
        <ele>244.0</ele>
        <time>2020-07-13T05:42:27Z</time>
      </trkpt>
      <trkpt lat="47.977419" lon="7.594245">
        <ele>244.0</ele>
        <time>2020-07-13T05:42:29Z</time>
      </trkpt>
      <trkpt lat="47.977321" lon="7.594243">
        <ele>244.0</ele>
        <time>2020-07-13T05:42:31Z</time>
      </trkpt>
      <trkpt lat="47.977223" lon="7.59426">
        <ele>245.0</ele>
        <time>2020-07-13T05:42:33Z</time>
      </trkpt>
      <trkpt lat="47.977113" lon="7.59429">
        <ele>246.0</ele>
        <time>2020-07-13T05:42:35Z</time>
      </trkpt>
      <trkpt lat="47.977032" lon="7.594334">
        <ele>246.0</ele>
        <time>2020-07-13T05:42:37Z</time>
      </trkpt>
      <trkpt lat="47.976968" lon="7.594373">
        <ele>246.0</ele>
        <time>2020-07-13T05:42:39Z</time>
      </trkpt>
      <trkpt lat="47.976907" lon="7.594414">
        <ele>247.0</ele>
        <time>2020-07-13T05:42:41Z</time>
      </trkpt>
      <trkpt lat="47.976841" lon="7.594452">
        <ele>247.0</ele>
        <time>2020-07-13T05:42:43Z</time>
      </trkpt>
      <trkpt lat="47.97677" lon="7.594484">
        <ele>246.0</ele>
        <time>2020-07-13T05:42:45Z</time>
      </trkpt>
      <trkpt lat="47.976707" lon="7.594532">
        <ele>246.0</ele>
        <time>2020-07-13T05:42:47Z</time>
      </trkpt>
      <trkpt lat="47.97663" lon="7.594583">
        <ele>246.0</ele>
        <time>2020-07-13T05:42:49Z</time>
      </trkpt>
      <trkpt lat="47.97656" lon="7.594637">
        <ele>246.0</ele>
        <time>2020-07-13T05:42:51Z</time>
      </trkpt>
      <trkpt lat="47.976506" lon="7.594693">
        <ele>246.0</ele>
        <time>2020-07-13T05:42:53Z</time>
      </trkpt>
      <trkpt lat="47.976482" lon="7.594722">
        <ele>245.0</ele>
        <time>2020-07-13T05:42:55Z</time>
      </trkpt>
      <trkpt lat="47.976472" lon="7.59474">
        <ele>245.0</ele>
        <time>2020-07-13T05:42:57Z</time>
      </trkpt>
      <trkpt lat="47.976468" lon="7.594747">
        <ele>245.0</ele>
        <time>2020-07-13T05:42:59Z</time>
      </trkpt>
      <trkpt lat="47.976474" lon="7.594762">
        <ele>245.0</ele>
        <time>2020-07-13T05:43:01Z</time>
      </trkpt>
      <trkpt lat="47.976474" lon="7.594762">
        <ele>245.0</ele>
        <time>2020-07-13T05:43:03Z</time>
      </trkpt>
      <trkpt lat="47.97647" lon="7.594767">
        <ele>244.0</ele>
        <time>2020-07-13T05:43:05Z</time>
      </trkpt>
      <trkpt lat="47.97647" lon="7.594767">
        <ele>244.0</ele>
        <time>2020-07-13T05:43:07Z</time>
      </trkpt>
      <trkpt lat="47.97647" lon="7.594767">
        <ele>244.0</ele>
        <time>2020-07-13T05:43:09Z</time>
      </trkpt>
      <trkpt lat="47.97647" lon="7.594767">
        <ele>244.0</ele>
        <time>2020-07-13T05:43:11Z</time>
      </trkpt>
      <trkpt lat="47.97647" lon="7.594767">
        <ele>244.0</ele>
        <time>2020-07-13T05:43:13Z</time>
      </trkpt>
      <trkpt lat="47.97647" lon="7.594767">
        <ele>244.0</ele>
        <time>2020-07-13T05:43:15Z</time>
      </trkpt>
      <trkpt lat="47.97647" lon="7.594767">
        <ele>244.0</ele>
        <time>2020-07-13T05:43:17Z</time>
      </trkpt>
      <trkpt lat="47.97647" lon="7.594767">
        <ele>244.0</ele>
        <time>2020-07-13T05:43:19Z</time>
      </trkpt>
      <trkpt lat="47.97647" lon="7.594767">
        <ele>244.0</ele>
        <time>2020-07-13T05:43:21Z</time>
      </trkpt>
      <trkpt lat="47.97647" lon="7.594767">
        <ele>244.0</ele>
        <time>2020-07-13T05:43:23Z</time>
      </trkpt>
      <trkpt lat="47.976467" lon="7.594769">
        <ele>244.0</ele>
        <time>2020-07-13T05:43:25Z</time>
      </trkpt>
      <trkpt lat="47.976451" lon="7.594784">
        <ele>245.0</ele>
        <time>2020-07-13T05:43:27Z</time>
      </trkpt>
      <trkpt lat="47.976424" lon="7.594819">
        <ele>245.0</ele>
        <time>2020-07-13T05:43:29Z</time>
      </trkpt>
      <trkpt lat="47.976386" lon="7.594849">
        <ele>245.0</ele>
        <time>2020-07-13T05:43:31Z</time>
      </trkpt>
      <trkpt lat="47.976343" lon="7.594909">
        <ele>245.0</ele>
        <time>2020-07-13T05:43:33Z</time>
      </trkpt>
      <trkpt lat="47.976291" lon="7.594979">
        <ele>245.0</ele>
        <time>2020-07-13T05:43:35Z</time>
      </trkpt>
      <trkpt lat="47.976239" lon="7.595036">
        <ele>245.0</ele>
        <time>2020-07-13T05:43:37Z</time>
      </trkpt>
      <trkpt lat="47.976181" lon="7.595095">
        <ele>245.0</ele>
        <time>2020-07-13T05:43:39Z</time>
      </trkpt>
      <trkpt lat="47.976124" lon="7.595148">
        <ele>245.0</ele>
        <time>2020-07-13T05:43:41Z</time>
      </trkpt>
      <trkpt lat="47.976065" lon="7.595231">
        <ele>246.0</ele>
        <time>2020-07-13T05:43:43Z</time>
      </trkpt>
      <trkpt lat="47.976013" lon="7.595318">
        <ele>245.0</ele>
        <time>2020-07-13T05:43:45Z</time>
      </trkpt>
      <trkpt lat="47.975959" lon="7.595403">
        <ele>245.0</ele>
        <time>2020-07-13T05:43:47Z</time>
      </trkpt>
      <trkpt lat="47.975906" lon="7.595477">
        <ele>245.0</ele>
        <time>2020-07-13T05:43:49Z</time>
      </trkpt>
      <trkpt lat="47.975863" lon="7.595565">
        <ele>245.0</ele>
        <time>2020-07-13T05:43:51Z</time>
      </trkpt>
      <trkpt lat="47.975825" lon="7.595643">
        <ele>245.0</ele>
        <time>2020-07-13T05:43:53Z</time>
      </trkpt>
      <trkpt lat="47.975786" lon="7.595721">
        <ele>245.0</ele>
        <time>2020-07-13T05:43:55Z</time>
      </trkpt>
      <trkpt lat="47.975745" lon="7.595817">
        <ele>244.0</ele>
        <time>2020-07-13T05:43:57Z</time>
      </trkpt>
      <trkpt lat="47.975713" lon="7.595927">
        <ele>244.0</ele>
        <time>2020-07-13T05:43:59Z</time>
      </trkpt>
      <trkpt lat="47.975689" lon="7.596043">
        <ele>244.0</ele>
        <time>2020-07-13T05:44:01Z</time>
      </trkpt>
      <trkpt lat="47.975664" lon="7.596152">
        <ele>243.0</ele>
        <time>2020-07-13T05:44:03Z</time>
      </trkpt>
      <trkpt lat="47.975649" lon="7.596274">
        <ele>244.0</ele>
        <time>2020-07-13T05:44:05Z</time>
      </trkpt>
      <trkpt lat="47.975633" lon="7.596391">
        <ele>244.0</ele>
        <time>2020-07-13T05:44:07Z</time>
      </trkpt>
      <trkpt lat="47.975623" lon="7.596509">
        <ele>245.0</ele>
        <time>2020-07-13T05:44:09Z</time>
      </trkpt>
      <trkpt lat="47.975607" lon="7.596624">
        <ele>247.0</ele>
        <time>2020-07-13T05:44:11Z</time>
      </trkpt>
      <trkpt lat="47.97558" lon="7.596735">
        <ele>248.0</ele>
        <time>2020-07-13T05:44:13Z</time>
      </trkpt>
      <trkpt lat="47.975551" lon="7.596834">
        <ele>249.0</ele>
        <time>2020-07-13T05:44:15Z</time>
      </trkpt>
      <trkpt lat="47.975505" lon="7.596934">
        <ele>248.0</ele>
        <time>2020-07-13T05:44:17Z</time>
      </trkpt>
      <trkpt lat="47.975443" lon="7.597023">
        <ele>248.0</ele>
        <time>2020-07-13T05:44:19Z</time>
      </trkpt>
      <trkpt lat="47.975342" lon="7.59708">
        <ele>246.0</ele>
        <time>2020-07-13T05:44:21Z</time>
      </trkpt>
      <trkpt lat="47.975215" lon="7.5971">
        <ele>245.0</ele>
        <time>2020-07-13T05:44:23Z</time>
      </trkpt>
      <trkpt lat="47.975123" lon="7.597105">
        <ele>244.0</ele>
        <time>2020-07-13T05:44:25Z</time>
      </trkpt>
      <trkpt lat="47.975035" lon="7.597076">
        <ele>245.0</ele>
        <time>2020-07-13T05:44:27Z</time>
      </trkpt>
      <trkpt lat="47.974952" lon="7.597044">
        <ele>245.0</ele>
        <time>2020-07-13T05:44:29Z</time>
      </trkpt>
      <trkpt lat="47.974854" lon="7.596999">
        <ele>245.0</ele>
        <time>2020-07-13T05:44:31Z</time>
      </trkpt>
      <trkpt lat="47.974764" lon="7.596962">
        <ele>245.0</ele>
        <time>2020-07-13T05:44:33Z</time>
      </trkpt>
      <trkpt lat="47.974688" lon="7.596895">
        <ele>245.0</ele>
        <time>2020-07-13T05:44:35Z</time>
      </trkpt>
      <trkpt lat="47.974626" lon="7.596814">
        <ele>245.0</ele>
        <time>2020-07-13T05:44:37Z</time>
      </trkpt>
      <trkpt lat="47.974577" lon="7.596714">
        <ele>245.0</ele>
        <time>2020-07-13T05:44:39Z</time>
      </trkpt>
      <trkpt lat="47.974542" lon="7.596593">
        <ele>245.0</ele>
        <time>2020-07-13T05:44:41Z</time>
      </trkpt>
      <trkpt lat="47.974504" lon="7.596476">
        <ele>245.0</ele>
        <time>2020-07-13T05:44:43Z</time>
      </trkpt>
      <trkpt lat="47.974478" lon="7.596353">
        <ele>244.0</ele>
        <time>2020-07-13T05:44:45Z</time>
      </trkpt>
      <trkpt lat="47.974443" lon="7.596236">
        <ele>245.0</ele>
        <time>2020-07-13T05:44:47Z</time>
      </trkpt>
      <trkpt lat="47.974387" lon="7.596146">
        <ele>245.0</ele>
        <time>2020-07-13T05:44:49Z</time>
      </trkpt>
      <trkpt lat="47.974294" lon="7.59613">
        <ele>245.0</ele>
        <time>2020-07-13T05:44:51Z</time>
      </trkpt>
      <trkpt lat="47.974206" lon="7.596172">
        <ele>245.0</ele>
        <time>2020-07-13T05:44:53Z</time>
      </trkpt>
      <trkpt lat="47.974133" lon="7.596238">
        <ele>246.0</ele>
        <time>2020-07-13T05:44:55Z</time>
      </trkpt>
      <trkpt lat="47.974052" lon="7.596308">
        <ele>246.0</ele>
        <time>2020-07-13T05:44:57Z</time>
      </trkpt>
      <trkpt lat="47.973966" lon="7.596366">
        <ele>245.0</ele>
        <time>2020-07-13T05:44:59Z</time>
      </trkpt>
      <trkpt lat="47.973875" lon="7.596406">
        <ele>244.0</ele>
        <time>2020-07-13T05:45:01Z</time>
      </trkpt>
      <trkpt lat="47.973767" lon="7.59642">
        <ele>243.0</ele>
        <time>2020-07-13T05:45:03Z</time>
      </trkpt>
      <trkpt lat="47.973672" lon="7.596404">
        <ele>243.0</ele>
        <time>2020-07-13T05:45:05Z</time>
      </trkpt>
      <trkpt lat="47.973576" lon="7.596375">
        <ele>243.0</ele>
        <time>2020-07-13T05:45:07Z</time>
      </trkpt>
      <trkpt lat="47.973485" lon="7.596338">
        <ele>243.0</ele>
        <time>2020-07-13T05:45:09Z</time>
      </trkpt>
      <trkpt lat="47.973394" lon="7.59631">
        <ele>244.0</ele>
        <time>2020-07-13T05:45:11Z</time>
      </trkpt>
      <trkpt lat="47.973308" lon="7.596284">
        <ele>244.0</ele>
        <time>2020-07-13T05:45:13Z</time>
      </trkpt>
      <trkpt lat="47.973218" lon="7.596274">
        <ele>244.0</ele>
        <time>2020-07-13T05:45:15Z</time>
      </trkpt>
      <trkpt lat="47.973088" lon="7.596213">
        <ele>245.0</ele>
        <time>2020-07-13T05:45:18Z</time>
      </trkpt>
      <trkpt lat="47.973042" lon="7.596107">
        <ele>244.0</ele>
        <time>2020-07-13T05:45:20Z</time>
      </trkpt>
      <trkpt lat="47.973031" lon="7.596036">
        <ele>244.0</ele>
        <time>2020-07-13T05:45:21Z</time>
      </trkpt>
      <trkpt lat="47.97303" lon="7.595803">
        <ele>244.0</ele>
        <time>2020-07-13T05:45:24Z</time>
      </trkpt>
      <trkpt lat="47.973031" lon="7.59573">
        <ele>244.0</ele>
        <time>2020-07-13T05:45:25Z</time>
      </trkpt>
      <trkpt lat="47.97304" lon="7.595501">
        <ele>243.0</ele>
        <time>2020-07-13T05:45:28Z</time>
      </trkpt>
      <trkpt lat="47.973056" lon="7.595338">
        <ele>243.0</ele>
        <time>2020-07-13T05:45:30Z</time>
      </trkpt>
      <trkpt lat="47.973078" lon="7.59518">
        <ele>244.0</ele>
        <time>2020-07-13T05:45:32Z</time>
      </trkpt>
      <trkpt lat="47.973109" lon="7.595027">
        <ele>243.0</ele>
        <time>2020-07-13T05:45:34Z</time>
      </trkpt>
      <trkpt lat="47.973145" lon="7.594883">
        <ele>243.0</ele>
        <time>2020-07-13T05:45:36Z</time>
      </trkpt>
      <trkpt lat="47.973174" lon="7.594734">
        <ele>244.0</ele>
        <time>2020-07-13T05:45:38Z</time>
      </trkpt>
      <trkpt lat="47.973208" lon="7.594601">
        <ele>244.0</ele>
        <time>2020-07-13T05:45:40Z</time>
      </trkpt>
      <trkpt lat="47.973246" lon="7.594482">
        <ele>244.0</ele>
        <time>2020-07-13T05:45:42Z</time>
      </trkpt>
      <trkpt lat="47.973286" lon="7.594363">
        <ele>245.0</ele>
        <time>2020-07-13T05:45:44Z</time>
      </trkpt>
      <trkpt lat="47.973326" lon="7.594221">
        <ele>245.0</ele>
        <time>2020-07-13T05:45:46Z</time>
      </trkpt>
      <trkpt lat="47.973359" lon="7.594084">
        <ele>245.0</ele>
        <time>2020-07-13T05:45:48Z</time>
      </trkpt>
      <trkpt lat="47.973389" lon="7.593941">
        <ele>245.0</ele>
        <time>2020-07-13T05:45:50Z</time>
      </trkpt>
      <trkpt lat="47.973428" lon="7.593798">
        <ele>246.0</ele>
        <time>2020-07-13T05:45:52Z</time>
      </trkpt>
      <trkpt lat="47.973468" lon="7.593662">
        <ele>246.0</ele>
        <time>2020-07-13T05:45:54Z</time>
      </trkpt>
      <trkpt lat="47.973512" lon="7.593502">
        <ele>246.0</ele>
        <time>2020-07-13T05:45:56Z</time>
      </trkpt>
      <trkpt lat="47.973553" lon="7.593344">
        <ele>245.0</ele>
        <time>2020-07-13T05:45:58Z</time>
      </trkpt>
      <trkpt lat="47.973599" lon="7.593191">
        <ele>245.0</ele>
        <time>2020-07-13T05:46:00Z</time>
      </trkpt>
      <trkpt lat="47.973633" lon="7.593043">
        <ele>245.0</ele>
        <time>2020-07-13T05:46:02Z</time>
      </trkpt>
      <trkpt lat="47.973684" lon="7.592885">
        <ele>244.0</ele>
        <time>2020-07-13T05:46:04Z</time>
      </trkpt>
      <trkpt lat="47.973727" lon="7.592746">
        <ele>245.0</ele>
        <time>2020-07-13T05:46:06Z</time>
      </trkpt>
      <trkpt lat="47.973764" lon="7.592607">
        <ele>245.0</ele>
        <time>2020-07-13T05:46:08Z</time>
      </trkpt>
      <trkpt lat="47.973797" lon="7.592473">
        <ele>246.0</ele>
        <time>2020-07-13T05:46:10Z</time>
      </trkpt>
      <trkpt lat="47.973833" lon="7.592321">
        <ele>246.0</ele>
        <time>2020-07-13T05:46:12Z</time>
      </trkpt>
      <trkpt lat="47.973872" lon="7.592175">
        <ele>246.0</ele>
        <time>2020-07-13T05:46:14Z</time>
      </trkpt>
      <trkpt lat="47.973904" lon="7.592031">
        <ele>245.0</ele>
        <time>2020-07-13T05:46:16Z</time>
      </trkpt>
      <trkpt lat="47.973935" lon="7.591882">
        <ele>245.0</ele>
        <time>2020-07-13T05:46:18Z</time>
      </trkpt>
      <trkpt lat="47.973969" lon="7.591734">
        <ele>245.0</ele>
        <time>2020-07-13T05:46:20Z</time>
      </trkpt>
      <trkpt lat="47.974001" lon="7.591589">
        <ele>245.0</ele>
        <time>2020-07-13T05:46:22Z</time>
      </trkpt>
      <trkpt lat="47.974036" lon="7.591445">
        <ele>245.0</ele>
        <time>2020-07-13T05:46:24Z</time>
      </trkpt>
      <trkpt lat="47.974067" lon="7.591302">
        <ele>245.0</ele>
        <time>2020-07-13T05:46:26Z</time>
      </trkpt>
      <trkpt lat="47.974091" lon="7.591149">
        <ele>245.0</ele>
        <time>2020-07-13T05:46:28Z</time>
      </trkpt>
      <trkpt lat="47.974115" lon="7.591005">
        <ele>245.0</ele>
        <time>2020-07-13T05:46:30Z</time>
      </trkpt>
      <trkpt lat="47.974119" lon="7.590855">
        <ele>245.0</ele>
        <time>2020-07-13T05:46:32Z</time>
      </trkpt>
      <trkpt lat="47.974115" lon="7.590697">
        <ele>244.0</ele>
        <time>2020-07-13T05:46:34Z</time>
      </trkpt>
      <trkpt lat="47.974092" lon="7.590551">
        <ele>243.0</ele>
        <time>2020-07-13T05:46:36Z</time>
      </trkpt>
      <trkpt lat="47.974049" lon="7.59042">
        <ele>244.0</ele>
        <time>2020-07-13T05:46:38Z</time>
      </trkpt>
      <trkpt lat="47.973996" lon="7.59031">
        <ele>244.0</ele>
        <time>2020-07-13T05:46:40Z</time>
      </trkpt>
      <trkpt lat="47.973934" lon="7.590199">
        <ele>244.0</ele>
        <time>2020-07-13T05:46:42Z</time>
      </trkpt>
      <trkpt lat="47.973882" lon="7.590075">
        <ele>244.0</ele>
        <time>2020-07-13T05:46:44Z</time>
      </trkpt>
      <trkpt lat="47.973835" lon="7.589948">
        <ele>244.0</ele>
        <time>2020-07-13T05:46:46Z</time>
      </trkpt>
      <trkpt lat="47.973814" lon="7.58981">
        <ele>245.0</ele>
        <time>2020-07-13T05:46:48Z</time>
      </trkpt>
      <trkpt lat="47.973847" lon="7.589664">
        <ele>244.0</ele>
        <time>2020-07-13T05:46:50Z</time>
      </trkpt>
      <trkpt lat="47.973877" lon="7.589524">
        <ele>244.0</ele>
        <time>2020-07-13T05:46:52Z</time>
      </trkpt>
      <trkpt lat="47.973919" lon="7.58939">
        <ele>244.0</ele>
        <time>2020-07-13T05:46:54Z</time>
      </trkpt>
      <trkpt lat="47.973954" lon="7.58925">
        <ele>244.0</ele>
        <time>2020-07-13T05:46:56Z</time>
      </trkpt>
      <trkpt lat="47.973984" lon="7.589115">
        <ele>244.0</ele>
        <time>2020-07-13T05:46:58Z</time>
      </trkpt>
      <trkpt lat="47.973992" lon="7.588979">
        <ele>244.0</ele>
        <time>2020-07-13T05:47:00Z</time>
      </trkpt>
      <trkpt lat="47.973983" lon="7.588831">
        <ele>244.0</ele>
        <time>2020-07-13T05:47:02Z</time>
      </trkpt>
      <trkpt lat="47.97397" lon="7.588694">
        <ele>244.0</ele>
        <time>2020-07-13T05:47:04Z</time>
      </trkpt>
      <trkpt lat="47.97394" lon="7.588554">
        <ele>244.0</ele>
        <time>2020-07-13T05:47:06Z</time>
      </trkpt>
      <trkpt lat="47.973919" lon="7.588421">
        <ele>243.0</ele>
        <time>2020-07-13T05:47:08Z</time>
      </trkpt>
      <trkpt lat="47.973904" lon="7.588278">
        <ele>243.0</ele>
        <time>2020-07-13T05:47:10Z</time>
      </trkpt>
      <trkpt lat="47.97389" lon="7.588135">
        <ele>243.0</ele>
        <time>2020-07-13T05:47:12Z</time>
      </trkpt>
      <trkpt lat="47.973886" lon="7.587975">
        <ele>243.0</ele>
        <time>2020-07-13T05:47:14Z</time>
      </trkpt>
      <trkpt lat="47.973885" lon="7.587803">
        <ele>243.0</ele>
        <time>2020-07-13T05:47:16Z</time>
      </trkpt>
      <trkpt lat="47.973888" lon="7.587627">
        <ele>243.0</ele>
        <time>2020-07-13T05:47:18Z</time>
      </trkpt>
      <trkpt lat="47.973888" lon="7.587458">
        <ele>244.0</ele>
        <time>2020-07-13T05:47:20Z</time>
      </trkpt>
      <trkpt lat="47.973889" lon="7.587325">
        <ele>244.0</ele>
        <time>2020-07-13T05:47:22Z</time>
      </trkpt>
      <trkpt lat="47.973846" lon="7.587108">
        <ele>244.0</ele>
        <time>2020-07-13T05:47:25Z</time>
      </trkpt>
      <trkpt lat="47.973838" lon="7.58704">
        <ele>244.0</ele>
        <time>2020-07-13T05:47:26Z</time>
      </trkpt>
      <trkpt lat="47.973772" lon="7.586832">
        <ele>244.0</ele>
        <time>2020-07-13T05:47:29Z</time>
      </trkpt>
      <trkpt lat="47.973715" lon="7.586681">
        <ele>244.0</ele>
        <time>2020-07-13T05:47:31Z</time>
      </trkpt>
      <trkpt lat="47.973667" lon="7.586534">
        <ele>245.0</ele>
        <time>2020-07-13T05:47:33Z</time>
      </trkpt>
      <trkpt lat="47.973615" lon="7.586393">
        <ele>245.0</ele>
        <time>2020-07-13T05:47:35Z</time>
      </trkpt>
      <trkpt lat="47.973584" lon="7.586254">
        <ele>245.0</ele>
        <time>2020-07-13T05:47:37Z</time>
      </trkpt>
      <trkpt lat="47.973542" lon="7.586127">
        <ele>246.0</ele>
        <time>2020-07-13T05:47:39Z</time>
      </trkpt>
      <trkpt lat="47.973493" lon="7.586011">
        <ele>246.0</ele>
        <time>2020-07-13T05:47:41Z</time>
      </trkpt>
      <trkpt lat="47.973447" lon="7.585922">
        <ele>246.0</ele>
        <time>2020-07-13T05:47:43Z</time>
      </trkpt>
      <trkpt lat="47.973438" lon="7.585833">
        <ele>246.0</ele>
        <time>2020-07-13T05:47:45Z</time>
      </trkpt>
      <trkpt lat="47.973463" lon="7.58576">
        <ele>246.0</ele>
        <time>2020-07-13T05:47:47Z</time>
      </trkpt>
      <trkpt lat="47.973497" lon="7.585676">
        <ele>246.0</ele>
        <time>2020-07-13T05:47:49Z</time>
      </trkpt>
      <trkpt lat="47.973538" lon="7.585456">
        <ele>246.0</ele>
        <time>2020-07-13T05:47:52Z</time>
      </trkpt>
      <trkpt lat="47.973589" lon="7.585309">
        <ele>245.0</ele>
        <time>2020-07-13T05:47:54Z</time>
      </trkpt>
      <trkpt lat="47.973606" lon="7.585246">
        <ele>245.0</ele>
        <time>2020-07-13T05:47:55Z</time>
      </trkpt>
      <trkpt lat="47.973679" lon="7.585029">
        <ele>245.0</ele>
        <time>2020-07-13T05:47:58Z</time>
      </trkpt>
      <trkpt lat="47.973751" lon="7.58482">
        <ele>246.0</ele>
        <time>2020-07-13T05:48:01Z</time>
      </trkpt>
      <trkpt lat="47.973797" lon="7.584677">
        <ele>246.0</ele>
        <time>2020-07-13T05:48:03Z</time>
      </trkpt>
      <trkpt lat="47.973834" lon="7.584525">
        <ele>246.0</ele>
        <time>2020-07-13T05:48:05Z</time>
      </trkpt>
      <trkpt lat="47.973855" lon="7.584375">
        <ele>246.0</ele>
        <time>2020-07-13T05:48:07Z</time>
      </trkpt>
      <trkpt lat="47.973861" lon="7.584225">
        <ele>245.0</ele>
        <time>2020-07-13T05:48:09Z</time>
      </trkpt>
      <trkpt lat="47.973853" lon="7.583993">
        <ele>246.0</ele>
        <time>2020-07-13T05:48:12Z</time>
      </trkpt>
      <trkpt lat="47.973826" lon="7.583836">
        <ele>246.0</ele>
        <time>2020-07-13T05:48:14Z</time>
      </trkpt>
      <trkpt lat="47.973807" lon="7.58367">
        <ele>246.0</ele>
        <time>2020-07-13T05:48:16Z</time>
      </trkpt>
      <trkpt lat="47.973785" lon="7.583502">
        <ele>246.0</ele>
        <time>2020-07-13T05:48:18Z</time>
      </trkpt>
      <trkpt lat="47.973765" lon="7.583348">
        <ele>246.0</ele>
        <time>2020-07-13T05:48:20Z</time>
      </trkpt>
      <trkpt lat="47.973744" lon="7.58319">
        <ele>246.0</ele>
        <time>2020-07-13T05:48:22Z</time>
      </trkpt>
      <trkpt lat="47.973717" lon="7.583036">
        <ele>246.0</ele>
        <time>2020-07-13T05:48:24Z</time>
      </trkpt>
      <trkpt lat="47.973701" lon="7.582901">
        <ele>246.0</ele>
        <time>2020-07-13T05:48:26Z</time>
      </trkpt>
      <trkpt lat="47.973673" lon="7.582761">
        <ele>246.0</ele>
        <time>2020-07-13T05:48:28Z</time>
      </trkpt>
      <trkpt lat="47.973631" lon="7.582528">
        <ele>247.0</ele>
        <time>2020-07-13T05:48:31Z</time>
      </trkpt>
      <trkpt lat="47.9736" lon="7.582374">
        <ele>247.0</ele>
        <time>2020-07-13T05:48:33Z</time>
      </trkpt>
      <trkpt lat="47.973574" lon="7.582218">
        <ele>247.0</ele>
        <time>2020-07-13T05:48:35Z</time>
      </trkpt>
      <trkpt lat="47.973551" lon="7.582064">
        <ele>247.0</ele>
        <time>2020-07-13T05:48:37Z</time>
      </trkpt>
      <trkpt lat="47.973528" lon="7.581905">
        <ele>247.0</ele>
        <time>2020-07-13T05:48:39Z</time>
      </trkpt>
      <trkpt lat="47.973492" lon="7.58167">
        <ele>247.0</ele>
        <time>2020-07-13T05:48:42Z</time>
      </trkpt>
      <trkpt lat="47.97347" lon="7.581516">
        <ele>247.0</ele>
        <time>2020-07-13T05:48:44Z</time>
      </trkpt>
      <trkpt lat="47.973439" lon="7.581362">
        <ele>246.0</ele>
        <time>2020-07-13T05:48:46Z</time>
      </trkpt>
      <trkpt lat="47.973414" lon="7.581217">
        <ele>246.0</ele>
        <time>2020-07-13T05:48:48Z</time>
      </trkpt>
      <trkpt lat="47.973388" lon="7.581055">
        <ele>246.0</ele>
        <time>2020-07-13T05:48:50Z</time>
      </trkpt>
      <trkpt lat="47.973361" lon="7.580898">
        <ele>246.0</ele>
        <time>2020-07-13T05:48:52Z</time>
      </trkpt>
      <trkpt lat="47.973335" lon="7.580741">
        <ele>247.0</ele>
        <time>2020-07-13T05:48:54Z</time>
      </trkpt>
      <trkpt lat="47.973307" lon="7.580587">
        <ele>247.0</ele>
        <time>2020-07-13T05:48:56Z</time>
      </trkpt>
      <trkpt lat="47.973278" lon="7.580438">
        <ele>247.0</ele>
        <time>2020-07-13T05:48:58Z</time>
      </trkpt>
      <trkpt lat="47.973253" lon="7.580277">
        <ele>247.0</ele>
        <time>2020-07-13T05:49:00Z</time>
      </trkpt>
      <trkpt lat="47.97323" lon="7.58011">
        <ele>247.0</ele>
        <time>2020-07-13T05:49:02Z</time>
      </trkpt>
      <trkpt lat="47.973209" lon="7.579945">
        <ele>246.0</ele>
        <time>2020-07-13T05:49:04Z</time>
      </trkpt>
      <trkpt lat="47.973181" lon="7.57978">
        <ele>247.0</ele>
        <time>2020-07-13T05:49:06Z</time>
      </trkpt>
      <trkpt lat="47.973154" lon="7.579623">
        <ele>247.0</ele>
        <time>2020-07-13T05:49:08Z</time>
      </trkpt>
      <trkpt lat="47.973125" lon="7.579459">
        <ele>246.0</ele>
        <time>2020-07-13T05:49:10Z</time>
      </trkpt>
      <trkpt lat="47.973099" lon="7.579299">
        <ele>246.0</ele>
        <time>2020-07-13T05:49:12Z</time>
      </trkpt>
      <trkpt lat="47.973074" lon="7.579142">
        <ele>246.0</ele>
        <time>2020-07-13T05:49:14Z</time>
      </trkpt>
      <trkpt lat="47.973044" lon="7.57899">
        <ele>246.0</ele>
        <time>2020-07-13T05:49:16Z</time>
      </trkpt>
      <trkpt lat="47.973018" lon="7.578836">
        <ele>246.0</ele>
        <time>2020-07-13T05:49:18Z</time>
      </trkpt>
      <trkpt lat="47.972998" lon="7.578682">
        <ele>246.0</ele>
        <time>2020-07-13T05:49:20Z</time>
      </trkpt>
      <trkpt lat="47.972978" lon="7.578529">
        <ele>246.0</ele>
        <time>2020-07-13T05:49:22Z</time>
      </trkpt>
      <trkpt lat="47.972944" lon="7.578299">
        <ele>246.0</ele>
        <time>2020-07-13T05:49:25Z</time>
      </trkpt>
      <trkpt lat="47.972922" lon="7.578148">
        <ele>246.0</ele>
        <time>2020-07-13T05:49:27Z</time>
      </trkpt>
      <trkpt lat="47.972898" lon="7.577998">
        <ele>245.0</ele>
        <time>2020-07-13T05:49:29Z</time>
      </trkpt>
      <trkpt lat="47.972875" lon="7.57784">
        <ele>245.0</ele>
        <time>2020-07-13T05:49:31Z</time>
      </trkpt>
      <trkpt lat="47.972849" lon="7.577677">
        <ele>245.0</ele>
        <time>2020-07-13T05:49:33Z</time>
      </trkpt>
      <trkpt lat="47.972821" lon="7.577528">
        <ele>245.0</ele>
        <time>2020-07-13T05:49:35Z</time>
      </trkpt>
      <trkpt lat="47.972798" lon="7.577381">
        <ele>245.0</ele>
        <time>2020-07-13T05:49:37Z</time>
      </trkpt>
      <trkpt lat="47.972759" lon="7.577157">
        <ele>245.0</ele>
        <time>2020-07-13T05:49:40Z</time>
      </trkpt>
      <trkpt lat="47.972721" lon="7.577013">
        <ele>245.0</ele>
        <time>2020-07-13T05:49:42Z</time>
      </trkpt>
      <trkpt lat="47.972671" lon="7.57688">
        <ele>246.0</ele>
        <time>2020-07-13T05:49:44Z</time>
      </trkpt>
      <trkpt lat="47.97262" lon="7.57676">
        <ele>246.0</ele>
        <time>2020-07-13T05:49:46Z</time>
      </trkpt>
      <trkpt lat="47.972569" lon="7.576647">
        <ele>246.0</ele>
        <time>2020-07-13T05:49:48Z</time>
      </trkpt>
      <trkpt lat="47.972527" lon="7.576553">
        <ele>247.0</ele>
        <time>2020-07-13T05:49:50Z</time>
      </trkpt>
      <trkpt lat="47.972503" lon="7.5765">
        <ele>247.0</ele>
        <time>2020-07-13T05:49:52Z</time>
      </trkpt>
      <trkpt lat="47.972497" lon="7.576497">
        <ele>247.0</ele>
        <time>2020-07-13T05:49:54Z</time>
      </trkpt>
      <trkpt lat="47.972499" lon="7.576496">
        <ele>247.0</ele>
        <time>2020-07-13T05:49:56Z</time>
      </trkpt>
      <trkpt lat="47.972499" lon="7.576496">
        <ele>247.0</ele>
        <time>2020-07-13T05:49:58Z</time>
      </trkpt>
      <trkpt lat="47.972499" lon="7.576496">
        <ele>247.0</ele>
        <time>2020-07-13T05:50:00Z</time>
      </trkpt>
      <trkpt lat="47.972499" lon="7.576496">
        <ele>247.0</ele>
        <time>2020-07-13T05:50:07Z</time>
      </trkpt>
      <trkpt lat="47.972499" lon="7.576496">
        <ele>247.0</ele>
        <time>2020-07-13T05:50:09Z</time>
      </trkpt>
      <trkpt lat="47.972499" lon="7.576496">
        <ele>247.0</ele>
        <time>2020-07-13T05:50:11Z</time>
      </trkpt>
      <trkpt lat="47.972499" lon="7.576496">
        <ele>247.0</ele>
        <time>2020-07-13T05:50:13Z</time>
      </trkpt>
      <trkpt lat="47.972499" lon="7.576496">
        <ele>247.0</ele>
        <time>2020-07-13T05:50:15Z</time>
      </trkpt>
      <trkpt lat="47.972499" lon="7.576496">
        <ele>247.0</ele>
        <time>2020-07-13T05:50:17Z</time>
      </trkpt>
      <trkpt lat="47.972499" lon="7.576496">
        <ele>247.0</ele>
        <time>2020-07-13T05:50:19Z</time>
      </trkpt>
      <trkpt lat="47.972499" lon="7.576496">
        <ele>247.0</ele>
        <time>2020-07-13T05:50:21Z</time>
      </trkpt>
      <trkpt lat="47.972499" lon="7.576496">
        <ele>247.0</ele>
        <time>2020-07-13T05:50:23Z</time>
      </trkpt>
      <trkpt lat="47.972499" lon="7.576496">
        <ele>247.0</ele>
        <time>2020-07-13T05:50:25Z</time>
      </trkpt>
      <trkpt lat="47.972495" lon="7.576489">
        <ele>247.0</ele>
        <time>2020-07-13T05:50:27Z</time>
      </trkpt>
      <trkpt lat="47.972486" lon="7.576468">
        <ele>247.0</ele>
        <time>2020-07-13T05:50:29Z</time>
      </trkpt>
      <trkpt lat="47.972465" lon="7.576443">
        <ele>247.0</ele>
        <time>2020-07-13T05:50:31Z</time>
      </trkpt>
      <trkpt lat="47.972453" lon="7.57639">
        <ele>247.0</ele>
        <time>2020-07-13T05:50:33Z</time>
      </trkpt>
      <trkpt lat="47.972443" lon="7.576344">
        <ele>247.0</ele>
        <time>2020-07-13T05:50:35Z</time>
      </trkpt>
      <trkpt lat="47.972423" lon="7.576312">
        <ele>247.0</ele>
        <time>2020-07-13T05:50:37Z</time>
      </trkpt>
      <trkpt lat="47.972436" lon="7.576292">
        <ele>247.0</ele>
        <time>2020-07-13T05:50:39Z</time>
      </trkpt>
      <trkpt lat="47.972463" lon="7.576347">
        <ele>247.0</ele>
        <time>2020-07-13T05:50:41Z</time>
      </trkpt>
      <trkpt lat="47.972475" lon="7.576411">
        <ele>247.0</ele>
        <time>2020-07-13T05:50:43Z</time>
      </trkpt>
      <trkpt lat="47.972492" lon="7.576481">
        <ele>247.0</ele>
        <time>2020-07-13T05:50:45Z</time>
      </trkpt>
      <trkpt lat="47.972522" lon="7.57656">
        <ele>247.0</ele>
        <time>2020-07-13T05:50:47Z</time>
      </trkpt>
      <trkpt lat="47.972539" lon="7.576605">
        <ele>247.0</ele>
        <time>2020-07-13T05:50:48Z</time>
      </trkpt>
      <trkpt lat="47.972605" lon="7.576754">
        <ele>246.0</ele>
        <time>2020-07-13T05:50:51Z</time>
      </trkpt>
      <trkpt lat="47.97265" lon="7.576844">
        <ele>246.0</ele>
        <time>2020-07-13T05:50:53Z</time>
      </trkpt>
      <trkpt lat="47.972692" lon="7.576947">
        <ele>246.0</ele>
        <time>2020-07-13T05:50:55Z</time>
      </trkpt>
      <trkpt lat="47.972729" lon="7.577062">
        <ele>246.0</ele>
        <time>2020-07-13T05:50:57Z</time>
      </trkpt>
      <trkpt lat="47.972753" lon="7.577185">
        <ele>246.0</ele>
        <time>2020-07-13T05:50:59Z</time>
      </trkpt>
      <trkpt lat="47.972784" lon="7.577385">
        <ele>246.0</ele>
        <time>2020-07-13T05:51:02Z</time>
      </trkpt>
      <trkpt lat="47.972802" lon="7.577511">
        <ele>246.0</ele>
        <time>2020-07-13T05:51:04Z</time>
      </trkpt>
      <trkpt lat="47.97282" lon="7.577634">
        <ele>247.0</ele>
        <time>2020-07-13T05:51:06Z</time>
      </trkpt>
      <trkpt lat="47.972838" lon="7.577759">
        <ele>247.0</ele>
        <time>2020-07-13T05:51:08Z</time>
      </trkpt>
      <trkpt lat="47.972858" lon="7.577875">
        <ele>247.0</ele>
        <time>2020-07-13T05:51:10Z</time>
      </trkpt>
      <trkpt lat="47.972875" lon="7.577978">
        <ele>247.0</ele>
        <time>2020-07-13T05:51:12Z</time>
      </trkpt>
      <trkpt lat="47.97289" lon="7.578053">
        <ele>247.0</ele>
        <time>2020-07-13T05:51:14Z</time>
      </trkpt>
      <trkpt lat="47.972888" lon="7.578079">
        <ele>247.0</ele>
        <time>2020-07-13T05:51:16Z</time>
      </trkpt>
      <trkpt lat="47.972885" lon="7.578074">
        <ele>247.0</ele>
        <time>2020-07-13T05:51:18Z</time>
      </trkpt>
      <trkpt lat="47.972885" lon="7.578074">
        <ele>247.0</ele>
        <time>2020-07-13T05:51:20Z</time>
      </trkpt>
      <trkpt lat="47.972885" lon="7.578074">
        <ele>247.0</ele>
        <time>2020-07-13T05:51:23Z</time>
      </trkpt>
      <trkpt lat="47.972885" lon="7.578074">
        <ele>247.0</ele>
        <time>2020-07-13T05:52:15Z</time>
      </trkpt>
      <trkpt lat="47.972885" lon="7.578074">
        <ele>247.0</ele>
        <time>2020-07-13T05:52:17Z</time>
      </trkpt>
      <trkpt lat="47.972885" lon="7.578074">
        <ele>247.0</ele>
        <time>2020-07-13T05:52:20Z</time>
      </trkpt>
      <trkpt lat="47.972885" lon="7.578074">
        <ele>247.0</ele>
        <time>2020-07-13T05:52:22Z</time>
      </trkpt>
      <trkpt lat="47.972885" lon="7.578074">
        <ele>247.0</ele>
        <time>2020-07-13T05:52:24Z</time>
      </trkpt>
      <trkpt lat="47.972885" lon="7.578074">
        <ele>247.0</ele>
        <time>2020-07-13T05:52:27Z</time>
      </trkpt>
      <trkpt lat="47.972885" lon="7.578074">
        <ele>247.0</ele>
        <time>2020-07-13T05:52:29Z</time>
      </trkpt>
      <trkpt lat="47.972885" lon="7.578074">
        <ele>247.0</ele>
        <time>2020-07-13T05:52:32Z</time>
      </trkpt>
      <trkpt lat="47.972885" lon="7.578074">
        <ele>247.0</ele>
        <time>2020-07-13T05:52:34Z</time>
      </trkpt>
      <trkpt lat="47.972875" lon="7.578074">
        <ele>247.0</ele>
        <time>2020-07-13T05:52:37Z</time>
      </trkpt>
      <trkpt lat="47.972843" lon="7.578087">
        <ele>248.0</ele>
        <time>2020-07-13T05:52:39Z</time>
      </trkpt>
      <trkpt lat="47.972781" lon="7.578095">
        <ele>249.0</ele>
        <time>2020-07-13T05:52:41Z</time>
      </trkpt>
      <trkpt lat="47.972708" lon="7.578076">
        <ele>248.0</ele>
        <time>2020-07-13T05:52:43Z</time>
      </trkpt>
      <trkpt lat="47.972634" lon="7.578076">
        <ele>247.0</ele>
        <time>2020-07-13T05:52:45Z</time>
      </trkpt>
      <trkpt lat="47.972565" lon="7.578071">
        <ele>247.0</ele>
        <time>2020-07-13T05:52:47Z</time>
      </trkpt>
      <trkpt lat="47.972498" lon="7.57807">
        <ele>248.0</ele>
        <time>2020-07-13T05:52:49Z</time>
      </trkpt>
      <trkpt lat="47.97243" lon="7.57806">
        <ele>248.0</ele>
        <time>2020-07-13T05:52:51Z</time>
      </trkpt>
      <trkpt lat="47.972361" lon="7.578058">
        <ele>248.0</ele>
        <time>2020-07-13T05:52:53Z</time>
      </trkpt>
      <trkpt lat="47.972301" lon="7.578072">
        <ele>249.0</ele>
        <time>2020-07-13T05:52:55Z</time>
      </trkpt>
      <trkpt lat="47.972241" lon="7.578071">
        <ele>249.0</ele>
        <time>2020-07-13T05:52:57Z</time>
      </trkpt>
      <trkpt lat="47.97218" lon="7.578065">
        <ele>249.0</ele>
        <time>2020-07-13T05:52:59Z</time>
      </trkpt>
      <trkpt lat="47.972112" lon="7.578052">
        <ele>249.0</ele>
        <time>2020-07-13T05:53:01Z</time>
      </trkpt>
      <trkpt lat="47.97204" lon="7.578045">
        <ele>249.0</ele>
        <time>2020-07-13T05:53:03Z</time>
      </trkpt>
      <trkpt lat="47.972004" lon="7.578045">
        <ele>249.0</ele>
        <time>2020-07-13T05:53:04Z</time>
      </trkpt>
      <trkpt lat="47.971899" lon="7.57804">
        <ele>249.0</ele>
        <time>2020-07-13T05:53:07Z</time>
      </trkpt>
      <trkpt lat="47.971797" lon="7.578024">
        <ele>249.0</ele>
        <time>2020-07-13T05:53:10Z</time>
      </trkpt>
      <trkpt lat="47.971714" lon="7.578015">
        <ele>249.0</ele>
        <time>2020-07-13T05:53:12Z</time>
      </trkpt>
      <trkpt lat="47.971633" lon="7.578015">
        <ele>249.0</ele>
        <time>2020-07-13T05:53:14Z</time>
      </trkpt>
      <trkpt lat="47.971545" lon="7.578009">
        <ele>248.0</ele>
        <time>2020-07-13T05:53:16Z</time>
      </trkpt>
      <trkpt lat="47.971458" lon="7.578004">
        <ele>247.0</ele>
        <time>2020-07-13T05:53:18Z</time>
      </trkpt>
      <trkpt lat="47.971384" lon="7.578">
        <ele>247.0</ele>
        <time>2020-07-13T05:53:20Z</time>
      </trkpt>
      <trkpt lat="47.971311" lon="7.577999">
        <ele>248.0</ele>
        <time>2020-07-13T05:53:22Z</time>
      </trkpt>
      <trkpt lat="47.971242" lon="7.577996">
        <ele>249.0</ele>
        <time>2020-07-13T05:53:24Z</time>
      </trkpt>
      <trkpt lat="47.971122" lon="7.577979">
        <ele>249.0</ele>
        <time>2020-07-13T05:53:27Z</time>
      </trkpt>
      <trkpt lat="47.971044" lon="7.577971">
        <ele>249.0</ele>
        <time>2020-07-13T05:53:29Z</time>
      </trkpt>
      <trkpt lat="47.971007" lon="7.577975">
        <ele>249.0</ele>
        <time>2020-07-13T05:53:30Z</time>
      </trkpt>
      <trkpt lat="47.970888" lon="7.57797">
        <ele>249.0</ele>
        <time>2020-07-13T05:53:33Z</time>
      </trkpt>
      <trkpt lat="47.970766" lon="7.577949">
        <ele>248.0</ele>
        <time>2020-07-13T05:53:36Z</time>
      </trkpt>
      <trkpt lat="47.97068" lon="7.577938">
        <ele>249.0</ele>
        <time>2020-07-13T05:53:38Z</time>
      </trkpt>
      <trkpt lat="47.970591" lon="7.57793">
        <ele>249.0</ele>
        <time>2020-07-13T05:53:40Z</time>
      </trkpt>
      <trkpt lat="47.970515" lon="7.577927">
        <ele>249.0</ele>
        <time>2020-07-13T05:53:42Z</time>
      </trkpt>
      <trkpt lat="47.970456" lon="7.577929">
        <ele>249.0</ele>
        <time>2020-07-13T05:53:44Z</time>
      </trkpt>
      <trkpt lat="47.9704" lon="7.577928">
        <ele>250.0</ele>
        <time>2020-07-13T05:53:46Z</time>
      </trkpt>
      <trkpt lat="47.970341" lon="7.577922">
        <ele>250.0</ele>
        <time>2020-07-13T05:53:48Z</time>
      </trkpt>
      <trkpt lat="47.970275" lon="7.577914">
        <ele>250.0</ele>
        <time>2020-07-13T05:53:50Z</time>
      </trkpt>
      <trkpt lat="47.970205" lon="7.577909">
        <ele>250.0</ele>
        <time>2020-07-13T05:53:52Z</time>
      </trkpt>
      <trkpt lat="47.970133" lon="7.577904">
        <ele>249.0</ele>
        <time>2020-07-13T05:53:54Z</time>
      </trkpt>
      <trkpt lat="47.970056" lon="7.57789">
        <ele>249.0</ele>
        <time>2020-07-13T05:53:56Z</time>
      </trkpt>
      <trkpt lat="47.969977" lon="7.577879">
        <ele>250.0</ele>
        <time>2020-07-13T05:53:58Z</time>
      </trkpt>
      <trkpt lat="47.969896" lon="7.577863">
        <ele>250.0</ele>
        <time>2020-07-13T05:54:00Z</time>
      </trkpt>
      <trkpt lat="47.969813" lon="7.577863">
        <ele>250.0</ele>
        <time>2020-07-13T05:54:02Z</time>
      </trkpt>
      <trkpt lat="47.969726" lon="7.577852">
        <ele>250.0</ele>
        <time>2020-07-13T05:54:04Z</time>
      </trkpt>
      <trkpt lat="47.969642" lon="7.577848">
        <ele>250.0</ele>
        <time>2020-07-13T05:54:06Z</time>
      </trkpt>
      <trkpt lat="47.969564" lon="7.577836">
        <ele>250.0</ele>
        <time>2020-07-13T05:54:08Z</time>
      </trkpt>
      <trkpt lat="47.969479" lon="7.577831">
        <ele>250.0</ele>
        <time>2020-07-13T05:54:10Z</time>
      </trkpt>
      <trkpt lat="47.969401" lon="7.577858">
        <ele>250.0</ele>
        <time>2020-07-13T05:54:12Z</time>
      </trkpt>
      <trkpt lat="47.969359" lon="7.577936">
        <ele>250.0</ele>
        <time>2020-07-13T05:54:14Z</time>
      </trkpt>
      <trkpt lat="47.969331" lon="7.578023">
        <ele>251.0</ele>
        <time>2020-07-13T05:54:16Z</time>
      </trkpt>
      <trkpt lat="47.969331" lon="7.578134">
        <ele>251.0</ele>
        <time>2020-07-13T05:54:18Z</time>
      </trkpt>
      <trkpt lat="47.969341" lon="7.578244">
        <ele>251.0</ele>
        <time>2020-07-13T05:54:20Z</time>
      </trkpt>
      <trkpt lat="47.969344" lon="7.578352">
        <ele>251.0</ele>
        <time>2020-07-13T05:54:22Z</time>
      </trkpt>
      <trkpt lat="47.969354" lon="7.578461">
        <ele>251.0</ele>
        <time>2020-07-13T05:54:24Z</time>
      </trkpt>
      <trkpt lat="47.969344" lon="7.57856">
        <ele>250.0</ele>
        <time>2020-07-13T05:54:26Z</time>
      </trkpt>
      <trkpt lat="47.969283" lon="7.578632">
        <ele>250.0</ele>
        <time>2020-07-13T05:54:28Z</time>
      </trkpt>
      <trkpt lat="47.969216" lon="7.57869">
        <ele>250.0</ele>
        <time>2020-07-13T05:54:30Z</time>
      </trkpt>
      <trkpt lat="47.96915" lon="7.578735">
        <ele>250.0</ele>
        <time>2020-07-13T05:54:32Z</time>
      </trkpt>
      <trkpt lat="47.969069" lon="7.578777">
        <ele>250.0</ele>
        <time>2020-07-13T05:54:34Z</time>
      </trkpt>
      <trkpt lat="47.968994" lon="7.578825">
        <ele>250.0</ele>
        <time>2020-07-13T05:54:36Z</time>
      </trkpt>
      <trkpt lat="47.968917" lon="7.578871">
        <ele>250.0</ele>
        <time>2020-07-13T05:54:38Z</time>
      </trkpt>
      <trkpt lat="47.968842" lon="7.578918">
        <ele>250.0</ele>
        <time>2020-07-13T05:54:40Z</time>
      </trkpt>
      <trkpt lat="47.968757" lon="7.578965">
        <ele>250.0</ele>
        <time>2020-07-13T05:54:42Z</time>
      </trkpt>
      <trkpt lat="47.968671" lon="7.579003">
        <ele>250.0</ele>
        <time>2020-07-13T05:54:44Z</time>
      </trkpt>
      <trkpt lat="47.968587" lon="7.57906">
        <ele>250.0</ele>
        <time>2020-07-13T05:54:46Z</time>
      </trkpt>
      <trkpt lat="47.968503" lon="7.579115">
        <ele>250.0</ele>
        <time>2020-07-13T05:54:48Z</time>
      </trkpt>
      <trkpt lat="47.968428" lon="7.579165">
        <ele>250.0</ele>
        <time>2020-07-13T05:54:50Z</time>
      </trkpt>
      <trkpt lat="47.968355" lon="7.579211">
        <ele>250.0</ele>
        <time>2020-07-13T05:54:52Z</time>
      </trkpt>
      <trkpt lat="47.968292" lon="7.579252">
        <ele>250.0</ele>
        <time>2020-07-13T05:54:54Z</time>
      </trkpt>
      <trkpt lat="47.968234" lon="7.579293">
        <ele>251.0</ele>
        <time>2020-07-13T05:54:56Z</time>
      </trkpt>
      <trkpt lat="47.968139" lon="7.579359">
        <ele>252.0</ele>
        <time>2020-07-13T05:54:59Z</time>
      </trkpt>
      <trkpt lat="47.968068" lon="7.579402">
        <ele>252.0</ele>
        <time>2020-07-13T05:55:01Z</time>
      </trkpt>
      <trkpt lat="47.96803" lon="7.579429">
        <ele>252.0</ele>
        <time>2020-07-13T05:55:02Z</time>
      </trkpt>
      <trkpt lat="47.967916" lon="7.579496">
        <ele>252.0</ele>
        <time>2020-07-13T05:55:05Z</time>
      </trkpt>
      <trkpt lat="47.967842" lon="7.579542">
        <ele>251.0</ele>
        <time>2020-07-13T05:55:07Z</time>
      </trkpt>
      <trkpt lat="47.967771" lon="7.57959">
        <ele>251.0</ele>
        <time>2020-07-13T05:55:09Z</time>
      </trkpt>
      <trkpt lat="47.967706" lon="7.579644">
        <ele>251.0</ele>
        <time>2020-07-13T05:55:11Z</time>
      </trkpt>
      <trkpt lat="47.967639" lon="7.579691">
        <ele>251.0</ele>
        <time>2020-07-13T05:55:13Z</time>
      </trkpt>
      <trkpt lat="47.967571" lon="7.579744">
        <ele>250.0</ele>
        <time>2020-07-13T05:55:15Z</time>
      </trkpt>
      <trkpt lat="47.967504" lon="7.579786">
        <ele>251.0</ele>
        <time>2020-07-13T05:55:17Z</time>
      </trkpt>
      <trkpt lat="47.96744" lon="7.579828">
        <ele>251.0</ele>
        <time>2020-07-13T05:55:19Z</time>
      </trkpt>
      <trkpt lat="47.967374" lon="7.579859">
        <ele>251.0</ele>
        <time>2020-07-13T05:55:21Z</time>
      </trkpt>
      <trkpt lat="47.967302" lon="7.579889">
        <ele>251.0</ele>
        <time>2020-07-13T05:55:23Z</time>
      </trkpt>
      <trkpt lat="47.967239" lon="7.579931">
        <ele>252.0</ele>
        <time>2020-07-13T05:55:25Z</time>
      </trkpt>
      <trkpt lat="47.967171" lon="7.579963">
        <ele>252.0</ele>
        <time>2020-07-13T05:55:27Z</time>
      </trkpt>
      <trkpt lat="47.967098" lon="7.580008">
        <ele>253.0</ele>
        <time>2020-07-13T05:55:29Z</time>
      </trkpt>
      <trkpt lat="47.967027" lon="7.580058">
        <ele>253.0</ele>
        <time>2020-07-13T05:55:31Z</time>
      </trkpt>
      <trkpt lat="47.966958" lon="7.5801">
        <ele>253.0</ele>
        <time>2020-07-13T05:55:33Z</time>
      </trkpt>
      <trkpt lat="47.966887" lon="7.58015">
        <ele>252.0</ele>
        <time>2020-07-13T05:55:35Z</time>
      </trkpt>
      <trkpt lat="47.96681" lon="7.580202">
        <ele>252.0</ele>
        <time>2020-07-13T05:55:37Z</time>
      </trkpt>
      <trkpt lat="47.966734" lon="7.58025">
        <ele>252.0</ele>
        <time>2020-07-13T05:55:39Z</time>
      </trkpt>
      <trkpt lat="47.966658" lon="7.580301">
        <ele>252.0</ele>
        <time>2020-07-13T05:55:41Z</time>
      </trkpt>
      <trkpt lat="47.966549" lon="7.580363">
        <ele>252.0</ele>
        <time>2020-07-13T05:55:44Z</time>
      </trkpt>
      <trkpt lat="47.966476" lon="7.580406">
        <ele>252.0</ele>
        <time>2020-07-13T05:55:46Z</time>
      </trkpt>
      <trkpt lat="47.966381" lon="7.580475">
        <ele>252.0</ele>
        <time>2020-07-13T05:55:49Z</time>
      </trkpt>
      <trkpt lat="47.966346" lon="7.580495">
        <ele>252.0</ele>
        <time>2020-07-13T05:55:50Z</time>
      </trkpt>
      <trkpt lat="47.966247" lon="7.580571">
        <ele>252.0</ele>
        <time>2020-07-13T05:55:53Z</time>
      </trkpt>
      <trkpt lat="47.966182" lon="7.580616">
        <ele>253.0</ele>
        <time>2020-07-13T05:55:55Z</time>
      </trkpt>
      <trkpt lat="47.966113" lon="7.580656">
        <ele>253.0</ele>
        <time>2020-07-13T05:55:57Z</time>
      </trkpt>
      <trkpt lat="47.966048" lon="7.580675">
        <ele>253.0</ele>
        <time>2020-07-13T05:55:59Z</time>
      </trkpt>
      <trkpt lat="47.965994" lon="7.58065">
        <ele>253.0</ele>
        <time>2020-07-13T05:56:01Z</time>
      </trkpt>
      <trkpt lat="47.965972" lon="7.580593">
        <ele>252.0</ele>
        <time>2020-07-13T05:56:03Z</time>
      </trkpt>
      <trkpt lat="47.965968" lon="7.580528">
        <ele>251.0</ele>
        <time>2020-07-13T05:56:05Z</time>
      </trkpt>
      <trkpt lat="47.965953" lon="7.580456">
        <ele>251.0</ele>
        <time>2020-07-13T05:56:07Z</time>
      </trkpt>
      <trkpt lat="47.965918" lon="7.58041">
        <ele>251.0</ele>
        <time>2020-07-13T05:56:09Z</time>
      </trkpt>
      <trkpt lat="47.965856" lon="7.580406">
        <ele>252.0</ele>
        <time>2020-07-13T05:56:11Z</time>
      </trkpt>
      <trkpt lat="47.965788" lon="7.580413">
        <ele>252.0</ele>
        <time>2020-07-13T05:56:13Z</time>
      </trkpt>
      <trkpt lat="47.965718" lon="7.580413">
        <ele>252.0</ele>
        <time>2020-07-13T05:56:15Z</time>
      </trkpt>
      <trkpt lat="47.965613" lon="7.580432">
        <ele>252.0</ele>
        <time>2020-07-13T05:56:18Z</time>
      </trkpt>
      <trkpt lat="47.965539" lon="7.580442">
        <ele>252.0</ele>
        <time>2020-07-13T05:56:20Z</time>
      </trkpt>
      <trkpt lat="47.965461" lon="7.580454">
        <ele>251.0</ele>
        <time>2020-07-13T05:56:22Z</time>
      </trkpt>
      <trkpt lat="47.96539" lon="7.580466">
        <ele>251.0</ele>
        <time>2020-07-13T05:56:24Z</time>
      </trkpt>
      <trkpt lat="47.965319" lon="7.580479">
        <ele>251.0</ele>
        <time>2020-07-13T05:56:26Z</time>
      </trkpt>
      <trkpt lat="47.965251" lon="7.580493">
        <ele>251.0</ele>
        <time>2020-07-13T05:56:28Z</time>
      </trkpt>
      <trkpt lat="47.96518" lon="7.580507">
        <ele>251.0</ele>
        <time>2020-07-13T05:56:30Z</time>
      </trkpt>
      <trkpt lat="47.965108" lon="7.580516">
        <ele>251.0</ele>
        <time>2020-07-13T05:56:32Z</time>
      </trkpt>
      <trkpt lat="47.965035" lon="7.58053">
        <ele>251.0</ele>
        <time>2020-07-13T05:56:34Z</time>
      </trkpt>
      <trkpt lat="47.964968" lon="7.580543">
        <ele>250.0</ele>
        <time>2020-07-13T05:56:36Z</time>
      </trkpt>
      <trkpt lat="47.964911" lon="7.580562">
        <ele>250.0</ele>
        <time>2020-07-13T05:56:38Z</time>
      </trkpt>
      <trkpt lat="47.964847" lon="7.580577">
        <ele>250.0</ele>
        <time>2020-07-13T05:56:40Z</time>
      </trkpt>
      <trkpt lat="47.964779" lon="7.580589">
        <ele>250.0</ele>
        <time>2020-07-13T05:56:42Z</time>
      </trkpt>
      <trkpt lat="47.964709" lon="7.580603">
        <ele>250.0</ele>
        <time>2020-07-13T05:56:44Z</time>
      </trkpt>
      <trkpt lat="47.964641" lon="7.580623">
        <ele>250.0</ele>
        <time>2020-07-13T05:56:46Z</time>
      </trkpt>
      <trkpt lat="47.964566" lon="7.580632">
        <ele>251.0</ele>
        <time>2020-07-13T05:56:48Z</time>
      </trkpt>
      <trkpt lat="47.964499" lon="7.580646">
        <ele>251.0</ele>
        <time>2020-07-13T05:56:50Z</time>
      </trkpt>
      <trkpt lat="47.964457" lon="7.580657">
        <ele>251.0</ele>
        <time>2020-07-13T05:56:52Z</time>
      </trkpt>
      <trkpt lat="47.964453" lon="7.580657">
        <ele>251.0</ele>
        <time>2020-07-13T05:56:54Z</time>
      </trkpt>
      <trkpt lat="47.964458" lon="7.580653">
        <ele>252.0</ele>
        <time>2020-07-13T05:56:56Z</time>
      </trkpt>
      <trkpt lat="47.964455" lon="7.580651">
        <ele>252.0</ele>
        <time>2020-07-13T05:56:58Z</time>
      </trkpt>
      <trkpt lat="47.964465" lon="7.58066">
        <ele>251.0</ele>
        <time>2020-07-13T05:57:00Z</time>
      </trkpt>
      <trkpt lat="47.964455" lon="7.5807">
        <ele>245.0</ele>
        <time>2020-07-13T06:01:42Z</time>
      </trkpt>
      <trkpt lat="47.964455" lon="7.5807">
        <ele>245.0</ele>
        <time>2020-07-13T06:01:44Z</time>
      </trkpt>
      <trkpt lat="47.964455" lon="7.580707">
        <ele>245.0</ele>
        <time>2020-07-13T06:01:46Z</time>
      </trkpt>
      <trkpt lat="47.964456" lon="7.580711">
        <ele>245.0</ele>
        <time>2020-07-13T06:01:48Z</time>
      </trkpt>
      <trkpt lat="47.964458" lon="7.580714">
        <ele>245.0</ele>
        <time>2020-07-13T06:01:50Z</time>
      </trkpt>
      <trkpt lat="47.964458" lon="7.580714">
        <ele>245.0</ele>
        <time>2020-07-13T06:01:52Z</time>
      </trkpt>
      <trkpt lat="47.964458" lon="7.580714">
        <ele>245.0</ele>
        <time>2020-07-13T06:01:54Z</time>
      </trkpt>
      <trkpt lat="47.964458" lon="7.580714">
        <ele>245.0</ele>
        <time>2020-07-13T06:01:56Z</time>
      </trkpt>
      <trkpt lat="47.964458" lon="7.580714">
        <ele>245.0</ele>
        <time>2020-07-13T06:01:58Z</time>
      </trkpt>
      <trkpt lat="47.964458" lon="7.580714">
        <ele>245.0</ele>
        <time>2020-07-13T06:02:00Z</time>
      </trkpt>
      <trkpt lat="47.964458" lon="7.580714">
        <ele>245.0</ele>
        <time>2020-07-13T06:02:02Z</time>
      </trkpt>
      <trkpt lat="47.964448" lon="7.58073">
        <ele>245.0</ele>
        <time>2020-07-13T06:02:04Z</time>
      </trkpt>
      <trkpt lat="47.964419" lon="7.580726">
        <ele>245.0</ele>
        <time>2020-07-13T06:02:06Z</time>
      </trkpt>
      <trkpt lat="47.964381" lon="7.580735">
        <ele>245.0</ele>
        <time>2020-07-13T06:02:08Z</time>
      </trkpt>
      <trkpt lat="47.964341" lon="7.58074">
        <ele>245.0</ele>
        <time>2020-07-13T06:02:10Z</time>
      </trkpt>
      <trkpt lat="47.964275" lon="7.580732">
        <ele>246.0</ele>
        <time>2020-07-13T06:02:12Z</time>
      </trkpt>
      <trkpt lat="47.964214" lon="7.580734">
        <ele>246.0</ele>
        <time>2020-07-13T06:02:14Z</time>
      </trkpt>
      <trkpt lat="47.964149" lon="7.580745">
        <ele>247.0</ele>
        <time>2020-07-13T06:02:16Z</time>
      </trkpt>
      <trkpt lat="47.964089" lon="7.580763">
        <ele>247.0</ele>
        <time>2020-07-13T06:02:18Z</time>
      </trkpt>
      <trkpt lat="47.96404" lon="7.580778">
        <ele>247.0</ele>
        <time>2020-07-13T06:02:20Z</time>
      </trkpt>
      <trkpt lat="47.964003" lon="7.580782">
        <ele>246.0</ele>
        <time>2020-07-13T06:02:22Z</time>
      </trkpt>
      <trkpt lat="47.963962" lon="7.580796">
        <ele>247.0</ele>
        <time>2020-07-13T06:02:24Z</time>
      </trkpt>
      <trkpt lat="47.963916" lon="7.580811">
        <ele>248.0</ele>
        <time>2020-07-13T06:02:26Z</time>
      </trkpt>
      <trkpt lat="47.963864" lon="7.580826">
        <ele>248.0</ele>
        <time>2020-07-13T06:02:28Z</time>
      </trkpt>
      <trkpt lat="47.963807" lon="7.580839">
        <ele>248.0</ele>
        <time>2020-07-13T06:02:30Z</time>
      </trkpt>
      <trkpt lat="47.963754" lon="7.580861">
        <ele>248.0</ele>
        <time>2020-07-13T06:02:32Z</time>
      </trkpt>
      <trkpt lat="47.963701" lon="7.580885">
        <ele>247.0</ele>
        <time>2020-07-13T06:02:34Z</time>
      </trkpt>
      <trkpt lat="47.963643" lon="7.580908">
        <ele>247.0</ele>
        <time>2020-07-13T06:02:36Z</time>
      </trkpt>
      <trkpt lat="47.963585" lon="7.580934">
        <ele>247.0</ele>
        <time>2020-07-13T06:02:38Z</time>
      </trkpt>
      <trkpt lat="47.963522" lon="7.58097">
        <ele>246.0</ele>
        <time>2020-07-13T06:02:40Z</time>
      </trkpt>
      <trkpt lat="47.963472" lon="7.581002">
        <ele>246.0</ele>
        <time>2020-07-13T06:02:42Z</time>
      </trkpt>
      <trkpt lat="47.963401" lon="7.581059">
        <ele>247.0</ele>
        <time>2020-07-13T06:02:45Z</time>
      </trkpt>
      <trkpt lat="47.963378" lon="7.581082">
        <ele>247.0</ele>
        <time>2020-07-13T06:02:46Z</time>
      </trkpt>
      <trkpt lat="47.963316" lon="7.581166">
        <ele>247.0</ele>
        <time>2020-07-13T06:02:49Z</time>
      </trkpt>
      <trkpt lat="47.963275" lon="7.581237">
        <ele>247.0</ele>
        <time>2020-07-13T06:02:51Z</time>
      </trkpt>
      <trkpt lat="47.963252" lon="7.581268">
        <ele>247.0</ele>
        <time>2020-07-13T06:02:52Z</time>
      </trkpt>
      <trkpt lat="47.963181" lon="7.58137">
        <ele>248.0</ele>
        <time>2020-07-13T06:02:55Z</time>
      </trkpt>
      <trkpt lat="47.963133" lon="7.581447">
        <ele>248.0</ele>
        <time>2020-07-13T06:02:57Z</time>
      </trkpt>
      <trkpt lat="47.963087" lon="7.581534">
        <ele>249.0</ele>
        <time>2020-07-13T06:02:59Z</time>
      </trkpt>
      <trkpt lat="47.963037" lon="7.581619">
        <ele>248.0</ele>
        <time>2020-07-13T06:03:01Z</time>
      </trkpt>
      <trkpt lat="47.962989" lon="7.581713">
        <ele>248.0</ele>
        <time>2020-07-13T06:03:03Z</time>
      </trkpt>
      <trkpt lat="47.962942" lon="7.581807">
        <ele>247.0</ele>
        <time>2020-07-13T06:03:05Z</time>
      </trkpt>
      <trkpt lat="47.962894" lon="7.581893">
        <ele>247.0</ele>
        <time>2020-07-13T06:03:07Z</time>
      </trkpt>
      <trkpt lat="47.962845" lon="7.581975">
        <ele>247.0</ele>
        <time>2020-07-13T06:03:09Z</time>
      </trkpt>
      <trkpt lat="47.962792" lon="7.582054">
        <ele>247.0</ele>
        <time>2020-07-13T06:03:11Z</time>
      </trkpt>
      <trkpt lat="47.962739" lon="7.582134">
        <ele>247.0</ele>
        <time>2020-07-13T06:03:13Z</time>
      </trkpt>
      <trkpt lat="47.962681" lon="7.582203">
        <ele>248.0</ele>
        <time>2020-07-13T06:03:15Z</time>
      </trkpt>
      <trkpt lat="47.96262" lon="7.582263">
        <ele>248.0</ele>
        <time>2020-07-13T06:03:17Z</time>
      </trkpt>
      <trkpt lat="47.96255" lon="7.582306">
        <ele>248.0</ele>
        <time>2020-07-13T06:03:19Z</time>
      </trkpt>
      <trkpt lat="47.962484" lon="7.582345">
        <ele>248.0</ele>
        <time>2020-07-13T06:03:21Z</time>
      </trkpt>
      <trkpt lat="47.962412" lon="7.582377">
        <ele>249.0</ele>
        <time>2020-07-13T06:03:23Z</time>
      </trkpt>
      <trkpt lat="47.962343" lon="7.582404">
        <ele>249.0</ele>
        <time>2020-07-13T06:03:25Z</time>
      </trkpt>
      <trkpt lat="47.962278" lon="7.582427">
        <ele>249.0</ele>
        <time>2020-07-13T06:03:27Z</time>
      </trkpt>
      <trkpt lat="47.962212" lon="7.582447">
        <ele>248.0</ele>
        <time>2020-07-13T06:03:29Z</time>
      </trkpt>
      <trkpt lat="47.962108" lon="7.582479">
        <ele>249.0</ele>
        <time>2020-07-13T06:03:32Z</time>
      </trkpt>
      <trkpt lat="47.962075" lon="7.582494">
        <ele>249.0</ele>
        <time>2020-07-13T06:03:33Z</time>
      </trkpt>
      <trkpt lat="47.961972" lon="7.582539">
        <ele>248.0</ele>
        <time>2020-07-13T06:03:36Z</time>
      </trkpt>
      <trkpt lat="47.961907" lon="7.582569">
        <ele>248.0</ele>
        <time>2020-07-13T06:03:38Z</time>
      </trkpt>
      <trkpt lat="47.96184" lon="7.582605">
        <ele>248.0</ele>
        <time>2020-07-13T06:03:40Z</time>
      </trkpt>
      <trkpt lat="47.96178" lon="7.582651">
        <ele>248.0</ele>
        <time>2020-07-13T06:03:42Z</time>
      </trkpt>
      <trkpt lat="47.961714" lon="7.582695">
        <ele>248.0</ele>
        <time>2020-07-13T06:03:44Z</time>
      </trkpt>
      <trkpt lat="47.961647" lon="7.582737">
        <ele>248.0</ele>
        <time>2020-07-13T06:03:46Z</time>
      </trkpt>
      <trkpt lat="47.961589" lon="7.582783">
        <ele>248.0</ele>
        <time>2020-07-13T06:03:48Z</time>
      </trkpt>
      <trkpt lat="47.961531" lon="7.582826">
        <ele>248.0</ele>
        <time>2020-07-13T06:03:50Z</time>
      </trkpt>
      <trkpt lat="47.961473" lon="7.582872">
        <ele>249.0</ele>
        <time>2020-07-13T06:03:52Z</time>
      </trkpt>
      <trkpt lat="47.961413" lon="7.582915">
        <ele>248.0</ele>
        <time>2020-07-13T06:03:54Z</time>
      </trkpt>
      <trkpt lat="47.96135" lon="7.582936">
        <ele>249.0</ele>
        <time>2020-07-13T06:03:56Z</time>
      </trkpt>
      <trkpt lat="47.961294" lon="7.582965">
        <ele>249.0</ele>
        <time>2020-07-13T06:03:58Z</time>
      </trkpt>
      <trkpt lat="47.96123" lon="7.582998">
        <ele>249.0</ele>
        <time>2020-07-13T06:04:00Z</time>
      </trkpt>
      <trkpt lat="47.961167" lon="7.583033">
        <ele>249.0</ele>
        <time>2020-07-13T06:04:02Z</time>
      </trkpt>
      <trkpt lat="47.961102" lon="7.58306">
        <ele>249.0</ele>
        <time>2020-07-13T06:04:04Z</time>
      </trkpt>
      <trkpt lat="47.961035" lon="7.583079">
        <ele>248.0</ele>
        <time>2020-07-13T06:04:06Z</time>
      </trkpt>
      <trkpt lat="47.960971" lon="7.583085">
        <ele>248.0</ele>
        <time>2020-07-13T06:04:08Z</time>
      </trkpt>
      <trkpt lat="47.960867" lon="7.583081">
        <ele>247.0</ele>
        <time>2020-07-13T06:04:11Z</time>
      </trkpt>
      <trkpt lat="47.9608" lon="7.583074">
        <ele>247.0</ele>
        <time>2020-07-13T06:04:13Z</time>
      </trkpt>
      <trkpt lat="47.960731" lon="7.583069">
        <ele>247.0</ele>
        <time>2020-07-13T06:04:15Z</time>
      </trkpt>
      <trkpt lat="47.960656" lon="7.583058">
        <ele>248.0</ele>
        <time>2020-07-13T06:04:17Z</time>
      </trkpt>
      <trkpt lat="47.960554" lon="7.583052">
        <ele>248.0</ele>
        <time>2020-07-13T06:04:20Z</time>
      </trkpt>
      <trkpt lat="47.960486" lon="7.583051">
        <ele>248.0</ele>
        <time>2020-07-13T06:04:22Z</time>
      </trkpt>
      <trkpt lat="47.960421" lon="7.583041">
        <ele>249.0</ele>
        <time>2020-07-13T06:04:24Z</time>
      </trkpt>
      <trkpt lat="47.96036" lon="7.583037">
        <ele>249.0</ele>
        <time>2020-07-13T06:04:26Z</time>
      </trkpt>
      <trkpt lat="47.960303" lon="7.583028">
        <ele>249.0</ele>
        <time>2020-07-13T06:04:28Z</time>
      </trkpt>
      <trkpt lat="47.960259" lon="7.582992">
        <ele>249.0</ele>
        <time>2020-07-13T06:04:30Z</time>
      </trkpt>
      <trkpt lat="47.960243" lon="7.582921">
        <ele>248.0</ele>
        <time>2020-07-13T06:04:32Z</time>
      </trkpt>
      <trkpt lat="47.960254" lon="7.582864">
        <ele>248.0</ele>
        <time>2020-07-13T06:04:34Z</time>
      </trkpt>
      <trkpt lat="47.960263" lon="7.582801">
        <ele>248.0</ele>
        <time>2020-07-13T06:04:36Z</time>
      </trkpt>
      <trkpt lat="47.960262" lon="7.582711">
        <ele>248.0</ele>
        <time>2020-07-13T06:04:39Z</time>
      </trkpt>
      <trkpt lat="47.960236" lon="7.582672">
        <ele>249.0</ele>
        <time>2020-07-13T06:04:41Z</time>
      </trkpt>
      <trkpt lat="47.960194" lon="7.582653">
        <ele>249.0</ele>
        <time>2020-07-13T06:04:43Z</time>
      </trkpt>
      <trkpt lat="47.960146" lon="7.582639">
        <ele>250.0</ele>
        <time>2020-07-13T06:04:45Z</time>
      </trkpt>
      <trkpt lat="47.960088" lon="7.582627">
        <ele>250.0</ele>
        <time>2020-07-13T06:04:47Z</time>
      </trkpt>
      <trkpt lat="47.960056" lon="7.58262">
        <ele>250.0</ele>
        <time>2020-07-13T06:04:48Z</time>
      </trkpt>
      <trkpt lat="47.959949" lon="7.582592">
        <ele>251.0</ele>
        <time>2020-07-13T06:04:51Z</time>
      </trkpt>
      <trkpt lat="47.959881" lon="7.582571">
        <ele>252.0</ele>
        <time>2020-07-13T06:04:53Z</time>
      </trkpt>
      <trkpt lat="47.959774" lon="7.582542">
        <ele>252.0</ele>
        <time>2020-07-13T06:04:56Z</time>
      </trkpt>
      <trkpt lat="47.959736" lon="7.582536">
        <ele>251.0</ele>
        <time>2020-07-13T06:04:57Z</time>
      </trkpt>
      <trkpt lat="47.95962" lon="7.582515">
        <ele>252.0</ele>
        <time>2020-07-13T06:05:00Z</time>
      </trkpt>
      <trkpt lat="47.959545" lon="7.582503">
        <ele>251.0</ele>
        <time>2020-07-13T06:05:02Z</time>
      </trkpt>
      <trkpt lat="47.959427" lon="7.582478">
        <ele>252.0</ele>
        <time>2020-07-13T06:05:05Z</time>
      </trkpt>
      <trkpt lat="47.95935" lon="7.582458">
        <ele>252.0</ele>
        <time>2020-07-13T06:05:07Z</time>
      </trkpt>
      <trkpt lat="47.959273" lon="7.582444">
        <ele>252.0</ele>
        <time>2020-07-13T06:05:09Z</time>
      </trkpt>
      <trkpt lat="47.959203" lon="7.582427">
        <ele>252.0</ele>
        <time>2020-07-13T06:05:11Z</time>
      </trkpt>
      <trkpt lat="47.959138" lon="7.582411">
        <ele>252.0</ele>
        <time>2020-07-13T06:05:13Z</time>
      </trkpt>
      <trkpt lat="47.959047" lon="7.58242">
        <ele>252.0</ele>
        <time>2020-07-13T06:05:16Z</time>
      </trkpt>
      <trkpt lat="47.958991" lon="7.582411">
        <ele>252.0</ele>
        <time>2020-07-13T06:05:18Z</time>
      </trkpt>
      <trkpt lat="47.958925" lon="7.582393">
        <ele>252.0</ele>
        <time>2020-07-13T06:05:20Z</time>
      </trkpt>
      <trkpt lat="47.95886" lon="7.582382">
        <ele>252.0</ele>
        <time>2020-07-13T06:05:22Z</time>
      </trkpt>
      <trkpt lat="47.958792" lon="7.582375">
        <ele>252.0</ele>
        <time>2020-07-13T06:05:24Z</time>
      </trkpt>
      <trkpt lat="47.958758" lon="7.582375">
        <ele>252.0</ele>
        <time>2020-07-13T06:05:25Z</time>
      </trkpt>
      <trkpt lat="47.958647" lon="7.582387">
        <ele>252.0</ele>
        <time>2020-07-13T06:05:28Z</time>
      </trkpt>
      <trkpt lat="47.958566" lon="7.582419">
        <ele>251.0</ele>
        <time>2020-07-13T06:05:30Z</time>
      </trkpt>
      <trkpt lat="47.958494" lon="7.582459">
        <ele>251.0</ele>
        <time>2020-07-13T06:05:32Z</time>
      </trkpt>
      <trkpt lat="47.958421" lon="7.582488">
        <ele>251.0</ele>
        <time>2020-07-13T06:05:34Z</time>
      </trkpt>
      <trkpt lat="47.958311" lon="7.58253">
        <ele>250.0</ele>
        <time>2020-07-13T06:05:37Z</time>
      </trkpt>
      <trkpt lat="47.958242" lon="7.582564">
        <ele>250.0</ele>
        <time>2020-07-13T06:05:39Z</time>
      </trkpt>
      <trkpt lat="47.958132" lon="7.582601">
        <ele>250.0</ele>
        <time>2020-07-13T06:05:42Z</time>
      </trkpt>
      <trkpt lat="47.958095" lon="7.582615">
        <ele>250.0</ele>
        <time>2020-07-13T06:05:43Z</time>
      </trkpt>
      <trkpt lat="47.957988" lon="7.58263">
        <ele>249.0</ele>
        <time>2020-07-13T06:05:46Z</time>
      </trkpt>
      <trkpt lat="47.957917" lon="7.582638">
        <ele>249.0</ele>
        <time>2020-07-13T06:05:48Z</time>
      </trkpt>
      <trkpt lat="47.957807" lon="7.582642">
        <ele>249.0</ele>
        <time>2020-07-13T06:05:51Z</time>
      </trkpt>
      <trkpt lat="47.957772" lon="7.582647">
        <ele>249.0</ele>
        <time>2020-07-13T06:05:52Z</time>
      </trkpt>
      <trkpt lat="47.957674" lon="7.582661">
        <ele>248.0</ele>
        <time>2020-07-13T06:05:55Z</time>
      </trkpt>
      <trkpt lat="47.957581" lon="7.582672">
        <ele>248.0</ele>
        <time>2020-07-13T06:05:58Z</time>
      </trkpt>
      <trkpt lat="47.957508" lon="7.582662">
        <ele>249.0</ele>
        <time>2020-07-13T06:06:00Z</time>
      </trkpt>
      <trkpt lat="47.957427" lon="7.582658">
        <ele>250.0</ele>
        <time>2020-07-13T06:06:02Z</time>
      </trkpt>
      <trkpt lat="47.957346" lon="7.582661">
        <ele>250.0</ele>
        <time>2020-07-13T06:06:04Z</time>
      </trkpt>
      <trkpt lat="47.957271" lon="7.582666">
        <ele>250.0</ele>
        <time>2020-07-13T06:06:06Z</time>
      </trkpt>
      <trkpt lat="47.957231" lon="7.58267">
        <ele>250.0</ele>
        <time>2020-07-13T06:06:07Z</time>
      </trkpt>
      <trkpt lat="47.957114" lon="7.582664">
        <ele>251.0</ele>
        <time>2020-07-13T06:06:10Z</time>
      </trkpt>
      <trkpt lat="47.957035" lon="7.58267">
        <ele>251.0</ele>
        <time>2020-07-13T06:06:12Z</time>
      </trkpt>
      <trkpt lat="47.956918" lon="7.582679">
        <ele>252.0</ele>
        <time>2020-07-13T06:06:15Z</time>
      </trkpt>
      <trkpt lat="47.956834" lon="7.582678">
        <ele>252.0</ele>
        <time>2020-07-13T06:06:17Z</time>
      </trkpt>
      <trkpt lat="47.956749" lon="7.582679">
        <ele>252.0</ele>
        <time>2020-07-13T06:06:19Z</time>
      </trkpt>
      <trkpt lat="47.95667" lon="7.582686">
        <ele>251.0</ele>
        <time>2020-07-13T06:06:21Z</time>
      </trkpt>
      <trkpt lat="47.95659" lon="7.582693">
        <ele>252.0</ele>
        <time>2020-07-13T06:06:23Z</time>
      </trkpt>
      <trkpt lat="47.956511" lon="7.5827">
        <ele>252.0</ele>
        <time>2020-07-13T06:06:25Z</time>
      </trkpt>
      <trkpt lat="47.956395" lon="7.582711">
        <ele>252.0</ele>
        <time>2020-07-13T06:06:28Z</time>
      </trkpt>
      <trkpt lat="47.956327" lon="7.582698">
        <ele>252.0</ele>
        <time>2020-07-13T06:06:30Z</time>
      </trkpt>
      <trkpt lat="47.956259" lon="7.582679">
        <ele>252.0</ele>
        <time>2020-07-13T06:06:32Z</time>
      </trkpt>
      <trkpt lat="47.956151" lon="7.582621">
        <ele>252.0</ele>
        <time>2020-07-13T06:06:35Z</time>
      </trkpt>
      <trkpt lat="47.95609" lon="7.582574">
        <ele>252.0</ele>
        <time>2020-07-13T06:06:37Z</time>
      </trkpt>
      <trkpt lat="47.955979" lon="7.582503">
        <ele>251.0</ele>
        <time>2020-07-13T06:06:40Z</time>
      </trkpt>
      <trkpt lat="47.955947" lon="7.582479">
        <ele>251.0</ele>
        <time>2020-07-13T06:06:41Z</time>
      </trkpt>
      <trkpt lat="47.955803" lon="7.582362">
        <ele>251.0</ele>
        <time>2020-07-13T06:06:45Z</time>
      </trkpt>
      <trkpt lat="47.955726" lon="7.58231">
        <ele>251.0</ele>
        <time>2020-07-13T06:06:47Z</time>
      </trkpt>
      <trkpt lat="47.955652" lon="7.582263">
        <ele>251.0</ele>
        <time>2020-07-13T06:06:49Z</time>
      </trkpt>
      <trkpt lat="47.955613" lon="7.582238">
        <ele>252.0</ele>
        <time>2020-07-13T06:06:50Z</time>
      </trkpt>
      <trkpt lat="47.955502" lon="7.582171">
        <ele>252.0</ele>
        <time>2020-07-13T06:06:53Z</time>
      </trkpt>
      <trkpt lat="47.955432" lon="7.582125">
        <ele>252.0</ele>
        <time>2020-07-13T06:06:55Z</time>
      </trkpt>
      <trkpt lat="47.955365" lon="7.582075">
        <ele>252.0</ele>
        <time>2020-07-13T06:06:57Z</time>
      </trkpt>
      <trkpt lat="47.955301" lon="7.582034">
        <ele>252.0</ele>
        <time>2020-07-13T06:06:59Z</time>
      </trkpt>
      <trkpt lat="47.955231" lon="7.581987">
        <ele>253.0</ele>
        <time>2020-07-13T06:07:01Z</time>
      </trkpt>
      <trkpt lat="47.955161" lon="7.581932">
        <ele>253.0</ele>
        <time>2020-07-13T06:07:03Z</time>
      </trkpt>
      <trkpt lat="47.955089" lon="7.581886">
        <ele>252.0</ele>
        <time>2020-07-13T06:07:05Z</time>
      </trkpt>
      <trkpt lat="47.955027" lon="7.581849">
        <ele>252.0</ele>
        <time>2020-07-13T06:07:07Z</time>
      </trkpt>
      <trkpt lat="47.954963" lon="7.581805">
        <ele>252.0</ele>
        <time>2020-07-13T06:07:09Z</time>
      </trkpt>
      <trkpt lat="47.954894" lon="7.581757">
        <ele>253.0</ele>
        <time>2020-07-13T06:07:11Z</time>
      </trkpt>
      <trkpt lat="47.954825" lon="7.581715">
        <ele>252.0</ele>
        <time>2020-07-13T06:07:13Z</time>
      </trkpt>
      <trkpt lat="47.954762" lon="7.581668">
        <ele>252.0</ele>
        <time>2020-07-13T06:07:15Z</time>
      </trkpt>
      <trkpt lat="47.954693" lon="7.581625">
        <ele>253.0</ele>
        <time>2020-07-13T06:07:17Z</time>
      </trkpt>
      <trkpt lat="47.954623" lon="7.581577">
        <ele>252.0</ele>
        <time>2020-07-13T06:07:19Z</time>
      </trkpt>
      <trkpt lat="47.954552" lon="7.581535">
        <ele>253.0</ele>
        <time>2020-07-13T06:07:21Z</time>
      </trkpt>
      <trkpt lat="47.954488" lon="7.581494">
        <ele>253.0</ele>
        <time>2020-07-13T06:07:23Z</time>
      </trkpt>
      <trkpt lat="47.954423" lon="7.58145">
        <ele>252.0</ele>
        <time>2020-07-13T06:07:25Z</time>
      </trkpt>
      <trkpt lat="47.954356" lon="7.581399">
        <ele>253.0</ele>
        <time>2020-07-13T06:07:27Z</time>
      </trkpt>
      <trkpt lat="47.954244" lon="7.581326">
        <ele>252.0</ele>
        <time>2020-07-13T06:07:30Z</time>
      </trkpt>
      <trkpt lat="47.954173" lon="7.581279">
        <ele>251.0</ele>
        <time>2020-07-13T06:07:32Z</time>
      </trkpt>
      <trkpt lat="47.954102" lon="7.581234">
        <ele>251.0</ele>
        <time>2020-07-13T06:07:34Z</time>
      </trkpt>
      <trkpt lat="47.954034" lon="7.581186">
        <ele>251.0</ele>
        <time>2020-07-13T06:07:36Z</time>
      </trkpt>
      <trkpt lat="47.95396" lon="7.581143">
        <ele>251.0</ele>
        <time>2020-07-13T06:07:38Z</time>
      </trkpt>
      <trkpt lat="47.953896" lon="7.581093">
        <ele>251.0</ele>
        <time>2020-07-13T06:07:40Z</time>
      </trkpt>
      <trkpt lat="47.953831" lon="7.581039">
        <ele>251.0</ele>
        <time>2020-07-13T06:07:42Z</time>
      </trkpt>
      <trkpt lat="47.953758" lon="7.580996">
        <ele>252.0</ele>
        <time>2020-07-13T06:07:44Z</time>
      </trkpt>
      <trkpt lat="47.953692" lon="7.580955">
        <ele>252.0</ele>
        <time>2020-07-13T06:07:46Z</time>
      </trkpt>
      <trkpt lat="47.953618" lon="7.580898">
        <ele>252.0</ele>
        <time>2020-07-13T06:07:48Z</time>
      </trkpt>
      <trkpt lat="47.953546" lon="7.580832">
        <ele>253.0</ele>
        <time>2020-07-13T06:07:50Z</time>
      </trkpt>
      <trkpt lat="47.953466" lon="7.580774">
        <ele>253.0</ele>
        <time>2020-07-13T06:07:52Z</time>
      </trkpt>
      <trkpt lat="47.953379" lon="7.580712">
        <ele>253.0</ele>
        <time>2020-07-13T06:07:54Z</time>
      </trkpt>
      <trkpt lat="47.953286" lon="7.580652">
        <ele>253.0</ele>
        <time>2020-07-13T06:07:56Z</time>
      </trkpt>
      <trkpt lat="47.953188" lon="7.580582">
        <ele>253.0</ele>
        <time>2020-07-13T06:07:58Z</time>
      </trkpt>
      <trkpt lat="47.953086" lon="7.580521">
        <ele>253.0</ele>
        <time>2020-07-13T06:08:00Z</time>
      </trkpt>
      <trkpt lat="47.952989" lon="7.580452">
        <ele>253.0</ele>
        <time>2020-07-13T06:08:02Z</time>
      </trkpt>
      <trkpt lat="47.95289" lon="7.580395">
        <ele>252.0</ele>
        <time>2020-07-13T06:08:04Z</time>
      </trkpt>
      <trkpt lat="47.952742" lon="7.58031">
        <ele>252.0</ele>
        <time>2020-07-13T06:08:07Z</time>
      </trkpt>
      <trkpt lat="47.95269" lon="7.580277">
        <ele>253.0</ele>
        <time>2020-07-13T06:08:08Z</time>
      </trkpt>
      <trkpt lat="47.952536" lon="7.580169">
        <ele>253.0</ele>
        <time>2020-07-13T06:08:11Z</time>
      </trkpt>
      <trkpt lat="47.952432" lon="7.580101">
        <ele>253.0</ele>
        <time>2020-07-13T06:08:13Z</time>
      </trkpt>
      <trkpt lat="47.952329" lon="7.580029">
        <ele>253.0</ele>
        <time>2020-07-13T06:08:15Z</time>
      </trkpt>
      <trkpt lat="47.952224" lon="7.579952">
        <ele>253.0</ele>
        <time>2020-07-13T06:08:17Z</time>
      </trkpt>
      <trkpt lat="47.952119" lon="7.579879">
        <ele>253.0</ele>
        <time>2020-07-13T06:08:19Z</time>
      </trkpt>
      <trkpt lat="47.952015" lon="7.579809">
        <ele>253.0</ele>
        <time>2020-07-13T06:08:21Z</time>
      </trkpt>
      <trkpt lat="47.951913" lon="7.579739">
        <ele>252.0</ele>
        <time>2020-07-13T06:08:23Z</time>
      </trkpt>
      <trkpt lat="47.95181" lon="7.57967">
        <ele>253.0</ele>
        <time>2020-07-13T06:08:25Z</time>
      </trkpt>
      <trkpt lat="47.951708" lon="7.579601">
        <ele>252.0</ele>
        <time>2020-07-13T06:08:27Z</time>
      </trkpt>
      <trkpt lat="47.951603" lon="7.579527">
        <ele>252.0</ele>
        <time>2020-07-13T06:08:29Z</time>
      </trkpt>
      <trkpt lat="47.951458" lon="7.579421">
        <ele>251.0</ele>
        <time>2020-07-13T06:08:32Z</time>
      </trkpt>
      <trkpt lat="47.951357" lon="7.579347">
        <ele>252.0</ele>
        <time>2020-07-13T06:08:34Z</time>
      </trkpt>
      <trkpt lat="47.951251" lon="7.579283">
        <ele>253.0</ele>
        <time>2020-07-13T06:08:36Z</time>
      </trkpt>
      <trkpt lat="47.95115" lon="7.579213">
        <ele>253.0</ele>
        <time>2020-07-13T06:08:38Z</time>
      </trkpt>
      <trkpt lat="47.951041" lon="7.579149">
        <ele>252.0</ele>
        <time>2020-07-13T06:08:40Z</time>
      </trkpt>
      <trkpt lat="47.950886" lon="7.579047">
        <ele>252.0</ele>
        <time>2020-07-13T06:08:43Z</time>
      </trkpt>
      <trkpt lat="47.950786" lon="7.578972">
        <ele>252.0</ele>
        <time>2020-07-13T06:08:45Z</time>
      </trkpt>
      <trkpt lat="47.950685" lon="7.578903">
        <ele>252.0</ele>
        <time>2020-07-13T06:08:47Z</time>
      </trkpt>
      <trkpt lat="47.950531" lon="7.578794">
        <ele>252.0</ele>
        <time>2020-07-13T06:08:50Z</time>
      </trkpt>
      <trkpt lat="47.950421" lon="7.578736">
        <ele>253.0</ele>
        <time>2020-07-13T06:08:52Z</time>
      </trkpt>
      <trkpt lat="47.950306" lon="7.578683">
        <ele>252.0</ele>
        <time>2020-07-13T06:08:54Z</time>
      </trkpt>
      <trkpt lat="47.950201" lon="7.57863">
        <ele>252.0</ele>
        <time>2020-07-13T06:08:56Z</time>
      </trkpt>
      <trkpt lat="47.950095" lon="7.578579">
        <ele>252.0</ele>
        <time>2020-07-13T06:08:58Z</time>
      </trkpt>
      <trkpt lat="47.949994" lon="7.578519">
        <ele>252.0</ele>
        <time>2020-07-13T06:09:00Z</time>
      </trkpt>
      <trkpt lat="47.949882" lon="7.578457">
        <ele>252.0</ele>
        <time>2020-07-13T06:09:02Z</time>
      </trkpt>
      <trkpt lat="47.949778" lon="7.578397">
        <ele>252.0</ele>
        <time>2020-07-13T06:09:04Z</time>
      </trkpt>
      <trkpt lat="47.949671" lon="7.578342">
        <ele>253.0</ele>
        <time>2020-07-13T06:09:06Z</time>
      </trkpt>
      <trkpt lat="47.949566" lon="7.578281">
        <ele>252.0</ele>
        <time>2020-07-13T06:09:08Z</time>
      </trkpt>
      <trkpt lat="47.949458" lon="7.578219">
        <ele>252.0</ele>
        <time>2020-07-13T06:09:10Z</time>
      </trkpt>
      <trkpt lat="47.949351" lon="7.578163">
        <ele>253.0</ele>
        <time>2020-07-13T06:09:12Z</time>
      </trkpt>
      <trkpt lat="47.949245" lon="7.578109">
        <ele>253.0</ele>
        <time>2020-07-13T06:09:14Z</time>
      </trkpt>
      <trkpt lat="47.949135" lon="7.57805">
        <ele>252.0</ele>
        <time>2020-07-13T06:09:16Z</time>
      </trkpt>
      <trkpt lat="47.949019" lon="7.57799">
        <ele>252.0</ele>
        <time>2020-07-13T06:09:18Z</time>
      </trkpt>
      <trkpt lat="47.948902" lon="7.577927">
        <ele>252.0</ele>
        <time>2020-07-13T06:09:20Z</time>
      </trkpt>
      <trkpt lat="47.948782" lon="7.577868">
        <ele>251.0</ele>
        <time>2020-07-13T06:09:22Z</time>
      </trkpt>
      <trkpt lat="47.948662" lon="7.577815">
        <ele>251.0</ele>
        <time>2020-07-13T06:09:24Z</time>
      </trkpt>
      <trkpt lat="47.948547" lon="7.577749">
        <ele>251.0</ele>
        <time>2020-07-13T06:09:26Z</time>
      </trkpt>
      <trkpt lat="47.948433" lon="7.577687">
        <ele>251.0</ele>
        <time>2020-07-13T06:09:28Z</time>
      </trkpt>
      <trkpt lat="47.948318" lon="7.57762">
        <ele>251.0</ele>
        <time>2020-07-13T06:09:30Z</time>
      </trkpt>
      <trkpt lat="47.948202" lon="7.577561">
        <ele>251.0</ele>
        <time>2020-07-13T06:09:32Z</time>
      </trkpt>
      <trkpt lat="47.948091" lon="7.577502">
        <ele>250.0</ele>
        <time>2020-07-13T06:09:34Z</time>
      </trkpt>
      <trkpt lat="47.947982" lon="7.577448">
        <ele>250.0</ele>
        <time>2020-07-13T06:09:36Z</time>
      </trkpt>
      <trkpt lat="47.947866" lon="7.57739">
        <ele>250.0</ele>
        <time>2020-07-13T06:09:38Z</time>
      </trkpt>
      <trkpt lat="47.947753" lon="7.577335">
        <ele>251.0</ele>
        <time>2020-07-13T06:09:40Z</time>
      </trkpt>
      <trkpt lat="47.947644" lon="7.577277">
        <ele>251.0</ele>
        <time>2020-07-13T06:09:42Z</time>
      </trkpt>
      <trkpt lat="47.947533" lon="7.577208">
        <ele>251.0</ele>
        <time>2020-07-13T06:09:44Z</time>
      </trkpt>
      <trkpt lat="47.947418" lon="7.577152">
        <ele>251.0</ele>
        <time>2020-07-13T06:09:46Z</time>
      </trkpt>
      <trkpt lat="47.9473" lon="7.577089">
        <ele>251.0</ele>
        <time>2020-07-13T06:09:48Z</time>
      </trkpt>
      <trkpt lat="47.947188" lon="7.577021">
        <ele>251.0</ele>
        <time>2020-07-13T06:09:50Z</time>
      </trkpt>
      <trkpt lat="47.947078" lon="7.576957">
        <ele>251.0</ele>
        <time>2020-07-13T06:09:52Z</time>
      </trkpt>
      <trkpt lat="47.946968" lon="7.576895">
        <ele>251.0</ele>
        <time>2020-07-13T06:09:54Z</time>
      </trkpt>
      <trkpt lat="47.946851" lon="7.576835">
        <ele>251.0</ele>
        <time>2020-07-13T06:09:56Z</time>
      </trkpt>
      <trkpt lat="47.946734" lon="7.576775">
        <ele>251.0</ele>
        <time>2020-07-13T06:09:58Z</time>
      </trkpt>
      <trkpt lat="47.946621" lon="7.576713">
        <ele>251.0</ele>
        <time>2020-07-13T06:10:00Z</time>
      </trkpt>
      <trkpt lat="47.946511" lon="7.576658">
        <ele>252.0</ele>
        <time>2020-07-13T06:10:02Z</time>
      </trkpt>
      <trkpt lat="47.9464" lon="7.576607">
        <ele>252.0</ele>
        <time>2020-07-13T06:10:04Z</time>
      </trkpt>
      <trkpt lat="47.946292" lon="7.576551">
        <ele>252.0</ele>
        <time>2020-07-13T06:10:06Z</time>
      </trkpt>
      <trkpt lat="47.946184" lon="7.576493">
        <ele>252.0</ele>
        <time>2020-07-13T06:10:08Z</time>
      </trkpt>
      <trkpt lat="47.946081" lon="7.576428">
        <ele>252.0</ele>
        <time>2020-07-13T06:10:10Z</time>
      </trkpt>
      <trkpt lat="47.945976" lon="7.576373">
        <ele>252.0</ele>
        <time>2020-07-13T06:10:12Z</time>
      </trkpt>
      <trkpt lat="47.945869" lon="7.576318">
        <ele>252.0</ele>
        <time>2020-07-13T06:10:14Z</time>
      </trkpt>
      <trkpt lat="47.94576" lon="7.57627">
        <ele>252.0</ele>
        <time>2020-07-13T06:10:16Z</time>
      </trkpt>
      <trkpt lat="47.945655" lon="7.576204">
        <ele>252.0</ele>
        <time>2020-07-13T06:10:18Z</time>
      </trkpt>
      <trkpt lat="47.945548" lon="7.576146">
        <ele>252.0</ele>
        <time>2020-07-13T06:10:20Z</time>
      </trkpt>
      <trkpt lat="47.945451" lon="7.576095">
        <ele>252.0</ele>
        <time>2020-07-13T06:10:22Z</time>
      </trkpt>
      <trkpt lat="47.945349" lon="7.576046">
        <ele>253.0</ele>
        <time>2020-07-13T06:10:24Z</time>
      </trkpt>
      <trkpt lat="47.945246" lon="7.575996">
        <ele>253.0</ele>
        <time>2020-07-13T06:10:26Z</time>
      </trkpt>
      <trkpt lat="47.945143" lon="7.575936">
        <ele>253.0</ele>
        <time>2020-07-13T06:10:28Z</time>
      </trkpt>
      <trkpt lat="47.945036" lon="7.575879">
        <ele>253.0</ele>
        <time>2020-07-13T06:10:30Z</time>
      </trkpt>
      <trkpt lat="47.944932" lon="7.57583">
        <ele>253.0</ele>
        <time>2020-07-13T06:10:32Z</time>
      </trkpt>
      <trkpt lat="47.944828" lon="7.575777">
        <ele>253.0</ele>
        <time>2020-07-13T06:10:34Z</time>
      </trkpt>
      <trkpt lat="47.944721" lon="7.575723">
        <ele>254.0</ele>
        <time>2020-07-13T06:10:36Z</time>
      </trkpt>
      <trkpt lat="47.944612" lon="7.575668">
        <ele>254.0</ele>
        <time>2020-07-13T06:10:38Z</time>
      </trkpt>
      <trkpt lat="47.944504" lon="7.575605">
        <ele>255.0</ele>
        <time>2020-07-13T06:10:40Z</time>
      </trkpt>
      <trkpt lat="47.944401" lon="7.575541">
        <ele>255.0</ele>
        <time>2020-07-13T06:10:42Z</time>
      </trkpt>
      <trkpt lat="47.944301" lon="7.57549">
        <ele>255.0</ele>
        <time>2020-07-13T06:10:44Z</time>
      </trkpt>
      <trkpt lat="47.944201" lon="7.575436">
        <ele>255.0</ele>
        <time>2020-07-13T06:10:46Z</time>
      </trkpt>
      <trkpt lat="47.944099" lon="7.575384">
        <ele>255.0</ele>
        <time>2020-07-13T06:10:48Z</time>
      </trkpt>
      <trkpt lat="47.943993" lon="7.575333">
        <ele>255.0</ele>
        <time>2020-07-13T06:10:50Z</time>
      </trkpt>
      <trkpt lat="47.943892" lon="7.575278">
        <ele>255.0</ele>
        <time>2020-07-13T06:10:52Z</time>
      </trkpt>
      <trkpt lat="47.943793" lon="7.57522">
        <ele>255.0</ele>
        <time>2020-07-13T06:10:54Z</time>
      </trkpt>
      <trkpt lat="47.943695" lon="7.575161">
        <ele>255.0</ele>
        <time>2020-07-13T06:10:56Z</time>
      </trkpt>
      <trkpt lat="47.943591" lon="7.575112">
        <ele>255.0</ele>
        <time>2020-07-13T06:10:58Z</time>
      </trkpt>
      <trkpt lat="47.943486" lon="7.57506">
        <ele>254.0</ele>
        <time>2020-07-13T06:11:00Z</time>
      </trkpt>
      <trkpt lat="47.943381" lon="7.575034">
        <ele>254.0</ele>
        <time>2020-07-13T06:11:02Z</time>
      </trkpt>
      <trkpt lat="47.943283" lon="7.574967">
        <ele>254.0</ele>
        <time>2020-07-13T06:11:04Z</time>
      </trkpt>
      <trkpt lat="47.94318" lon="7.574903">
        <ele>254.0</ele>
        <time>2020-07-13T06:11:06Z</time>
      </trkpt>
      <trkpt lat="47.94308" lon="7.574846">
        <ele>253.0</ele>
        <time>2020-07-13T06:11:08Z</time>
      </trkpt>
      <trkpt lat="47.942974" lon="7.574796">
        <ele>253.0</ele>
        <time>2020-07-13T06:11:10Z</time>
      </trkpt>
      <trkpt lat="47.942867" lon="7.574741">
        <ele>253.0</ele>
        <time>2020-07-13T06:11:12Z</time>
      </trkpt>
      <trkpt lat="47.942764" lon="7.574687">
        <ele>253.0</ele>
        <time>2020-07-13T06:11:14Z</time>
      </trkpt>
      <trkpt lat="47.942659" lon="7.574634">
        <ele>253.0</ele>
        <time>2020-07-13T06:11:16Z</time>
      </trkpt>
      <trkpt lat="47.942563" lon="7.574595">
        <ele>253.0</ele>
        <time>2020-07-13T06:11:18Z</time>
      </trkpt>
      <trkpt lat="47.942422" lon="7.57464">
        <ele>254.0</ele>
        <time>2020-07-13T06:11:21Z</time>
      </trkpt>
      <trkpt lat="47.94239" lon="7.574689">
        <ele>254.0</ele>
        <time>2020-07-13T06:11:22Z</time>
      </trkpt>
      <trkpt lat="47.94231" lon="7.574878">
        <ele>254.0</ele>
        <time>2020-07-13T06:11:25Z</time>
      </trkpt>
      <trkpt lat="47.942265" lon="7.575017">
        <ele>253.0</ele>
        <time>2020-07-13T06:11:27Z</time>
      </trkpt>
      <trkpt lat="47.942241" lon="7.57508">
        <ele>254.0</ele>
        <time>2020-07-13T06:11:28Z</time>
      </trkpt>
      <trkpt lat="47.942158" lon="7.575266">
        <ele>254.0</ele>
        <time>2020-07-13T06:11:31Z</time>
      </trkpt>
      <trkpt lat="47.942104" lon="7.57539">
        <ele>254.0</ele>
        <time>2020-07-13T06:11:33Z</time>
      </trkpt>
      <trkpt lat="47.942078" lon="7.57545">
        <ele>254.0</ele>
        <time>2020-07-13T06:11:34Z</time>
      </trkpt>
      <trkpt lat="47.942028" lon="7.575571">
        <ele>255.0</ele>
        <time>2020-07-13T06:11:36Z</time>
      </trkpt>
      <trkpt lat="47.94195" lon="7.575766">
        <ele>254.0</ele>
        <time>2020-07-13T06:11:39Z</time>
      </trkpt>
      <trkpt lat="47.941895" lon="7.575895">
        <ele>254.0</ele>
        <time>2020-07-13T06:11:41Z</time>
      </trkpt>
      <trkpt lat="47.94184" lon="7.576024">
        <ele>254.0</ele>
        <time>2020-07-13T06:11:43Z</time>
      </trkpt>
      <trkpt lat="47.941784" lon="7.576163">
        <ele>254.0</ele>
        <time>2020-07-13T06:11:45Z</time>
      </trkpt>
      <trkpt lat="47.941729" lon="7.576316">
        <ele>253.0</ele>
        <time>2020-07-13T06:11:47Z</time>
      </trkpt>
      <trkpt lat="47.941665" lon="7.576474">
        <ele>253.0</ele>
        <time>2020-07-13T06:11:49Z</time>
      </trkpt>
      <trkpt lat="47.941594" lon="7.576626">
        <ele>253.0</ele>
        <time>2020-07-13T06:11:51Z</time>
      </trkpt>
      <trkpt lat="47.941533" lon="7.576788">
        <ele>252.0</ele>
        <time>2020-07-13T06:11:53Z</time>
      </trkpt>
      <trkpt lat="47.941471" lon="7.57694">
        <ele>252.0</ele>
        <time>2020-07-13T06:11:55Z</time>
      </trkpt>
      <trkpt lat="47.941406" lon="7.577096">
        <ele>252.0</ele>
        <time>2020-07-13T06:11:57Z</time>
      </trkpt>
      <trkpt lat="47.941341" lon="7.577244">
        <ele>253.0</ele>
        <time>2020-07-13T06:11:59Z</time>
      </trkpt>
      <trkpt lat="47.941285" lon="7.577385">
        <ele>253.0</ele>
        <time>2020-07-13T06:12:01Z</time>
      </trkpt>
      <trkpt lat="47.941218" lon="7.577518">
        <ele>253.0</ele>
        <time>2020-07-13T06:12:03Z</time>
      </trkpt>
      <trkpt lat="47.941157" lon="7.577659">
        <ele>253.0</ele>
        <time>2020-07-13T06:12:05Z</time>
      </trkpt>
      <trkpt lat="47.941093" lon="7.577795">
        <ele>253.0</ele>
        <time>2020-07-13T06:12:07Z</time>
      </trkpt>
      <trkpt lat="47.941034" lon="7.577925">
        <ele>253.0</ele>
        <time>2020-07-13T06:12:09Z</time>
      </trkpt>
      <trkpt lat="47.94098" lon="7.57804">
        <ele>253.0</ele>
        <time>2020-07-13T06:12:11Z</time>
      </trkpt>
      <trkpt lat="47.940912" lon="7.578176">
        <ele>253.0</ele>
        <time>2020-07-13T06:12:13Z</time>
      </trkpt>
      <trkpt lat="47.940845" lon="7.578298">
        <ele>253.0</ele>
        <time>2020-07-13T06:12:15Z</time>
      </trkpt>
      <trkpt lat="47.940771" lon="7.578416">
        <ele>252.0</ele>
        <time>2020-07-13T06:12:17Z</time>
      </trkpt>
      <trkpt lat="47.940689" lon="7.578529">
        <ele>253.0</ele>
        <time>2020-07-13T06:12:19Z</time>
      </trkpt>
      <trkpt lat="47.940613" lon="7.578639">
        <ele>253.0</ele>
        <time>2020-07-13T06:12:21Z</time>
      </trkpt>
      <trkpt lat="47.940537" lon="7.578742">
        <ele>254.0</ele>
        <time>2020-07-13T06:12:23Z</time>
      </trkpt>
      <trkpt lat="47.940449" lon="7.578822">
        <ele>254.0</ele>
        <time>2020-07-13T06:12:25Z</time>
      </trkpt>
      <trkpt lat="47.940352" lon="7.578844">
        <ele>254.0</ele>
        <time>2020-07-13T06:12:27Z</time>
      </trkpt>
      <trkpt lat="47.940209" lon="7.5788">
        <ele>253.0</ele>
        <time>2020-07-13T06:12:30Z</time>
      </trkpt>
      <trkpt lat="47.940113" lon="7.578733">
        <ele>253.0</ele>
        <time>2020-07-13T06:12:32Z</time>
      </trkpt>
      <trkpt lat="47.940036" lon="7.578627">
        <ele>254.0</ele>
        <time>2020-07-13T06:12:34Z</time>
      </trkpt>
      <trkpt lat="47.939949" lon="7.578519">
        <ele>254.0</ele>
        <time>2020-07-13T06:12:36Z</time>
      </trkpt>
      <trkpt lat="47.939863" lon="7.578407">
        <ele>254.0</ele>
        <time>2020-07-13T06:12:38Z</time>
      </trkpt>
      <trkpt lat="47.939777" lon="7.578285">
        <ele>254.0</ele>
        <time>2020-07-13T06:12:40Z</time>
      </trkpt>
      <trkpt lat="47.939733" lon="7.57823">
        <ele>254.0</ele>
        <time>2020-07-13T06:12:41Z</time>
      </trkpt>
      <trkpt lat="47.939608" lon="7.578051">
        <ele>254.0</ele>
        <time>2020-07-13T06:12:44Z</time>
      </trkpt>
      <trkpt lat="47.93952" lon="7.577935">
        <ele>254.0</ele>
        <time>2020-07-13T06:12:46Z</time>
      </trkpt>
      <trkpt lat="47.939477" lon="7.577875">
        <ele>255.0</ele>
        <time>2020-07-13T06:12:47Z</time>
      </trkpt>
      <trkpt lat="47.939329" lon="7.577715">
        <ele>255.0</ele>
        <time>2020-07-13T06:12:50Z</time>
      </trkpt>
      <trkpt lat="47.939184" lon="7.577547">
        <ele>255.0</ele>
        <time>2020-07-13T06:12:53Z</time>
      </trkpt>
      <trkpt lat="47.939085" lon="7.577436">
        <ele>255.0</ele>
        <time>2020-07-13T06:12:55Z</time>
      </trkpt>
      <trkpt lat="47.938985" lon="7.577335">
        <ele>255.0</ele>
        <time>2020-07-13T06:12:57Z</time>
      </trkpt>
      <trkpt lat="47.938879" lon="7.57723">
        <ele>255.0</ele>
        <time>2020-07-13T06:12:59Z</time>
      </trkpt>
      <trkpt lat="47.93872" lon="7.57708">
        <ele>255.0</ele>
        <time>2020-07-13T06:13:02Z</time>
      </trkpt>
      <trkpt lat="47.938614" lon="7.576977">
        <ele>256.0</ele>
        <time>2020-07-13T06:13:04Z</time>
      </trkpt>
      <trkpt lat="47.938559" lon="7.576927">
        <ele>256.0</ele>
        <time>2020-07-13T06:13:05Z</time>
      </trkpt>
      <trkpt lat="47.938409" lon="7.576782">
        <ele>256.0</ele>
        <time>2020-07-13T06:13:08Z</time>
      </trkpt>
      <trkpt lat="47.938304" lon="7.576686">
        <ele>255.0</ele>
        <time>2020-07-13T06:13:10Z</time>
      </trkpt>
      <trkpt lat="47.938201" lon="7.576578">
        <ele>256.0</ele>
        <time>2020-07-13T06:13:12Z</time>
      </trkpt>
      <trkpt lat="47.938107" lon="7.57649">
        <ele>255.0</ele>
        <time>2020-07-13T06:13:14Z</time>
      </trkpt>
      <trkpt lat="47.938008" lon="7.576394">
        <ele>256.0</ele>
        <time>2020-07-13T06:13:16Z</time>
      </trkpt>
      <trkpt lat="47.937913" lon="7.57629">
        <ele>256.0</ele>
        <time>2020-07-13T06:13:18Z</time>
      </trkpt>
      <trkpt lat="47.937811" lon="7.576196">
        <ele>256.0</ele>
        <time>2020-07-13T06:13:20Z</time>
      </trkpt>
      <trkpt lat="47.937708" lon="7.576099">
        <ele>256.0</ele>
        <time>2020-07-13T06:13:22Z</time>
      </trkpt>
      <trkpt lat="47.937609" lon="7.576007">
        <ele>257.0</ele>
        <time>2020-07-13T06:13:24Z</time>
      </trkpt>
      <trkpt lat="47.937507" lon="7.575916">
        <ele>257.0</ele>
        <time>2020-07-13T06:13:26Z</time>
      </trkpt>
      <trkpt lat="47.937414" lon="7.575823">
        <ele>256.0</ele>
        <time>2020-07-13T06:13:28Z</time>
      </trkpt>
      <trkpt lat="47.937265" lon="7.575687">
        <ele>256.0</ele>
        <time>2020-07-13T06:13:31Z</time>
      </trkpt>
      <trkpt lat="47.937161" lon="7.575593">
        <ele>256.0</ele>
        <time>2020-07-13T06:13:33Z</time>
      </trkpt>
      <trkpt lat="47.937064" lon="7.575509">
        <ele>256.0</ele>
        <time>2020-07-13T06:13:35Z</time>
      </trkpt>
      <trkpt lat="47.936966" lon="7.575424">
        <ele>256.0</ele>
        <time>2020-07-13T06:13:37Z</time>
      </trkpt>
      <trkpt lat="47.936869" lon="7.575341">
        <ele>257.0</ele>
        <time>2020-07-13T06:13:39Z</time>
      </trkpt>
      <trkpt lat="47.936771" lon="7.575251">
        <ele>256.0</ele>
        <time>2020-07-13T06:13:41Z</time>
      </trkpt>
      <trkpt lat="47.936675" lon="7.57516">
        <ele>256.0</ele>
        <time>2020-07-13T06:13:43Z</time>
      </trkpt>
      <trkpt lat="47.936579" lon="7.575072">
        <ele>256.0</ele>
        <time>2020-07-13T06:13:45Z</time>
      </trkpt>
      <trkpt lat="47.936484" lon="7.574979">
        <ele>256.0</ele>
        <time>2020-07-13T06:13:47Z</time>
      </trkpt>
      <trkpt lat="47.936385" lon="7.574885">
        <ele>256.0</ele>
        <time>2020-07-13T06:13:49Z</time>
      </trkpt>
      <trkpt lat="47.936289" lon="7.574802">
        <ele>256.0</ele>
        <time>2020-07-13T06:13:51Z</time>
      </trkpt>
      <trkpt lat="47.93619" lon="7.57472">
        <ele>256.0</ele>
        <time>2020-07-13T06:13:53Z</time>
      </trkpt>
      <trkpt lat="47.936091" lon="7.57463">
        <ele>255.0</ele>
        <time>2020-07-13T06:13:55Z</time>
      </trkpt>
      <trkpt lat="47.935991" lon="7.574538">
        <ele>255.0</ele>
        <time>2020-07-13T06:13:57Z</time>
      </trkpt>
      <trkpt lat="47.935893" lon="7.574445">
        <ele>255.0</ele>
        <time>2020-07-13T06:13:59Z</time>
      </trkpt>
      <trkpt lat="47.935797" lon="7.574351">
        <ele>255.0</ele>
        <time>2020-07-13T06:14:01Z</time>
      </trkpt>
      <trkpt lat="47.935698" lon="7.574256">
        <ele>255.0</ele>
        <time>2020-07-13T06:14:03Z</time>
      </trkpt>
      <trkpt lat="47.935601" lon="7.574156">
        <ele>255.0</ele>
        <time>2020-07-13T06:14:05Z</time>
      </trkpt>
      <trkpt lat="47.935503" lon="7.574061">
        <ele>255.0</ele>
        <time>2020-07-13T06:14:07Z</time>
      </trkpt>
      <trkpt lat="47.935405" lon="7.573971">
        <ele>255.0</ele>
        <time>2020-07-13T06:14:09Z</time>
      </trkpt>
      <trkpt lat="47.935308" lon="7.573875">
        <ele>255.0</ele>
        <time>2020-07-13T06:14:11Z</time>
      </trkpt>
      <trkpt lat="47.93521" lon="7.573783">
        <ele>255.0</ele>
        <time>2020-07-13T06:14:13Z</time>
      </trkpt>
      <trkpt lat="47.935103" lon="7.573689">
        <ele>256.0</ele>
        <time>2020-07-13T06:14:15Z</time>
      </trkpt>
      <trkpt lat="47.935002" lon="7.5736">
        <ele>255.0</ele>
        <time>2020-07-13T06:14:17Z</time>
      </trkpt>
      <trkpt lat="47.934901" lon="7.573512">
        <ele>255.0</ele>
        <time>2020-07-13T06:14:19Z</time>
      </trkpt>
      <trkpt lat="47.934807" lon="7.573423">
        <ele>254.0</ele>
        <time>2020-07-13T06:14:21Z</time>
      </trkpt>
      <trkpt lat="47.934659" lon="7.573285">
        <ele>254.0</ele>
        <time>2020-07-13T06:14:24Z</time>
      </trkpt>
      <trkpt lat="47.934561" lon="7.573194">
        <ele>254.0</ele>
        <time>2020-07-13T06:14:26Z</time>
      </trkpt>
      <trkpt lat="47.934462" lon="7.573097">
        <ele>254.0</ele>
        <time>2020-07-13T06:14:28Z</time>
      </trkpt>
      <trkpt lat="47.934314" lon="7.572958">
        <ele>253.0</ele>
        <time>2020-07-13T06:14:31Z</time>
      </trkpt>
      <trkpt lat="47.934216" lon="7.572859">
        <ele>254.0</ele>
        <time>2020-07-13T06:14:33Z</time>
      </trkpt>
      <trkpt lat="47.934068" lon="7.572727">
        <ele>254.0</ele>
        <time>2020-07-13T06:14:36Z</time>
      </trkpt>
      <trkpt lat="47.933967" lon="7.572637">
        <ele>254.0</ele>
        <time>2020-07-13T06:14:38Z</time>
      </trkpt>
      <trkpt lat="47.933918" lon="7.572591">
        <ele>254.0</ele>
        <time>2020-07-13T06:14:39Z</time>
      </trkpt>
      <trkpt lat="47.933768" lon="7.572444">
        <ele>255.0</ele>
        <time>2020-07-13T06:14:42Z</time>
      </trkpt>
      <trkpt lat="47.933671" lon="7.572348">
        <ele>255.0</ele>
        <time>2020-07-13T06:14:44Z</time>
      </trkpt>
      <trkpt lat="47.933577" lon="7.572258">
        <ele>255.0</ele>
        <time>2020-07-13T06:14:46Z</time>
      </trkpt>
      <trkpt lat="47.933479" lon="7.572167">
        <ele>255.0</ele>
        <time>2020-07-13T06:14:48Z</time>
      </trkpt>
      <trkpt lat="47.933381" lon="7.572075">
        <ele>255.0</ele>
        <time>2020-07-13T06:14:50Z</time>
      </trkpt>
      <trkpt lat="47.933238" lon="7.57193">
        <ele>255.0</ele>
        <time>2020-07-13T06:14:53Z</time>
      </trkpt>
      <trkpt lat="47.933141" lon="7.571836">
        <ele>255.0</ele>
        <time>2020-07-13T06:14:55Z</time>
      </trkpt>
      <trkpt lat="47.93305" lon="7.571751">
        <ele>255.0</ele>
        <time>2020-07-13T06:14:57Z</time>
      </trkpt>
      <trkpt lat="47.932951" lon="7.571668">
        <ele>254.0</ele>
        <time>2020-07-13T06:14:59Z</time>
      </trkpt>
      <trkpt lat="47.932856" lon="7.571577">
        <ele>255.0</ele>
        <time>2020-07-13T06:15:01Z</time>
      </trkpt>
      <trkpt lat="47.93276" lon="7.571485">
        <ele>255.0</ele>
        <time>2020-07-13T06:15:03Z</time>
      </trkpt>
      <trkpt lat="47.932657" lon="7.571391">
        <ele>255.0</ele>
        <time>2020-07-13T06:15:05Z</time>
      </trkpt>
      <trkpt lat="47.932554" lon="7.571297">
        <ele>256.0</ele>
        <time>2020-07-13T06:15:07Z</time>
      </trkpt>
      <trkpt lat="47.932458" lon="7.571204">
        <ele>256.0</ele>
        <time>2020-07-13T06:15:09Z</time>
      </trkpt>
      <trkpt lat="47.932362" lon="7.571117">
        <ele>256.0</ele>
        <time>2020-07-13T06:15:11Z</time>
      </trkpt>
      <trkpt lat="47.932266" lon="7.571029">
        <ele>256.0</ele>
        <time>2020-07-13T06:15:13Z</time>
      </trkpt>
      <trkpt lat="47.932168" lon="7.570931">
        <ele>256.0</ele>
        <time>2020-07-13T06:15:15Z</time>
      </trkpt>
      <trkpt lat="47.932077" lon="7.570831">
        <ele>257.0</ele>
        <time>2020-07-13T06:15:17Z</time>
      </trkpt>
      <trkpt lat="47.931984" lon="7.570731">
        <ele>257.0</ele>
        <time>2020-07-13T06:15:19Z</time>
      </trkpt>
      <trkpt lat="47.931884" lon="7.570633">
        <ele>257.0</ele>
        <time>2020-07-13T06:15:21Z</time>
      </trkpt>
      <trkpt lat="47.931786" lon="7.570534">
        <ele>258.0</ele>
        <time>2020-07-13T06:15:23Z</time>
      </trkpt>
      <trkpt lat="47.931694" lon="7.570433">
        <ele>258.0</ele>
        <time>2020-07-13T06:15:25Z</time>
      </trkpt>
      <trkpt lat="47.931596" lon="7.570348">
        <ele>258.0</ele>
        <time>2020-07-13T06:15:27Z</time>
      </trkpt>
      <trkpt lat="47.931497" lon="7.570252">
        <ele>257.0</ele>
        <time>2020-07-13T06:15:29Z</time>
      </trkpt>
      <trkpt lat="47.931396" lon="7.57016">
        <ele>257.0</ele>
        <time>2020-07-13T06:15:31Z</time>
      </trkpt>
      <trkpt lat="47.931298" lon="7.570071">
        <ele>257.0</ele>
        <time>2020-07-13T06:15:33Z</time>
      </trkpt>
      <trkpt lat="47.931204" lon="7.569985">
        <ele>257.0</ele>
        <time>2020-07-13T06:15:35Z</time>
      </trkpt>
      <trkpt lat="47.931111" lon="7.569895">
        <ele>256.0</ele>
        <time>2020-07-13T06:15:37Z</time>
      </trkpt>
      <trkpt lat="47.93102" lon="7.569814">
        <ele>256.0</ele>
        <time>2020-07-13T06:15:39Z</time>
      </trkpt>
      <trkpt lat="47.930958" lon="7.569715">
        <ele>256.0</ele>
        <time>2020-07-13T06:15:41Z</time>
      </trkpt>
      <trkpt lat="47.930969" lon="7.569585">
        <ele>255.0</ele>
        <time>2020-07-13T06:15:43Z</time>
      </trkpt>
      <trkpt lat="47.930996" lon="7.569482">
        <ele>254.0</ele>
        <time>2020-07-13T06:15:45Z</time>
      </trkpt>
      <trkpt lat="47.931037" lon="7.569381">
        <ele>253.0</ele>
        <time>2020-07-13T06:15:47Z</time>
      </trkpt>
      <trkpt lat="47.931062" lon="7.569284">
        <ele>254.0</ele>
        <time>2020-07-13T06:15:49Z</time>
      </trkpt>
      <trkpt lat="47.931062" lon="7.569216">
        <ele>255.0</ele>
        <time>2020-07-13T06:15:51Z</time>
      </trkpt>
      <trkpt lat="47.931047" lon="7.569203">
        <ele>255.0</ele>
        <time>2020-07-13T06:15:53Z</time>
      </trkpt>
      <trkpt lat="47.931047" lon="7.569203">
        <ele>255.0</ele>
        <time>2020-07-13T06:15:55Z</time>
      </trkpt>
      <trkpt lat="47.931047" lon="7.569203">
        <ele>255.0</ele>
        <time>2020-07-13T06:15:57Z</time>
      </trkpt>
      <trkpt lat="47.931047" lon="7.569203">
        <ele>255.0</ele>
        <time>2020-07-13T06:15:59Z</time>
      </trkpt>
      <trkpt lat="47.931047" lon="7.569203">
        <ele>255.0</ele>
        <time>2020-07-13T06:16:01Z</time>
      </trkpt>
      <trkpt lat="47.93105" lon="7.569197">
        <ele>255.0</ele>
        <time>2020-07-13T06:16:03Z</time>
      </trkpt>
      <trkpt lat="47.931045" lon="7.569155">
        <ele>255.0</ele>
        <time>2020-07-13T06:16:05Z</time>
      </trkpt>
      <trkpt lat="47.931008" lon="7.569164">
        <ele>255.0</ele>
        <time>2020-07-13T06:16:07Z</time>
      </trkpt>
      <trkpt lat="47.93096" lon="7.569224">
        <ele>255.0</ele>
        <time>2020-07-13T06:16:09Z</time>
      </trkpt>
      <trkpt lat="47.930917" lon="7.569304">
        <ele>255.0</ele>
        <time>2020-07-13T06:16:11Z</time>
      </trkpt>
      <trkpt lat="47.930876" lon="7.569398">
        <ele>254.0</ele>
        <time>2020-07-13T06:16:13Z</time>
      </trkpt>
      <trkpt lat="47.930823" lon="7.569477">
        <ele>253.0</ele>
        <time>2020-07-13T06:16:15Z</time>
      </trkpt>
      <trkpt lat="47.930746" lon="7.569525">
        <ele>253.0</ele>
        <time>2020-07-13T06:16:17Z</time>
      </trkpt>
      <trkpt lat="47.930664" lon="7.569519">
        <ele>253.0</ele>
        <time>2020-07-13T06:16:19Z</time>
      </trkpt>
      <trkpt lat="47.930587" lon="7.569462">
        <ele>253.0</ele>
        <time>2020-07-13T06:16:21Z</time>
      </trkpt>
      <trkpt lat="47.930509" lon="7.569393">
        <ele>254.0</ele>
        <time>2020-07-13T06:16:23Z</time>
      </trkpt>
      <trkpt lat="47.930423" lon="7.569318">
        <ele>254.0</ele>
        <time>2020-07-13T06:16:25Z</time>
      </trkpt>
      <trkpt lat="47.930331" lon="7.569243">
        <ele>254.0</ele>
        <time>2020-07-13T06:16:27Z</time>
      </trkpt>
      <trkpt lat="47.930234" lon="7.569166">
        <ele>254.0</ele>
        <time>2020-07-13T06:16:29Z</time>
      </trkpt>
      <trkpt lat="47.930139" lon="7.569085">
        <ele>255.0</ele>
        <time>2020-07-13T06:16:31Z</time>
      </trkpt>
      <trkpt lat="47.93004" lon="7.569">
        <ele>255.0</ele>
        <time>2020-07-13T06:16:33Z</time>
      </trkpt>
      <trkpt lat="47.92994" lon="7.568918">
        <ele>256.0</ele>
        <time>2020-07-13T06:16:35Z</time>
      </trkpt>
      <trkpt lat="47.92984" lon="7.568834">
        <ele>256.0</ele>
        <time>2020-07-13T06:16:37Z</time>
      </trkpt>
      <trkpt lat="47.929737" lon="7.56876">
        <ele>256.0</ele>
        <time>2020-07-13T06:16:39Z</time>
      </trkpt>
      <trkpt lat="47.929631" lon="7.568685">
        <ele>257.0</ele>
        <time>2020-07-13T06:16:41Z</time>
      </trkpt>
      <trkpt lat="47.929528" lon="7.568613">
        <ele>256.0</ele>
        <time>2020-07-13T06:16:43Z</time>
      </trkpt>
      <trkpt lat="47.929427" lon="7.568535">
        <ele>257.0</ele>
        <time>2020-07-13T06:16:45Z</time>
      </trkpt>
      <trkpt lat="47.929326" lon="7.568467">
        <ele>257.0</ele>
        <time>2020-07-13T06:16:47Z</time>
      </trkpt>
      <trkpt lat="47.929223" lon="7.56839">
        <ele>257.0</ele>
        <time>2020-07-13T06:16:49Z</time>
      </trkpt>
      <trkpt lat="47.929118" lon="7.568316">
        <ele>258.0</ele>
        <time>2020-07-13T06:16:51Z</time>
      </trkpt>
      <trkpt lat="47.92902" lon="7.568251">
        <ele>258.0</ele>
        <time>2020-07-13T06:16:53Z</time>
      </trkpt>
      <trkpt lat="47.928916" lon="7.568178">
        <ele>258.0</ele>
        <time>2020-07-13T06:16:55Z</time>
      </trkpt>
      <trkpt lat="47.928812" lon="7.568098">
        <ele>257.0</ele>
        <time>2020-07-13T06:16:57Z</time>
      </trkpt>
      <trkpt lat="47.928657" lon="7.568013">
        <ele>256.0</ele>
        <time>2020-07-13T06:17:00Z</time>
      </trkpt>
      <trkpt lat="47.928553" lon="7.56795">
        <ele>256.0</ele>
        <time>2020-07-13T06:17:02Z</time>
      </trkpt>
      <trkpt lat="47.928445" lon="7.567881">
        <ele>256.0</ele>
        <time>2020-07-13T06:17:04Z</time>
      </trkpt>
      <trkpt lat="47.928334" lon="7.567815">
        <ele>255.0</ele>
        <time>2020-07-13T06:17:06Z</time>
      </trkpt>
      <trkpt lat="47.92822" lon="7.56775">
        <ele>255.0</ele>
        <time>2020-07-13T06:17:08Z</time>
      </trkpt>
      <trkpt lat="47.928105" lon="7.567689">
        <ele>255.0</ele>
        <time>2020-07-13T06:17:10Z</time>
      </trkpt>
      <trkpt lat="47.927987" lon="7.567617">
        <ele>256.0</ele>
        <time>2020-07-13T06:17:12Z</time>
      </trkpt>
      <trkpt lat="47.927867" lon="7.567554">
        <ele>256.0</ele>
        <time>2020-07-13T06:17:14Z</time>
      </trkpt>
      <trkpt lat="47.927756" lon="7.567486">
        <ele>256.0</ele>
        <time>2020-07-13T06:17:16Z</time>
      </trkpt>
      <trkpt lat="47.92765" lon="7.567412">
        <ele>255.0</ele>
        <time>2020-07-13T06:17:18Z</time>
      </trkpt>
      <trkpt lat="47.927541" lon="7.567341">
        <ele>255.0</ele>
        <time>2020-07-13T06:17:20Z</time>
      </trkpt>
      <trkpt lat="47.927421" lon="7.567276">
        <ele>254.0</ele>
        <time>2020-07-13T06:17:22Z</time>
      </trkpt>
      <trkpt lat="47.927306" lon="7.567212">
        <ele>254.0</ele>
        <time>2020-07-13T06:17:24Z</time>
      </trkpt>
      <trkpt lat="47.927193" lon="7.567144">
        <ele>255.0</ele>
        <time>2020-07-13T06:17:26Z</time>
      </trkpt>
      <trkpt lat="47.927083" lon="7.567077">
        <ele>255.0</ele>
        <time>2020-07-13T06:17:28Z</time>
      </trkpt>
      <trkpt lat="47.92697" lon="7.567003">
        <ele>256.0</ele>
        <time>2020-07-13T06:17:30Z</time>
      </trkpt>
      <trkpt lat="47.926857" lon="7.566934">
        <ele>256.0</ele>
        <time>2020-07-13T06:17:32Z</time>
      </trkpt>
      <trkpt lat="47.92674" lon="7.566861">
        <ele>256.0</ele>
        <time>2020-07-13T06:17:34Z</time>
      </trkpt>
      <trkpt lat="47.926569" lon="7.566755">
        <ele>256.0</ele>
        <time>2020-07-13T06:17:37Z</time>
      </trkpt>
      <trkpt lat="47.926456" lon="7.566689">
        <ele>256.0</ele>
        <time>2020-07-13T06:17:39Z</time>
      </trkpt>
      <trkpt lat="47.926342" lon="7.566629">
        <ele>256.0</ele>
        <time>2020-07-13T06:17:41Z</time>
      </trkpt>
      <trkpt lat="47.926174" lon="7.566532">
        <ele>256.0</ele>
        <time>2020-07-13T06:17:44Z</time>
      </trkpt>
      <trkpt lat="47.926058" lon="7.566458">
        <ele>255.0</ele>
        <time>2020-07-13T06:17:46Z</time>
      </trkpt>
      <trkpt lat="47.925888" lon="7.566343">
        <ele>255.0</ele>
        <time>2020-07-13T06:17:49Z</time>
      </trkpt>
      <trkpt lat="47.925771" lon="7.566276">
        <ele>255.0</ele>
        <time>2020-07-13T06:17:51Z</time>
      </trkpt>
      <trkpt lat="47.925595" lon="7.566176">
        <ele>255.0</ele>
        <time>2020-07-13T06:17:54Z</time>
      </trkpt>
      <trkpt lat="47.92548" lon="7.566103">
        <ele>255.0</ele>
        <time>2020-07-13T06:17:56Z</time>
      </trkpt>
      <trkpt lat="47.925298" lon="7.565995">
        <ele>255.0</ele>
        <time>2020-07-13T06:17:59Z</time>
      </trkpt>
      <trkpt lat="47.925176" lon="7.565924">
        <ele>255.0</ele>
        <time>2020-07-13T06:18:01Z</time>
      </trkpt>
      <trkpt lat="47.925058" lon="7.56586">
        <ele>255.0</ele>
        <time>2020-07-13T06:18:03Z</time>
      </trkpt>
      <trkpt lat="47.924935" lon="7.565796">
        <ele>255.0</ele>
        <time>2020-07-13T06:18:05Z</time>
      </trkpt>
      <trkpt lat="47.924817" lon="7.56573">
        <ele>254.0</ele>
        <time>2020-07-13T06:18:07Z</time>
      </trkpt>
      <trkpt lat="47.924697" lon="7.565664">
        <ele>254.0</ele>
        <time>2020-07-13T06:18:09Z</time>
      </trkpt>
      <trkpt lat="47.92457" lon="7.5656">
        <ele>254.0</ele>
        <time>2020-07-13T06:18:11Z</time>
      </trkpt>
      <trkpt lat="47.924446" lon="7.565539">
        <ele>254.0</ele>
        <time>2020-07-13T06:18:13Z</time>
      </trkpt>
      <trkpt lat="47.924329" lon="7.565487">
        <ele>254.0</ele>
        <time>2020-07-13T06:18:15Z</time>
      </trkpt>
      <trkpt lat="47.924211" lon="7.565439">
        <ele>253.0</ele>
        <time>2020-07-13T06:18:17Z</time>
      </trkpt>
      <trkpt lat="47.924094" lon="7.565398">
        <ele>253.0</ele>
        <time>2020-07-13T06:18:19Z</time>
      </trkpt>
      <trkpt lat="47.923975" lon="7.565356">
        <ele>253.0</ele>
        <time>2020-07-13T06:18:21Z</time>
      </trkpt>
      <trkpt lat="47.923846" lon="7.565331">
        <ele>253.0</ele>
        <time>2020-07-13T06:18:23Z</time>
      </trkpt>
      <trkpt lat="47.923782" lon="7.565319">
        <ele>254.0</ele>
        <time>2020-07-13T06:18:24Z</time>
      </trkpt>
      <trkpt lat="47.923594" lon="7.565295">
        <ele>254.0</ele>
        <time>2020-07-13T06:18:27Z</time>
      </trkpt>
      <trkpt lat="47.92347" lon="7.565289">
        <ele>254.0</ele>
        <time>2020-07-13T06:18:29Z</time>
      </trkpt>
      <trkpt lat="47.923346" lon="7.56528">
        <ele>254.0</ele>
        <time>2020-07-13T06:18:31Z</time>
      </trkpt>
      <trkpt lat="47.923226" lon="7.565274">
        <ele>254.0</ele>
        <time>2020-07-13T06:18:33Z</time>
      </trkpt>
      <trkpt lat="47.923106" lon="7.565278">
        <ele>254.0</ele>
        <time>2020-07-13T06:18:35Z</time>
      </trkpt>
      <trkpt lat="47.922987" lon="7.565287">
        <ele>254.0</ele>
        <time>2020-07-13T06:18:37Z</time>
      </trkpt>
      <trkpt lat="47.922868" lon="7.565303">
        <ele>254.0</ele>
        <time>2020-07-13T06:18:39Z</time>
      </trkpt>
      <trkpt lat="47.922752" lon="7.565324">
        <ele>254.0</ele>
        <time>2020-07-13T06:18:41Z</time>
      </trkpt>
      <trkpt lat="47.922634" lon="7.565346">
        <ele>254.0</ele>
        <time>2020-07-13T06:18:43Z</time>
      </trkpt>
      <trkpt lat="47.922516" lon="7.565373">
        <ele>254.0</ele>
        <time>2020-07-13T06:18:45Z</time>
      </trkpt>
      <trkpt lat="47.922397" lon="7.565409">
        <ele>254.0</ele>
        <time>2020-07-13T06:18:47Z</time>
      </trkpt>
      <trkpt lat="47.922284" lon="7.565448">
        <ele>254.0</ele>
        <time>2020-07-13T06:18:49Z</time>
      </trkpt>
      <trkpt lat="47.922169" lon="7.565478">
        <ele>254.0</ele>
        <time>2020-07-13T06:18:51Z</time>
      </trkpt>
      <trkpt lat="47.922051" lon="7.565503">
        <ele>255.0</ele>
        <time>2020-07-13T06:18:53Z</time>
      </trkpt>
      <trkpt lat="47.92194" lon="7.565538">
        <ele>255.0</ele>
        <time>2020-07-13T06:18:55Z</time>
      </trkpt>
      <trkpt lat="47.921827" lon="7.565568">
        <ele>255.0</ele>
        <time>2020-07-13T06:18:57Z</time>
      </trkpt>
      <trkpt lat="47.921716" lon="7.565599">
        <ele>255.0</ele>
        <time>2020-07-13T06:18:59Z</time>
      </trkpt>
      <trkpt lat="47.921553" lon="7.565642">
        <ele>254.0</ele>
        <time>2020-07-13T06:19:02Z</time>
      </trkpt>
      <trkpt lat="47.921446" lon="7.56568">
        <ele>254.0</ele>
        <time>2020-07-13T06:19:04Z</time>
      </trkpt>
      <trkpt lat="47.921333" lon="7.565712">
        <ele>254.0</ele>
        <time>2020-07-13T06:19:06Z</time>
      </trkpt>
      <trkpt lat="47.921223" lon="7.565741">
        <ele>255.0</ele>
        <time>2020-07-13T06:19:08Z</time>
      </trkpt>
      <trkpt lat="47.921111" lon="7.565773">
        <ele>256.0</ele>
        <time>2020-07-13T06:19:10Z</time>
      </trkpt>
      <trkpt lat="47.920999" lon="7.565814">
        <ele>255.0</ele>
        <time>2020-07-13T06:19:12Z</time>
      </trkpt>
      <trkpt lat="47.920887" lon="7.565847">
        <ele>255.0</ele>
        <time>2020-07-13T06:19:14Z</time>
      </trkpt>
      <trkpt lat="47.920764" lon="7.565879">
        <ele>255.0</ele>
        <time>2020-07-13T06:19:16Z</time>
      </trkpt>
      <trkpt lat="47.920651" lon="7.565914">
        <ele>255.0</ele>
        <time>2020-07-13T06:19:18Z</time>
      </trkpt>
      <trkpt lat="47.920535" lon="7.56594">
        <ele>255.0</ele>
        <time>2020-07-13T06:19:20Z</time>
      </trkpt>
      <trkpt lat="47.920419" lon="7.565971">
        <ele>255.0</ele>
        <time>2020-07-13T06:19:22Z</time>
      </trkpt>
      <trkpt lat="47.920303" lon="7.565998">
        <ele>255.0</ele>
        <time>2020-07-13T06:19:24Z</time>
      </trkpt>
      <trkpt lat="47.920184" lon="7.566025">
        <ele>255.0</ele>
        <time>2020-07-13T06:19:26Z</time>
      </trkpt>
      <trkpt lat="47.920063" lon="7.566044">
        <ele>255.0</ele>
        <time>2020-07-13T06:19:28Z</time>
      </trkpt>
      <trkpt lat="47.919944" lon="7.566054">
        <ele>255.0</ele>
        <time>2020-07-13T06:19:30Z</time>
      </trkpt>
      <trkpt lat="47.919824" lon="7.566065">
        <ele>255.0</ele>
        <time>2020-07-13T06:19:32Z</time>
      </trkpt>
      <trkpt lat="47.919645" lon="7.566064">
        <ele>254.0</ele>
        <time>2020-07-13T06:19:35Z</time>
      </trkpt>
      <trkpt lat="47.919524" lon="7.566058">
        <ele>254.0</ele>
        <time>2020-07-13T06:19:37Z</time>
      </trkpt>
      <trkpt lat="47.919403" lon="7.566049">
        <ele>254.0</ele>
        <time>2020-07-13T06:19:39Z</time>
      </trkpt>
      <trkpt lat="47.919279" lon="7.566037">
        <ele>255.0</ele>
        <time>2020-07-13T06:19:41Z</time>
      </trkpt>
      <trkpt lat="47.919156" lon="7.566011">
        <ele>255.0</ele>
        <time>2020-07-13T06:19:43Z</time>
      </trkpt>
      <trkpt lat="47.919033" lon="7.565976">
        <ele>254.0</ele>
        <time>2020-07-13T06:19:45Z</time>
      </trkpt>
      <trkpt lat="47.918907" lon="7.56594">
        <ele>254.0</ele>
        <time>2020-07-13T06:19:47Z</time>
      </trkpt>
      <trkpt lat="47.918786" lon="7.565904">
        <ele>254.0</ele>
        <time>2020-07-13T06:19:49Z</time>
      </trkpt>
      <trkpt lat="47.918663" lon="7.565864">
        <ele>255.0</ele>
        <time>2020-07-13T06:19:51Z</time>
      </trkpt>
      <trkpt lat="47.918541" lon="7.565815">
        <ele>255.0</ele>
        <time>2020-07-13T06:19:53Z</time>
      </trkpt>
      <trkpt lat="47.918422" lon="7.56576">
        <ele>255.0</ele>
        <time>2020-07-13T06:19:55Z</time>
      </trkpt>
      <trkpt lat="47.918361" lon="7.565735">
        <ele>255.0</ele>
        <time>2020-07-13T06:19:56Z</time>
      </trkpt>
      <trkpt lat="47.918182" lon="7.565666">
        <ele>255.0</ele>
        <time>2020-07-13T06:19:59Z</time>
      </trkpt>
      <trkpt lat="47.91801" lon="7.565594">
        <ele>255.0</ele>
        <time>2020-07-13T06:20:02Z</time>
      </trkpt>
      <trkpt lat="47.917891" lon="7.565538">
        <ele>255.0</ele>
        <time>2020-07-13T06:20:04Z</time>
      </trkpt>
      <trkpt lat="47.91778" lon="7.565478">
        <ele>256.0</ele>
        <time>2020-07-13T06:20:06Z</time>
      </trkpt>
      <trkpt lat="47.917675" lon="7.56543">
        <ele>256.0</ele>
        <time>2020-07-13T06:20:08Z</time>
      </trkpt>
      <trkpt lat="47.917576" lon="7.565391">
        <ele>256.0</ele>
        <time>2020-07-13T06:20:10Z</time>
      </trkpt>
      <trkpt lat="47.917482" lon="7.565353">
        <ele>257.0</ele>
        <time>2020-07-13T06:20:12Z</time>
      </trkpt>
      <trkpt lat="47.917393" lon="7.565308">
        <ele>257.0</ele>
        <time>2020-07-13T06:20:14Z</time>
      </trkpt>
      <trkpt lat="47.917309" lon="7.565273">
        <ele>257.0</ele>
        <time>2020-07-13T06:20:16Z</time>
      </trkpt>
      <trkpt lat="47.917224" lon="7.565267">
        <ele>256.0</ele>
        <time>2020-07-13T06:20:18Z</time>
      </trkpt>
      <trkpt lat="47.917145" lon="7.565328">
        <ele>255.0</ele>
        <time>2020-07-13T06:20:20Z</time>
      </trkpt>
      <trkpt lat="47.917094" lon="7.565427">
        <ele>254.0</ele>
        <time>2020-07-13T06:20:22Z</time>
      </trkpt>
      <trkpt lat="47.917037" lon="7.565548">
        <ele>254.0</ele>
        <time>2020-07-13T06:20:24Z</time>
      </trkpt>
      <trkpt lat="47.916985" lon="7.565666">
        <ele>254.0</ele>
        <time>2020-07-13T06:20:26Z</time>
      </trkpt>
      <trkpt lat="47.916951" lon="7.565803">
        <ele>254.0</ele>
        <time>2020-07-13T06:20:28Z</time>
      </trkpt>
      <trkpt lat="47.916937" lon="7.56596">
        <ele>254.0</ele>
        <time>2020-07-13T06:20:30Z</time>
      </trkpt>
      <trkpt lat="47.916934" lon="7.566117">
        <ele>254.0</ele>
        <time>2020-07-13T06:20:32Z</time>
      </trkpt>
      <trkpt lat="47.916937" lon="7.566348">
        <ele>255.0</ele>
        <time>2020-07-13T06:20:35Z</time>
      </trkpt>
      <trkpt lat="47.916942" lon="7.566509">
        <ele>254.0</ele>
        <time>2020-07-13T06:20:37Z</time>
      </trkpt>
      <trkpt lat="47.916955" lon="7.566663">
        <ele>254.0</ele>
        <time>2020-07-13T06:20:39Z</time>
      </trkpt>
      <trkpt lat="47.916954" lon="7.566825">
        <ele>254.0</ele>
        <time>2020-07-13T06:20:41Z</time>
      </trkpt>
      <trkpt lat="47.916921" lon="7.56706">
        <ele>254.0</ele>
        <time>2020-07-13T06:20:44Z</time>
      </trkpt>
      <trkpt lat="47.916908" lon="7.567141">
        <ele>254.0</ele>
        <time>2020-07-13T06:20:45Z</time>
      </trkpt>
      <trkpt lat="47.916868" lon="7.567388">
        <ele>254.0</ele>
        <time>2020-07-13T06:20:48Z</time>
      </trkpt>
      <trkpt lat="47.916833" lon="7.567552">
        <ele>254.0</ele>
        <time>2020-07-13T06:20:50Z</time>
      </trkpt>
      <trkpt lat="47.916802" lon="7.567717">
        <ele>254.0</ele>
        <time>2020-07-13T06:20:52Z</time>
      </trkpt>
      <trkpt lat="47.916765" lon="7.567883">
        <ele>254.0</ele>
        <time>2020-07-13T06:20:54Z</time>
      </trkpt>
      <trkpt lat="47.916734" lon="7.568045">
        <ele>253.0</ele>
        <time>2020-07-13T06:20:56Z</time>
      </trkpt>
      <trkpt lat="47.916705" lon="7.5682">
        <ele>253.0</ele>
        <time>2020-07-13T06:20:58Z</time>
      </trkpt>
      <trkpt lat="47.916676" lon="7.568361">
        <ele>253.0</ele>
        <time>2020-07-13T06:21:00Z</time>
      </trkpt>
      <trkpt lat="47.916645" lon="7.568521">
        <ele>254.0</ele>
        <time>2020-07-13T06:21:02Z</time>
      </trkpt>
      <trkpt lat="47.916613" lon="7.568673">
        <ele>254.0</ele>
        <time>2020-07-13T06:21:04Z</time>
      </trkpt>
      <trkpt lat="47.91657" lon="7.568818">
        <ele>253.0</ele>
        <time>2020-07-13T06:21:06Z</time>
      </trkpt>
      <trkpt lat="47.916511" lon="7.56895">
        <ele>253.0</ele>
        <time>2020-07-13T06:21:08Z</time>
      </trkpt>
      <trkpt lat="47.916446" lon="7.569077">
        <ele>253.0</ele>
        <time>2020-07-13T06:21:10Z</time>
      </trkpt>
      <trkpt lat="47.916368" lon="7.569196">
        <ele>252.0</ele>
        <time>2020-07-13T06:21:12Z</time>
      </trkpt>
      <trkpt lat="47.91627" lon="7.569254">
        <ele>252.0</ele>
        <time>2020-07-13T06:21:14Z</time>
      </trkpt>
      <trkpt lat="47.916168" lon="7.56927">
        <ele>253.0</ele>
        <time>2020-07-13T06:21:16Z</time>
      </trkpt>
      <trkpt lat="47.916072" lon="7.569253">
        <ele>253.0</ele>
        <time>2020-07-13T06:21:18Z</time>
      </trkpt>
      <trkpt lat="47.915978" lon="7.569208">
        <ele>252.0</ele>
        <time>2020-07-13T06:21:20Z</time>
      </trkpt>
      <trkpt lat="47.915911" lon="7.569183">
        <ele>254.0</ele>
        <time>2020-07-13T06:21:22Z</time>
      </trkpt>
      <trkpt lat="47.915878" lon="7.569183">
        <ele>254.0</ele>
        <time>2020-07-13T06:21:24Z</time>
      </trkpt>
      <trkpt lat="47.915874" lon="7.569184">
        <ele>254.0</ele>
        <time>2020-07-13T06:21:26Z</time>
      </trkpt>
      <trkpt lat="47.915874" lon="7.569185">
        <ele>254.0</ele>
        <time>2020-07-13T06:21:28Z</time>
      </trkpt>
      <trkpt lat="47.915874" lon="7.569185">
        <ele>254.0</ele>
        <time>2020-07-13T06:21:30Z</time>
      </trkpt>
      <trkpt lat="47.915874" lon="7.569185">
        <ele>254.0</ele>
        <time>2020-07-13T06:21:32Z</time>
      </trkpt>
      <trkpt lat="47.915872" lon="7.569193">
        <ele>254.0</ele>
        <time>2020-07-13T06:21:57Z</time>
      </trkpt>
      <trkpt lat="47.915872" lon="7.569193">
        <ele>254.0</ele>
        <time>2020-07-13T06:21:58Z</time>
      </trkpt>
      <trkpt lat="47.915872" lon="7.569193">
        <ele>254.0</ele>
        <time>2020-07-13T06:22:01Z</time>
      </trkpt>
      <trkpt lat="47.915872" lon="7.569193">
        <ele>254.0</ele>
        <time>2020-07-13T06:22:03Z</time>
      </trkpt>
      <trkpt lat="47.915872" lon="7.569193">
        <ele>254.0</ele>
        <time>2020-07-13T06:22:05Z</time>
      </trkpt>
      <trkpt lat="47.915872" lon="7.569193">
        <ele>254.0</ele>
        <time>2020-07-13T06:22:06Z</time>
      </trkpt>
      <trkpt lat="47.915872" lon="7.569193">
        <ele>254.0</ele>
        <time>2020-07-13T06:22:09Z</time>
      </trkpt>
      <trkpt lat="47.915872" lon="7.569193">
        <ele>254.0</ele>
        <time>2020-07-13T06:22:10Z</time>
      </trkpt>
      <trkpt lat="47.915872" lon="7.569193">
        <ele>254.0</ele>
        <time>2020-07-13T06:22:13Z</time>
      </trkpt>
      <trkpt lat="47.915872" lon="7.569193">
        <ele>254.0</ele>
        <time>2020-07-13T06:22:15Z</time>
      </trkpt>
      <trkpt lat="47.915872" lon="7.569193">
        <ele>254.0</ele>
        <time>2020-07-13T06:22:17Z</time>
      </trkpt>
      <trkpt lat="47.915871" lon="7.569192">
        <ele>254.0</ele>
        <time>2020-07-13T06:22:19Z</time>
      </trkpt>
      <trkpt lat="47.915854" lon="7.569167">
        <ele>254.0</ele>
        <time>2020-07-13T06:22:21Z</time>
      </trkpt>
      <trkpt lat="47.91581" lon="7.569153">
        <ele>254.0</ele>
        <time>2020-07-13T06:22:23Z</time>
      </trkpt>
      <trkpt lat="47.915752" lon="7.569124">
        <ele>255.0</ele>
        <time>2020-07-13T06:22:25Z</time>
      </trkpt>
      <trkpt lat="47.915686" lon="7.569093">
        <ele>255.0</ele>
        <time>2020-07-13T06:22:27Z</time>
      </trkpt>
      <trkpt lat="47.915567" lon="7.569061">
        <ele>255.0</ele>
        <time>2020-07-13T06:22:30Z</time>
      </trkpt>
      <trkpt lat="47.91549" lon="7.569029">
        <ele>255.0</ele>
        <time>2020-07-13T06:22:32Z</time>
      </trkpt>
      <trkpt lat="47.915412" lon="7.568999">
        <ele>255.0</ele>
        <time>2020-07-13T06:22:34Z</time>
      </trkpt>
      <trkpt lat="47.915321" lon="7.568989">
        <ele>255.0</ele>
        <time>2020-07-13T06:22:36Z</time>
      </trkpt>
      <trkpt lat="47.915245" lon="7.56904">
        <ele>255.0</ele>
        <time>2020-07-13T06:22:38Z</time>
      </trkpt>
      <trkpt lat="47.915206" lon="7.569152">
        <ele>254.0</ele>
        <time>2020-07-13T06:22:40Z</time>
      </trkpt>
      <trkpt lat="47.915161" lon="7.569387">
        <ele>255.0</ele>
        <time>2020-07-13T06:22:43Z</time>
      </trkpt>
      <trkpt lat="47.915126" lon="7.569536">
        <ele>256.0</ele>
        <time>2020-07-13T06:22:45Z</time>
      </trkpt>
      <trkpt lat="47.915099" lon="7.56968">
        <ele>256.0</ele>
        <time>2020-07-13T06:22:47Z</time>
      </trkpt>
      <trkpt lat="47.915031" lon="7.569868">
        <ele>255.0</ele>
        <time>2020-07-13T06:22:50Z</time>
      </trkpt>
      <trkpt lat="47.914982" lon="7.569993">
        <ele>255.0</ele>
        <time>2020-07-13T06:22:52Z</time>
      </trkpt>
      <trkpt lat="47.914943" lon="7.570115">
        <ele>255.0</ele>
        <time>2020-07-13T06:22:54Z</time>
      </trkpt>
      <trkpt lat="47.914918" lon="7.570248">
        <ele>255.0</ele>
        <time>2020-07-13T06:22:56Z</time>
      </trkpt>
      <trkpt lat="47.914897" lon="7.570375">
        <ele>255.0</ele>
        <time>2020-07-13T06:22:58Z</time>
      </trkpt>
      <trkpt lat="47.914866" lon="7.570505">
        <ele>254.0</ele>
        <time>2020-07-13T06:23:00Z</time>
      </trkpt>
      <trkpt lat="47.914834" lon="7.570631">
        <ele>254.0</ele>
        <time>2020-07-13T06:23:02Z</time>
      </trkpt>
      <trkpt lat="47.914805" lon="7.570763">
        <ele>253.0</ele>
        <time>2020-07-13T06:23:04Z</time>
      </trkpt>
      <trkpt lat="47.914783" lon="7.570895">
        <ele>254.0</ele>
        <time>2020-07-13T06:23:06Z</time>
      </trkpt>
      <trkpt lat="47.914749" lon="7.571102">
        <ele>254.0</ele>
        <time>2020-07-13T06:23:09Z</time>
      </trkpt>
      <trkpt lat="47.914727" lon="7.571236">
        <ele>254.0</ele>
        <time>2020-07-13T06:23:11Z</time>
      </trkpt>
      <trkpt lat="47.914693" lon="7.571385">
        <ele>254.0</ele>
        <time>2020-07-13T06:23:13Z</time>
      </trkpt>
      <trkpt lat="47.914661" lon="7.571534">
        <ele>254.0</ele>
        <time>2020-07-13T06:23:15Z</time>
      </trkpt>
      <trkpt lat="47.914619" lon="7.571765">
        <ele>254.0</ele>
        <time>2020-07-13T06:23:18Z</time>
      </trkpt>
      <trkpt lat="47.914578" lon="7.571901">
        <ele>254.0</ele>
        <time>2020-07-13T06:23:20Z</time>
      </trkpt>
      <trkpt lat="47.914536" lon="7.572038">
        <ele>253.0</ele>
        <time>2020-07-13T06:23:22Z</time>
      </trkpt>
      <trkpt lat="47.914467" lon="7.572144">
        <ele>254.0</ele>
        <time>2020-07-13T06:23:24Z</time>
      </trkpt>
      <trkpt lat="47.91434" lon="7.572267">
        <ele>254.0</ele>
        <time>2020-07-13T06:23:27Z</time>
      </trkpt>
      <trkpt lat="47.914236" lon="7.572305">
        <ele>254.0</ele>
        <time>2020-07-13T06:23:29Z</time>
      </trkpt>
      <trkpt lat="47.914131" lon="7.57232">
        <ele>254.0</ele>
        <time>2020-07-13T06:23:31Z</time>
      </trkpt>
      <trkpt lat="47.914033" lon="7.572304">
        <ele>254.0</ele>
        <time>2020-07-13T06:23:33Z</time>
      </trkpt>
      <trkpt lat="47.913848" lon="7.572203">
        <ele>253.0</ele>
        <time>2020-07-13T06:23:37Z</time>
      </trkpt>
      <trkpt lat="47.913803" lon="7.572181">
        <ele>253.0</ele>
        <time>2020-07-13T06:23:38Z</time>
      </trkpt>
      <trkpt lat="47.913668" lon="7.57209">
        <ele>254.0</ele>
        <time>2020-07-13T06:23:41Z</time>
      </trkpt>
      <trkpt lat="47.913585" lon="7.572036">
        <ele>255.0</ele>
        <time>2020-07-13T06:23:43Z</time>
      </trkpt>
      <trkpt lat="47.913463" lon="7.571963">
        <ele>256.0</ele>
        <time>2020-07-13T06:23:46Z</time>
      </trkpt>
      <trkpt lat="47.913426" lon="7.571934">
        <ele>256.0</ele>
        <time>2020-07-13T06:23:47Z</time>
      </trkpt>
      <trkpt lat="47.913363" lon="7.571894">
        <ele>257.0</ele>
        <time>2020-07-13T06:23:49Z</time>
      </trkpt>
      <trkpt lat="47.913276" lon="7.571836">
        <ele>257.0</ele>
        <time>2020-07-13T06:23:52Z</time>
      </trkpt>
      <trkpt lat="47.913219" lon="7.571802">
        <ele>258.0</ele>
        <time>2020-07-13T06:23:54Z</time>
      </trkpt>
      <trkpt lat="47.91316" lon="7.57177">
        <ele>258.0</ele>
        <time>2020-07-13T06:23:56Z</time>
      </trkpt>
      <trkpt lat="47.913104" lon="7.57174">
        <ele>259.0</ele>
        <time>2020-07-13T06:23:58Z</time>
      </trkpt>
      <trkpt lat="47.913075" lon="7.571718">
        <ele>259.0</ele>
        <time>2020-07-13T06:23:59Z</time>
      </trkpt>
      <trkpt lat="47.91299" lon="7.571667">
        <ele>259.0</ele>
        <time>2020-07-13T06:24:02Z</time>
      </trkpt>
      <trkpt lat="47.912937" lon="7.571639">
        <ele>260.0</ele>
        <time>2020-07-13T06:24:04Z</time>
      </trkpt>
      <trkpt lat="47.912885" lon="7.571598">
        <ele>260.0</ele>
        <time>2020-07-13T06:24:06Z</time>
      </trkpt>
      <trkpt lat="47.91283" lon="7.571564">
        <ele>260.0</ele>
        <time>2020-07-13T06:24:08Z</time>
      </trkpt>
      <trkpt lat="47.912757" lon="7.571524">
        <ele>260.0</ele>
        <time>2020-07-13T06:24:11Z</time>
      </trkpt>
      <trkpt lat="47.912712" lon="7.571496">
        <ele>260.0</ele>
        <time>2020-07-13T06:24:13Z</time>
      </trkpt>
      <trkpt lat="47.912666" lon="7.571467">
        <ele>261.0</ele>
        <time>2020-07-13T06:24:15Z</time>
      </trkpt>
      <trkpt lat="47.912607" lon="7.57143">
        <ele>262.0</ele>
        <time>2020-07-13T06:24:18Z</time>
      </trkpt>
      <trkpt lat="47.912564" lon="7.571401">
        <ele>262.0</ele>
        <time>2020-07-13T06:24:20Z</time>
      </trkpt>
      <trkpt lat="47.91252" lon="7.571372">
        <ele>263.0</ele>
        <time>2020-07-13T06:24:22Z</time>
      </trkpt>
      <trkpt lat="47.912463" lon="7.571322">
        <ele>263.0</ele>
        <time>2020-07-13T06:24:25Z</time>
      </trkpt>
      <trkpt lat="47.91244" lon="7.571308">
        <ele>263.0</ele>
        <time>2020-07-13T06:24:26Z</time>
      </trkpt>
      <trkpt lat="47.912379" lon="7.57127">
        <ele>264.0</ele>
        <time>2020-07-13T06:24:29Z</time>
      </trkpt>
      <trkpt lat="47.912336" lon="7.571244">
        <ele>264.0</ele>
        <time>2020-07-13T06:24:31Z</time>
      </trkpt>
      <trkpt lat="47.912295" lon="7.571217">
        <ele>265.0</ele>
        <time>2020-07-13T06:24:33Z</time>
      </trkpt>
      <trkpt lat="47.912254" lon="7.571191">
        <ele>265.0</ele>
        <time>2020-07-13T06:24:35Z</time>
      </trkpt>
      <trkpt lat="47.912213" lon="7.571164">
        <ele>265.0</ele>
        <time>2020-07-13T06:24:37Z</time>
      </trkpt>
      <trkpt lat="47.912146" lon="7.571128">
        <ele>266.0</ele>
        <time>2020-07-13T06:24:40Z</time>
      </trkpt>
      <trkpt lat="47.912105" lon="7.571104">
        <ele>266.0</ele>
        <time>2020-07-13T06:24:42Z</time>
      </trkpt>
      <trkpt lat="47.912058" lon="7.571072">
        <ele>266.0</ele>
        <time>2020-07-13T06:24:44Z</time>
      </trkpt>
      <trkpt lat="47.912002" lon="7.571046">
        <ele>266.0</ele>
        <time>2020-07-13T06:24:46Z</time>
      </trkpt>
      <trkpt lat="47.911974" lon="7.571035">
        <ele>266.0</ele>
        <time>2020-07-13T06:24:47Z</time>
      </trkpt>
      <trkpt lat="47.91187" lon="7.571009">
        <ele>266.0</ele>
        <time>2020-07-13T06:24:50Z</time>
      </trkpt>
      <trkpt lat="47.911798" lon="7.571009">
        <ele>266.0</ele>
        <time>2020-07-13T06:24:52Z</time>
      </trkpt>
      <trkpt lat="47.91173" lon="7.571028">
        <ele>266.0</ele>
        <time>2020-07-13T06:24:54Z</time>
      </trkpt>
      <trkpt lat="47.911628" lon="7.571096">
        <ele>266.0</ele>
        <time>2020-07-13T06:24:57Z</time>
      </trkpt>
      <trkpt lat="47.911565" lon="7.571166">
        <ele>266.0</ele>
        <time>2020-07-13T06:24:59Z</time>
      </trkpt>
      <trkpt lat="47.911513" lon="7.571268">
        <ele>267.0</ele>
        <time>2020-07-13T06:25:01Z</time>
      </trkpt>
      <trkpt lat="47.911452" lon="7.571439">
        <ele>267.0</ele>
        <time>2020-07-13T06:25:04Z</time>
      </trkpt>
      <trkpt lat="47.911419" lon="7.571553">
        <ele>267.0</ele>
        <time>2020-07-13T06:25:06Z</time>
      </trkpt>
      <trkpt lat="47.911394" lon="7.571661">
        <ele>268.0</ele>
        <time>2020-07-13T06:25:08Z</time>
      </trkpt>
      <trkpt lat="47.911357" lon="7.571823">
        <ele>268.0</ele>
        <time>2020-07-13T06:25:11Z</time>
      </trkpt>
      <trkpt lat="47.911332" lon="7.571928">
        <ele>269.0</ele>
        <time>2020-07-13T06:25:13Z</time>
      </trkpt>
      <trkpt lat="47.911297" lon="7.572042">
        <ele>269.0</ele>
        <time>2020-07-13T06:25:15Z</time>
      </trkpt>
      <trkpt lat="47.911274" lon="7.572148">
        <ele>269.0</ele>
        <time>2020-07-13T06:25:17Z</time>
      </trkpt>
      <trkpt lat="47.911248" lon="7.572322">
        <ele>269.0</ele>
        <time>2020-07-13T06:25:20Z</time>
      </trkpt>
      <trkpt lat="47.911228" lon="7.572438">
        <ele>268.0</ele>
        <time>2020-07-13T06:25:22Z</time>
      </trkpt>
      <trkpt lat="47.911202" lon="7.572556">
        <ele>268.0</ele>
        <time>2020-07-13T06:25:24Z</time>
      </trkpt>
      <trkpt lat="47.911185" lon="7.572612">
        <ele>267.0</ele>
        <time>2020-07-13T06:25:25Z</time>
      </trkpt>
      <trkpt lat="47.911156" lon="7.572783">
        <ele>267.0</ele>
        <time>2020-07-13T06:25:28Z</time>
      </trkpt>
      <trkpt lat="47.911148" lon="7.572891">
        <ele>267.0</ele>
        <time>2020-07-13T06:25:30Z</time>
      </trkpt>
      <trkpt lat="47.911161" lon="7.573052">
        <ele>267.0</ele>
        <time>2020-07-13T06:25:33Z</time>
      </trkpt>
      <trkpt lat="47.911192" lon="7.573166">
        <ele>267.0</ele>
        <time>2020-07-13T06:25:35Z</time>
      </trkpt>
      <trkpt lat="47.911247" lon="7.573265">
        <ele>266.0</ele>
        <time>2020-07-13T06:25:37Z</time>
      </trkpt>
      <trkpt lat="47.911303" lon="7.573361">
        <ele>266.0</ele>
        <time>2020-07-13T06:25:39Z</time>
      </trkpt>
      <trkpt lat="47.911372" lon="7.573425">
        <ele>266.0</ele>
        <time>2020-07-13T06:25:41Z</time>
      </trkpt>
      <trkpt lat="47.911506" lon="7.573496">
        <ele>265.0</ele>
        <time>2020-07-13T06:25:44Z</time>
      </trkpt>
      <trkpt lat="47.911604" lon="7.573539">
        <ele>264.0</ele>
        <time>2020-07-13T06:25:46Z</time>
      </trkpt>
      <trkpt lat="47.91171" lon="7.573594">
        <ele>263.0</ele>
        <time>2020-07-13T06:25:48Z</time>
      </trkpt>
      <trkpt lat="47.911889" lon="7.573676">
        <ele>262.0</ele>
        <time>2020-07-13T06:25:51Z</time>
      </trkpt>
      <trkpt lat="47.912019" lon="7.573734">
        <ele>261.0</ele>
        <time>2020-07-13T06:25:53Z</time>
      </trkpt>
      <trkpt lat="47.91224" lon="7.573849">
        <ele>260.0</ele>
        <time>2020-07-13T06:25:56Z</time>
      </trkpt>
      <trkpt lat="47.912469" lon="7.573965">
        <ele>259.0</ele>
        <time>2020-07-13T06:25:59Z</time>
      </trkpt>
      <trkpt lat="47.912546" lon="7.573998">
        <ele>259.0</ele>
        <time>2020-07-13T06:26:00Z</time>
      </trkpt>
      <trkpt lat="47.912783" lon="7.574113">
        <ele>258.0</ele>
        <time>2020-07-13T06:26:03Z</time>
      </trkpt>
      <trkpt lat="47.913034" lon="7.574231">
        <ele>257.0</ele>
        <time>2020-07-13T06:26:06Z</time>
      </trkpt>
      <trkpt lat="47.913196" lon="7.574308">
        <ele>257.0</ele>
        <time>2020-07-13T06:26:08Z</time>
      </trkpt>
      <trkpt lat="47.91336" lon="7.574388">
        <ele>256.0</ele>
        <time>2020-07-13T06:26:10Z</time>
      </trkpt>
      <trkpt lat="47.913525" lon="7.57447">
        <ele>256.0</ele>
        <time>2020-07-13T06:26:12Z</time>
      </trkpt>
      <trkpt lat="47.913683" lon="7.574551">
        <ele>255.0</ele>
        <time>2020-07-13T06:26:14Z</time>
      </trkpt>
      <trkpt lat="47.91383" lon="7.574632">
        <ele>255.0</ele>
        <time>2020-07-13T06:26:16Z</time>
      </trkpt>
      <trkpt lat="47.913972" lon="7.574729">
        <ele>254.0</ele>
        <time>2020-07-13T06:26:18Z</time>
      </trkpt>
      <trkpt lat="47.914076" lon="7.574885">
        <ele>254.0</ele>
        <time>2020-07-13T06:26:20Z</time>
      </trkpt>
      <trkpt lat="47.914135" lon="7.57508">
        <ele>254.0</ele>
        <time>2020-07-13T06:26:22Z</time>
      </trkpt>
      <trkpt lat="47.914142" lon="7.575296">
        <ele>254.0</ele>
        <time>2020-07-13T06:26:24Z</time>
      </trkpt>
      <trkpt lat="47.914134" lon="7.575494">
        <ele>254.0</ele>
        <time>2020-07-13T06:26:26Z</time>
      </trkpt>
      <trkpt lat="47.91411" lon="7.575681">
        <ele>253.0</ele>
        <time>2020-07-13T06:26:28Z</time>
      </trkpt>
      <trkpt lat="47.914088" lon="7.575876">
        <ele>253.0</ele>
        <time>2020-07-13T06:26:30Z</time>
      </trkpt>
      <trkpt lat="47.914069" lon="7.576069">
        <ele>253.0</ele>
        <time>2020-07-13T06:26:32Z</time>
      </trkpt>
      <trkpt lat="47.914039" lon="7.576252">
        <ele>253.0</ele>
        <time>2020-07-13T06:26:34Z</time>
      </trkpt>
      <trkpt lat="47.913995" lon="7.576425">
        <ele>253.0</ele>
        <time>2020-07-13T06:26:36Z</time>
      </trkpt>
      <trkpt lat="47.913938" lon="7.576575">
        <ele>253.0</ele>
        <time>2020-07-13T06:26:38Z</time>
      </trkpt>
      <trkpt lat="47.913866" lon="7.576708">
        <ele>253.0</ele>
        <time>2020-07-13T06:26:40Z</time>
      </trkpt>
      <trkpt lat="47.913782" lon="7.576821">
        <ele>253.0</ele>
        <time>2020-07-13T06:26:42Z</time>
      </trkpt>
      <trkpt lat="47.913703" lon="7.576916">
        <ele>253.0</ele>
        <time>2020-07-13T06:26:44Z</time>
      </trkpt>
      <trkpt lat="47.913624" lon="7.576985">
        <ele>253.0</ele>
        <time>2020-07-13T06:26:46Z</time>
      </trkpt>
      <trkpt lat="47.913534" lon="7.577035">
        <ele>253.0</ele>
        <time>2020-07-13T06:26:48Z</time>
      </trkpt>
      <trkpt lat="47.913443" lon="7.577081">
        <ele>253.0</ele>
        <time>2020-07-13T06:26:50Z</time>
      </trkpt>
      <trkpt lat="47.91335" lon="7.577128">
        <ele>253.0</ele>
        <time>2020-07-13T06:26:52Z</time>
      </trkpt>
      <trkpt lat="47.913255" lon="7.577181">
        <ele>253.0</ele>
        <time>2020-07-13T06:26:54Z</time>
      </trkpt>
      <trkpt lat="47.913149" lon="7.577241">
        <ele>253.0</ele>
        <time>2020-07-13T06:26:56Z</time>
      </trkpt>
      <trkpt lat="47.913044" lon="7.577293">
        <ele>253.0</ele>
        <time>2020-07-13T06:26:58Z</time>
      </trkpt>
      <trkpt lat="47.912943" lon="7.577342">
        <ele>253.0</ele>
        <time>2020-07-13T06:27:00Z</time>
      </trkpt>
      <trkpt lat="47.912834" lon="7.577405">
        <ele>253.0</ele>
        <time>2020-07-13T06:27:02Z</time>
      </trkpt>
      <trkpt lat="47.912727" lon="7.577457">
        <ele>254.0</ele>
        <time>2020-07-13T06:27:04Z</time>
      </trkpt>
      <trkpt lat="47.912623" lon="7.577517">
        <ele>254.0</ele>
        <time>2020-07-13T06:27:06Z</time>
      </trkpt>
      <trkpt lat="47.912569" lon="7.577547">
        <ele>254.0</ele>
        <time>2020-07-13T06:27:07Z</time>
      </trkpt>
      <trkpt lat="47.91235" lon="7.577646">
        <ele>254.0</ele>
        <time>2020-07-13T06:27:11Z</time>
      </trkpt>
      <trkpt lat="47.912243" lon="7.577688">
        <ele>254.0</ele>
        <time>2020-07-13T06:27:13Z</time>
      </trkpt>
      <trkpt lat="47.912133" lon="7.577742">
        <ele>253.0</ele>
        <time>2020-07-13T06:27:15Z</time>
      </trkpt>
      <trkpt lat="47.912024" lon="7.5778">
        <ele>254.0</ele>
        <time>2020-07-13T06:27:17Z</time>
      </trkpt>
      <trkpt lat="47.911914" lon="7.577852">
        <ele>255.0</ele>
        <time>2020-07-13T06:27:19Z</time>
      </trkpt>
      <trkpt lat="47.911745" lon="7.577939">
        <ele>254.0</ele>
        <time>2020-07-13T06:27:22Z</time>
      </trkpt>
      <trkpt lat="47.911639" lon="7.578001">
        <ele>254.0</ele>
        <time>2020-07-13T06:27:24Z</time>
      </trkpt>
      <trkpt lat="47.911527" lon="7.578053">
        <ele>255.0</ele>
        <time>2020-07-13T06:27:26Z</time>
      </trkpt>
      <trkpt lat="47.911358" lon="7.578125">
        <ele>256.0</ele>
        <time>2020-07-13T06:27:29Z</time>
      </trkpt>
      <trkpt lat="47.911247" lon="7.578186">
        <ele>256.0</ele>
        <time>2020-07-13T06:27:31Z</time>
      </trkpt>
      <trkpt lat="47.911139" lon="7.578237">
        <ele>256.0</ele>
        <time>2020-07-13T06:27:33Z</time>
      </trkpt>
      <trkpt lat="47.910985" lon="7.578319">
        <ele>256.0</ele>
        <time>2020-07-13T06:27:36Z</time>
      </trkpt>
      <trkpt lat="47.910881" lon="7.57837">
        <ele>256.0</ele>
        <time>2020-07-13T06:27:38Z</time>
      </trkpt>
      <trkpt lat="47.910827" lon="7.578398">
        <ele>256.0</ele>
        <time>2020-07-13T06:27:39Z</time>
      </trkpt>
      <trkpt lat="47.910662" lon="7.578489">
        <ele>255.0</ele>
        <time>2020-07-13T06:27:42Z</time>
      </trkpt>
      <trkpt lat="47.910557" lon="7.578545">
        <ele>255.0</ele>
        <time>2020-07-13T06:27:44Z</time>
      </trkpt>
      <trkpt lat="47.910391" lon="7.578629">
        <ele>254.0</ele>
        <time>2020-07-13T06:27:47Z</time>
      </trkpt>
      <trkpt lat="47.910276" lon="7.578682">
        <ele>254.0</ele>
        <time>2020-07-13T06:27:49Z</time>
      </trkpt>
      <trkpt lat="47.91017" lon="7.578731">
        <ele>254.0</ele>
        <time>2020-07-13T06:27:51Z</time>
      </trkpt>
      <trkpt lat="47.910062" lon="7.578787">
        <ele>254.0</ele>
        <time>2020-07-13T06:27:53Z</time>
      </trkpt>
      <trkpt lat="47.909955" lon="7.57884">
        <ele>254.0</ele>
        <time>2020-07-13T06:27:55Z</time>
      </trkpt>
      <trkpt lat="47.909846" lon="7.578892">
        <ele>253.0</ele>
        <time>2020-07-13T06:27:57Z</time>
      </trkpt>
      <trkpt lat="47.909738" lon="7.578951">
        <ele>253.0</ele>
        <time>2020-07-13T06:27:59Z</time>
      </trkpt>
      <trkpt lat="47.909627" lon="7.579012">
        <ele>254.0</ele>
        <time>2020-07-13T06:28:01Z</time>
      </trkpt>
      <trkpt lat="47.90946" lon="7.579105">
        <ele>254.0</ele>
        <time>2020-07-13T06:28:04Z</time>
      </trkpt>
      <trkpt lat="47.909349" lon="7.579168">
        <ele>254.0</ele>
        <time>2020-07-13T06:28:06Z</time>
      </trkpt>
      <trkpt lat="47.909244" lon="7.579228">
        <ele>254.0</ele>
        <time>2020-07-13T06:28:08Z</time>
      </trkpt>
      <trkpt lat="47.909084" lon="7.579305">
        <ele>255.0</ele>
        <time>2020-07-13T06:28:11Z</time>
      </trkpt>
      <trkpt lat="47.908983" lon="7.579367">
        <ele>255.0</ele>
        <time>2020-07-13T06:28:13Z</time>
      </trkpt>
      <trkpt lat="47.908877" lon="7.579414">
        <ele>255.0</ele>
        <time>2020-07-13T06:28:15Z</time>
      </trkpt>
      <trkpt lat="47.908715" lon="7.579484">
        <ele>256.0</ele>
        <time>2020-07-13T06:28:18Z</time>
      </trkpt>
      <trkpt lat="47.908603" lon="7.579537">
        <ele>255.0</ele>
        <time>2020-07-13T06:28:20Z</time>
      </trkpt>
      <trkpt lat="47.908493" lon="7.579595">
        <ele>255.0</ele>
        <time>2020-07-13T06:28:22Z</time>
      </trkpt>
      <trkpt lat="47.908328" lon="7.579684">
        <ele>255.0</ele>
        <time>2020-07-13T06:28:25Z</time>
      </trkpt>
      <trkpt lat="47.908226" lon="7.579762">
        <ele>255.0</ele>
        <time>2020-07-13T06:28:27Z</time>
      </trkpt>
      <trkpt lat="47.908145" lon="7.579864">
        <ele>255.0</ele>
        <time>2020-07-13T06:28:29Z</time>
      </trkpt>
      <trkpt lat="47.908111" lon="7.57992">
        <ele>255.0</ele>
        <time>2020-07-13T06:28:30Z</time>
      </trkpt>
      <trkpt lat="47.90801" lon="7.580191">
        <ele>254.0</ele>
        <time>2020-07-13T06:28:34Z</time>
      </trkpt>
      <trkpt lat="47.907981" lon="7.580338">
        <ele>255.0</ele>
        <time>2020-07-13T06:28:36Z</time>
      </trkpt>
      <trkpt lat="47.907979" lon="7.58048">
        <ele>256.0</ele>
        <time>2020-07-13T06:28:38Z</time>
      </trkpt>
      <trkpt lat="47.908003" lon="7.580608">
        <ele>257.0</ele>
        <time>2020-07-13T06:28:40Z</time>
      </trkpt>
      <trkpt lat="47.908029" lon="7.580725">
        <ele>257.0</ele>
        <time>2020-07-13T06:28:42Z</time>
      </trkpt>
      <trkpt lat="47.90804" lon="7.580845">
        <ele>257.0</ele>
        <time>2020-07-13T06:28:44Z</time>
      </trkpt>
      <trkpt lat="47.908047" lon="7.580979">
        <ele>257.0</ele>
        <time>2020-07-13T06:28:46Z</time>
      </trkpt>
      <trkpt lat="47.90805" lon="7.581108">
        <ele>257.0</ele>
        <time>2020-07-13T06:28:48Z</time>
      </trkpt>
      <trkpt lat="47.908067" lon="7.581293">
        <ele>258.0</ele>
        <time>2020-07-13T06:28:51Z</time>
      </trkpt>
      <trkpt lat="47.908078" lon="7.581417">
        <ele>258.0</ele>
        <time>2020-07-13T06:28:53Z</time>
      </trkpt>
      <trkpt lat="47.908095" lon="7.581536">
        <ele>258.0</ele>
        <time>2020-07-13T06:28:55Z</time>
      </trkpt>
      <trkpt lat="47.908105" lon="7.581643">
        <ele>258.0</ele>
        <time>2020-07-13T06:28:57Z</time>
      </trkpt>
      <trkpt lat="47.908108" lon="7.581739">
        <ele>258.0</ele>
        <time>2020-07-13T06:28:59Z</time>
      </trkpt>
      <trkpt lat="47.908126" lon="7.581855">
        <ele>258.0</ele>
        <time>2020-07-13T06:29:02Z</time>
      </trkpt>
      <trkpt lat="47.908135" lon="7.581957">
        <ele>259.0</ele>
        <time>2020-07-13T06:29:05Z</time>
      </trkpt>
      <trkpt lat="47.908141" lon="7.582025">
        <ele>259.0</ele>
        <time>2020-07-13T06:29:08Z</time>
      </trkpt>
      <trkpt lat="47.908143" lon="7.582042">
        <ele>259.0</ele>
        <time>2020-07-13T06:29:11Z</time>
      </trkpt>
      <trkpt lat="47.908139" lon="7.582043">
        <ele>260.0</ele>
        <time>2020-07-13T06:29:13Z</time>
      </trkpt>
      <trkpt lat="47.908139" lon="7.582043">
        <ele>260.0</ele>
        <time>2020-07-13T06:29:15Z</time>
      </trkpt>
      <trkpt lat="47.908138" lon="7.582058">
        <ele>259.0</ele>
        <time>2020-07-13T06:29:17Z</time>
      </trkpt>
      <trkpt lat="47.908138" lon="7.582104">
        <ele>261.0</ele>
        <time>2020-07-13T06:30:27Z</time>
      </trkpt>
      <trkpt lat="47.908138" lon="7.582104">
        <ele>261.0</ele>
        <time>2020-07-13T06:30:30Z</time>
      </trkpt>
      <trkpt lat="47.908138" lon="7.582091">
        <ele>261.0</ele>
        <time>2020-07-13T06:30:32Z</time>
      </trkpt>
      <trkpt lat="47.908143" lon="7.582076">
        <ele>261.0</ele>
        <time>2020-07-13T06:30:34Z</time>
      </trkpt>
      <trkpt lat="47.908144" lon="7.582067">
        <ele>261.0</ele>
        <time>2020-07-13T06:30:35Z</time>
      </trkpt>
      <trkpt lat="47.908139" lon="7.582063">
        <ele>262.0</ele>
        <time>2020-07-13T06:30:38Z</time>
      </trkpt>
      <trkpt lat="47.908141" lon="7.582066">
        <ele>262.0</ele>
        <time>2020-07-13T06:30:40Z</time>
      </trkpt>
      <trkpt lat="47.908141" lon="7.582066">
        <ele>262.0</ele>
        <time>2020-07-13T06:30:41Z</time>
      </trkpt>
      <trkpt lat="47.908141" lon="7.582066">
        <ele>262.0</ele>
        <time>2020-07-13T06:30:44Z</time>
      </trkpt>
      <trkpt lat="47.908144" lon="7.582059">
        <ele>262.0</ele>
        <time>2020-07-13T06:30:46Z</time>
      </trkpt>
      <trkpt lat="47.908139" lon="7.582077">
        <ele>261.0</ele>
        <time>2020-07-13T06:30:48Z</time>
      </trkpt>
      <trkpt lat="47.908133" lon="7.58209">
        <ele>261.0</ele>
        <time>2020-07-13T06:30:50Z</time>
      </trkpt>
      <trkpt lat="47.908135" lon="7.582141">
        <ele>261.0</ele>
        <time>2020-07-13T06:30:52Z</time>
      </trkpt>
      <trkpt lat="47.908138" lon="7.582206">
        <ele>262.0</ele>
        <time>2020-07-13T06:30:54Z</time>
      </trkpt>
      <trkpt lat="47.908141" lon="7.582297">
        <ele>262.0</ele>
        <time>2020-07-13T06:30:56Z</time>
      </trkpt>
      <trkpt lat="47.908153" lon="7.582401">
        <ele>262.0</ele>
        <time>2020-07-13T06:30:58Z</time>
      </trkpt>
      <trkpt lat="47.908149" lon="7.582459">
        <ele>263.0</ele>
        <time>2020-07-13T06:30:59Z</time>
      </trkpt>
      <trkpt lat="47.908149" lon="7.582693">
        <ele>262.0</ele>
        <time>2020-07-13T06:31:03Z</time>
      </trkpt>
      <trkpt lat="47.908159" lon="7.582805">
        <ele>262.0</ele>
        <time>2020-07-13T06:31:05Z</time>
      </trkpt>
      <trkpt lat="47.908166" lon="7.582923">
        <ele>261.0</ele>
        <time>2020-07-13T06:31:07Z</time>
      </trkpt>
      <trkpt lat="47.908176" lon="7.583051">
        <ele>261.0</ele>
        <time>2020-07-13T06:31:09Z</time>
      </trkpt>
      <trkpt lat="47.908183" lon="7.583114">
        <ele>261.0</ele>
        <time>2020-07-13T06:31:10Z</time>
      </trkpt>
      <trkpt lat="47.908202" lon="7.583243">
        <ele>261.0</ele>
        <time>2020-07-13T06:31:12Z</time>
      </trkpt>
      <trkpt lat="47.908214" lon="7.583441">
        <ele>260.0</ele>
        <time>2020-07-13T06:31:15Z</time>
      </trkpt>
      <trkpt lat="47.908222" lon="7.583579">
        <ele>260.0</ele>
        <time>2020-07-13T06:31:17Z</time>
      </trkpt>
      <trkpt lat="47.908241" lon="7.58379">
        <ele>260.0</ele>
        <time>2020-07-13T06:31:20Z</time>
      </trkpt>
      <trkpt lat="47.908254" lon="7.583943">
        <ele>260.0</ele>
        <time>2020-07-13T06:31:22Z</time>
      </trkpt>
      <trkpt lat="47.908271" lon="7.584098">
        <ele>260.0</ele>
        <time>2020-07-13T06:31:24Z</time>
      </trkpt>
      <trkpt lat="47.908313" lon="7.584345">
        <ele>259.0</ele>
        <time>2020-07-13T06:31:27Z</time>
      </trkpt>
      <trkpt lat="47.908332" lon="7.584525">
        <ele>259.0</ele>
        <time>2020-07-13T06:31:29Z</time>
      </trkpt>
      <trkpt lat="47.908346" lon="7.584722">
        <ele>258.0</ele>
        <time>2020-07-13T06:31:31Z</time>
      </trkpt>
      <trkpt lat="47.908363" lon="7.584916">
        <ele>258.0</ele>
        <time>2020-07-13T06:31:33Z</time>
      </trkpt>
      <trkpt lat="47.908384" lon="7.585119">
        <ele>257.0</ele>
        <time>2020-07-13T06:31:35Z</time>
      </trkpt>
      <trkpt lat="47.908404" lon="7.585337">
        <ele>257.0</ele>
        <time>2020-07-13T06:31:37Z</time>
      </trkpt>
      <trkpt lat="47.908436" lon="7.585673">
        <ele>257.0</ele>
        <time>2020-07-13T06:31:40Z</time>
      </trkpt>
      <trkpt lat="47.908446" lon="7.585898">
        <ele>257.0</ele>
        <time>2020-07-13T06:31:42Z</time>
      </trkpt>
      <trkpt lat="47.908457" lon="7.586117">
        <ele>257.0</ele>
        <time>2020-07-13T06:31:44Z</time>
      </trkpt>
      <trkpt lat="47.908468" lon="7.58633">
        <ele>257.0</ele>
        <time>2020-07-13T06:31:46Z</time>
      </trkpt>
      <trkpt lat="47.908477" lon="7.586514">
        <ele>258.0</ele>
        <time>2020-07-13T06:31:48Z</time>
      </trkpt>
      <trkpt lat="47.908489" lon="7.586679">
        <ele>258.0</ele>
        <time>2020-07-13T06:31:50Z</time>
      </trkpt>
      <trkpt lat="47.90849" lon="7.586834">
        <ele>259.0</ele>
        <time>2020-07-13T06:31:52Z</time>
      </trkpt>
      <trkpt lat="47.908496" lon="7.587029">
        <ele>259.0</ele>
        <time>2020-07-13T06:31:55Z</time>
      </trkpt>
      <trkpt lat="47.908498" lon="7.587144">
        <ele>260.0</ele>
        <time>2020-07-13T06:31:57Z</time>
      </trkpt>
      <trkpt lat="47.9085" lon="7.587204">
        <ele>260.0</ele>
        <time>2020-07-13T06:31:58Z</time>
      </trkpt>
      <trkpt lat="47.908502" lon="7.587388">
        <ele>261.0</ele>
        <time>2020-07-13T06:32:01Z</time>
      </trkpt>
      <trkpt lat="47.908516" lon="7.587522">
        <ele>261.0</ele>
        <time>2020-07-13T06:32:03Z</time>
      </trkpt>
      <trkpt lat="47.908557" lon="7.587697">
        <ele>261.0</ele>
        <time>2020-07-13T06:32:06Z</time>
      </trkpt>
      <trkpt lat="47.908576" lon="7.587808">
        <ele>261.0</ele>
        <time>2020-07-13T06:32:08Z</time>
      </trkpt>
      <trkpt lat="47.908583" lon="7.587938">
        <ele>262.0</ele>
        <time>2020-07-13T06:32:10Z</time>
      </trkpt>
      <trkpt lat="47.908577" lon="7.588117">
        <ele>262.0</ele>
        <time>2020-07-13T06:32:13Z</time>
      </trkpt>
      <trkpt lat="47.908562" lon="7.588245">
        <ele>263.0</ele>
        <time>2020-07-13T06:32:15Z</time>
      </trkpt>
      <trkpt lat="47.908537" lon="7.588374">
        <ele>263.0</ele>
        <time>2020-07-13T06:32:17Z</time>
      </trkpt>
      <trkpt lat="47.908518" lon="7.588504">
        <ele>263.0</ele>
        <time>2020-07-13T06:32:19Z</time>
      </trkpt>
      <trkpt lat="47.908496" lon="7.58863">
        <ele>263.0</ele>
        <time>2020-07-13T06:32:21Z</time>
      </trkpt>
      <trkpt lat="47.908478" lon="7.58874">
        <ele>263.0</ele>
        <time>2020-07-13T06:32:23Z</time>
      </trkpt>
      <trkpt lat="47.908447" lon="7.588927">
        <ele>264.0</ele>
        <time>2020-07-13T06:32:26Z</time>
      </trkpt>
      <trkpt lat="47.908425" lon="7.589054">
        <ele>264.0</ele>
        <time>2020-07-13T06:32:28Z</time>
      </trkpt>
      <trkpt lat="47.908403" lon="7.589184">
        <ele>264.0</ele>
        <time>2020-07-13T06:32:30Z</time>
      </trkpt>
      <trkpt lat="47.908379" lon="7.589314">
        <ele>265.0</ele>
        <time>2020-07-13T06:32:32Z</time>
      </trkpt>
      <trkpt lat="47.908342" lon="7.589513">
        <ele>265.0</ele>
        <time>2020-07-13T06:32:35Z</time>
      </trkpt>
      <trkpt lat="47.908312" lon="7.589651">
        <ele>264.0</ele>
        <time>2020-07-13T06:32:37Z</time>
      </trkpt>
      <trkpt lat="47.908285" lon="7.589789">
        <ele>264.0</ele>
        <time>2020-07-13T06:32:39Z</time>
      </trkpt>
      <trkpt lat="47.908263" lon="7.589937">
        <ele>263.0</ele>
        <time>2020-07-13T06:32:41Z</time>
      </trkpt>
      <trkpt lat="47.908255" lon="7.590013">
        <ele>263.0</ele>
        <time>2020-07-13T06:32:42Z</time>
      </trkpt>
      <trkpt lat="47.908199" lon="7.590333">
        <ele>263.0</ele>
        <time>2020-07-13T06:32:46Z</time>
      </trkpt>
      <trkpt lat="47.908165" lon="7.590502">
        <ele>263.0</ele>
        <time>2020-07-13T06:32:48Z</time>
      </trkpt>
      <trkpt lat="47.908131" lon="7.590675">
        <ele>262.0</ele>
        <time>2020-07-13T06:32:50Z</time>
      </trkpt>
      <trkpt lat="47.908105" lon="7.590812">
        <ele>262.0</ele>
        <time>2020-07-13T06:32:52Z</time>
      </trkpt>
      <trkpt lat="47.908093" lon="7.590935">
        <ele>261.0</ele>
        <time>2020-07-13T06:32:54Z</time>
      </trkpt>
      <trkpt lat="47.908071" lon="7.5912">
        <ele>259.0</ele>
        <time>2020-07-13T06:32:58Z</time>
      </trkpt>
      <trkpt lat="47.908103" lon="7.591344">
        <ele>260.0</ele>
        <time>2020-07-13T06:33:00Z</time>
      </trkpt>
      <trkpt lat="47.908061" lon="7.591441">
        <ele>260.0</ele>
        <time>2020-07-13T06:33:02Z</time>
      </trkpt>
      <trkpt lat="47.907988" lon="7.591613">
        <ele>259.0</ele>
        <time>2020-07-13T06:33:05Z</time>
      </trkpt>
      <trkpt lat="47.907946" lon="7.591769">
        <ele>259.0</ele>
        <time>2020-07-13T06:33:07Z</time>
      </trkpt>
      <trkpt lat="47.907912" lon="7.591921">
        <ele>259.0</ele>
        <time>2020-07-13T06:33:09Z</time>
      </trkpt>
      <trkpt lat="47.907884" lon="7.592085">
        <ele>259.0</ele>
        <time>2020-07-13T06:33:11Z</time>
      </trkpt>
      <trkpt lat="47.90787" lon="7.592171">
        <ele>258.0</ele>
        <time>2020-07-13T06:33:12Z</time>
      </trkpt>
      <trkpt lat="47.907828" lon="7.592422">
        <ele>259.0</ele>
        <time>2020-07-13T06:33:15Z</time>
      </trkpt>
      <trkpt lat="47.907801" lon="7.59258">
        <ele>259.0</ele>
        <time>2020-07-13T06:33:17Z</time>
      </trkpt>
      <trkpt lat="47.907775" lon="7.592729">
        <ele>258.0</ele>
        <time>2020-07-13T06:33:19Z</time>
      </trkpt>
      <trkpt lat="47.907755" lon="7.592874">
        <ele>258.0</ele>
        <time>2020-07-13T06:33:21Z</time>
      </trkpt>
      <trkpt lat="47.907724" lon="7.59303">
        <ele>259.0</ele>
        <time>2020-07-13T06:33:24Z</time>
      </trkpt>
      <trkpt lat="47.907732" lon="7.593048">
        <ele>259.0</ele>
        <time>2020-07-13T06:33:26Z</time>
      </trkpt>
      <trkpt lat="47.907737" lon="7.593047">
        <ele>259.0</ele>
        <time>2020-07-13T06:33:28Z</time>
      </trkpt>
      <trkpt lat="47.907739" lon="7.593039">
        <ele>259.0</ele>
        <time>2020-07-13T06:33:30Z</time>
      </trkpt>
      <trkpt lat="47.907743" lon="7.592992">
        <ele>259.0</ele>
        <time>2020-07-13T06:33:33Z</time>
      </trkpt>
      <trkpt lat="47.907754" lon="7.592938">
        <ele>258.0</ele>
        <time>2020-07-13T06:33:35Z</time>
      </trkpt>
      <trkpt lat="47.907764" lon="7.592868">
        <ele>258.0</ele>
        <time>2020-07-13T06:33:37Z</time>
      </trkpt>
      <trkpt lat="47.907781" lon="7.59273">
        <ele>258.0</ele>
        <time>2020-07-13T06:33:40Z</time>
      </trkpt>
      <trkpt lat="47.907815" lon="7.592638">
        <ele>257.0</ele>
        <time>2020-07-13T06:33:42Z</time>
      </trkpt>
      <trkpt lat="47.907888" lon="7.592615">
        <ele>258.0</ele>
        <time>2020-07-13T06:33:44Z</time>
      </trkpt>
      <trkpt lat="47.907966" lon="7.59261">
        <ele>257.0</ele>
        <time>2020-07-13T06:33:46Z</time>
      </trkpt>
      <trkpt lat="47.908074" lon="7.59259">
        <ele>258.0</ele>
        <time>2020-07-13T06:33:49Z</time>
      </trkpt>
      <trkpt lat="47.908121" lon="7.592642">
        <ele>258.0</ele>
        <time>2020-07-13T06:33:51Z</time>
      </trkpt>
      <trkpt lat="47.908129" lon="7.592731">
        <ele>258.0</ele>
        <time>2020-07-13T06:33:53Z</time>
      </trkpt>
      <trkpt lat="47.908139" lon="7.592806">
        <ele>258.0</ele>
        <time>2020-07-13T06:33:55Z</time>
      </trkpt>
      <trkpt lat="47.908173" lon="7.592838">
        <ele>259.0</ele>
        <time>2020-07-13T06:33:57Z</time>
      </trkpt>
      <trkpt lat="47.908185" lon="7.592813">
        <ele>259.0</ele>
        <time>2020-07-13T06:34:00Z</time>
      </trkpt>
      <trkpt lat="47.908186" lon="7.592811">
        <ele>259.0</ele>
        <time>2020-07-13T06:34:02Z</time>
      </trkpt>
      <trkpt lat="47.908186" lon="7.592811">
        <ele>259.0</ele>
        <time>2020-07-13T06:34:04Z</time>
      </trkpt>
      <trkpt lat="47.908186" lon="7.592811">
        <ele>259.0</ele>
        <time>2020-07-13T06:34:06Z</time>
      </trkpt>
      <trkpt lat="47.908186" lon="7.592811">
        <ele>259.0</ele>
        <time>2020-07-13T06:34:08Z</time>
      </trkpt>
      <trkpt lat="47.908186" lon="7.592811">
        <ele>259.0</ele>
        <time>2020-07-13T06:34:10Z</time>
      </trkpt>
      <trkpt lat="47.908186" lon="7.592811">
        <ele>259.0</ele>
        <time>2020-07-13T06:34:12Z</time>
      </trkpt>
      <trkpt lat="47.908186" lon="7.592811">
        <ele>259.0</ele>
        <time>2020-07-13T06:34:15Z</time>
      </trkpt>
      <trkpt lat="47.908186" lon="7.592811">
        <ele>259.0</ele>
        <time>2020-07-13T06:34:17Z</time>
      </trkpt>
      <trkpt lat="47.908186" lon="7.592811">
        <ele>259.0</ele>
        <time>2020-07-13T06:34:19Z</time>
      </trkpt>
      <trkpt lat="47.908186" lon="7.592811">
        <ele>259.0</ele>
        <time>2020-07-13T06:34:22Z</time>
      </trkpt>
      <trkpt lat="47.908186" lon="7.592811">
        <ele>259.0</ele>
        <time>2020-07-13T06:34:24Z</time>
      </trkpt>
      <trkpt lat="47.908186" lon="7.592811">
        <ele>259.0</ele>
        <time>2020-07-13T06:34:26Z</time>
      </trkpt>
      <trkpt lat="47.908173" lon="7.592812">
        <ele>259.0</ele>
        <time>2020-07-13T06:34:28Z</time>
      </trkpt>
      <trkpt lat="47.908142" lon="7.592702">
        <ele>260.0</ele>
        <time>2020-07-13T06:34:31Z</time>
      </trkpt>
      <trkpt lat="47.908152" lon="7.592594">
        <ele>260.0</ele>
        <time>2020-07-13T06:34:33Z</time>
      </trkpt>
      <trkpt lat="47.908172" lon="7.592457">
        <ele>260.0</ele>
        <time>2020-07-13T06:34:36Z</time>
      </trkpt>
      <trkpt lat="47.908181" lon="7.592386">
        <ele>260.0</ele>
        <time>2020-07-13T06:34:38Z</time>
      </trkpt>
      <trkpt lat="47.908192" lon="7.592301">
        <ele>259.0</ele>
        <time>2020-07-13T06:34:40Z</time>
      </trkpt>
      <trkpt lat="47.908239" lon="7.592239">
        <ele>259.0</ele>
        <time>2020-07-13T06:34:42Z</time>
      </trkpt>
      <trkpt lat="47.908302" lon="7.592225">
        <ele>259.0</ele>
        <time>2020-07-13T06:34:44Z</time>
      </trkpt>
      <trkpt lat="47.908352" lon="7.592222">
        <ele>259.0</ele>
        <time>2020-07-13T06:34:47Z</time>
      </trkpt>
      <trkpt lat="47.908364" lon="7.592221">
        <ele>259.0</ele>
        <time>2020-07-13T06:34:49Z</time>
      </trkpt>
      <trkpt lat="47.908353" lon="7.592202">
        <ele>259.0</ele>
        <time>2020-07-13T06:34:51Z</time>
      </trkpt>
      <trkpt lat="47.908329" lon="7.592184">
        <ele>259.0</ele>
        <time>2020-07-13T06:34:53Z</time>
      </trkpt>
      <trkpt lat="47.908315" lon="7.592154">
        <ele>258.0</ele>
        <time>2020-07-13T06:34:55Z</time>
      </trkpt>
      <trkpt lat="47.908315" lon="7.592138">
        <ele>258.0</ele>
        <time>2020-07-13T06:34:57Z</time>
      </trkpt>
      <trkpt lat="47.908315" lon="7.592138">
        <ele>258.0</ele>
        <time>2020-07-13T06:34:59Z</time>
      </trkpt>
      <trkpt lat="47.908315" lon="7.592138">
        <ele>258.0</ele>
        <time>2020-07-13T06:35:02Z</time>
      </trkpt>
      <trkpt lat="47.90832" lon="7.592129">
        <ele>258.0</ele>
        <time>2020-07-13T06:35:31Z</time>
      </trkpt>
      <trkpt lat="47.908319" lon="7.592137">
        <ele>258.0</ele>
        <time>2020-07-13T06:35:33Z</time>
      </trkpt>
      <trkpt lat="47.90833" lon="7.592129">
        <ele>257.0</ele>
        <time>2020-07-13T06:35:35Z</time>
      </trkpt>
      <trkpt lat="47.908335" lon="7.592126">
        <ele>257.0</ele>
        <time>2020-07-13T06:35:37Z</time>
      </trkpt>
      <trkpt lat="47.908343" lon="7.592124">
        <ele>257.0</ele>
        <time>2020-07-13T06:35:39Z</time>
      </trkpt>
      <trkpt lat="47.908351" lon="7.592123">
        <ele>257.0</ele>
        <time>2020-07-13T06:35:41Z</time>
      </trkpt>
      <trkpt lat="47.90834" lon="7.592121">
        <ele>257.0</ele>
        <time>2020-07-13T06:35:43Z</time>
      </trkpt>
      <trkpt lat="47.908336" lon="7.59211">
        <ele>257.0</ele>
        <time>2020-07-13T06:35:45Z</time>
      </trkpt>
      <trkpt lat="47.908341" lon="7.592102">
        <ele>257.0</ele>
        <time>2020-07-13T06:35:47Z</time>
      </trkpt>
      <trkpt lat="47.908341" lon="7.592102">
        <ele>257.0</ele>
        <time>2020-07-13T06:35:50Z</time>
      </trkpt>
      <trkpt lat="47.90834" lon="7.592063">
        <ele>257.0</ele>
        <time>2020-07-13T06:35:52Z</time>
      </trkpt>
      <trkpt lat="47.908353" lon="7.592051">
        <ele>258.0</ele>
        <time>2020-07-13T06:35:54Z</time>
      </trkpt>
      <trkpt lat="47.908308" lon="7.591998">
        <ele>258.0</ele>
        <time>2020-07-13T06:35:57Z</time>
      </trkpt>
      <trkpt lat="47.908288" lon="7.59197">
        <ele>257.0</ele>
        <time>2020-07-13T06:35:59Z</time>
      </trkpt>
      <trkpt lat="47.908296" lon="7.591935">
        <ele>257.0</ele>
        <time>2020-07-13T06:36:01Z</time>
      </trkpt>
      <trkpt lat="47.908302" lon="7.591936">
        <ele>258.0</ele>
        <time>2020-07-13T06:36:04Z</time>
      </trkpt>
      <trkpt lat="47.908302" lon="7.59195">
        <ele>258.0</ele>
        <time>2020-07-13T06:36:06Z</time>
      </trkpt>
      <trkpt lat="47.908292" lon="7.591924">
        <ele>258.0</ele>
        <time>2020-07-13T06:36:08Z</time>
      </trkpt>
      <trkpt lat="47.90861" lon="7.591905">
        <ele>207.0</ele>
        <time>2020-07-13T06:37:38Z</time>
      </trkpt>
      <trkpt lat="47.90854" lon="7.591973">
        <ele>207.0</ele>
        <time>2020-07-13T06:37:40Z</time>
      </trkpt>
      <trkpt lat="47.908495" lon="7.591996">
        <ele>204.0</ele>
        <time>2020-07-13T06:37:42Z</time>
      </trkpt>
      <trkpt lat="47.90847" lon="7.59196">
        <ele>214.0</ele>
        <time>2020-07-13T06:37:43Z</time>
      </trkpt>
      <trkpt lat="47.908435" lon="7.592092">
        <ele>204.0</ele>
        <time>2020-07-13T06:37:46Z</time>
      </trkpt>
      <trkpt lat="47.908438" lon="7.592085">
        <ele>202.0</ele>
        <time>2020-07-13T06:37:47Z</time>
      </trkpt>
      <trkpt lat="47.908394" lon="7.592207">
        <ele>187.0</ele>
        <time>2020-07-13T06:38:09Z</time>
      </trkpt>
      <trkpt lat="47.908242" lon="7.592154">
        <ele>235.0</ele>
        <time>2020-07-13T06:38:11Z</time>
      </trkpt>
      <trkpt lat="47.908189" lon="7.592149">
        <ele>251.0</ele>
        <time>2020-07-13T06:38:12Z</time>
      </trkpt>
      <trkpt lat="47.908168" lon="7.592102">
        <ele>270.0</ele>
        <time>2020-07-13T06:38:16Z</time>
      </trkpt>
      <trkpt lat="47.908194" lon="7.592075">
        <ele>271.0</ele>
        <time>2020-07-13T06:38:17Z</time>
      </trkpt>
      <trkpt lat="47.908272" lon="7.592004">
        <ele>271.0</ele>
        <time>2020-07-13T06:38:20Z</time>
      </trkpt>
      <trkpt lat="47.908316" lon="7.591975">
        <ele>271.0</ele>
        <time>2020-07-13T06:38:22Z</time>
      </trkpt>
      <trkpt lat="47.908318" lon="7.592004">
        <ele>272.0</ele>
        <time>2020-07-13T06:38:24Z</time>
      </trkpt>
      <trkpt lat="47.908316" lon="7.592009">
        <ele>271.0</ele>
        <time>2020-07-13T06:38:27Z</time>
      </trkpt>
      <trkpt lat="47.908311" lon="7.592013">
        <ele>270.0</ele>
        <time>2020-07-13T06:38:29Z</time>
      </trkpt>
      <trkpt lat="47.90832" lon="7.592031">
        <ele>269.0</ele>
        <time>2020-07-13T06:38:31Z</time>
      </trkpt>
      <trkpt lat="47.90834" lon="7.592073">
        <ele>267.0</ele>
        <time>2020-07-13T06:38:33Z</time>
      </trkpt>
      <trkpt lat="47.908294" lon="7.592084">
        <ele>277.0</ele>
        <time>2020-07-13T06:38:35Z</time>
      </trkpt>
      <trkpt lat="47.908574" lon="7.592342">
        <ele>258.0</ele>
        <time>2020-07-13T06:52:31Z</time>
      </trkpt>
      <trkpt lat="47.908574" lon="7.592342">
        <ele>258.0</ele>
        <time>2020-07-13T06:52:32Z</time>
      </trkpt>
      <trkpt lat="47.908574" lon="7.592342">
        <ele>258.0</ele>
        <time>2020-07-13T06:52:35Z</time>
      </trkpt>
      <trkpt lat="47.908574" lon="7.592342">
        <ele>258.0</ele>
        <time>2020-07-13T06:52:37Z</time>
      </trkpt>
      <trkpt lat="47.908574" lon="7.592342">
        <ele>258.0</ele>
        <time>2020-07-13T06:52:39Z</time>
      </trkpt>
      <trkpt lat="47.908574" lon="7.592342">
        <ele>258.0</ele>
        <time>2020-07-13T06:52:41Z</time>
      </trkpt>
      <trkpt lat="47.908574" lon="7.592342">
        <ele>258.0</ele>
        <time>2020-07-13T06:52:43Z</time>
      </trkpt>
      <trkpt lat="47.908574" lon="7.592342">
        <ele>258.0</ele>
        <time>2020-07-13T06:52:45Z</time>
      </trkpt>
      <trkpt lat="47.908574" lon="7.592342">
        <ele>258.0</ele>
        <time>2020-07-13T06:52:47Z</time>
      </trkpt>
      <trkpt lat="47.908574" lon="7.592342">
        <ele>258.0</ele>
        <time>2020-07-13T06:52:49Z</time>
      </trkpt>
      <trkpt lat="47.908574" lon="7.592339">
        <ele>259.0</ele>
        <time>2020-07-13T06:52:51Z</time>
      </trkpt>
      <trkpt lat="47.908576" lon="7.592347">
        <ele>259.0</ele>
        <time>2020-07-13T06:52:53Z</time>
      </trkpt>
      <trkpt lat="47.908553" lon="7.592409">
        <ele>259.0</ele>
        <time>2020-07-13T06:52:55Z</time>
      </trkpt>
      <trkpt lat="47.908501" lon="7.592499">
        <ele>258.0</ele>
        <time>2020-07-13T06:52:57Z</time>
      </trkpt>
      <trkpt lat="47.908388" lon="7.59251">
        <ele>260.0</ele>
        <time>2020-07-13T06:52:59Z</time>
      </trkpt>
      <trkpt lat="47.908289" lon="7.592505">
        <ele>260.0</ele>
        <time>2020-07-13T06:53:01Z</time>
      </trkpt>
      <trkpt lat="47.90819" lon="7.592514">
        <ele>259.0</ele>
        <time>2020-07-13T06:53:03Z</time>
      </trkpt>
      <trkpt lat="47.9081" lon="7.592524">
        <ele>259.0</ele>
        <time>2020-07-13T06:53:05Z</time>
      </trkpt>
      <trkpt lat="47.90797" lon="7.592521">
        <ele>258.0</ele>
        <time>2020-07-13T06:53:08Z</time>
      </trkpt>
      <trkpt lat="47.907933" lon="7.592503">
        <ele>258.0</ele>
        <time>2020-07-13T06:53:09Z</time>
      </trkpt>
      <trkpt lat="47.907809" lon="7.592479">
        <ele>258.0</ele>
        <time>2020-07-13T06:53:12Z</time>
      </trkpt>
      <trkpt lat="47.90777" lon="7.592596">
        <ele>258.0</ele>
        <time>2020-07-13T06:53:14Z</time>
      </trkpt>
      <trkpt lat="47.907747" lon="7.592726">
        <ele>258.0</ele>
        <time>2020-07-13T06:53:16Z</time>
      </trkpt>
      <trkpt lat="47.907736" lon="7.592867">
        <ele>259.0</ele>
        <time>2020-07-13T06:53:18Z</time>
      </trkpt>
      <trkpt lat="47.907715" lon="7.593017">
        <ele>259.0</ele>
        <time>2020-07-13T06:53:20Z</time>
      </trkpt>
      <trkpt lat="47.907699" lon="7.593256">
        <ele>259.0</ele>
        <time>2020-07-13T06:53:23Z</time>
      </trkpt>
      <trkpt lat="47.907693" lon="7.593417">
        <ele>259.0</ele>
        <time>2020-07-13T06:53:25Z</time>
      </trkpt>
      <trkpt lat="47.907686" lon="7.593645">
        <ele>258.0</ele>
        <time>2020-07-13T06:53:28Z</time>
      </trkpt>
      <trkpt lat="47.90771" lon="7.593794">
        <ele>257.0</ele>
        <time>2020-07-13T06:53:30Z</time>
      </trkpt>
      <trkpt lat="47.907718" lon="7.593867">
        <ele>257.0</ele>
        <time>2020-07-13T06:53:31Z</time>
      </trkpt>
      <trkpt lat="47.907755" lon="7.594099">
        <ele>256.0</ele>
        <time>2020-07-13T06:53:34Z</time>
      </trkpt>
      <trkpt lat="47.907786" lon="7.594255">
        <ele>257.0</ele>
        <time>2020-07-13T06:53:36Z</time>
      </trkpt>
      <trkpt lat="47.907834" lon="7.594474">
        <ele>256.0</ele>
        <time>2020-07-13T06:53:39Z</time>
      </trkpt>
      <trkpt lat="47.907873" lon="7.594612">
        <ele>256.0</ele>
        <time>2020-07-13T06:53:41Z</time>
      </trkpt>
      <trkpt lat="47.907928" lon="7.594747">
        <ele>256.0</ele>
        <time>2020-07-13T06:53:43Z</time>
      </trkpt>
      <trkpt lat="47.907981" lon="7.594896">
        <ele>255.0</ele>
        <time>2020-07-13T06:53:45Z</time>
      </trkpt>
      <trkpt lat="47.908008" lon="7.59497">
        <ele>255.0</ele>
        <time>2020-07-13T06:53:46Z</time>
      </trkpt>
      <trkpt lat="47.908108" lon="7.595209">
        <ele>254.0</ele>
        <time>2020-07-13T06:53:49Z</time>
      </trkpt>
      <trkpt lat="47.908165" lon="7.59537">
        <ele>255.0</ele>
        <time>2020-07-13T06:53:51Z</time>
      </trkpt>
      <trkpt lat="47.908214" lon="7.595535">
        <ele>255.0</ele>
        <time>2020-07-13T06:53:53Z</time>
      </trkpt>
      <trkpt lat="47.908305" lon="7.595765">
        <ele>255.0</ele>
        <time>2020-07-13T06:53:56Z</time>
      </trkpt>
      <trkpt lat="47.908365" lon="7.595925">
        <ele>254.0</ele>
        <time>2020-07-13T06:53:58Z</time>
      </trkpt>
      <trkpt lat="47.90842" lon="7.596086">
        <ele>254.0</ele>
        <time>2020-07-13T06:54:00Z</time>
      </trkpt>
      <trkpt lat="47.908487" lon="7.596245">
        <ele>253.0</ele>
        <time>2020-07-13T06:54:02Z</time>
      </trkpt>
      <trkpt lat="47.908546" lon="7.596394">
        <ele>253.0</ele>
        <time>2020-07-13T06:54:04Z</time>
      </trkpt>
      <trkpt lat="47.908608" lon="7.596551">
        <ele>253.0</ele>
        <time>2020-07-13T06:54:06Z</time>
      </trkpt>
      <trkpt lat="47.90867" lon="7.596711">
        <ele>253.0</ele>
        <time>2020-07-13T06:54:08Z</time>
      </trkpt>
      <trkpt lat="47.908753" lon="7.59694">
        <ele>253.0</ele>
        <time>2020-07-13T06:54:11Z</time>
      </trkpt>
      <trkpt lat="47.908786" lon="7.597011">
        <ele>253.0</ele>
        <time>2020-07-13T06:54:12Z</time>
      </trkpt>
      <trkpt lat="47.908886" lon="7.597235">
        <ele>253.0</ele>
        <time>2020-07-13T06:54:15Z</time>
      </trkpt>
      <trkpt lat="47.90894" lon="7.597384">
        <ele>253.0</ele>
        <time>2020-07-13T06:54:17Z</time>
      </trkpt>
      <trkpt lat="47.909018" lon="7.597599">
        <ele>252.0</ele>
        <time>2020-07-13T06:54:20Z</time>
      </trkpt>
      <trkpt lat="47.909073" lon="7.59774">
        <ele>252.0</ele>
        <time>2020-07-13T06:54:22Z</time>
      </trkpt>
      <trkpt lat="47.909115" lon="7.597888">
        <ele>252.0</ele>
        <time>2020-07-13T06:54:24Z</time>
      </trkpt>
      <trkpt lat="47.909163" lon="7.598046">
        <ele>252.0</ele>
        <time>2020-07-13T06:54:26Z</time>
      </trkpt>
      <trkpt lat="47.909196" lon="7.598203">
        <ele>253.0</ele>
        <time>2020-07-13T06:54:28Z</time>
      </trkpt>
      <trkpt lat="47.909227" lon="7.598366">
        <ele>254.0</ele>
        <time>2020-07-13T06:54:30Z</time>
      </trkpt>
      <trkpt lat="47.90924" lon="7.598521">
        <ele>254.0</ele>
        <time>2020-07-13T06:54:32Z</time>
      </trkpt>
      <trkpt lat="47.909258" lon="7.598757">
        <ele>254.0</ele>
        <time>2020-07-13T06:54:35Z</time>
      </trkpt>
      <trkpt lat="47.909264" lon="7.59891">
        <ele>254.0</ele>
        <time>2020-07-13T06:54:37Z</time>
      </trkpt>
      <trkpt lat="47.909268" lon="7.599075">
        <ele>255.0</ele>
        <time>2020-07-13T06:54:39Z</time>
      </trkpt>
      <trkpt lat="47.909258" lon="7.599239">
        <ele>255.0</ele>
        <time>2020-07-13T06:54:41Z</time>
      </trkpt>
      <trkpt lat="47.909242" lon="7.5994">
        <ele>255.0</ele>
        <time>2020-07-13T06:54:43Z</time>
      </trkpt>
      <trkpt lat="47.909219" lon="7.599568">
        <ele>255.0</ele>
        <time>2020-07-13T06:54:45Z</time>
      </trkpt>
      <trkpt lat="47.909195" lon="7.59974">
        <ele>255.0</ele>
        <time>2020-07-13T06:54:47Z</time>
      </trkpt>
      <trkpt lat="47.909162" lon="7.599909">
        <ele>255.0</ele>
        <time>2020-07-13T06:54:49Z</time>
      </trkpt>
      <trkpt lat="47.909113" lon="7.600148">
        <ele>255.0</ele>
        <time>2020-07-13T06:54:52Z</time>
      </trkpt>
      <trkpt lat="47.909081" lon="7.6003">
        <ele>256.0</ele>
        <time>2020-07-13T06:54:54Z</time>
      </trkpt>
      <trkpt lat="47.909063" lon="7.600378">
        <ele>256.0</ele>
        <time>2020-07-13T06:54:55Z</time>
      </trkpt>
      <trkpt lat="47.909023" lon="7.600596">
        <ele>257.0</ele>
        <time>2020-07-13T06:54:58Z</time>
      </trkpt>
      <trkpt lat="47.909011" lon="7.600664">
        <ele>256.0</ele>
        <time>2020-07-13T06:54:59Z</time>
      </trkpt>
      <trkpt lat="47.908988" lon="7.6008">
        <ele>257.0</ele>
        <time>2020-07-13T06:55:01Z</time>
      </trkpt>
      <trkpt lat="47.908941" lon="7.60098">
        <ele>258.0</ele>
        <time>2020-07-13T06:55:04Z</time>
      </trkpt>
      <trkpt lat="47.908924" lon="7.601114">
        <ele>259.0</ele>
        <time>2020-07-13T06:55:06Z</time>
      </trkpt>
      <trkpt lat="47.90893" lon="7.601239">
        <ele>259.0</ele>
        <time>2020-07-13T06:55:08Z</time>
      </trkpt>
      <trkpt lat="47.908931" lon="7.601436">
        <ele>259.0</ele>
        <time>2020-07-13T06:55:11Z</time>
      </trkpt>
      <trkpt lat="47.908943" lon="7.601554">
        <ele>259.0</ele>
        <time>2020-07-13T06:55:13Z</time>
      </trkpt>
      <trkpt lat="47.908952" lon="7.601667">
        <ele>259.0</ele>
        <time>2020-07-13T06:55:15Z</time>
      </trkpt>
      <trkpt lat="47.908958" lon="7.60178">
        <ele>259.0</ele>
        <time>2020-07-13T06:55:17Z</time>
      </trkpt>
      <trkpt lat="47.908959" lon="7.601898">
        <ele>259.0</ele>
        <time>2020-07-13T06:55:19Z</time>
      </trkpt>
      <trkpt lat="47.909018" lon="7.602035">
        <ele>259.0</ele>
        <time>2020-07-13T06:55:22Z</time>
      </trkpt>
      <trkpt lat="47.909077" lon="7.602088">
        <ele>260.0</ele>
        <time>2020-07-13T06:55:24Z</time>
      </trkpt>
      <trkpt lat="47.909141" lon="7.602128">
        <ele>260.0</ele>
        <time>2020-07-13T06:55:26Z</time>
      </trkpt>
      <trkpt lat="47.909183" lon="7.602141">
        <ele>261.0</ele>
        <time>2020-07-13T06:55:27Z</time>
      </trkpt>
      <trkpt lat="47.909294" lon="7.602174">
        <ele>262.0</ele>
        <time>2020-07-13T06:55:30Z</time>
      </trkpt>
      <trkpt lat="47.909357" lon="7.602201">
        <ele>262.0</ele>
        <time>2020-07-13T06:55:32Z</time>
      </trkpt>
      <trkpt lat="47.909379" lon="7.60224">
        <ele>262.0</ele>
        <time>2020-07-13T06:55:33Z</time>
      </trkpt>
      <trkpt lat="47.909363" lon="7.602372">
        <ele>262.0</ele>
        <time>2020-07-13T06:55:36Z</time>
      </trkpt>
      <trkpt lat="47.909275" lon="7.602426">
        <ele>262.0</ele>
        <time>2020-07-13T06:55:39Z</time>
      </trkpt>
      <trkpt lat="47.909195" lon="7.602405">
        <ele>263.0</ele>
        <time>2020-07-13T06:55:41Z</time>
      </trkpt>
      <trkpt lat="47.909155" lon="7.602385">
        <ele>262.0</ele>
        <time>2020-07-13T06:55:42Z</time>
      </trkpt>
      <trkpt lat="47.909072" lon="7.602363">
        <ele>262.0</ele>
        <time>2020-07-13T06:55:44Z</time>
      </trkpt>
      <trkpt lat="47.908904" lon="7.602344">
        <ele>262.0</ele>
        <time>2020-07-13T06:55:48Z</time>
      </trkpt>
      <trkpt lat="47.908814" lon="7.602305">
        <ele>262.0</ele>
        <time>2020-07-13T06:55:50Z</time>
      </trkpt>
      <trkpt lat="47.908721" lon="7.602273">
        <ele>262.0</ele>
        <time>2020-07-13T06:55:52Z</time>
      </trkpt>
      <trkpt lat="47.908626" lon="7.602237">
        <ele>262.0</ele>
        <time>2020-07-13T06:55:54Z</time>
      </trkpt>
      <trkpt lat="47.908529" lon="7.602192">
        <ele>262.0</ele>
        <time>2020-07-13T06:55:56Z</time>
      </trkpt>
      <trkpt lat="47.908484" lon="7.602174">
        <ele>262.0</ele>
        <time>2020-07-13T06:55:57Z</time>
      </trkpt>
      <trkpt lat="47.908327" lon="7.602122">
        <ele>262.0</ele>
        <time>2020-07-13T06:56:00Z</time>
      </trkpt>
      <trkpt lat="47.908223" lon="7.602086">
        <ele>262.0</ele>
        <time>2020-07-13T06:56:02Z</time>
      </trkpt>
      <trkpt lat="47.90812" lon="7.602049">
        <ele>263.0</ele>
        <time>2020-07-13T06:56:04Z</time>
      </trkpt>
      <trkpt lat="47.908016" lon="7.602014">
        <ele>262.0</ele>
        <time>2020-07-13T06:56:06Z</time>
      </trkpt>
      <trkpt lat="47.907907" lon="7.601972">
        <ele>262.0</ele>
        <time>2020-07-13T06:56:08Z</time>
      </trkpt>
      <trkpt lat="47.907803" lon="7.601932">
        <ele>262.0</ele>
        <time>2020-07-13T06:56:10Z</time>
      </trkpt>
      <trkpt lat="47.907696" lon="7.601887">
        <ele>262.0</ele>
        <time>2020-07-13T06:56:12Z</time>
      </trkpt>
      <trkpt lat="47.907589" lon="7.601841">
        <ele>263.0</ele>
        <time>2020-07-13T06:56:14Z</time>
      </trkpt>
      <trkpt lat="47.907486" lon="7.601792">
        <ele>263.0</ele>
        <time>2020-07-13T06:56:16Z</time>
      </trkpt>
      <trkpt lat="47.907375" lon="7.601747">
        <ele>263.0</ele>
        <time>2020-07-13T06:56:18Z</time>
      </trkpt>
      <trkpt lat="47.907211" lon="7.601671">
        <ele>263.0</ele>
        <time>2020-07-13T06:56:21Z</time>
      </trkpt>
      <trkpt lat="47.907102" lon="7.601612">
        <ele>263.0</ele>
        <time>2020-07-13T06:56:23Z</time>
      </trkpt>
      <trkpt lat="47.906941" lon="7.601544">
        <ele>263.0</ele>
        <time>2020-07-13T06:56:26Z</time>
      </trkpt>
      <trkpt lat="47.906832" lon="7.601493">
        <ele>263.0</ele>
        <time>2020-07-13T06:56:28Z</time>
      </trkpt>
      <trkpt lat="47.906725" lon="7.601435">
        <ele>263.0</ele>
        <time>2020-07-13T06:56:30Z</time>
      </trkpt>
      <trkpt lat="47.906569" lon="7.601354">
        <ele>263.0</ele>
        <time>2020-07-13T06:56:33Z</time>
      </trkpt>
      <trkpt lat="47.906517" lon="7.601331">
        <ele>263.0</ele>
        <time>2020-07-13T06:56:34Z</time>
      </trkpt>
      <trkpt lat="47.906356" lon="7.601256">
        <ele>263.0</ele>
        <time>2020-07-13T06:56:37Z</time>
      </trkpt>
      <trkpt lat="47.906247" lon="7.601201">
        <ele>263.0</ele>
        <time>2020-07-13T06:56:39Z</time>
      </trkpt>
      <trkpt lat="47.906139" lon="7.60113">
        <ele>262.0</ele>
        <time>2020-07-13T06:56:41Z</time>
      </trkpt>
      <trkpt lat="47.906033" lon="7.601075">
        <ele>262.0</ele>
        <time>2020-07-13T06:56:43Z</time>
      </trkpt>
      <trkpt lat="47.905926" lon="7.601025">
        <ele>262.0</ele>
        <time>2020-07-13T06:56:45Z</time>
      </trkpt>
      <trkpt lat="47.90582" lon="7.600969">
        <ele>261.0</ele>
        <time>2020-07-13T06:56:47Z</time>
      </trkpt>
      <trkpt lat="47.905709" lon="7.600915">
        <ele>261.0</ele>
        <time>2020-07-13T06:56:49Z</time>
      </trkpt>
      <trkpt lat="47.905604" lon="7.600872">
        <ele>262.0</ele>
        <time>2020-07-13T06:56:51Z</time>
      </trkpt>
      <trkpt lat="47.905507" lon="7.600818">
        <ele>262.0</ele>
        <time>2020-07-13T06:56:53Z</time>
      </trkpt>
      <trkpt lat="47.90541" lon="7.600773">
        <ele>262.0</ele>
        <time>2020-07-13T06:56:55Z</time>
      </trkpt>
      <trkpt lat="47.905318" lon="7.60073">
        <ele>262.0</ele>
        <time>2020-07-13T06:56:57Z</time>
      </trkpt>
      <trkpt lat="47.905222" lon="7.600677">
        <ele>262.0</ele>
        <time>2020-07-13T06:56:59Z</time>
      </trkpt>
      <trkpt lat="47.905118" lon="7.600622">
        <ele>262.0</ele>
        <time>2020-07-13T06:57:01Z</time>
      </trkpt>
      <trkpt lat="47.905009" lon="7.60057">
        <ele>263.0</ele>
        <time>2020-07-13T06:57:03Z</time>
      </trkpt>
      <trkpt lat="47.904907" lon="7.600516">
        <ele>262.0</ele>
        <time>2020-07-13T06:57:05Z</time>
      </trkpt>
      <trkpt lat="47.904806" lon="7.600466">
        <ele>263.0</ele>
        <time>2020-07-13T06:57:07Z</time>
      </trkpt>
      <trkpt lat="47.9047" lon="7.600417">
        <ele>263.0</ele>
        <time>2020-07-13T06:57:09Z</time>
      </trkpt>
      <trkpt lat="47.904591" lon="7.600355">
        <ele>262.0</ele>
        <time>2020-07-13T06:57:11Z</time>
      </trkpt>
      <trkpt lat="47.904427" lon="7.600274">
        <ele>262.0</ele>
        <time>2020-07-13T06:57:14Z</time>
      </trkpt>
      <trkpt lat="47.904374" lon="7.600246">
        <ele>262.0</ele>
        <time>2020-07-13T06:57:15Z</time>
      </trkpt>
      <trkpt lat="47.904209" lon="7.600161">
        <ele>262.0</ele>
        <time>2020-07-13T06:57:18Z</time>
      </trkpt>
      <trkpt lat="47.904096" lon="7.600103">
        <ele>262.0</ele>
        <time>2020-07-13T06:57:20Z</time>
      </trkpt>
      <trkpt lat="47.903983" lon="7.600048">
        <ele>262.0</ele>
        <time>2020-07-13T06:57:22Z</time>
      </trkpt>
      <trkpt lat="47.903877" lon="7.599982">
        <ele>262.0</ele>
        <time>2020-07-13T06:57:24Z</time>
      </trkpt>
      <trkpt lat="47.903768" lon="7.599927">
        <ele>262.0</ele>
        <time>2020-07-13T06:57:26Z</time>
      </trkpt>
      <trkpt lat="47.903598" lon="7.599841">
        <ele>262.0</ele>
        <time>2020-07-13T06:57:29Z</time>
      </trkpt>
      <trkpt lat="47.903482" lon="7.599781">
        <ele>262.0</ele>
        <time>2020-07-13T06:57:31Z</time>
      </trkpt>
      <trkpt lat="47.903366" lon="7.599724">
        <ele>263.0</ele>
        <time>2020-07-13T06:57:33Z</time>
      </trkpt>
      <trkpt lat="47.903256" lon="7.599665">
        <ele>263.0</ele>
        <time>2020-07-13T06:57:35Z</time>
      </trkpt>
      <trkpt lat="47.903145" lon="7.599614">
        <ele>263.0</ele>
        <time>2020-07-13T06:57:37Z</time>
      </trkpt>
      <trkpt lat="47.902973" lon="7.599523">
        <ele>263.0</ele>
        <time>2020-07-13T06:57:40Z</time>
      </trkpt>
      <trkpt lat="47.902854" lon="7.599467">
        <ele>263.0</ele>
        <time>2020-07-13T06:57:42Z</time>
      </trkpt>
      <trkpt lat="47.902737" lon="7.599404">
        <ele>263.0</ele>
        <time>2020-07-13T06:57:44Z</time>
      </trkpt>
      <trkpt lat="47.902565" lon="7.599312">
        <ele>263.0</ele>
        <time>2020-07-13T06:57:47Z</time>
      </trkpt>
      <trkpt lat="47.90251" lon="7.599278">
        <ele>263.0</ele>
        <time>2020-07-13T06:57:48Z</time>
      </trkpt>
      <trkpt lat="47.902396" lon="7.599218">
        <ele>263.0</ele>
        <time>2020-07-13T06:57:50Z</time>
      </trkpt>
      <trkpt lat="47.902168" lon="7.599099">
        <ele>263.0</ele>
        <time>2020-07-13T06:57:54Z</time>
      </trkpt>
      <trkpt lat="47.902059" lon="7.599042">
        <ele>263.0</ele>
        <time>2020-07-13T06:57:56Z</time>
      </trkpt>
      <trkpt lat="47.901949" lon="7.598988">
        <ele>263.0</ele>
        <time>2020-07-13T06:57:58Z</time>
      </trkpt>
      <trkpt lat="47.901843" lon="7.598925">
        <ele>262.0</ele>
        <time>2020-07-13T06:58:00Z</time>
      </trkpt>
      <trkpt lat="47.90169" lon="7.598837">
        <ele>262.0</ele>
        <time>2020-07-13T06:58:03Z</time>
      </trkpt>
      <trkpt lat="47.901578" lon="7.598774">
        <ele>262.0</ele>
        <time>2020-07-13T06:58:05Z</time>
      </trkpt>
      <trkpt lat="47.901525" lon="7.598742">
        <ele>262.0</ele>
        <time>2020-07-13T06:58:06Z</time>
      </trkpt>
      <trkpt lat="47.901363" lon="7.598643">
        <ele>261.0</ele>
        <time>2020-07-13T06:58:09Z</time>
      </trkpt>
      <trkpt lat="47.901259" lon="7.598566">
        <ele>261.0</ele>
        <time>2020-07-13T06:58:11Z</time>
      </trkpt>
      <trkpt lat="47.901153" lon="7.598471">
        <ele>261.0</ele>
        <time>2020-07-13T06:58:13Z</time>
      </trkpt>
      <trkpt lat="47.901002" lon="7.598319">
        <ele>261.0</ele>
        <time>2020-07-13T06:58:16Z</time>
      </trkpt>
      <trkpt lat="47.900958" lon="7.598268">
        <ele>260.0</ele>
        <time>2020-07-13T06:58:17Z</time>
      </trkpt>
      <trkpt lat="47.90082" lon="7.598105">
        <ele>260.0</ele>
        <time>2020-07-13T06:58:20Z</time>
      </trkpt>
      <trkpt lat="47.900776" lon="7.59805">
        <ele>260.0</ele>
        <time>2020-07-13T06:58:21Z</time>
      </trkpt>
      <trkpt lat="47.900687" lon="7.597925">
        <ele>260.0</ele>
        <time>2020-07-13T06:58:23Z</time>
      </trkpt>
      <trkpt lat="47.900564" lon="7.597744">
        <ele>259.0</ele>
        <time>2020-07-13T06:58:26Z</time>
      </trkpt>
      <trkpt lat="47.900482" lon="7.597634">
        <ele>259.0</ele>
        <time>2020-07-13T06:58:28Z</time>
      </trkpt>
      <trkpt lat="47.900396" lon="7.597525">
        <ele>259.0</ele>
        <time>2020-07-13T06:58:30Z</time>
      </trkpt>
      <trkpt lat="47.900269" lon="7.597347">
        <ele>258.0</ele>
        <time>2020-07-13T06:58:33Z</time>
      </trkpt>
      <trkpt lat="47.900187" lon="7.597225">
        <ele>258.0</ele>
        <time>2020-07-13T06:58:35Z</time>
      </trkpt>
      <trkpt lat="47.900103" lon="7.597098">
        <ele>257.0</ele>
        <time>2020-07-13T06:58:37Z</time>
      </trkpt>
      <trkpt lat="47.900013" lon="7.596984">
        <ele>257.0</ele>
        <time>2020-07-13T06:58:39Z</time>
      </trkpt>
      <trkpt lat="47.899907" lon="7.596873">
        <ele>256.0</ele>
        <time>2020-07-13T06:58:41Z</time>
      </trkpt>
      <trkpt lat="47.89976" lon="7.596724">
        <ele>256.0</ele>
        <time>2020-07-13T06:58:44Z</time>
      </trkpt>
      <trkpt lat="47.899655" lon="7.596644">
        <ele>256.0</ele>
        <time>2020-07-13T06:58:46Z</time>
      </trkpt>
      <trkpt lat="47.899489" lon="7.596546">
        <ele>256.0</ele>
        <time>2020-07-13T06:58:49Z</time>
      </trkpt>
      <trkpt lat="47.89938" lon="7.596492">
        <ele>256.0</ele>
        <time>2020-07-13T06:58:51Z</time>
      </trkpt>
      <trkpt lat="47.899265" lon="7.596457">
        <ele>257.0</ele>
        <time>2020-07-13T06:58:53Z</time>
      </trkpt>
      <trkpt lat="47.899097" lon="7.596414">
        <ele>257.0</ele>
        <time>2020-07-13T06:58:56Z</time>
      </trkpt>
      <trkpt lat="47.899041" lon="7.596398">
        <ele>257.0</ele>
        <time>2020-07-13T06:58:57Z</time>
      </trkpt>
      <trkpt lat="47.898802" lon="7.596385">
        <ele>258.0</ele>
        <time>2020-07-13T06:59:01Z</time>
      </trkpt>
      <trkpt lat="47.89868" lon="7.596405">
        <ele>259.0</ele>
        <time>2020-07-13T06:59:03Z</time>
      </trkpt>
      <trkpt lat="47.898558" lon="7.596425">
        <ele>260.0</ele>
        <time>2020-07-13T06:59:05Z</time>
      </trkpt>
      <trkpt lat="47.898436" lon="7.596468">
        <ele>260.0</ele>
        <time>2020-07-13T06:59:07Z</time>
      </trkpt>
      <trkpt lat="47.898314" lon="7.596521">
        <ele>260.0</ele>
        <time>2020-07-13T06:59:09Z</time>
      </trkpt>
      <trkpt lat="47.898199" lon="7.59658">
        <ele>260.0</ele>
        <time>2020-07-13T06:59:11Z</time>
      </trkpt>
      <trkpt lat="47.898083" lon="7.596634">
        <ele>261.0</ele>
        <time>2020-07-13T06:59:13Z</time>
      </trkpt>
      <trkpt lat="47.897966" lon="7.596678">
        <ele>260.0</ele>
        <time>2020-07-13T06:59:15Z</time>
      </trkpt>
      <trkpt lat="47.897848" lon="7.596733">
        <ele>259.0</ele>
        <time>2020-07-13T06:59:17Z</time>
      </trkpt>
      <trkpt lat="47.897732" lon="7.596784">
        <ele>259.0</ele>
        <time>2020-07-13T06:59:19Z</time>
      </trkpt>
      <trkpt lat="47.897626" lon="7.596832">
        <ele>260.0</ele>
        <time>2020-07-13T06:59:21Z</time>
      </trkpt>
      <trkpt lat="47.89752" lon="7.596897">
        <ele>260.0</ele>
        <time>2020-07-13T06:59:23Z</time>
      </trkpt>
      <trkpt lat="47.897422" lon="7.596954">
        <ele>260.0</ele>
        <time>2020-07-13T06:59:25Z</time>
      </trkpt>
      <trkpt lat="47.897324" lon="7.59701">
        <ele>260.0</ele>
        <time>2020-07-13T06:59:27Z</time>
      </trkpt>
      <trkpt lat="47.897226" lon="7.597071">
        <ele>261.0</ele>
        <time>2020-07-13T06:59:29Z</time>
      </trkpt>
      <trkpt lat="47.897135" lon="7.597124">
        <ele>261.0</ele>
        <time>2020-07-13T06:59:31Z</time>
      </trkpt>
      <trkpt lat="47.897048" lon="7.597175">
        <ele>261.0</ele>
        <time>2020-07-13T06:59:33Z</time>
      </trkpt>
      <trkpt lat="47.897006" lon="7.5972">
        <ele>262.0</ele>
        <time>2020-07-13T06:59:34Z</time>
      </trkpt>
      <trkpt lat="47.896897" lon="7.59728">
        <ele>262.0</ele>
        <time>2020-07-13T06:59:37Z</time>
      </trkpt>
      <trkpt lat="47.896841" lon="7.597312">
        <ele>262.0</ele>
        <time>2020-07-13T06:59:39Z</time>
      </trkpt>
      <trkpt lat="47.896807" lon="7.597339">
        <ele>262.0</ele>
        <time>2020-07-13T06:59:41Z</time>
      </trkpt>
      <trkpt lat="47.896712" lon="7.597398">
        <ele>263.0</ele>
        <time>2020-07-13T06:59:45Z</time>
      </trkpt>
      <trkpt lat="47.896661" lon="7.597439">
        <ele>263.0</ele>
        <time>2020-07-13T06:59:47Z</time>
      </trkpt>
      <trkpt lat="47.896611" lon="7.597474">
        <ele>263.0</ele>
        <time>2020-07-13T06:59:49Z</time>
      </trkpt>
      <trkpt lat="47.896562" lon="7.597505">
        <ele>263.0</ele>
        <time>2020-07-13T06:59:51Z</time>
      </trkpt>
      <trkpt lat="47.896514" lon="7.597547">
        <ele>264.0</ele>
        <time>2020-07-13T06:59:53Z</time>
      </trkpt>
      <trkpt lat="47.896491" lon="7.597571">
        <ele>264.0</ele>
        <time>2020-07-13T06:59:54Z</time>
      </trkpt>
      <trkpt lat="47.896429" lon="7.597621">
        <ele>265.0</ele>
        <time>2020-07-13T06:59:57Z</time>
      </trkpt>
      <trkpt lat="47.896392" lon="7.597652">
        <ele>265.0</ele>
        <time>2020-07-13T06:59:59Z</time>
      </trkpt>
      <trkpt lat="47.896355" lon="7.597691">
        <ele>265.0</ele>
        <time>2020-07-13T07:00:01Z</time>
      </trkpt>
      <trkpt lat="47.896318" lon="7.597729">
        <ele>265.0</ele>
        <time>2020-07-13T07:00:03Z</time>
      </trkpt>
      <trkpt lat="47.89628" lon="7.597766">
        <ele>265.0</ele>
        <time>2020-07-13T07:00:05Z</time>
      </trkpt>
      <trkpt lat="47.896236" lon="7.597804">
        <ele>265.0</ele>
        <time>2020-07-13T07:00:07Z</time>
      </trkpt>
      <trkpt lat="47.8962" lon="7.597835">
        <ele>266.0</ele>
        <time>2020-07-13T07:00:09Z</time>
      </trkpt>
      <trkpt lat="47.896149" lon="7.597871">
        <ele>266.0</ele>
        <time>2020-07-13T07:00:12Z</time>
      </trkpt>
      <trkpt lat="47.896119" lon="7.597913">
        <ele>266.0</ele>
        <time>2020-07-13T07:00:15Z</time>
      </trkpt>
      <trkpt lat="47.896094" lon="7.597944">
        <ele>266.0</ele>
        <time>2020-07-13T07:00:17Z</time>
      </trkpt>
      <trkpt lat="47.896072" lon="7.597962">
        <ele>266.0</ele>
        <time>2020-07-13T07:00:18Z</time>
      </trkpt>
      <trkpt lat="47.895983" lon="7.59804">
        <ele>266.0</ele>
        <time>2020-07-13T07:00:22Z</time>
      </trkpt>
      <trkpt lat="47.895936" lon="7.59808">
        <ele>266.0</ele>
        <time>2020-07-13T07:00:24Z</time>
      </trkpt>
      <trkpt lat="47.895888" lon="7.598137">
        <ele>266.0</ele>
        <time>2020-07-13T07:00:26Z</time>
      </trkpt>
      <trkpt lat="47.895814" lon="7.598229">
        <ele>266.0</ele>
        <time>2020-07-13T07:00:29Z</time>
      </trkpt>
      <trkpt lat="47.895758" lon="7.598291">
        <ele>265.0</ele>
        <time>2020-07-13T07:00:31Z</time>
      </trkpt>
      <trkpt lat="47.895701" lon="7.598363">
        <ele>265.0</ele>
        <time>2020-07-13T07:00:33Z</time>
      </trkpt>
      <trkpt lat="47.895634" lon="7.598435">
        <ele>265.0</ele>
        <time>2020-07-13T07:00:35Z</time>
      </trkpt>
      <trkpt lat="47.895554" lon="7.598504">
        <ele>266.0</ele>
        <time>2020-07-13T07:00:37Z</time>
      </trkpt>
      <trkpt lat="47.895477" lon="7.598572">
        <ele>266.0</ele>
        <time>2020-07-13T07:00:39Z</time>
      </trkpt>
      <trkpt lat="47.895371" lon="7.598676">
        <ele>267.0</ele>
        <time>2020-07-13T07:00:42Z</time>
      </trkpt>
      <trkpt lat="47.895299" lon="7.598753">
        <ele>266.0</ele>
        <time>2020-07-13T07:00:44Z</time>
      </trkpt>
      <trkpt lat="47.895263" lon="7.598791">
        <ele>266.0</ele>
        <time>2020-07-13T07:00:45Z</time>
      </trkpt>
      <trkpt lat="47.895188" lon="7.598837">
        <ele>266.0</ele>
        <time>2020-07-13T07:00:48Z</time>
      </trkpt>
      <trkpt lat="47.895159" lon="7.598759">
        <ele>266.0</ele>
        <time>2020-07-13T07:00:50Z</time>
      </trkpt>
      <trkpt lat="47.895129" lon="7.598695">
        <ele>266.0</ele>
        <time>2020-07-13T07:00:52Z</time>
      </trkpt>
      <trkpt lat="47.895076" lon="7.598653">
        <ele>266.0</ele>
        <time>2020-07-13T07:00:54Z</time>
      </trkpt>
      <trkpt lat="47.894976" lon="7.598731">
        <ele>266.0</ele>
        <time>2020-07-13T07:00:57Z</time>
      </trkpt>
      <trkpt lat="47.894903" lon="7.598807">
        <ele>266.0</ele>
        <time>2020-07-13T07:00:59Z</time>
      </trkpt>
      <trkpt lat="47.894831" lon="7.59889">
        <ele>267.0</ele>
        <time>2020-07-13T07:01:01Z</time>
      </trkpt>
      <trkpt lat="47.894765" lon="7.598972">
        <ele>266.0</ele>
        <time>2020-07-13T07:01:03Z</time>
      </trkpt>
      <trkpt lat="47.894703" lon="7.599059">
        <ele>267.0</ele>
        <time>2020-07-13T07:01:05Z</time>
      </trkpt>
      <trkpt lat="47.894636" lon="7.599145">
        <ele>267.0</ele>
        <time>2020-07-13T07:01:07Z</time>
      </trkpt>
      <trkpt lat="47.894571" lon="7.599238">
        <ele>267.0</ele>
        <time>2020-07-13T07:01:09Z</time>
      </trkpt>
      <trkpt lat="47.894499" lon="7.599329">
        <ele>267.0</ele>
        <time>2020-07-13T07:01:11Z</time>
      </trkpt>
      <trkpt lat="47.894377" lon="7.59945">
        <ele>267.0</ele>
        <time>2020-07-13T07:01:14Z</time>
      </trkpt>
      <trkpt lat="47.894239" lon="7.599451">
        <ele>266.0</ele>
        <time>2020-07-13T07:01:17Z</time>
      </trkpt>
      <trkpt lat="47.894164" lon="7.59936">
        <ele>266.0</ele>
        <time>2020-07-13T07:01:19Z</time>
      </trkpt>
      <trkpt lat="47.894088" lon="7.59926">
        <ele>266.0</ele>
        <time>2020-07-13T07:01:21Z</time>
      </trkpt>
      <trkpt lat="47.89401" lon="7.599168">
        <ele>266.0</ele>
        <time>2020-07-13T07:01:23Z</time>
      </trkpt>
      <trkpt lat="47.893927" lon="7.599072">
        <ele>265.0</ele>
        <time>2020-07-13T07:01:25Z</time>
      </trkpt>
      <trkpt lat="47.893884" lon="7.599026">
        <ele>265.0</ele>
        <time>2020-07-13T07:01:26Z</time>
      </trkpt>
      <trkpt lat="47.893753" lon="7.598875">
        <ele>265.0</ele>
        <time>2020-07-13T07:01:29Z</time>
      </trkpt>
      <trkpt lat="47.89367" lon="7.59876">
        <ele>265.0</ele>
        <time>2020-07-13T07:01:31Z</time>
      </trkpt>
      <trkpt lat="47.893591" lon="7.598628">
        <ele>264.0</ele>
        <time>2020-07-13T07:01:33Z</time>
      </trkpt>
      <trkpt lat="47.893513" lon="7.598497">
        <ele>264.0</ele>
        <time>2020-07-13T07:01:35Z</time>
      </trkpt>
      <trkpt lat="47.893442" lon="7.598365">
        <ele>264.0</ele>
        <time>2020-07-13T07:01:37Z</time>
      </trkpt>
      <trkpt lat="47.893375" lon="7.598232">
        <ele>265.0</ele>
        <time>2020-07-13T07:01:39Z</time>
      </trkpt>
      <trkpt lat="47.89331" lon="7.598103">
        <ele>265.0</ele>
        <time>2020-07-13T07:01:41Z</time>
      </trkpt>
      <trkpt lat="47.893241" lon="7.597969">
        <ele>265.0</ele>
        <time>2020-07-13T07:01:43Z</time>
      </trkpt>
      <trkpt lat="47.893171" lon="7.597826">
        <ele>265.0</ele>
        <time>2020-07-13T07:01:45Z</time>
      </trkpt>
      <trkpt lat="47.893067" lon="7.597603">
        <ele>265.0</ele>
        <time>2020-07-13T07:01:48Z</time>
      </trkpt>
      <trkpt lat="47.892991" lon="7.597453">
        <ele>265.0</ele>
        <time>2020-07-13T07:01:50Z</time>
      </trkpt>
      <trkpt lat="47.892916" lon="7.5973">
        <ele>265.0</ele>
        <time>2020-07-13T07:01:52Z</time>
      </trkpt>
      <trkpt lat="47.892841" lon="7.59715">
        <ele>265.0</ele>
        <time>2020-07-13T07:01:54Z</time>
      </trkpt>
      <trkpt lat="47.892768" lon="7.597007">
        <ele>265.0</ele>
        <time>2020-07-13T07:01:56Z</time>
      </trkpt>
      <trkpt lat="47.892653" lon="7.596795">
        <ele>266.0</ele>
        <time>2020-07-13T07:01:59Z</time>
      </trkpt>
      <trkpt lat="47.89258" lon="7.596664">
        <ele>266.0</ele>
        <time>2020-07-13T07:02:01Z</time>
      </trkpt>
      <trkpt lat="47.892486" lon="7.596565">
        <ele>266.0</ele>
        <time>2020-07-13T07:02:03Z</time>
      </trkpt>
      <trkpt lat="47.892331" lon="7.59646">
        <ele>265.0</ele>
        <time>2020-07-13T07:02:06Z</time>
      </trkpt>
      <trkpt lat="47.892162" lon="7.596426">
        <ele>265.0</ele>
        <time>2020-07-13T07:02:09Z</time>
      </trkpt>
      <trkpt lat="47.891967" lon="7.596284">
        <ele>265.0</ele>
        <time>2020-07-13T07:02:13Z</time>
      </trkpt>
      <trkpt lat="47.891877" lon="7.596166">
        <ele>265.0</ele>
        <time>2020-07-13T07:02:15Z</time>
      </trkpt>
      <trkpt lat="47.891778" lon="7.596081">
        <ele>265.0</ele>
        <time>2020-07-13T07:02:17Z</time>
      </trkpt>
      <trkpt lat="47.891669" lon="7.596011">
        <ele>265.0</ele>
        <time>2020-07-13T07:02:19Z</time>
      </trkpt>
      <trkpt lat="47.891561" lon="7.59594">
        <ele>265.0</ele>
        <time>2020-07-13T07:02:21Z</time>
      </trkpt>
      <trkpt lat="47.891459" lon="7.595862">
        <ele>265.0</ele>
        <time>2020-07-13T07:02:23Z</time>
      </trkpt>
      <trkpt lat="47.891299" lon="7.595749">
        <ele>265.0</ele>
        <time>2020-07-13T07:02:26Z</time>
      </trkpt>
      <trkpt lat="47.891193" lon="7.59568">
        <ele>265.0</ele>
        <time>2020-07-13T07:02:28Z</time>
      </trkpt>
      <trkpt lat="47.891086" lon="7.59561">
        <ele>264.0</ele>
        <time>2020-07-13T07:02:30Z</time>
      </trkpt>
      <trkpt lat="47.890927" lon="7.595511">
        <ele>265.0</ele>
        <time>2020-07-13T07:02:33Z</time>
      </trkpt>
      <trkpt lat="47.890878" lon="7.59548">
        <ele>265.0</ele>
        <time>2020-07-13T07:02:34Z</time>
      </trkpt>
      <trkpt lat="47.890731" lon="7.595378">
        <ele>265.0</ele>
        <time>2020-07-13T07:02:37Z</time>
      </trkpt>
      <trkpt lat="47.890622" lon="7.595304">
        <ele>265.0</ele>
        <time>2020-07-13T07:02:39Z</time>
      </trkpt>
      <trkpt lat="47.890513" lon="7.595236">
        <ele>265.0</ele>
        <time>2020-07-13T07:02:41Z</time>
      </trkpt>
      <trkpt lat="47.890398" lon="7.595192">
        <ele>265.0</ele>
        <time>2020-07-13T07:02:43Z</time>
      </trkpt>
      <trkpt lat="47.890295" lon="7.595138">
        <ele>265.0</ele>
        <time>2020-07-13T07:02:45Z</time>
      </trkpt>
      <trkpt lat="47.890138" lon="7.595054">
        <ele>266.0</ele>
        <time>2020-07-13T07:02:48Z</time>
      </trkpt>
      <trkpt lat="47.88992" lon="7.594955">
        <ele>267.0</ele>
        <time>2020-07-13T07:02:52Z</time>
      </trkpt>
      <trkpt lat="47.889808" lon="7.594902">
        <ele>267.0</ele>
        <time>2020-07-13T07:02:54Z</time>
      </trkpt>
      <trkpt lat="47.889636" lon="7.594838">
        <ele>267.0</ele>
        <time>2020-07-13T07:02:57Z</time>
      </trkpt>
      <trkpt lat="47.889518" lon="7.594799">
        <ele>267.0</ele>
        <time>2020-07-13T07:02:59Z</time>
      </trkpt>
      <trkpt lat="47.889465" lon="7.594785">
        <ele>267.0</ele>
        <time>2020-07-13T07:03:00Z</time>
      </trkpt>
      <trkpt lat="47.889234" lon="7.594712">
        <ele>267.0</ele>
        <time>2020-07-13T07:03:04Z</time>
      </trkpt>
      <trkpt lat="47.88912" lon="7.594672">
        <ele>267.0</ele>
        <time>2020-07-13T07:03:06Z</time>
      </trkpt>
      <trkpt lat="47.889006" lon="7.594632">
        <ele>267.0</ele>
        <time>2020-07-13T07:03:08Z</time>
      </trkpt>
      <trkpt lat="47.888945" lon="7.594616">
        <ele>268.0</ele>
        <time>2020-07-13T07:03:09Z</time>
      </trkpt>
      <trkpt lat="47.888828" lon="7.594579">
        <ele>268.0</ele>
        <time>2020-07-13T07:03:11Z</time>
      </trkpt>
      <trkpt lat="47.888655" lon="7.594523">
        <ele>268.0</ele>
        <time>2020-07-13T07:03:14Z</time>
      </trkpt>
      <trkpt lat="47.888536" lon="7.59449">
        <ele>268.0</ele>
        <time>2020-07-13T07:03:16Z</time>
      </trkpt>
      <trkpt lat="47.888477" lon="7.594474">
        <ele>268.0</ele>
        <time>2020-07-13T07:03:17Z</time>
      </trkpt>
      <trkpt lat="47.888305" lon="7.594415">
        <ele>267.0</ele>
        <time>2020-07-13T07:03:20Z</time>
      </trkpt>
      <trkpt lat="47.888135" lon="7.594362">
        <ele>268.0</ele>
        <time>2020-07-13T07:03:23Z</time>
      </trkpt>
      <trkpt lat="47.888024" lon="7.594325">
        <ele>267.0</ele>
        <time>2020-07-13T07:03:25Z</time>
      </trkpt>
      <trkpt lat="47.887912" lon="7.59429">
        <ele>268.0</ele>
        <time>2020-07-13T07:03:27Z</time>
      </trkpt>
      <trkpt lat="47.887802" lon="7.594259">
        <ele>268.0</ele>
        <time>2020-07-13T07:03:29Z</time>
      </trkpt>
      <trkpt lat="47.887615" lon="7.594197">
        <ele>267.0</ele>
        <time>2020-07-13T07:03:32Z</time>
      </trkpt>
      <trkpt lat="47.887497" lon="7.594156">
        <ele>268.0</ele>
        <time>2020-07-13T07:03:34Z</time>
      </trkpt>
      <trkpt lat="47.887326" lon="7.594078">
        <ele>268.0</ele>
        <time>2020-07-13T07:03:37Z</time>
      </trkpt>
      <trkpt lat="47.887217" lon="7.594014">
        <ele>267.0</ele>
        <time>2020-07-13T07:03:39Z</time>
      </trkpt>
      <trkpt lat="47.887107" lon="7.593954">
        <ele>267.0</ele>
        <time>2020-07-13T07:03:41Z</time>
      </trkpt>
      <trkpt lat="47.887003" lon="7.593894">
        <ele>267.0</ele>
        <time>2020-07-13T07:03:43Z</time>
      </trkpt>
      <trkpt lat="47.886897" lon="7.59383">
        <ele>266.0</ele>
        <time>2020-07-13T07:03:45Z</time>
      </trkpt>
      <trkpt lat="47.88679" lon="7.593764">
        <ele>266.0</ele>
        <time>2020-07-13T07:03:47Z</time>
      </trkpt>
      <trkpt lat="47.886687" lon="7.593708">
        <ele>265.0</ele>
        <time>2020-07-13T07:03:49Z</time>
      </trkpt>
      <trkpt lat="47.88659" lon="7.593652">
        <ele>266.0</ele>
        <time>2020-07-13T07:03:51Z</time>
      </trkpt>
      <trkpt lat="47.88649" lon="7.593583">
        <ele>266.0</ele>
        <time>2020-07-13T07:03:53Z</time>
      </trkpt>
      <trkpt lat="47.886386" lon="7.593518">
        <ele>266.0</ele>
        <time>2020-07-13T07:03:55Z</time>
      </trkpt>
      <trkpt lat="47.886277" lon="7.593448">
        <ele>266.0</ele>
        <time>2020-07-13T07:03:57Z</time>
      </trkpt>
      <trkpt lat="47.886174" lon="7.593386">
        <ele>266.0</ele>
        <time>2020-07-13T07:03:59Z</time>
      </trkpt>
      <trkpt lat="47.886072" lon="7.593319">
        <ele>267.0</ele>
        <time>2020-07-13T07:04:01Z</time>
      </trkpt>
      <trkpt lat="47.88597" lon="7.593258">
        <ele>267.0</ele>
        <time>2020-07-13T07:04:03Z</time>
      </trkpt>
      <trkpt lat="47.885865" lon="7.593194">
        <ele>267.0</ele>
        <time>2020-07-13T07:04:05Z</time>
      </trkpt>
      <trkpt lat="47.885753" lon="7.593123">
        <ele>267.0</ele>
        <time>2020-07-13T07:04:07Z</time>
      </trkpt>
      <trkpt lat="47.885643" lon="7.593051">
        <ele>267.0</ele>
        <time>2020-07-13T07:04:09Z</time>
      </trkpt>
      <trkpt lat="47.885539" lon="7.593005">
        <ele>267.0</ele>
        <time>2020-07-13T07:04:11Z</time>
      </trkpt>
      <trkpt lat="47.885426" lon="7.593001">
        <ele>267.0</ele>
        <time>2020-07-13T07:04:13Z</time>
      </trkpt>
      <trkpt lat="47.885314" lon="7.592975">
        <ele>268.0</ele>
        <time>2020-07-13T07:04:15Z</time>
      </trkpt>
      <trkpt lat="47.885219" lon="7.592882">
        <ele>267.0</ele>
        <time>2020-07-13T07:04:17Z</time>
      </trkpt>
      <trkpt lat="47.885134" lon="7.592758">
        <ele>268.0</ele>
        <time>2020-07-13T07:04:19Z</time>
      </trkpt>
      <trkpt lat="47.885028" lon="7.592675">
        <ele>267.0</ele>
        <time>2020-07-13T07:04:21Z</time>
      </trkpt>
      <trkpt lat="47.884867" lon="7.592587">
        <ele>267.0</ele>
        <time>2020-07-13T07:04:24Z</time>
      </trkpt>
      <trkpt lat="47.884752" lon="7.592524">
        <ele>266.0</ele>
        <time>2020-07-13T07:04:26Z</time>
      </trkpt>
      <trkpt lat="47.88458" lon="7.592424">
        <ele>265.0</ele>
        <time>2020-07-13T07:04:29Z</time>
      </trkpt>
      <trkpt lat="47.884525" lon="7.59239">
        <ele>265.0</ele>
        <time>2020-07-13T07:04:30Z</time>
      </trkpt>
      <trkpt lat="47.884302" lon="7.59226">
        <ele>264.0</ele>
        <time>2020-07-13T07:04:34Z</time>
      </trkpt>
      <trkpt lat="47.884187" lon="7.592184">
        <ele>265.0</ele>
        <time>2020-07-13T07:04:36Z</time>
      </trkpt>
      <trkpt lat="47.884079" lon="7.592108">
        <ele>264.0</ele>
        <time>2020-07-13T07:04:38Z</time>
      </trkpt>
      <trkpt lat="47.883964" lon="7.592043">
        <ele>264.0</ele>
        <time>2020-07-13T07:04:40Z</time>
      </trkpt>
      <trkpt lat="47.883799" lon="7.591937">
        <ele>264.0</ele>
        <time>2020-07-13T07:04:43Z</time>
      </trkpt>
      <trkpt lat="47.88374" lon="7.591899">
        <ele>265.0</ele>
        <time>2020-07-13T07:04:44Z</time>
      </trkpt>
      <trkpt lat="47.883573" lon="7.591798">
        <ele>265.0</ele>
        <time>2020-07-13T07:04:47Z</time>
      </trkpt>
      <trkpt lat="47.883467" lon="7.591728">
        <ele>265.0</ele>
        <time>2020-07-13T07:04:49Z</time>
      </trkpt>
      <trkpt lat="47.883353" lon="7.591663">
        <ele>265.0</ele>
        <time>2020-07-13T07:04:51Z</time>
      </trkpt>
      <trkpt lat="47.88324" lon="7.591598">
        <ele>265.0</ele>
        <time>2020-07-13T07:04:53Z</time>
      </trkpt>
      <trkpt lat="47.88308" lon="7.591496">
        <ele>265.0</ele>
        <time>2020-07-13T07:04:56Z</time>
      </trkpt>
      <trkpt lat="47.88297" lon="7.591436">
        <ele>265.0</ele>
        <time>2020-07-13T07:04:58Z</time>
      </trkpt>
      <trkpt lat="47.882857" lon="7.591365">
        <ele>265.0</ele>
        <time>2020-07-13T07:05:00Z</time>
      </trkpt>
      <trkpt lat="47.882746" lon="7.591299">
        <ele>265.0</ele>
        <time>2020-07-13T07:05:02Z</time>
      </trkpt>
      <trkpt lat="47.882583" lon="7.591191">
        <ele>266.0</ele>
        <time>2020-07-13T07:05:05Z</time>
      </trkpt>
      <trkpt lat="47.882474" lon="7.591121">
        <ele>266.0</ele>
        <time>2020-07-13T07:05:07Z</time>
      </trkpt>
      <trkpt lat="47.882423" lon="7.591091">
        <ele>266.0</ele>
        <time>2020-07-13T07:05:08Z</time>
      </trkpt>
      <trkpt lat="47.882265" lon="7.590994">
        <ele>266.0</ele>
        <time>2020-07-13T07:05:11Z</time>
      </trkpt>
      <trkpt lat="47.882152" lon="7.590929">
        <ele>267.0</ele>
        <time>2020-07-13T07:05:13Z</time>
      </trkpt>
      <trkpt lat="47.882045" lon="7.590866">
        <ele>266.0</ele>
        <time>2020-07-13T07:05:15Z</time>
      </trkpt>
      <trkpt lat="47.881937" lon="7.590797">
        <ele>267.0</ele>
        <time>2020-07-13T07:05:17Z</time>
      </trkpt>
      <trkpt lat="47.881829" lon="7.59073">
        <ele>267.0</ele>
        <time>2020-07-13T07:05:19Z</time>
      </trkpt>
      <trkpt lat="47.881661" lon="7.59063">
        <ele>268.0</ele>
        <time>2020-07-13T07:05:22Z</time>
      </trkpt>
      <trkpt lat="47.881554" lon="7.590557">
        <ele>268.0</ele>
        <time>2020-07-13T07:05:24Z</time>
      </trkpt>
      <trkpt lat="47.881457" lon="7.590478">
        <ele>268.0</ele>
        <time>2020-07-13T07:05:26Z</time>
      </trkpt>
      <trkpt lat="47.88131" lon="7.590353">
        <ele>268.0</ele>
        <time>2020-07-13T07:05:29Z</time>
      </trkpt>
      <trkpt lat="47.881258" lon="7.590313">
        <ele>268.0</ele>
        <time>2020-07-13T07:05:30Z</time>
      </trkpt>
      <trkpt lat="47.881106" lon="7.590178">
        <ele>268.0</ele>
        <time>2020-07-13T07:05:33Z</time>
      </trkpt>
      <trkpt lat="47.881002" lon="7.590115">
        <ele>267.0</ele>
        <time>2020-07-13T07:05:35Z</time>
      </trkpt>
      <trkpt lat="47.880893" lon="7.590098">
        <ele>267.0</ele>
        <time>2020-07-13T07:05:37Z</time>
      </trkpt>
      <trkpt lat="47.880779" lon="7.590103">
        <ele>266.0</ele>
        <time>2020-07-13T07:05:39Z</time>
      </trkpt>
      <trkpt lat="47.880615" lon="7.590169">
        <ele>266.0</ele>
        <time>2020-07-13T07:05:42Z</time>
      </trkpt>
      <trkpt lat="47.880526" lon="7.590261">
        <ele>265.0</ele>
        <time>2020-07-13T07:05:44Z</time>
      </trkpt>
      <trkpt lat="47.880477" lon="7.590301">
        <ele>266.0</ele>
        <time>2020-07-13T07:05:45Z</time>
      </trkpt>
      <trkpt lat="47.880253" lon="7.590435">
        <ele>266.0</ele>
        <time>2020-07-13T07:05:49Z</time>
      </trkpt>
      <trkpt lat="47.88013" lon="7.590464">
        <ele>265.0</ele>
        <time>2020-07-13T07:05:51Z</time>
      </trkpt>
      <trkpt lat="47.880007" lon="7.590479">
        <ele>265.0</ele>
        <time>2020-07-13T07:05:53Z</time>
      </trkpt>
      <trkpt lat="47.879946" lon="7.59048">
        <ele>265.0</ele>
        <time>2020-07-13T07:05:54Z</time>
      </trkpt>
      <trkpt lat="47.879763" lon="7.590475">
        <ele>266.0</ele>
        <time>2020-07-13T07:05:57Z</time>
      </trkpt>
      <trkpt lat="47.879588" lon="7.590459">
        <ele>266.0</ele>
        <time>2020-07-13T07:06:00Z</time>
      </trkpt>
      <trkpt lat="47.87953" lon="7.590456">
        <ele>266.0</ele>
        <time>2020-07-13T07:06:01Z</time>
      </trkpt>
      <trkpt lat="47.87941" lon="7.59046">
        <ele>266.0</ele>
        <time>2020-07-13T07:06:03Z</time>
      </trkpt>
      <trkpt lat="47.879174" lon="7.590466">
        <ele>268.0</ele>
        <time>2020-07-13T07:06:07Z</time>
      </trkpt>
      <trkpt lat="47.879056" lon="7.590468">
        <ele>268.0</ele>
        <time>2020-07-13T07:06:09Z</time>
      </trkpt>
      <trkpt lat="47.878881" lon="7.590475">
        <ele>268.0</ele>
        <time>2020-07-13T07:06:12Z</time>
      </trkpt>
      <trkpt lat="47.87876" lon="7.590471">
        <ele>268.0</ele>
        <time>2020-07-13T07:06:14Z</time>
      </trkpt>
      <trkpt lat="47.878703" lon="7.590471">
        <ele>268.0</ele>
        <time>2020-07-13T07:06:15Z</time>
      </trkpt>
      <trkpt lat="47.878538" lon="7.590461">
        <ele>268.0</ele>
        <time>2020-07-13T07:06:18Z</time>
      </trkpt>
      <trkpt lat="47.878442" lon="7.590411">
        <ele>268.0</ele>
        <time>2020-07-13T07:06:20Z</time>
      </trkpt>
      <trkpt lat="47.878301" lon="7.590348">
        <ele>268.0</ele>
        <time>2020-07-13T07:06:23Z</time>
      </trkpt>
      <trkpt lat="47.878244" lon="7.590349">
        <ele>268.0</ele>
        <time>2020-07-13T07:06:24Z</time>
      </trkpt>
      <trkpt lat="47.878079" lon="7.59038">
        <ele>268.0</ele>
        <time>2020-07-13T07:06:27Z</time>
      </trkpt>
      <trkpt lat="47.877968" lon="7.590385">
        <ele>268.0</ele>
        <time>2020-07-13T07:06:29Z</time>
      </trkpt>
      <trkpt lat="47.877853" lon="7.590389">
        <ele>267.0</ele>
        <time>2020-07-13T07:06:31Z</time>
      </trkpt>
      <trkpt lat="47.877738" lon="7.590401">
        <ele>268.0</ele>
        <time>2020-07-13T07:06:33Z</time>
      </trkpt>
      <trkpt lat="47.87763" lon="7.590401">
        <ele>268.0</ele>
        <time>2020-07-13T07:06:35Z</time>
      </trkpt>
      <trkpt lat="47.877521" lon="7.590398">
        <ele>269.0</ele>
        <time>2020-07-13T07:06:37Z</time>
      </trkpt>
      <trkpt lat="47.877408" lon="7.590389">
        <ele>269.0</ele>
        <time>2020-07-13T07:06:39Z</time>
      </trkpt>
      <trkpt lat="47.877291" lon="7.590378">
        <ele>268.0</ele>
        <time>2020-07-13T07:06:41Z</time>
      </trkpt>
      <trkpt lat="47.877114" lon="7.590335">
        <ele>268.0</ele>
        <time>2020-07-13T07:06:44Z</time>
      </trkpt>
      <trkpt lat="47.877001" lon="7.590307">
        <ele>268.0</ele>
        <time>2020-07-13T07:06:46Z</time>
      </trkpt>
      <trkpt lat="47.876888" lon="7.59028">
        <ele>267.0</ele>
        <time>2020-07-13T07:06:48Z</time>
      </trkpt>
      <trkpt lat="47.876711" lon="7.590257">
        <ele>267.0</ele>
        <time>2020-07-13T07:06:51Z</time>
      </trkpt>
      <trkpt lat="47.876656" lon="7.590247">
        <ele>267.0</ele>
        <time>2020-07-13T07:06:52Z</time>
      </trkpt>
      <trkpt lat="47.876488" lon="7.590216">
        <ele>267.0</ele>
        <time>2020-07-13T07:06:55Z</time>
      </trkpt>
      <trkpt lat="47.87637" lon="7.590187">
        <ele>267.0</ele>
        <time>2020-07-13T07:06:57Z</time>
      </trkpt>
      <trkpt lat="47.876258" lon="7.590144">
        <ele>267.0</ele>
        <time>2020-07-13T07:06:59Z</time>
      </trkpt>
      <trkpt lat="47.876086" lon="7.590075">
        <ele>267.0</ele>
        <time>2020-07-13T07:07:02Z</time>
      </trkpt>
      <trkpt lat="47.875968" lon="7.59004">
        <ele>267.0</ele>
        <time>2020-07-13T07:07:04Z</time>
      </trkpt>
      <trkpt lat="47.87585" lon="7.590024">
        <ele>267.0</ele>
        <time>2020-07-13T07:07:06Z</time>
      </trkpt>
      <trkpt lat="47.875743" lon="7.589991">
        <ele>267.0</ele>
        <time>2020-07-13T07:07:08Z</time>
      </trkpt>
      <trkpt lat="47.87558" lon="7.589925">
        <ele>267.0</ele>
        <time>2020-07-13T07:07:11Z</time>
      </trkpt>
      <trkpt lat="47.875458" lon="7.589891">
        <ele>268.0</ele>
        <time>2020-07-13T07:07:13Z</time>
      </trkpt>
      <trkpt lat="47.875342" lon="7.589874">
        <ele>268.0</ele>
        <time>2020-07-13T07:07:15Z</time>
      </trkpt>
      <trkpt lat="47.87522" lon="7.589856">
        <ele>267.0</ele>
        <time>2020-07-13T07:07:17Z</time>
      </trkpt>
      <trkpt lat="47.875097" lon="7.589838">
        <ele>267.0</ele>
        <time>2020-07-13T07:07:19Z</time>
      </trkpt>
      <trkpt lat="47.874984" lon="7.589822">
        <ele>268.0</ele>
        <time>2020-07-13T07:07:21Z</time>
      </trkpt>
      <trkpt lat="47.874869" lon="7.589808">
        <ele>267.0</ele>
        <time>2020-07-13T07:07:23Z</time>
      </trkpt>
      <trkpt lat="47.874738" lon="7.589791">
        <ele>266.0</ele>
        <time>2020-07-13T07:07:25Z</time>
      </trkpt>
      <trkpt lat="47.874548" lon="7.589762">
        <ele>265.0</ele>
        <time>2020-07-13T07:07:28Z</time>
      </trkpt>
      <trkpt lat="47.874413" lon="7.589756">
        <ele>265.0</ele>
        <time>2020-07-13T07:07:30Z</time>
      </trkpt>
      <trkpt lat="47.874287" lon="7.589757">
        <ele>266.0</ele>
        <time>2020-07-13T07:07:32Z</time>
      </trkpt>
      <trkpt lat="47.874123" lon="7.589762">
        <ele>265.0</ele>
        <time>2020-07-13T07:07:35Z</time>
      </trkpt>
      <trkpt lat="47.874069" lon="7.589772">
        <ele>266.0</ele>
        <time>2020-07-13T07:07:36Z</time>
      </trkpt>
      <trkpt lat="47.873844" lon="7.589834">
        <ele>268.0</ele>
        <time>2020-07-13T07:07:40Z</time>
      </trkpt>
      <trkpt lat="47.873728" lon="7.58986">
        <ele>269.0</ele>
        <time>2020-07-13T07:07:42Z</time>
      </trkpt>
      <trkpt lat="47.873619" lon="7.589897">
        <ele>270.0</ele>
        <time>2020-07-13T07:07:44Z</time>
      </trkpt>
      <trkpt lat="47.873441" lon="7.589902">
        <ele>270.0</ele>
        <time>2020-07-13T07:07:47Z</time>
      </trkpt>
      <trkpt lat="47.873315" lon="7.589911">
        <ele>270.0</ele>
        <time>2020-07-13T07:07:49Z</time>
      </trkpt>
      <trkpt lat="47.873252" lon="7.589908">
        <ele>270.0</ele>
        <time>2020-07-13T07:07:50Z</time>
      </trkpt>
      <trkpt lat="47.873008" lon="7.589923">
        <ele>269.0</ele>
        <time>2020-07-13T07:07:54Z</time>
      </trkpt>
      <trkpt lat="47.87294" lon="7.589931">
        <ele>269.0</ele>
        <time>2020-07-13T07:07:55Z</time>
      </trkpt>
      <trkpt lat="47.87276" lon="7.589941">
        <ele>268.0</ele>
        <time>2020-07-13T07:07:58Z</time>
      </trkpt>
      <trkpt lat="47.872631" lon="7.589916">
        <ele>269.0</ele>
        <time>2020-07-13T07:08:00Z</time>
      </trkpt>
      <trkpt lat="47.872513" lon="7.589887">
        <ele>269.0</ele>
        <time>2020-07-13T07:08:02Z</time>
      </trkpt>
      <trkpt lat="47.872393" lon="7.589854">
        <ele>269.0</ele>
        <time>2020-07-13T07:08:04Z</time>
      </trkpt>
      <trkpt lat="47.872271" lon="7.589826">
        <ele>269.0</ele>
        <time>2020-07-13T07:08:06Z</time>
      </trkpt>
      <trkpt lat="47.872159" lon="7.589788">
        <ele>268.0</ele>
        <time>2020-07-13T07:08:08Z</time>
      </trkpt>
      <trkpt lat="47.871976" lon="7.589768">
        <ele>268.0</ele>
        <time>2020-07-13T07:08:11Z</time>
      </trkpt>
      <trkpt lat="47.871855" lon="7.589754">
        <ele>268.0</ele>
        <time>2020-07-13T07:08:13Z</time>
      </trkpt>
      <trkpt lat="47.871745" lon="7.589743">
        <ele>268.0</ele>
        <time>2020-07-13T07:08:15Z</time>
      </trkpt>
      <trkpt lat="47.871568" lon="7.589727">
        <ele>268.0</ele>
        <time>2020-07-13T07:08:18Z</time>
      </trkpt>
      <trkpt lat="47.87145" lon="7.58973">
        <ele>267.0</ele>
        <time>2020-07-13T07:08:20Z</time>
      </trkpt>
      <trkpt lat="47.871331" lon="7.589733">
        <ele>267.0</ele>
        <time>2020-07-13T07:08:22Z</time>
      </trkpt>
      <trkpt lat="47.871208" lon="7.589735">
        <ele>267.0</ele>
        <time>2020-07-13T07:08:24Z</time>
      </trkpt>
      <trkpt lat="47.871084" lon="7.589726">
        <ele>267.0</ele>
        <time>2020-07-13T07:08:26Z</time>
      </trkpt>
      <trkpt lat="47.870894" lon="7.589717">
        <ele>267.0</ele>
        <time>2020-07-13T07:08:29Z</time>
      </trkpt>
      <trkpt lat="47.870769" lon="7.589706">
        <ele>267.0</ele>
        <time>2020-07-13T07:08:31Z</time>
      </trkpt>
      <trkpt lat="47.870645" lon="7.58969">
        <ele>266.0</ele>
        <time>2020-07-13T07:08:33Z</time>
      </trkpt>
      <trkpt lat="47.870582" lon="7.589675">
        <ele>266.0</ele>
        <time>2020-07-13T07:08:34Z</time>
      </trkpt>
      <trkpt lat="47.870401" lon="7.589656">
        <ele>266.0</ele>
        <time>2020-07-13T07:08:37Z</time>
      </trkpt>
      <trkpt lat="47.870218" lon="7.589653">
        <ele>265.0</ele>
        <time>2020-07-13T07:08:40Z</time>
      </trkpt>
      <trkpt lat="47.870106" lon="7.58965">
        <ele>265.0</ele>
        <time>2020-07-13T07:08:42Z</time>
      </trkpt>
      <trkpt lat="47.869996" lon="7.589647">
        <ele>266.0</ele>
        <time>2020-07-13T07:08:44Z</time>
      </trkpt>
      <trkpt lat="47.86983" lon="7.589631">
        <ele>266.0</ele>
        <time>2020-07-13T07:08:47Z</time>
      </trkpt>
      <trkpt lat="47.869719" lon="7.589607">
        <ele>267.0</ele>
        <time>2020-07-13T07:08:49Z</time>
      </trkpt>
      <trkpt lat="47.869612" lon="7.589563">
        <ele>267.0</ele>
        <time>2020-07-13T07:08:51Z</time>
      </trkpt>
      <trkpt lat="47.869494" lon="7.589521">
        <ele>268.0</ele>
        <time>2020-07-13T07:08:53Z</time>
      </trkpt>
      <trkpt lat="47.869436" lon="7.589487">
        <ele>267.0</ele>
        <time>2020-07-13T07:08:54Z</time>
      </trkpt>
      <trkpt lat="47.869262" lon="7.589406">
        <ele>267.0</ele>
        <time>2020-07-13T07:08:57Z</time>
      </trkpt>
      <trkpt lat="47.86914" lon="7.589353">
        <ele>267.0</ele>
        <time>2020-07-13T07:08:59Z</time>
      </trkpt>
      <trkpt lat="47.869026" lon="7.589301">
        <ele>267.0</ele>
        <time>2020-07-13T07:09:01Z</time>
      </trkpt>
      <trkpt lat="47.868966" lon="7.589266">
        <ele>267.0</ele>
        <time>2020-07-13T07:09:02Z</time>
      </trkpt>
      <trkpt lat="47.86879" lon="7.589195">
        <ele>267.0</ele>
        <time>2020-07-13T07:09:05Z</time>
      </trkpt>
      <trkpt lat="47.868686" lon="7.589141">
        <ele>267.0</ele>
        <time>2020-07-13T07:09:07Z</time>
      </trkpt>
      <trkpt lat="47.868578" lon="7.589091">
        <ele>268.0</ele>
        <time>2020-07-13T07:09:09Z</time>
      </trkpt>
      <trkpt lat="47.868416" lon="7.589027">
        <ele>267.0</ele>
        <time>2020-07-13T07:09:12Z</time>
      </trkpt>
      <trkpt lat="47.86829" lon="7.589002">
        <ele>267.0</ele>
        <time>2020-07-13T07:09:14Z</time>
      </trkpt>
      <trkpt lat="47.868113" lon="7.588996">
        <ele>266.0</ele>
        <time>2020-07-13T07:09:17Z</time>
      </trkpt>
      <trkpt lat="47.868057" lon="7.588973">
        <ele>266.0</ele>
        <time>2020-07-13T07:09:18Z</time>
      </trkpt>
      <trkpt lat="47.867878" lon="7.588863">
        <ele>266.0</ele>
        <time>2020-07-13T07:09:21Z</time>
      </trkpt>
      <trkpt lat="47.867701" lon="7.588764">
        <ele>267.0</ele>
        <time>2020-07-13T07:09:24Z</time>
      </trkpt>
      <trkpt lat="47.867588" lon="7.588702">
        <ele>267.0</ele>
        <time>2020-07-13T07:09:26Z</time>
      </trkpt>
      <trkpt lat="47.86748" lon="7.588644">
        <ele>267.0</ele>
        <time>2020-07-13T07:09:28Z</time>
      </trkpt>
      <trkpt lat="47.867321" lon="7.588521">
        <ele>267.0</ele>
        <time>2020-07-13T07:09:31Z</time>
      </trkpt>
      <trkpt lat="47.867216" lon="7.588455">
        <ele>267.0</ele>
        <time>2020-07-13T07:09:33Z</time>
      </trkpt>
      <trkpt lat="47.867108" lon="7.588376">
        <ele>268.0</ele>
        <time>2020-07-13T07:09:35Z</time>
      </trkpt>
      <trkpt lat="47.866991" lon="7.588305">
        <ele>267.0</ele>
        <time>2020-07-13T07:09:37Z</time>
      </trkpt>
      <trkpt lat="47.866875" lon="7.588231">
        <ele>268.0</ele>
        <time>2020-07-13T07:09:39Z</time>
      </trkpt>
      <trkpt lat="47.866717" lon="7.588135">
        <ele>268.0</ele>
        <time>2020-07-13T07:09:42Z</time>
      </trkpt>
      <trkpt lat="47.866615" lon="7.588086">
        <ele>268.0</ele>
        <time>2020-07-13T07:09:44Z</time>
      </trkpt>
      <trkpt lat="47.866519" lon="7.588001">
        <ele>268.0</ele>
        <time>2020-07-13T07:09:46Z</time>
      </trkpt>
      <trkpt lat="47.866465" lon="7.587959">
        <ele>267.0</ele>
        <time>2020-07-13T07:09:47Z</time>
      </trkpt>
      <trkpt lat="47.866288" lon="7.58785">
        <ele>268.0</ele>
        <time>2020-07-13T07:09:50Z</time>
      </trkpt>
      <trkpt lat="47.866179" lon="7.587782">
        <ele>268.0</ele>
        <time>2020-07-13T07:09:52Z</time>
      </trkpt>
      <trkpt lat="47.866064" lon="7.587717">
        <ele>268.0</ele>
        <time>2020-07-13T07:09:54Z</time>
      </trkpt>
      <trkpt lat="47.865879" lon="7.587615">
        <ele>269.0</ele>
        <time>2020-07-13T07:09:57Z</time>
      </trkpt>
      <trkpt lat="47.865767" lon="7.587543">
        <ele>269.0</ele>
        <time>2020-07-13T07:09:59Z</time>
      </trkpt>
      <trkpt lat="47.865651" lon="7.587478">
        <ele>270.0</ele>
        <time>2020-07-13T07:10:01Z</time>
      </trkpt>
      <trkpt lat="47.865525" lon="7.587417">
        <ele>270.0</ele>
        <time>2020-07-13T07:10:03Z</time>
      </trkpt>
      <trkpt lat="47.865415" lon="7.587347">
        <ele>270.0</ele>
        <time>2020-07-13T07:10:05Z</time>
      </trkpt>
      <trkpt lat="47.865246" lon="7.587232">
        <ele>270.0</ele>
        <time>2020-07-13T07:10:08Z</time>
      </trkpt>
      <trkpt lat="47.865084" lon="7.58713">
        <ele>270.0</ele>
        <time>2020-07-13T07:10:11Z</time>
      </trkpt>
      <trkpt lat="47.865026" lon="7.587103">
        <ele>269.0</ele>
        <time>2020-07-13T07:10:12Z</time>
      </trkpt>
      <trkpt lat="47.864795" lon="7.586996">
        <ele>269.0</ele>
        <time>2020-07-13T07:10:16Z</time>
      </trkpt>
      <trkpt lat="47.864739" lon="7.586965">
        <ele>269.0</ele>
        <time>2020-07-13T07:10:17Z</time>
      </trkpt>
      <trkpt lat="47.864561" lon="7.586882">
        <ele>270.0</ele>
        <time>2020-07-13T07:10:20Z</time>
      </trkpt>
      <trkpt lat="47.864447" lon="7.586828">
        <ele>270.0</ele>
        <time>2020-07-13T07:10:22Z</time>
      </trkpt>
      <trkpt lat="47.864339" lon="7.586773">
        <ele>270.0</ele>
        <time>2020-07-13T07:10:24Z</time>
      </trkpt>
      <trkpt lat="47.864224" lon="7.586727">
        <ele>270.0</ele>
        <time>2020-07-13T07:10:26Z</time>
      </trkpt>
      <trkpt lat="47.864052" lon="7.586656">
        <ele>270.0</ele>
        <time>2020-07-13T07:10:29Z</time>
      </trkpt>
      <trkpt lat="47.863933" lon="7.586611">
        <ele>270.0</ele>
        <time>2020-07-13T07:10:31Z</time>
      </trkpt>
      <trkpt lat="47.863819" lon="7.586564">
        <ele>269.0</ele>
        <time>2020-07-13T07:10:33Z</time>
      </trkpt>
      <trkpt lat="47.863702" lon="7.586514">
        <ele>269.0</ele>
        <time>2020-07-13T07:10:35Z</time>
      </trkpt>
      <trkpt lat="47.863587" lon="7.586465">
        <ele>269.0</ele>
        <time>2020-07-13T07:10:37Z</time>
      </trkpt>
      <trkpt lat="47.863468" lon="7.586418">
        <ele>269.0</ele>
        <time>2020-07-13T07:10:39Z</time>
      </trkpt>
      <trkpt lat="47.863353" lon="7.586369">
        <ele>269.0</ele>
        <time>2020-07-13T07:10:41Z</time>
      </trkpt>
      <trkpt lat="47.863183" lon="7.586302">
        <ele>269.0</ele>
        <time>2020-07-13T07:10:44Z</time>
      </trkpt>
      <trkpt lat="47.863016" lon="7.58624">
        <ele>268.0</ele>
        <time>2020-07-13T07:10:47Z</time>
      </trkpt>
      <trkpt lat="47.862957" lon="7.586211">
        <ele>268.0</ele>
        <time>2020-07-13T07:10:48Z</time>
      </trkpt>
      <trkpt lat="47.862721" lon="7.586113">
        <ele>269.0</ele>
        <time>2020-07-13T07:10:52Z</time>
      </trkpt>
      <trkpt lat="47.862605" lon="7.586059">
        <ele>268.0</ele>
        <time>2020-07-13T07:10:54Z</time>
      </trkpt>
      <trkpt lat="47.862433" lon="7.585994">
        <ele>269.0</ele>
        <time>2020-07-13T07:10:57Z</time>
      </trkpt>
      <trkpt lat="47.862316" lon="7.585952">
        <ele>269.0</ele>
        <time>2020-07-13T07:10:59Z</time>
      </trkpt>
      <trkpt lat="47.862138" lon="7.585882">
        <ele>270.0</ele>
        <time>2020-07-13T07:11:02Z</time>
      </trkpt>
      <trkpt lat="47.862018" lon="7.585838">
        <ele>270.0</ele>
        <time>2020-07-13T07:11:04Z</time>
      </trkpt>
      <trkpt lat="47.8619" lon="7.585786">
        <ele>270.0</ele>
        <time>2020-07-13T07:11:06Z</time>
      </trkpt>
      <trkpt lat="47.861781" lon="7.585741">
        <ele>270.0</ele>
        <time>2020-07-13T07:11:08Z</time>
      </trkpt>
      <trkpt lat="47.861667" lon="7.585685">
        <ele>269.0</ele>
        <time>2020-07-13T07:11:10Z</time>
      </trkpt>
      <trkpt lat="47.861546" lon="7.585635">
        <ele>269.0</ele>
        <time>2020-07-13T07:11:12Z</time>
      </trkpt>
      <trkpt lat="47.861428" lon="7.585584">
        <ele>269.0</ele>
        <time>2020-07-13T07:11:14Z</time>
      </trkpt>
      <trkpt lat="47.861306" lon="7.585535">
        <ele>268.0</ele>
        <time>2020-07-13T07:11:16Z</time>
      </trkpt>
      <trkpt lat="47.861187" lon="7.585486">
        <ele>268.0</ele>
        <time>2020-07-13T07:11:18Z</time>
      </trkpt>
      <trkpt lat="47.86107" lon="7.585433">
        <ele>269.0</ele>
        <time>2020-07-13T07:11:20Z</time>
      </trkpt>
      <trkpt lat="47.860952" lon="7.585373">
        <ele>268.0</ele>
        <time>2020-07-13T07:11:22Z</time>
      </trkpt>
      <trkpt lat="47.860835" lon="7.585308">
        <ele>268.0</ele>
        <time>2020-07-13T07:11:24Z</time>
      </trkpt>
      <trkpt lat="47.860714" lon="7.585236">
        <ele>268.0</ele>
        <time>2020-07-13T07:11:26Z</time>
      </trkpt>
      <trkpt lat="47.860652" lon="7.585208">
        <ele>268.0</ele>
        <time>2020-07-13T07:11:27Z</time>
      </trkpt>
      <trkpt lat="47.860418" lon="7.585088">
        <ele>268.0</ele>
        <time>2020-07-13T07:11:31Z</time>
      </trkpt>
      <trkpt lat="47.860298" lon="7.585029">
        <ele>269.0</ele>
        <time>2020-07-13T07:11:33Z</time>
      </trkpt>
      <trkpt lat="47.860182" lon="7.584968">
        <ele>269.0</ele>
        <time>2020-07-13T07:11:35Z</time>
      </trkpt>
      <trkpt lat="47.860067" lon="7.5849">
        <ele>269.0</ele>
        <time>2020-07-13T07:11:37Z</time>
      </trkpt>
      <trkpt lat="47.859892" lon="7.584789">
        <ele>268.0</ele>
        <time>2020-07-13T07:11:40Z</time>
      </trkpt>
      <trkpt lat="47.859837" lon="7.584754">
        <ele>269.0</ele>
        <time>2020-07-13T07:11:41Z</time>
      </trkpt>
      <trkpt lat="47.859608" lon="7.584615">
        <ele>270.0</ele>
        <time>2020-07-13T07:11:45Z</time>
      </trkpt>
      <trkpt lat="47.859493" lon="7.584539">
        <ele>270.0</ele>
        <time>2020-07-13T07:11:47Z</time>
      </trkpt>
      <trkpt lat="47.859326" lon="7.58443">
        <ele>270.0</ele>
        <time>2020-07-13T07:11:50Z</time>
      </trkpt>
      <trkpt lat="47.85927" lon="7.584394">
        <ele>271.0</ele>
        <time>2020-07-13T07:11:51Z</time>
      </trkpt>
      <trkpt lat="47.859048" lon="7.584236">
        <ele>271.0</ele>
        <time>2020-07-13T07:11:55Z</time>
      </trkpt>
      <trkpt lat="47.85893" lon="7.584165">
        <ele>271.0</ele>
        <time>2020-07-13T07:11:57Z</time>
      </trkpt>
      <trkpt lat="47.858761" lon="7.584056">
        <ele>271.0</ele>
        <time>2020-07-13T07:12:00Z</time>
      </trkpt>
      <trkpt lat="47.85865" lon="7.583974">
        <ele>271.0</ele>
        <time>2020-07-13T07:12:02Z</time>
      </trkpt>
      <trkpt lat="47.858539" lon="7.583902">
        <ele>272.0</ele>
        <time>2020-07-13T07:12:04Z</time>
      </trkpt>
      <trkpt lat="47.85843" lon="7.583828">
        <ele>272.0</ele>
        <time>2020-07-13T07:12:06Z</time>
      </trkpt>
      <trkpt lat="47.858317" lon="7.583753">
        <ele>272.0</ele>
        <time>2020-07-13T07:12:08Z</time>
      </trkpt>
      <trkpt lat="47.858204" lon="7.583677">
        <ele>271.0</ele>
        <time>2020-07-13T07:12:10Z</time>
      </trkpt>
      <trkpt lat="47.858095" lon="7.583608">
        <ele>271.0</ele>
        <time>2020-07-13T07:12:12Z</time>
      </trkpt>
      <trkpt lat="47.857988" lon="7.583534">
        <ele>271.0</ele>
        <time>2020-07-13T07:12:14Z</time>
      </trkpt>
      <trkpt lat="47.857934" lon="7.583496">
        <ele>271.0</ele>
        <time>2020-07-13T07:12:15Z</time>
      </trkpt>
      <trkpt lat="47.857718" lon="7.583356">
        <ele>271.0</ele>
        <time>2020-07-13T07:12:19Z</time>
      </trkpt>
      <trkpt lat="47.857612" lon="7.583295">
        <ele>271.0</ele>
        <time>2020-07-13T07:12:21Z</time>
      </trkpt>
      <trkpt lat="47.857505" lon="7.583236">
        <ele>271.0</ele>
        <time>2020-07-13T07:12:23Z</time>
      </trkpt>
      <trkpt lat="47.857397" lon="7.583184">
        <ele>271.0</ele>
        <time>2020-07-13T07:12:25Z</time>
      </trkpt>
      <trkpt lat="47.857282" lon="7.583131">
        <ele>271.0</ele>
        <time>2020-07-13T07:12:27Z</time>
      </trkpt>
      <trkpt lat="47.857165" lon="7.583096">
        <ele>271.0</ele>
        <time>2020-07-13T07:12:29Z</time>
      </trkpt>
      <trkpt lat="47.856993" lon="7.583032">
        <ele>271.0</ele>
        <time>2020-07-13T07:12:32Z</time>
      </trkpt>
      <trkpt lat="47.856937" lon="7.583016">
        <ele>271.0</ele>
        <time>2020-07-13T07:12:33Z</time>
      </trkpt>
      <trkpt lat="47.856761" lon="7.582972">
        <ele>272.0</ele>
        <time>2020-07-13T07:12:36Z</time>
      </trkpt>
      <trkpt lat="47.856643" lon="7.582948">
        <ele>272.0</ele>
        <time>2020-07-13T07:12:38Z</time>
      </trkpt>
      <trkpt lat="47.856527" lon="7.582934">
        <ele>272.0</ele>
        <time>2020-07-13T07:12:40Z</time>
      </trkpt>
      <trkpt lat="47.856404" lon="7.582932">
        <ele>272.0</ele>
        <time>2020-07-13T07:12:42Z</time>
      </trkpt>
      <trkpt lat="47.856279" lon="7.582936">
        <ele>271.0</ele>
        <time>2020-07-13T07:12:44Z</time>
      </trkpt>
      <trkpt lat="47.856095" lon="7.582945">
        <ele>271.0</ele>
        <time>2020-07-13T07:12:47Z</time>
      </trkpt>
      <trkpt lat="47.855965" lon="7.582963">
        <ele>270.0</ele>
        <time>2020-07-13T07:12:49Z</time>
      </trkpt>
      <trkpt lat="47.855837" lon="7.582983">
        <ele>270.0</ele>
        <time>2020-07-13T07:12:51Z</time>
      </trkpt>
      <trkpt lat="47.855712" lon="7.583005">
        <ele>270.0</ele>
        <time>2020-07-13T07:12:53Z</time>
      </trkpt>
      <trkpt lat="47.855588" lon="7.583041">
        <ele>270.0</ele>
        <time>2020-07-13T07:12:55Z</time>
      </trkpt>
      <trkpt lat="47.855407" lon="7.583099">
        <ele>270.0</ele>
        <time>2020-07-13T07:12:58Z</time>
      </trkpt>
      <trkpt lat="47.855288" lon="7.58314">
        <ele>269.0</ele>
        <time>2020-07-13T07:13:00Z</time>
      </trkpt>
      <trkpt lat="47.855167" lon="7.583182">
        <ele>269.0</ele>
        <time>2020-07-13T07:13:02Z</time>
      </trkpt>
      <trkpt lat="47.854985" lon="7.583248">
        <ele>269.0</ele>
        <time>2020-07-13T07:13:05Z</time>
      </trkpt>
      <trkpt lat="47.854868" lon="7.583293">
        <ele>270.0</ele>
        <time>2020-07-13T07:13:07Z</time>
      </trkpt>
      <trkpt lat="47.854752" lon="7.583343">
        <ele>270.0</ele>
        <time>2020-07-13T07:13:09Z</time>
      </trkpt>
      <trkpt lat="47.854636" lon="7.583394">
        <ele>270.0</ele>
        <time>2020-07-13T07:13:11Z</time>
      </trkpt>
      <trkpt lat="47.854519" lon="7.583447">
        <ele>270.0</ele>
        <time>2020-07-13T07:13:13Z</time>
      </trkpt>
      <trkpt lat="47.854344" lon="7.583524">
        <ele>270.0</ele>
        <time>2020-07-13T07:13:16Z</time>
      </trkpt>
      <trkpt lat="47.854233" lon="7.583573">
        <ele>270.0</ele>
        <time>2020-07-13T07:13:18Z</time>
      </trkpt>
      <trkpt lat="47.854122" lon="7.583625">
        <ele>271.0</ele>
        <time>2020-07-13T07:13:20Z</time>
      </trkpt>
      <trkpt lat="47.854007" lon="7.583673">
        <ele>270.0</ele>
        <time>2020-07-13T07:13:22Z</time>
      </trkpt>
      <trkpt lat="47.853888" lon="7.583726">
        <ele>270.0</ele>
        <time>2020-07-13T07:13:24Z</time>
      </trkpt>
      <trkpt lat="47.853654" lon="7.583823">
        <ele>270.0</ele>
        <time>2020-07-13T07:13:28Z</time>
      </trkpt>
      <trkpt lat="47.85354" lon="7.583847">
        <ele>269.0</ele>
        <time>2020-07-13T07:13:30Z</time>
      </trkpt>
      <trkpt lat="47.853421" lon="7.583867">
        <ele>269.0</ele>
        <time>2020-07-13T07:13:32Z</time>
      </trkpt>
      <trkpt lat="47.853296" lon="7.5839">
        <ele>269.0</ele>
        <time>2020-07-13T07:13:34Z</time>
      </trkpt>
      <trkpt lat="47.853168" lon="7.583914">
        <ele>270.0</ele>
        <time>2020-07-13T07:13:36Z</time>
      </trkpt>
      <trkpt lat="47.853046" lon="7.583912">
        <ele>269.0</ele>
        <time>2020-07-13T07:13:38Z</time>
      </trkpt>
      <trkpt lat="47.85287" lon="7.5839">
        <ele>269.0</ele>
        <time>2020-07-13T07:13:41Z</time>
      </trkpt>
      <trkpt lat="47.852747" lon="7.583891">
        <ele>270.0</ele>
        <time>2020-07-13T07:13:43Z</time>
      </trkpt>
      <trkpt lat="47.852626" lon="7.583878">
        <ele>270.0</ele>
        <time>2020-07-13T07:13:45Z</time>
      </trkpt>
      <trkpt lat="47.852509" lon="7.583857">
        <ele>270.0</ele>
        <time>2020-07-13T07:13:47Z</time>
      </trkpt>
      <trkpt lat="47.852393" lon="7.583835">
        <ele>271.0</ele>
        <time>2020-07-13T07:13:49Z</time>
      </trkpt>
      <trkpt lat="47.852269" lon="7.583824">
        <ele>271.0</ele>
        <time>2020-07-13T07:13:51Z</time>
      </trkpt>
      <trkpt lat="47.852147" lon="7.583798">
        <ele>271.0</ele>
        <time>2020-07-13T07:13:53Z</time>
      </trkpt>
      <trkpt lat="47.852019" lon="7.583776">
        <ele>271.0</ele>
        <time>2020-07-13T07:13:55Z</time>
      </trkpt>
      <trkpt lat="47.851899" lon="7.583753">
        <ele>271.0</ele>
        <time>2020-07-13T07:13:57Z</time>
      </trkpt>
      <trkpt lat="47.851713" lon="7.58372">
        <ele>271.0</ele>
        <time>2020-07-13T07:14:00Z</time>
      </trkpt>
      <trkpt lat="47.851587" lon="7.583702">
        <ele>272.0</ele>
        <time>2020-07-13T07:14:02Z</time>
      </trkpt>
      <trkpt lat="47.851467" lon="7.583676">
        <ele>272.0</ele>
        <time>2020-07-13T07:14:04Z</time>
      </trkpt>
      <trkpt lat="47.851351" lon="7.583658">
        <ele>272.0</ele>
        <time>2020-07-13T07:14:06Z</time>
      </trkpt>
      <trkpt lat="47.851164" lon="7.583632">
        <ele>271.0</ele>
        <time>2020-07-13T07:14:09Z</time>
      </trkpt>
      <trkpt lat="47.851043" lon="7.583614">
        <ele>271.0</ele>
        <time>2020-07-13T07:14:11Z</time>
      </trkpt>
      <trkpt lat="47.850983" lon="7.583605">
        <ele>271.0</ele>
        <time>2020-07-13T07:14:12Z</time>
      </trkpt>
      <trkpt lat="47.850747" lon="7.583571">
        <ele>270.0</ele>
        <time>2020-07-13T07:14:16Z</time>
      </trkpt>
      <trkpt lat="47.850625" lon="7.583555">
        <ele>270.0</ele>
        <time>2020-07-13T07:14:18Z</time>
      </trkpt>
      <trkpt lat="47.850501" lon="7.583539">
        <ele>270.0</ele>
        <time>2020-07-13T07:14:20Z</time>
      </trkpt>
      <trkpt lat="47.850376" lon="7.583518">
        <ele>270.0</ele>
        <time>2020-07-13T07:14:22Z</time>
      </trkpt>
      <trkpt lat="47.850257" lon="7.583498">
        <ele>270.0</ele>
        <time>2020-07-13T07:14:24Z</time>
      </trkpt>
      <trkpt lat="47.850075" lon="7.583469">
        <ele>270.0</ele>
        <time>2020-07-13T07:14:27Z</time>
      </trkpt>
      <trkpt lat="47.849955" lon="7.583452">
        <ele>270.0</ele>
        <time>2020-07-13T07:14:29Z</time>
      </trkpt>
      <trkpt lat="47.849829" lon="7.583424">
        <ele>270.0</ele>
        <time>2020-07-13T07:14:31Z</time>
      </trkpt>
      <trkpt lat="47.849712" lon="7.583409">
        <ele>271.0</ele>
        <time>2020-07-13T07:14:33Z</time>
      </trkpt>
      <trkpt lat="47.849587" lon="7.583387">
        <ele>270.0</ele>
        <time>2020-07-13T07:14:35Z</time>
      </trkpt>
      <trkpt lat="47.849406" lon="7.583338">
        <ele>270.0</ele>
        <time>2020-07-13T07:14:38Z</time>
      </trkpt>
      <trkpt lat="47.849284" lon="7.583303">
        <ele>270.0</ele>
        <time>2020-07-13T07:14:40Z</time>
      </trkpt>
      <trkpt lat="47.849161" lon="7.583263">
        <ele>270.0</ele>
        <time>2020-07-13T07:14:42Z</time>
      </trkpt>
      <trkpt lat="47.849036" lon="7.583224">
        <ele>270.0</ele>
        <time>2020-07-13T07:14:44Z</time>
      </trkpt>
      <trkpt lat="47.848916" lon="7.583169">
        <ele>271.0</ele>
        <time>2020-07-13T07:14:46Z</time>
      </trkpt>
      <trkpt lat="47.8488" lon="7.583117">
        <ele>271.0</ele>
        <time>2020-07-13T07:14:48Z</time>
      </trkpt>
      <trkpt lat="47.848627" lon="7.583019">
        <ele>271.0</ele>
        <time>2020-07-13T07:14:51Z</time>
      </trkpt>
      <trkpt lat="47.848467" lon="7.582919">
        <ele>270.0</ele>
        <time>2020-07-13T07:14:54Z</time>
      </trkpt>
      <trkpt lat="47.848301" lon="7.582818">
        <ele>271.0</ele>
        <time>2020-07-13T07:14:57Z</time>
      </trkpt>
      <trkpt lat="47.848197" lon="7.582733">
        <ele>271.0</ele>
        <time>2020-07-13T07:14:59Z</time>
      </trkpt>
      <trkpt lat="47.848087" lon="7.582652">
        <ele>272.0</ele>
        <time>2020-07-13T07:15:01Z</time>
      </trkpt>
      <trkpt lat="47.847922" lon="7.582524">
        <ele>272.0</ele>
        <time>2020-07-13T07:15:04Z</time>
      </trkpt>
      <trkpt lat="47.847817" lon="7.582428">
        <ele>272.0</ele>
        <time>2020-07-13T07:15:06Z</time>
      </trkpt>
      <trkpt lat="47.847718" lon="7.582331">
        <ele>272.0</ele>
        <time>2020-07-13T07:15:08Z</time>
      </trkpt>
      <trkpt lat="47.847615" lon="7.582232">
        <ele>272.0</ele>
        <time>2020-07-13T07:15:10Z</time>
      </trkpt>
      <trkpt lat="47.847513" lon="7.58213">
        <ele>272.0</ele>
        <time>2020-07-13T07:15:12Z</time>
      </trkpt>
      <trkpt lat="47.847358" lon="7.581972">
        <ele>272.0</ele>
        <time>2020-07-13T07:15:15Z</time>
      </trkpt>
      <trkpt lat="47.847256" lon="7.581861">
        <ele>272.0</ele>
        <time>2020-07-13T07:15:17Z</time>
      </trkpt>
      <trkpt lat="47.847154" lon="7.581752">
        <ele>272.0</ele>
        <time>2020-07-13T07:15:19Z</time>
      </trkpt>
      <trkpt lat="47.847012" lon="7.581589">
        <ele>272.0</ele>
        <time>2020-07-13T07:15:22Z</time>
      </trkpt>
      <trkpt lat="47.84692" lon="7.581477">
        <ele>272.0</ele>
        <time>2020-07-13T07:15:24Z</time>
      </trkpt>
      <trkpt lat="47.846815" lon="7.581362">
        <ele>273.0</ele>
        <time>2020-07-13T07:15:26Z</time>
      </trkpt>
      <trkpt lat="47.84671" lon="7.581244">
        <ele>273.0</ele>
        <time>2020-07-13T07:15:28Z</time>
      </trkpt>
      <trkpt lat="47.846607" lon="7.581134">
        <ele>272.0</ele>
        <time>2020-07-13T07:15:30Z</time>
      </trkpt>
      <trkpt lat="47.846505" lon="7.581029">
        <ele>273.0</ele>
        <time>2020-07-13T07:15:32Z</time>
      </trkpt>
      <trkpt lat="47.846348" lon="7.580859">
        <ele>273.0</ele>
        <time>2020-07-13T07:15:35Z</time>
      </trkpt>
      <trkpt lat="47.846246" lon="7.580747">
        <ele>273.0</ele>
        <time>2020-07-13T07:15:37Z</time>
      </trkpt>
      <trkpt lat="47.846146" lon="7.580642">
        <ele>272.0</ele>
        <time>2020-07-13T07:15:39Z</time>
      </trkpt>
      <trkpt lat="47.845997" lon="7.580464">
        <ele>272.0</ele>
        <time>2020-07-13T07:15:42Z</time>
      </trkpt>
      <trkpt lat="47.845903" lon="7.580347">
        <ele>272.0</ele>
        <time>2020-07-13T07:15:44Z</time>
      </trkpt>
      <trkpt lat="47.845798" lon="7.580243">
        <ele>272.0</ele>
        <time>2020-07-13T07:15:46Z</time>
      </trkpt>
      <trkpt lat="47.845685" lon="7.580159">
        <ele>272.0</ele>
        <time>2020-07-13T07:15:48Z</time>
      </trkpt>
      <trkpt lat="47.845531" lon="7.579988">
        <ele>273.0</ele>
        <time>2020-07-13T07:15:51Z</time>
      </trkpt>
      <trkpt lat="47.845385" lon="7.579829">
        <ele>274.0</ele>
        <time>2020-07-13T07:15:54Z</time>
      </trkpt>
      <trkpt lat="47.845292" lon="7.579715">
        <ele>273.0</ele>
        <time>2020-07-13T07:15:56Z</time>
      </trkpt>
      <trkpt lat="47.845243" lon="7.579659">
        <ele>273.0</ele>
        <time>2020-07-13T07:15:57Z</time>
      </trkpt>
      <trkpt lat="47.845096" lon="7.579501">
        <ele>273.0</ele>
        <time>2020-07-13T07:16:00Z</time>
      </trkpt>
      <trkpt lat="47.844995" lon="7.579394">
        <ele>272.0</ele>
        <time>2020-07-13T07:16:02Z</time>
      </trkpt>
      <trkpt lat="47.844853" lon="7.579234">
        <ele>272.0</ele>
        <time>2020-07-13T07:16:05Z</time>
      </trkpt>
      <trkpt lat="47.844752" lon="7.579127">
        <ele>272.0</ele>
        <time>2020-07-13T07:16:07Z</time>
      </trkpt>
      <trkpt lat="47.84465" lon="7.579031">
        <ele>272.0</ele>
        <time>2020-07-13T07:16:09Z</time>
      </trkpt>
      <trkpt lat="47.844549" lon="7.578941">
        <ele>272.0</ele>
        <time>2020-07-13T07:16:11Z</time>
      </trkpt>
      <trkpt lat="47.844439" lon="7.578849">
        <ele>272.0</ele>
        <time>2020-07-13T07:16:13Z</time>
      </trkpt>
      <trkpt lat="47.844322" lon="7.578757">
        <ele>272.0</ele>
        <time>2020-07-13T07:16:15Z</time>
      </trkpt>
      <trkpt lat="47.84421" lon="7.578669">
        <ele>271.0</ele>
        <time>2020-07-13T07:16:17Z</time>
      </trkpt>
      <trkpt lat="47.844093" lon="7.578594">
        <ele>272.0</ele>
        <time>2020-07-13T07:16:19Z</time>
      </trkpt>
      <trkpt lat="47.843987" lon="7.578516">
        <ele>272.0</ele>
        <time>2020-07-13T07:16:21Z</time>
      </trkpt>
      <trkpt lat="47.843885" lon="7.578443">
        <ele>272.0</ele>
        <time>2020-07-13T07:16:23Z</time>
      </trkpt>
      <trkpt lat="47.843796" lon="7.578362">
        <ele>272.0</ele>
        <time>2020-07-13T07:16:25Z</time>
      </trkpt>
      <trkpt lat="47.843731" lon="7.578241">
        <ele>271.0</ele>
        <time>2020-07-13T07:16:27Z</time>
      </trkpt>
      <trkpt lat="47.843525" lon="7.578096">
        <ele>271.0</ele>
        <time>2020-07-13T07:16:31Z</time>
      </trkpt>
      <trkpt lat="47.843415" lon="7.578038">
        <ele>271.0</ele>
        <time>2020-07-13T07:16:33Z</time>
      </trkpt>
      <trkpt lat="47.843311" lon="7.577967">
        <ele>271.0</ele>
        <time>2020-07-13T07:16:35Z</time>
      </trkpt>
      <trkpt lat="47.843206" lon="7.577893">
        <ele>272.0</ele>
        <time>2020-07-13T07:16:37Z</time>
      </trkpt>
      <trkpt lat="47.843101" lon="7.577816">
        <ele>271.0</ele>
        <time>2020-07-13T07:16:39Z</time>
      </trkpt>
      <trkpt lat="47.842944" lon="7.577701">
        <ele>272.0</ele>
        <time>2020-07-13T07:16:42Z</time>
      </trkpt>
      <trkpt lat="47.842894" lon="7.577665">
        <ele>272.0</ele>
        <time>2020-07-13T07:16:43Z</time>
      </trkpt>
      <trkpt lat="47.842748" lon="7.577553">
        <ele>271.0</ele>
        <time>2020-07-13T07:16:46Z</time>
      </trkpt>
      <trkpt lat="47.842647" lon="7.577468">
        <ele>271.0</ele>
        <time>2020-07-13T07:16:48Z</time>
      </trkpt>
      <trkpt lat="47.842544" lon="7.577378">
        <ele>271.0</ele>
        <time>2020-07-13T07:16:50Z</time>
      </trkpt>
      <trkpt lat="47.842436" lon="7.577289">
        <ele>272.0</ele>
        <time>2020-07-13T07:16:52Z</time>
      </trkpt>
      <trkpt lat="47.842342" lon="7.577218">
        <ele>271.0</ele>
        <time>2020-07-13T07:16:54Z</time>
      </trkpt>
      <trkpt lat="47.842184" lon="7.577109">
        <ele>271.0</ele>
        <time>2020-07-13T07:16:57Z</time>
      </trkpt>
      <trkpt lat="47.842065" lon="7.577056">
        <ele>271.0</ele>
        <time>2020-07-13T07:16:59Z</time>
      </trkpt>
      <trkpt lat="47.84195" lon="7.577005">
        <ele>271.0</ele>
        <time>2020-07-13T07:17:01Z</time>
      </trkpt>
      <trkpt lat="47.841839" lon="7.57695">
        <ele>271.0</ele>
        <time>2020-07-13T07:17:03Z</time>
      </trkpt>
      <trkpt lat="47.84178" lon="7.57692">
        <ele>271.0</ele>
        <time>2020-07-13T07:17:04Z</time>
      </trkpt>
      <trkpt lat="47.841617" lon="7.576831">
        <ele>270.0</ele>
        <time>2020-07-13T07:17:07Z</time>
      </trkpt>
      <trkpt lat="47.841514" lon="7.576768">
        <ele>270.0</ele>
        <time>2020-07-13T07:17:09Z</time>
      </trkpt>
      <trkpt lat="47.841401" lon="7.576706">
        <ele>270.0</ele>
        <time>2020-07-13T07:17:11Z</time>
      </trkpt>
      <trkpt lat="47.841237" lon="7.576623">
        <ele>269.0</ele>
        <time>2020-07-13T07:17:14Z</time>
      </trkpt>
      <trkpt lat="47.84113" lon="7.576569">
        <ele>269.0</ele>
        <time>2020-07-13T07:17:16Z</time>
      </trkpt>
      <trkpt lat="47.841019" lon="7.576511">
        <ele>270.0</ele>
        <time>2020-07-13T07:17:18Z</time>
      </trkpt>
      <trkpt lat="47.840857" lon="7.576423">
        <ele>270.0</ele>
        <time>2020-07-13T07:17:21Z</time>
      </trkpt>
      <trkpt lat="47.840748" lon="7.576367">
        <ele>270.0</ele>
        <time>2020-07-13T07:17:23Z</time>
      </trkpt>
      <trkpt lat="47.840578" lon="7.576282">
        <ele>270.0</ele>
        <time>2020-07-13T07:17:26Z</time>
      </trkpt>
      <trkpt lat="47.840521" lon="7.576259">
        <ele>270.0</ele>
        <time>2020-07-13T07:17:27Z</time>
      </trkpt>
      <trkpt lat="47.840345" lon="7.57624">
        <ele>271.0</ele>
        <time>2020-07-13T07:17:30Z</time>
      </trkpt>
      <trkpt lat="47.840232" lon="7.576243">
        <ele>272.0</ele>
        <time>2020-07-13T07:17:32Z</time>
      </trkpt>
      <trkpt lat="47.840062" lon="7.576155">
        <ele>272.0</ele>
        <time>2020-07-13T07:17:35Z</time>
      </trkpt>
      <trkpt lat="47.839953" lon="7.576088">
        <ele>272.0</ele>
        <time>2020-07-13T07:17:37Z</time>
      </trkpt>
      <trkpt lat="47.839841" lon="7.576017">
        <ele>272.0</ele>
        <time>2020-07-13T07:17:39Z</time>
      </trkpt>
      <trkpt lat="47.839732" lon="7.575957">
        <ele>272.0</ele>
        <time>2020-07-13T07:17:41Z</time>
      </trkpt>
      <trkpt lat="47.839676" lon="7.575925">
        <ele>272.0</ele>
        <time>2020-07-13T07:17:42Z</time>
      </trkpt>
      <trkpt lat="47.83951" lon="7.575831">
        <ele>272.0</ele>
        <time>2020-07-13T07:17:45Z</time>
      </trkpt>
      <trkpt lat="47.839395" lon="7.575775">
        <ele>272.0</ele>
        <time>2020-07-13T07:17:47Z</time>
      </trkpt>
      <trkpt lat="47.839226" lon="7.575685">
        <ele>272.0</ele>
        <time>2020-07-13T07:17:50Z</time>
      </trkpt>
      <trkpt lat="47.839062" lon="7.575597">
        <ele>272.0</ele>
        <time>2020-07-13T07:17:53Z</time>
      </trkpt>
      <trkpt lat="47.838947" lon="7.575535">
        <ele>273.0</ele>
        <time>2020-07-13T07:17:55Z</time>
      </trkpt>
      <trkpt lat="47.838836" lon="7.575485">
        <ele>273.0</ele>
        <time>2020-07-13T07:17:57Z</time>
      </trkpt>
      <trkpt lat="47.838722" lon="7.575437">
        <ele>273.0</ele>
        <time>2020-07-13T07:17:59Z</time>
      </trkpt>
      <trkpt lat="47.838664" lon="7.575414">
        <ele>273.0</ele>
        <time>2020-07-13T07:18:00Z</time>
      </trkpt>
      <trkpt lat="47.838494" lon="7.57535">
        <ele>273.0</ele>
        <time>2020-07-13T07:18:03Z</time>
      </trkpt>
      <trkpt lat="47.838314" lon="7.575296">
        <ele>272.0</ele>
        <time>2020-07-13T07:18:06Z</time>
      </trkpt>
      <trkpt lat="47.83819" lon="7.575273">
        <ele>272.0</ele>
        <time>2020-07-13T07:18:08Z</time>
      </trkpt>
      <trkpt lat="47.838129" lon="7.575265">
        <ele>272.0</ele>
        <time>2020-07-13T07:18:09Z</time>
      </trkpt>
      <trkpt lat="47.83801" lon="7.575243">
        <ele>272.0</ele>
        <time>2020-07-13T07:18:11Z</time>
      </trkpt>
      <trkpt lat="47.837771" lon="7.575209">
        <ele>272.0</ele>
        <time>2020-07-13T07:18:15Z</time>
      </trkpt>
      <trkpt lat="47.837711" lon="7.575202">
        <ele>272.0</ele>
        <time>2020-07-13T07:18:16Z</time>
      </trkpt>
      <trkpt lat="47.837588" lon="7.5752">
        <ele>272.0</ele>
        <time>2020-07-13T07:18:18Z</time>
      </trkpt>
      <trkpt lat="47.837405" lon="7.575188">
        <ele>272.0</ele>
        <time>2020-07-13T07:18:21Z</time>
      </trkpt>
      <trkpt lat="47.837283" lon="7.575183">
        <ele>271.0</ele>
        <time>2020-07-13T07:18:23Z</time>
      </trkpt>
      <trkpt lat="47.837161" lon="7.575177">
        <ele>271.0</ele>
        <time>2020-07-13T07:18:25Z</time>
      </trkpt>
      <trkpt lat="47.836979" lon="7.57516">
        <ele>271.0</ele>
        <time>2020-07-13T07:18:28Z</time>
      </trkpt>
      <trkpt lat="47.836859" lon="7.575148">
        <ele>271.0</ele>
        <time>2020-07-13T07:18:30Z</time>
      </trkpt>
      <trkpt lat="47.836744" lon="7.575133">
        <ele>271.0</ele>
        <time>2020-07-13T07:18:32Z</time>
      </trkpt>
      <trkpt lat="47.836622" lon="7.575114">
        <ele>271.0</ele>
        <time>2020-07-13T07:18:34Z</time>
      </trkpt>
      <trkpt lat="47.836505" lon="7.575093">
        <ele>272.0</ele>
        <time>2020-07-13T07:18:36Z</time>
      </trkpt>
      <trkpt lat="47.836386" lon="7.575077">
        <ele>272.0</ele>
        <time>2020-07-13T07:18:38Z</time>
      </trkpt>
      <trkpt lat="47.836266" lon="7.57506">
        <ele>272.0</ele>
        <time>2020-07-13T07:18:40Z</time>
      </trkpt>
      <trkpt lat="47.836148" lon="7.57504">
        <ele>272.0</ele>
        <time>2020-07-13T07:18:42Z</time>
      </trkpt>
      <trkpt lat="47.83597" lon="7.575007">
        <ele>272.0</ele>
        <time>2020-07-13T07:18:45Z</time>
      </trkpt>
      <trkpt lat="47.835858" lon="7.574981">
        <ele>273.0</ele>
        <time>2020-07-13T07:18:47Z</time>
      </trkpt>
      <trkpt lat="47.835847" lon="7.574983">
        <ele>273.0</ele>
        <time>2020-07-13T07:18:49Z</time>
      </trkpt>
      <trkpt lat="47.835752" lon="7.57497">
        <ele>273.0</ele>
        <time>2020-07-13T07:18:51Z</time>
      </trkpt>
      <trkpt lat="47.835573" lon="7.574918">
        <ele>274.0</ele>
        <time>2020-07-13T07:18:53Z</time>
      </trkpt>
      <trkpt lat="47.83536" lon="7.574852">
        <ele>274.0</ele>
        <time>2020-07-13T07:18:56Z</time>
      </trkpt>
      <trkpt lat="47.835176" lon="7.5748">
        <ele>274.0</ele>
        <time>2020-07-13T07:18:59Z</time>
      </trkpt>
      <trkpt lat="47.834999" lon="7.574744">
        <ele>273.0</ele>
        <time>2020-07-13T07:19:02Z</time>
      </trkpt>
      <trkpt lat="47.834879" lon="7.574705">
        <ele>272.0</ele>
        <time>2020-07-13T07:19:04Z</time>
      </trkpt>
      <trkpt lat="47.834762" lon="7.574656">
        <ele>272.0</ele>
        <time>2020-07-13T07:19:06Z</time>
      </trkpt>
      <trkpt lat="47.834648" lon="7.574627">
        <ele>271.0</ele>
        <time>2020-07-13T07:19:08Z</time>
      </trkpt>
      <trkpt lat="47.834535" lon="7.574593">
        <ele>271.0</ele>
        <time>2020-07-13T07:19:10Z</time>
      </trkpt>
      <trkpt lat="47.834415" lon="7.574554">
        <ele>271.0</ele>
        <time>2020-07-13T07:19:12Z</time>
      </trkpt>
      <trkpt lat="47.834297" lon="7.574512">
        <ele>271.0</ele>
        <time>2020-07-13T07:19:14Z</time>
      </trkpt>
      <trkpt lat="47.834128" lon="7.574463">
        <ele>271.0</ele>
        <time>2020-07-13T07:19:17Z</time>
      </trkpt>
      <trkpt lat="47.834006" lon="7.574427">
        <ele>271.0</ele>
        <time>2020-07-13T07:19:19Z</time>
      </trkpt>
      <trkpt lat="47.833885" lon="7.574402">
        <ele>271.0</ele>
        <time>2020-07-13T07:19:21Z</time>
      </trkpt>
      <trkpt lat="47.833763" lon="7.574373">
        <ele>271.0</ele>
        <time>2020-07-13T07:19:23Z</time>
      </trkpt>
      <trkpt lat="47.833584" lon="7.574347">
        <ele>271.0</ele>
        <time>2020-07-13T07:19:26Z</time>
      </trkpt>
      <trkpt lat="47.83346" lon="7.574336">
        <ele>271.0</ele>
        <time>2020-07-13T07:19:28Z</time>
      </trkpt>
      <trkpt lat="47.833398" lon="7.574331">
        <ele>271.0</ele>
        <time>2020-07-13T07:19:29Z</time>
      </trkpt>
      <trkpt lat="47.833337" lon="7.57433">
        <ele>272.0</ele>
        <time>2020-07-13T07:19:30Z</time>
      </trkpt>
      <trkpt lat="47.833151" lon="7.574318">
        <ele>272.0</ele>
        <time>2020-07-13T07:19:33Z</time>
      </trkpt>
      <trkpt lat="47.832964" lon="7.574308">
        <ele>273.0</ele>
        <time>2020-07-13T07:19:36Z</time>
      </trkpt>
      <trkpt lat="47.832839" lon="7.574301">
        <ele>273.0</ele>
        <time>2020-07-13T07:19:38Z</time>
      </trkpt>
      <trkpt lat="47.832776" lon="7.574295">
        <ele>273.0</ele>
        <time>2020-07-13T07:19:39Z</time>
      </trkpt>
      <trkpt lat="47.832523" lon="7.574276">
        <ele>273.0</ele>
        <time>2020-07-13T07:19:43Z</time>
      </trkpt>
      <trkpt lat="47.832396" lon="7.574267">
        <ele>273.0</ele>
        <time>2020-07-13T07:19:45Z</time>
      </trkpt>
      <trkpt lat="47.832271" lon="7.574257">
        <ele>273.0</ele>
        <time>2020-07-13T07:19:47Z</time>
      </trkpt>
      <trkpt lat="47.832146" lon="7.574249">
        <ele>273.0</ele>
        <time>2020-07-13T07:19:49Z</time>
      </trkpt>
      <trkpt lat="47.832019" lon="7.574249">
        <ele>273.0</ele>
        <time>2020-07-13T07:19:51Z</time>
      </trkpt>
      <trkpt lat="47.831833" lon="7.574244">
        <ele>273.0</ele>
        <time>2020-07-13T07:19:54Z</time>
      </trkpt>
      <trkpt lat="47.831711" lon="7.574239">
        <ele>273.0</ele>
        <time>2020-07-13T07:19:56Z</time>
      </trkpt>
      <trkpt lat="47.831584" lon="7.574237">
        <ele>274.0</ele>
        <time>2020-07-13T07:19:58Z</time>
      </trkpt>
      <trkpt lat="47.83146" lon="7.574227">
        <ele>274.0</ele>
        <time>2020-07-13T07:20:00Z</time>
      </trkpt>
      <trkpt lat="47.83134" lon="7.574223">
        <ele>274.0</ele>
        <time>2020-07-13T07:20:02Z</time>
      </trkpt>
      <trkpt lat="47.831218" lon="7.574216">
        <ele>274.0</ele>
        <time>2020-07-13T07:20:04Z</time>
      </trkpt>
      <trkpt lat="47.831099" lon="7.57421">
        <ele>274.0</ele>
        <time>2020-07-13T07:20:06Z</time>
      </trkpt>
      <trkpt lat="47.830976" lon="7.574204">
        <ele>273.0</ele>
        <time>2020-07-13T07:20:08Z</time>
      </trkpt>
      <trkpt lat="47.830852" lon="7.574196">
        <ele>273.0</ele>
        <time>2020-07-13T07:20:10Z</time>
      </trkpt>
      <trkpt lat="47.830728" lon="7.574187">
        <ele>273.0</ele>
        <time>2020-07-13T07:20:12Z</time>
      </trkpt>
      <trkpt lat="47.830609" lon="7.574182">
        <ele>274.0</ele>
        <time>2020-07-13T07:20:14Z</time>
      </trkpt>
      <trkpt lat="47.830424" lon="7.574167">
        <ele>273.0</ele>
        <time>2020-07-13T07:20:17Z</time>
      </trkpt>
      <trkpt lat="47.830299" lon="7.574169">
        <ele>274.0</ele>
        <time>2020-07-13T07:20:19Z</time>
      </trkpt>
      <trkpt lat="47.830175" lon="7.574168">
        <ele>274.0</ele>
        <time>2020-07-13T07:20:21Z</time>
      </trkpt>
      <trkpt lat="47.830054" lon="7.574168">
        <ele>274.0</ele>
        <time>2020-07-13T07:20:23Z</time>
      </trkpt>
      <trkpt lat="47.829934" lon="7.574161">
        <ele>274.0</ele>
        <time>2020-07-13T07:20:25Z</time>
      </trkpt>
      <trkpt lat="47.829815" lon="7.574161">
        <ele>274.0</ele>
        <time>2020-07-13T07:20:27Z</time>
      </trkpt>
      <trkpt lat="47.829693" lon="7.57416">
        <ele>274.0</ele>
        <time>2020-07-13T07:20:29Z</time>
      </trkpt>
      <trkpt lat="47.829578" lon="7.574163">
        <ele>274.0</ele>
        <time>2020-07-13T07:20:31Z</time>
      </trkpt>
      <trkpt lat="47.829457" lon="7.574159">
        <ele>274.0</ele>
        <time>2020-07-13T07:20:33Z</time>
      </trkpt>
      <trkpt lat="47.829278" lon="7.574168">
        <ele>275.0</ele>
        <time>2020-07-13T07:20:36Z</time>
      </trkpt>
      <trkpt lat="47.82916" lon="7.574168">
        <ele>275.0</ele>
        <time>2020-07-13T07:20:38Z</time>
      </trkpt>
      <trkpt lat="47.829038" lon="7.574184">
        <ele>275.0</ele>
        <time>2020-07-13T07:20:40Z</time>
      </trkpt>
      <trkpt lat="47.828918" lon="7.574208">
        <ele>274.0</ele>
        <time>2020-07-13T07:20:42Z</time>
      </trkpt>
      <trkpt lat="47.828732" lon="7.574236">
        <ele>275.0</ele>
        <time>2020-07-13T07:20:45Z</time>
      </trkpt>
      <trkpt lat="47.82861" lon="7.574253">
        <ele>275.0</ele>
        <time>2020-07-13T07:20:47Z</time>
      </trkpt>
      <trkpt lat="47.828491" lon="7.574277">
        <ele>275.0</ele>
        <time>2020-07-13T07:20:49Z</time>
      </trkpt>
      <trkpt lat="47.828371" lon="7.574311">
        <ele>275.0</ele>
        <time>2020-07-13T07:20:51Z</time>
      </trkpt>
      <trkpt lat="47.828249" lon="7.574349">
        <ele>274.0</ele>
        <time>2020-07-13T07:20:53Z</time>
      </trkpt>
      <trkpt lat="47.828062" lon="7.574402">
        <ele>274.0</ele>
        <time>2020-07-13T07:20:56Z</time>
      </trkpt>
      <trkpt lat="47.827943" lon="7.574438">
        <ele>274.0</ele>
        <time>2020-07-13T07:20:58Z</time>
      </trkpt>
      <trkpt lat="47.827823" lon="7.574482">
        <ele>274.0</ele>
        <time>2020-07-13T07:21:00Z</time>
      </trkpt>
      <trkpt lat="47.827703" lon="7.574517">
        <ele>274.0</ele>
        <time>2020-07-13T07:21:02Z</time>
      </trkpt>
      <trkpt lat="47.827586" lon="7.574554">
        <ele>274.0</ele>
        <time>2020-07-13T07:21:04Z</time>
      </trkpt>
      <trkpt lat="47.827471" lon="7.574591">
        <ele>274.0</ele>
        <time>2020-07-13T07:21:06Z</time>
      </trkpt>
      <trkpt lat="47.827353" lon="7.574625">
        <ele>274.0</ele>
        <time>2020-07-13T07:21:08Z</time>
      </trkpt>
      <trkpt lat="47.827239" lon="7.574664">
        <ele>274.0</ele>
        <time>2020-07-13T07:21:10Z</time>
      </trkpt>
      <trkpt lat="47.827124" lon="7.5747">
        <ele>274.0</ele>
        <time>2020-07-13T07:21:12Z</time>
      </trkpt>
      <trkpt lat="47.826951" lon="7.574752">
        <ele>274.0</ele>
        <time>2020-07-13T07:21:15Z</time>
      </trkpt>
      <trkpt lat="47.82684" lon="7.574777">
        <ele>274.0</ele>
        <time>2020-07-13T07:21:17Z</time>
      </trkpt>
      <trkpt lat="47.826784" lon="7.57479">
        <ele>274.0</ele>
        <time>2020-07-13T07:21:18Z</time>
      </trkpt>
      <trkpt lat="47.826611" lon="7.574832">
        <ele>274.0</ele>
        <time>2020-07-13T07:21:21Z</time>
      </trkpt>
      <trkpt lat="47.826497" lon="7.574857">
        <ele>274.0</ele>
        <time>2020-07-13T07:21:23Z</time>
      </trkpt>
      <trkpt lat="47.826314" lon="7.574896">
        <ele>273.0</ele>
        <time>2020-07-13T07:21:26Z</time>
      </trkpt>
      <trkpt lat="47.826189" lon="7.574912">
        <ele>274.0</ele>
        <time>2020-07-13T07:21:28Z</time>
      </trkpt>
      <trkpt lat="47.826065" lon="7.574915">
        <ele>274.0</ele>
        <time>2020-07-13T07:21:30Z</time>
      </trkpt>
      <trkpt lat="47.825941" lon="7.574911">
        <ele>274.0</ele>
        <time>2020-07-13T07:21:32Z</time>
      </trkpt>
      <trkpt lat="47.825823" lon="7.574909">
        <ele>274.0</ele>
        <time>2020-07-13T07:21:34Z</time>
      </trkpt>
      <trkpt lat="47.825701" lon="7.574897">
        <ele>274.0</ele>
        <time>2020-07-13T07:21:36Z</time>
      </trkpt>
      <trkpt lat="47.825577" lon="7.574883">
        <ele>274.0</ele>
        <time>2020-07-13T07:21:38Z</time>
      </trkpt>
      <trkpt lat="47.825399" lon="7.574857">
        <ele>274.0</ele>
        <time>2020-07-13T07:21:41Z</time>
      </trkpt>
      <trkpt lat="47.825283" lon="7.574839">
        <ele>274.0</ele>
        <time>2020-07-13T07:21:43Z</time>
      </trkpt>
      <trkpt lat="47.825165" lon="7.574805">
        <ele>275.0</ele>
        <time>2020-07-13T07:21:45Z</time>
      </trkpt>
      <trkpt lat="47.825055" lon="7.574761">
        <ele>275.0</ele>
        <time>2020-07-13T07:21:47Z</time>
      </trkpt>
      <trkpt lat="47.825002" lon="7.57474">
        <ele>275.0</ele>
        <time>2020-07-13T07:21:48Z</time>
      </trkpt>
      <trkpt lat="47.824834" lon="7.57468">
        <ele>275.0</ele>
        <time>2020-07-13T07:21:51Z</time>
      </trkpt>
      <trkpt lat="47.824726" lon="7.574641">
        <ele>275.0</ele>
        <time>2020-07-13T07:21:53Z</time>
      </trkpt>
      <trkpt lat="47.824611" lon="7.574601">
        <ele>275.0</ele>
        <time>2020-07-13T07:21:55Z</time>
      </trkpt>
      <trkpt lat="47.8245" lon="7.574557">
        <ele>276.0</ele>
        <time>2020-07-13T07:21:57Z</time>
      </trkpt>
      <trkpt lat="47.824287" lon="7.574449">
        <ele>276.0</ele>
        <time>2020-07-13T07:22:01Z</time>
      </trkpt>
      <trkpt lat="47.824231" lon="7.574423">
        <ele>276.0</ele>
        <time>2020-07-13T07:22:02Z</time>
      </trkpt>
      <trkpt lat="47.824057" lon="7.57433">
        <ele>276.0</ele>
        <time>2020-07-13T07:22:05Z</time>
      </trkpt>
      <trkpt lat="47.823897" lon="7.57422">
        <ele>276.0</ele>
        <time>2020-07-13T07:22:08Z</time>
      </trkpt>
      <trkpt lat="47.823789" lon="7.574144">
        <ele>276.0</ele>
        <time>2020-07-13T07:22:10Z</time>
      </trkpt>
      <trkpt lat="47.823685" lon="7.574062">
        <ele>276.0</ele>
        <time>2020-07-13T07:22:12Z</time>
      </trkpt>
      <trkpt lat="47.823536" lon="7.573924">
        <ele>276.0</ele>
        <time>2020-07-13T07:22:15Z</time>
      </trkpt>
      <trkpt lat="47.823435" lon="7.573835">
        <ele>276.0</ele>
        <time>2020-07-13T07:22:17Z</time>
      </trkpt>
      <trkpt lat="47.823335" lon="7.57374">
        <ele>276.0</ele>
        <time>2020-07-13T07:22:19Z</time>
      </trkpt>
      <trkpt lat="47.823236" lon="7.573639">
        <ele>276.0</ele>
        <time>2020-07-13T07:22:21Z</time>
      </trkpt>
      <trkpt lat="47.823081" lon="7.573482">
        <ele>275.0</ele>
        <time>2020-07-13T07:22:24Z</time>
      </trkpt>
      <trkpt lat="47.822938" lon="7.573311">
        <ele>275.0</ele>
        <time>2020-07-13T07:22:27Z</time>
      </trkpt>
      <trkpt lat="47.822845" lon="7.573195">
        <ele>276.0</ele>
        <time>2020-07-13T07:22:29Z</time>
      </trkpt>
      <trkpt lat="47.822722" lon="7.573004">
        <ele>275.0</ele>
        <time>2020-07-13T07:22:32Z</time>
      </trkpt>
      <trkpt lat="47.822635" lon="7.572872">
        <ele>275.0</ele>
        <time>2020-07-13T07:22:34Z</time>
      </trkpt>
      <trkpt lat="47.822546" lon="7.572744">
        <ele>275.0</ele>
        <time>2020-07-13T07:22:36Z</time>
      </trkpt>
      <trkpt lat="47.822465" lon="7.572611">
        <ele>275.0</ele>
        <time>2020-07-13T07:22:38Z</time>
      </trkpt>
      <trkpt lat="47.82238" lon="7.572486">
        <ele>275.0</ele>
        <time>2020-07-13T07:22:40Z</time>
      </trkpt>
      <trkpt lat="47.822301" lon="7.572351">
        <ele>274.0</ele>
        <time>2020-07-13T07:22:42Z</time>
      </trkpt>
      <trkpt lat="47.822226" lon="7.57222">
        <ele>274.0</ele>
        <time>2020-07-13T07:22:44Z</time>
      </trkpt>
      <trkpt lat="47.822114" lon="7.57201">
        <ele>274.0</ele>
        <time>2020-07-13T07:22:47Z</time>
      </trkpt>
      <trkpt lat="47.822045" lon="7.571872">
        <ele>275.0</ele>
        <time>2020-07-13T07:22:49Z</time>
      </trkpt>
      <trkpt lat="47.821976" lon="7.571736">
        <ele>275.0</ele>
        <time>2020-07-13T07:22:51Z</time>
      </trkpt>
      <trkpt lat="47.821907" lon="7.571599">
        <ele>274.0</ele>
        <time>2020-07-13T07:22:53Z</time>
      </trkpt>
      <trkpt lat="47.821873" lon="7.571526">
        <ele>274.0</ele>
        <time>2020-07-13T07:22:54Z</time>
      </trkpt>
      <trkpt lat="47.821742" lon="7.571251">
        <ele>274.0</ele>
        <time>2020-07-13T07:22:58Z</time>
      </trkpt>
      <trkpt lat="47.821684" lon="7.571115">
        <ele>275.0</ele>
        <time>2020-07-13T07:23:00Z</time>
      </trkpt>
      <trkpt lat="47.821621" lon="7.570997">
        <ele>275.0</ele>
        <time>2020-07-13T07:23:02Z</time>
      </trkpt>
      <trkpt lat="47.821592" lon="7.570939">
        <ele>275.0</ele>
        <time>2020-07-13T07:23:03Z</time>
      </trkpt>
      <trkpt lat="47.821521" lon="7.570754">
        <ele>276.0</ele>
        <time>2020-07-13T07:23:06Z</time>
      </trkpt>
      <trkpt lat="47.821464" lon="7.570638">
        <ele>276.0</ele>
        <time>2020-07-13T07:23:08Z</time>
      </trkpt>
      <trkpt lat="47.821363" lon="7.570469">
        <ele>275.0</ele>
        <time>2020-07-13T07:23:11Z</time>
      </trkpt>
      <trkpt lat="47.821329" lon="7.570426">
        <ele>275.0</ele>
        <time>2020-07-13T07:23:12Z</time>
      </trkpt>
      <trkpt lat="47.821243" lon="7.57038">
        <ele>275.0</ele>
        <time>2020-07-13T07:23:14Z</time>
      </trkpt>
      <trkpt lat="47.821114" lon="7.570306">
        <ele>275.0</ele>
        <time>2020-07-13T07:23:17Z</time>
      </trkpt>
      <trkpt lat="47.821078" lon="7.57019">
        <ele>275.0</ele>
        <time>2020-07-13T07:23:19Z</time>
      </trkpt>
      <trkpt lat="47.821078" lon="7.57006">
        <ele>275.0</ele>
        <time>2020-07-13T07:23:21Z</time>
      </trkpt>
      <trkpt lat="47.821089" lon="7.56985">
        <ele>275.0</ele>
        <time>2020-07-13T07:23:24Z</time>
      </trkpt>
      <trkpt lat="47.82106" lon="7.56971">
        <ele>275.0</ele>
        <time>2020-07-13T07:23:26Z</time>
      </trkpt>
      <trkpt lat="47.821003" lon="7.569579">
        <ele>276.0</ele>
        <time>2020-07-13T07:23:28Z</time>
      </trkpt>
      <trkpt lat="47.820952" lon="7.569468">
        <ele>275.0</ele>
        <time>2020-07-13T07:23:30Z</time>
      </trkpt>
      <trkpt lat="47.820906" lon="7.569348">
        <ele>276.0</ele>
        <time>2020-07-13T07:23:32Z</time>
      </trkpt>
      <trkpt lat="47.820856" lon="7.569238">
        <ele>276.0</ele>
        <time>2020-07-13T07:23:34Z</time>
      </trkpt>
      <trkpt lat="47.820817" lon="7.569171">
        <ele>276.0</ele>
        <time>2020-07-13T07:23:36Z</time>
      </trkpt>
      <trkpt lat="47.820807" lon="7.569133">
        <ele>276.0</ele>
        <time>2020-07-13T07:23:38Z</time>
      </trkpt>
      <trkpt lat="47.820812" lon="7.569124">
        <ele>275.0</ele>
        <time>2020-07-13T07:23:40Z</time>
      </trkpt>
      <trkpt lat="47.820815" lon="7.569118">
        <ele>276.0</ele>
        <time>2020-07-13T07:23:42Z</time>
      </trkpt>
      <trkpt lat="47.820824" lon="7.569111">
        <ele>276.0</ele>
        <time>2020-07-13T07:23:45Z</time>
      </trkpt>
      <trkpt lat="47.820835" lon="7.569103">
        <ele>276.0</ele>
        <time>2020-07-13T07:23:47Z</time>
      </trkpt>
      <trkpt lat="47.820884" lon="7.569058">
        <ele>275.0</ele>
        <time>2020-07-13T07:23:50Z</time>
      </trkpt>
      <trkpt lat="47.820931" lon="7.569012">
        <ele>275.0</ele>
        <time>2020-07-13T07:23:52Z</time>
      </trkpt>
      <trkpt lat="47.820981" lon="7.569041">
        <ele>275.0</ele>
        <time>2020-07-13T07:23:54Z</time>
      </trkpt>
      <trkpt lat="47.821056" lon="7.569166">
        <ele>276.0</ele>
        <time>2020-07-13T07:23:57Z</time>
      </trkpt>
      <trkpt lat="47.821114" lon="7.569257">
        <ele>276.0</ele>
        <time>2020-07-13T07:23:59Z</time>
      </trkpt>
      <trkpt lat="47.821186" lon="7.569411">
        <ele>276.0</ele>
        <time>2020-07-13T07:24:02Z</time>
      </trkpt>
      <trkpt lat="47.821235" lon="7.569496">
        <ele>275.0</ele>
        <time>2020-07-13T07:24:04Z</time>
      </trkpt>
      <trkpt lat="47.82131" lon="7.569534">
        <ele>275.0</ele>
        <time>2020-07-13T07:24:06Z</time>
      </trkpt>
      <trkpt lat="47.821392" lon="7.569473">
        <ele>274.0</ele>
        <time>2020-07-13T07:24:08Z</time>
      </trkpt>
      <trkpt lat="47.821449" lon="7.569261">
        <ele>274.0</ele>
        <time>2020-07-13T07:24:11Z</time>
      </trkpt>
      <trkpt lat="47.821464" lon="7.569124">
        <ele>274.0</ele>
        <time>2020-07-13T07:24:13Z</time>
      </trkpt>
      <trkpt lat="47.821476" lon="7.569019">
        <ele>275.0</ele>
        <time>2020-07-13T07:24:15Z</time>
      </trkpt>
      <trkpt lat="47.82149" lon="7.568916">
        <ele>274.0</ele>
        <time>2020-07-13T07:24:17Z</time>
      </trkpt>
      <trkpt lat="47.821516" lon="7.568758">
        <ele>275.0</ele>
        <time>2020-07-13T07:24:20Z</time>
      </trkpt>
      <trkpt lat="47.82154" lon="7.568638">
        <ele>275.0</ele>
        <time>2020-07-13T07:24:22Z</time>
      </trkpt>
      <trkpt lat="47.821569" lon="7.568494">
        <ele>274.0</ele>
        <time>2020-07-13T07:24:24Z</time>
      </trkpt>
      <trkpt lat="47.821608" lon="7.568336">
        <ele>273.0</ele>
        <time>2020-07-13T07:24:26Z</time>
      </trkpt>
      <trkpt lat="47.821667" lon="7.568177">
        <ele>273.0</ele>
        <time>2020-07-13T07:24:28Z</time>
      </trkpt>
      <trkpt lat="47.821719" lon="7.568008">
        <ele>272.0</ele>
        <time>2020-07-13T07:24:30Z</time>
      </trkpt>
      <trkpt lat="47.821776" lon="7.56781">
        <ele>270.0</ele>
        <time>2020-07-13T07:24:32Z</time>
      </trkpt>
      <trkpt lat="47.821831" lon="7.567598">
        <ele>270.0</ele>
        <time>2020-07-13T07:24:34Z</time>
      </trkpt>
      <trkpt lat="47.82191" lon="7.567315">
        <ele>269.0</ele>
        <time>2020-07-13T07:24:37Z</time>
      </trkpt>
      <trkpt lat="47.82196" lon="7.567167">
        <ele>269.0</ele>
        <time>2020-07-13T07:24:39Z</time>
      </trkpt>
      <trkpt lat="47.821973" lon="7.567103">
        <ele>268.0</ele>
        <time>2020-07-13T07:24:40Z</time>
      </trkpt>
      <trkpt lat="47.822042" lon="7.56692">
        <ele>268.0</ele>
        <time>2020-07-13T07:24:43Z</time>
      </trkpt>
      <trkpt lat="47.822098" lon="7.566799">
        <ele>268.0</ele>
        <time>2020-07-13T07:24:45Z</time>
      </trkpt>
      <trkpt lat="47.822142" lon="7.566688">
        <ele>268.0</ele>
        <time>2020-07-13T07:24:49Z</time>
      </trkpt>
      <trkpt lat="47.822119" lon="7.5667">
        <ele>268.0</ele>
        <time>2020-07-13T07:24:51Z</time>
      </trkpt>
      <trkpt lat="47.822103" lon="7.566728">
        <ele>268.0</ele>
        <time>2020-07-13T07:24:53Z</time>
      </trkpt>
      <trkpt lat="47.822095" lon="7.566742">
        <ele>268.0</ele>
        <time>2020-07-13T07:24:54Z</time>
      </trkpt>
      <trkpt lat="47.822091" lon="7.566791">
        <ele>268.0</ele>
        <time>2020-07-13T07:24:57Z</time>
      </trkpt>
      <trkpt lat="47.822126" lon="7.566837">
        <ele>267.0</ele>
        <time>2020-07-13T07:24:59Z</time>
      </trkpt>
      <trkpt lat="47.822202" lon="7.566838">
        <ele>267.0</ele>
        <time>2020-07-13T07:25:01Z</time>
      </trkpt>
      <trkpt lat="47.822269" lon="7.566768">
        <ele>266.0</ele>
        <time>2020-07-13T07:25:03Z</time>
      </trkpt>
      <trkpt lat="47.822352" lon="7.566594">
        <ele>267.0</ele>
        <time>2020-07-13T07:25:06Z</time>
      </trkpt>
      <trkpt lat="47.822402" lon="7.566479">
        <ele>267.0</ele>
        <time>2020-07-13T07:25:08Z</time>
      </trkpt>
      <trkpt lat="47.822468" lon="7.566356">
        <ele>268.0</ele>
        <time>2020-07-13T07:25:10Z</time>
      </trkpt>
      <trkpt lat="47.822532" lon="7.566218">
        <ele>268.0</ele>
        <time>2020-07-13T07:25:12Z</time>
      </trkpt>
      <trkpt lat="47.822599" lon="7.566084">
        <ele>268.0</ele>
        <time>2020-07-13T07:25:14Z</time>
      </trkpt>
      <trkpt lat="47.822701" lon="7.565873">
        <ele>268.0</ele>
        <time>2020-07-13T07:25:17Z</time>
      </trkpt>
      <trkpt lat="47.822763" lon="7.565734">
        <ele>268.0</ele>
        <time>2020-07-13T07:25:19Z</time>
      </trkpt>
      <trkpt lat="47.822828" lon="7.565594">
        <ele>269.0</ele>
        <time>2020-07-13T07:25:21Z</time>
      </trkpt>
      <trkpt lat="47.822927" lon="7.565376">
        <ele>270.0</ele>
        <time>2020-07-13T07:25:24Z</time>
      </trkpt>
      <trkpt lat="47.82299" lon="7.565234">
        <ele>270.0</ele>
        <time>2020-07-13T07:25:26Z</time>
      </trkpt>
      <trkpt lat="47.823051" lon="7.565071">
        <ele>269.0</ele>
        <time>2020-07-13T07:25:28Z</time>
      </trkpt>
      <trkpt lat="47.823113" lon="7.56491">
        <ele>269.0</ele>
        <time>2020-07-13T07:25:30Z</time>
      </trkpt>
      <trkpt lat="47.823174" lon="7.564743">
        <ele>269.0</ele>
        <time>2020-07-13T07:25:32Z</time>
      </trkpt>
      <trkpt lat="47.823258" lon="7.564505">
        <ele>269.0</ele>
        <time>2020-07-13T07:25:35Z</time>
      </trkpt>
      <trkpt lat="47.823306" lon="7.564348">
        <ele>269.0</ele>
        <time>2020-07-13T07:25:37Z</time>
      </trkpt>
      <trkpt lat="47.823345" lon="7.564195">
        <ele>269.0</ele>
        <time>2020-07-13T07:25:39Z</time>
      </trkpt>
      <trkpt lat="47.823382" lon="7.564033">
        <ele>269.0</ele>
        <time>2020-07-13T07:25:41Z</time>
      </trkpt>
      <trkpt lat="47.823395" lon="7.563951">
        <ele>269.0</ele>
        <time>2020-07-13T07:25:42Z</time>
      </trkpt>
      <trkpt lat="47.823441" lon="7.563687">
        <ele>269.0</ele>
        <time>2020-07-13T07:25:45Z</time>
      </trkpt>
      <trkpt lat="47.823473" lon="7.563515">
        <ele>270.0</ele>
        <time>2020-07-13T07:25:47Z</time>
      </trkpt>
      <trkpt lat="47.82351" lon="7.563253">
        <ele>270.0</ele>
        <time>2020-07-13T07:25:50Z</time>
      </trkpt>
      <trkpt lat="47.823514" lon="7.563163">
        <ele>270.0</ele>
        <time>2020-07-13T07:25:51Z</time>
      </trkpt>
      <trkpt lat="47.823524" lon="7.562883">
        <ele>269.0</ele>
        <time>2020-07-13T07:25:54Z</time>
      </trkpt>
      <trkpt lat="47.823498" lon="7.562701">
        <ele>269.0</ele>
        <time>2020-07-13T07:25:56Z</time>
      </trkpt>
      <trkpt lat="47.823485" lon="7.562509">
        <ele>268.0</ele>
        <time>2020-07-13T07:25:58Z</time>
      </trkpt>
      <trkpt lat="47.82347" lon="7.562325">
        <ele>268.0</ele>
        <time>2020-07-13T07:26:00Z</time>
      </trkpt>
      <trkpt lat="47.823441" lon="7.562048">
        <ele>269.0</ele>
        <time>2020-07-13T07:26:03Z</time>
      </trkpt>
      <trkpt lat="47.823389" lon="7.561769">
        <ele>268.0</ele>
        <time>2020-07-13T07:26:06Z</time>
      </trkpt>
      <trkpt lat="47.823347" lon="7.56159">
        <ele>268.0</ele>
        <time>2020-07-13T07:26:08Z</time>
      </trkpt>
      <trkpt lat="47.823297" lon="7.561407">
        <ele>267.0</ele>
        <time>2020-07-13T07:26:10Z</time>
      </trkpt>
      <trkpt lat="47.823235" lon="7.561229">
        <ele>267.0</ele>
        <time>2020-07-13T07:26:12Z</time>
      </trkpt>
      <trkpt lat="47.823168" lon="7.561042">
        <ele>266.0</ele>
        <time>2020-07-13T07:26:14Z</time>
      </trkpt>
      <trkpt lat="47.823057" lon="7.560784">
        <ele>266.0</ele>
        <time>2020-07-13T07:26:17Z</time>
      </trkpt>
      <trkpt lat="47.822946" lon="7.560538">
        <ele>266.0</ele>
        <time>2020-07-13T07:26:20Z</time>
      </trkpt>
      <trkpt lat="47.822851" lon="7.560393">
        <ele>266.0</ele>
        <time>2020-07-13T07:26:22Z</time>
      </trkpt>
      <trkpt lat="47.822749" lon="7.560253">
        <ele>265.0</ele>
        <time>2020-07-13T07:26:24Z</time>
      </trkpt>
      <trkpt lat="47.822597" lon="7.560061">
        <ele>265.0</ele>
        <time>2020-07-13T07:26:27Z</time>
      </trkpt>
      <trkpt lat="47.822494" lon="7.559934">
        <ele>265.0</ele>
        <time>2020-07-13T07:26:29Z</time>
      </trkpt>
      <trkpt lat="47.822392" lon="7.559828">
        <ele>265.0</ele>
        <time>2020-07-13T07:26:31Z</time>
      </trkpt>
      <trkpt lat="47.822289" lon="7.559721">
        <ele>264.0</ele>
        <time>2020-07-13T07:26:33Z</time>
      </trkpt>
      <trkpt lat="47.822184" lon="7.559604">
        <ele>264.0</ele>
        <time>2020-07-13T07:26:35Z</time>
      </trkpt>
      <trkpt lat="47.822071" lon="7.559507">
        <ele>264.0</ele>
        <time>2020-07-13T07:26:37Z</time>
      </trkpt>
      <trkpt lat="47.821957" lon="7.559402">
        <ele>263.0</ele>
        <time>2020-07-13T07:26:39Z</time>
      </trkpt>
      <trkpt lat="47.821775" lon="7.559246">
        <ele>262.0</ele>
        <time>2020-07-13T07:26:42Z</time>
      </trkpt>
      <trkpt lat="47.821657" lon="7.55915">
        <ele>262.0</ele>
        <time>2020-07-13T07:26:44Z</time>
      </trkpt>
      <trkpt lat="47.821542" lon="7.55906">
        <ele>261.0</ele>
        <time>2020-07-13T07:26:46Z</time>
      </trkpt>
      <trkpt lat="47.821419" lon="7.558978">
        <ele>260.0</ele>
        <time>2020-07-13T07:26:48Z</time>
      </trkpt>
      <trkpt lat="47.821296" lon="7.55889">
        <ele>260.0</ele>
        <time>2020-07-13T07:26:50Z</time>
      </trkpt>
      <trkpt lat="47.821183" lon="7.558805">
        <ele>259.0</ele>
        <time>2020-07-13T07:26:52Z</time>
      </trkpt>
      <trkpt lat="47.82107" lon="7.558724">
        <ele>259.0</ele>
        <time>2020-07-13T07:26:54Z</time>
      </trkpt>
      <trkpt lat="47.8209" lon="7.558606">
        <ele>260.0</ele>
        <time>2020-07-13T07:26:57Z</time>
      </trkpt>
      <trkpt lat="47.820843" lon="7.558568">
        <ele>260.0</ele>
        <time>2020-07-13T07:26:58Z</time>
      </trkpt>
      <trkpt lat="47.820678" lon="7.55845">
        <ele>260.0</ele>
        <time>2020-07-13T07:27:01Z</time>
      </trkpt>
      <trkpt lat="47.820576" lon="7.558368">
        <ele>260.0</ele>
        <time>2020-07-13T07:27:03Z</time>
      </trkpt>
      <trkpt lat="47.820471" lon="7.558296">
        <ele>261.0</ele>
        <time>2020-07-13T07:27:05Z</time>
      </trkpt>
      <trkpt lat="47.820374" lon="7.558227">
        <ele>262.0</ele>
        <time>2020-07-13T07:27:07Z</time>
      </trkpt>
      <trkpt lat="47.820233" lon="7.558128">
        <ele>263.0</ele>
        <time>2020-07-13T07:27:10Z</time>
      </trkpt>
      <trkpt lat="47.820185" lon="7.558094">
        <ele>263.0</ele>
        <time>2020-07-13T07:27:11Z</time>
      </trkpt>
      <trkpt lat="47.820001" lon="7.557951">
        <ele>263.0</ele>
        <time>2020-07-13T07:27:15Z</time>
      </trkpt>
      <trkpt lat="47.819918" lon="7.557889">
        <ele>263.0</ele>
        <time>2020-07-13T07:27:17Z</time>
      </trkpt>
      <trkpt lat="47.819826" lon="7.557823">
        <ele>262.0</ele>
        <time>2020-07-13T07:27:19Z</time>
      </trkpt>
      <trkpt lat="47.819729" lon="7.557763">
        <ele>262.0</ele>
        <time>2020-07-13T07:27:21Z</time>
      </trkpt>
      <trkpt lat="47.819629" lon="7.557692">
        <ele>262.0</ele>
        <time>2020-07-13T07:27:23Z</time>
      </trkpt>
      <trkpt lat="47.819526" lon="7.557613">
        <ele>262.0</ele>
        <time>2020-07-13T07:27:25Z</time>
      </trkpt>
      <trkpt lat="47.819422" lon="7.557541">
        <ele>262.0</ele>
        <time>2020-07-13T07:27:27Z</time>
      </trkpt>
      <trkpt lat="47.819321" lon="7.557456">
        <ele>261.0</ele>
        <time>2020-07-13T07:27:29Z</time>
      </trkpt>
      <trkpt lat="47.819217" lon="7.557381">
        <ele>261.0</ele>
        <time>2020-07-13T07:27:31Z</time>
      </trkpt>
      <trkpt lat="47.819101" lon="7.55732">
        <ele>261.0</ele>
        <time>2020-07-13T07:27:33Z</time>
      </trkpt>
      <trkpt lat="47.818985" lon="7.557253">
        <ele>260.0</ele>
        <time>2020-07-13T07:27:35Z</time>
      </trkpt>
      <trkpt lat="47.818874" lon="7.557167">
        <ele>260.0</ele>
        <time>2020-07-13T07:27:37Z</time>
      </trkpt>
      <trkpt lat="47.818787" lon="7.557087">
        <ele>262.0</ele>
        <time>2020-07-13T07:27:39Z</time>
      </trkpt>
      <trkpt lat="47.818646" lon="7.556997">
        <ele>263.0</ele>
        <time>2020-07-13T07:27:42Z</time>
      </trkpt>
      <trkpt lat="47.818562" lon="7.556933">
        <ele>264.0</ele>
        <time>2020-07-13T07:27:44Z</time>
      </trkpt>
      <trkpt lat="47.818476" lon="7.556886">
        <ele>265.0</ele>
        <time>2020-07-13T07:27:46Z</time>
      </trkpt>
      <trkpt lat="47.818352" lon="7.556804">
        <ele>265.0</ele>
        <time>2020-07-13T07:27:49Z</time>
      </trkpt>
      <trkpt lat="47.818306" lon="7.556776">
        <ele>265.0</ele>
        <time>2020-07-13T07:27:50Z</time>
      </trkpt>
      <trkpt lat="47.818155" lon="7.556645">
        <ele>266.0</ele>
        <time>2020-07-13T07:27:54Z</time>
      </trkpt>
      <trkpt lat="47.818097" lon="7.55662">
        <ele>265.0</ele>
        <time>2020-07-13T07:27:56Z</time>
      </trkpt>
      <trkpt lat="47.818083" lon="7.556618">
        <ele>265.0</ele>
        <time>2020-07-13T07:27:58Z</time>
      </trkpt>
      <trkpt lat="47.818083" lon="7.556618">
        <ele>265.0</ele>
        <time>2020-07-13T07:28:00Z</time>
      </trkpt>
      <trkpt lat="47.818081" lon="7.556618">
        <ele>265.0</ele>
        <time>2020-07-13T07:28:02Z</time>
      </trkpt>
      <trkpt lat="47.81803" lon="7.556641">
        <ele>265.0</ele>
        <time>2020-07-13T07:28:05Z</time>
      </trkpt>
      <trkpt lat="47.817986" lon="7.556668">
        <ele>265.0</ele>
        <time>2020-07-13T07:28:07Z</time>
      </trkpt>
      <trkpt lat="47.817932" lon="7.556664">
        <ele>265.0</ele>
        <time>2020-07-13T07:28:09Z</time>
      </trkpt>
      <trkpt lat="47.81788" lon="7.556626">
        <ele>265.0</ele>
        <time>2020-07-13T07:28:11Z</time>
      </trkpt>
      <trkpt lat="47.817801" lon="7.556564">
        <ele>265.0</ele>
        <time>2020-07-13T07:28:14Z</time>
      </trkpt>
      <trkpt lat="47.817753" lon="7.556524">
        <ele>265.0</ele>
        <time>2020-07-13T07:28:16Z</time>
      </trkpt>
      <trkpt lat="47.817715" lon="7.556498">
        <ele>266.0</ele>
        <time>2020-07-13T07:28:18Z</time>
      </trkpt>
      <trkpt lat="47.8177" lon="7.556504">
        <ele>266.0</ele>
        <time>2020-07-13T07:28:21Z</time>
      </trkpt>
      <trkpt lat="47.817688" lon="7.556502">
        <ele>266.0</ele>
        <time>2020-07-13T07:28:23Z</time>
      </trkpt>
      <trkpt lat="47.817668" lon="7.556507">
        <ele>266.0</ele>
        <time>2020-07-13T07:28:25Z</time>
      </trkpt>
      <trkpt lat="47.817631" lon="7.556511">
        <ele>265.0</ele>
        <time>2020-07-13T07:28:27Z</time>
      </trkpt>
      <trkpt lat="47.817575" lon="7.556615">
        <ele>266.0</ele>
        <time>2020-07-13T07:28:30Z</time>
      </trkpt>
      <trkpt lat="47.81755" lon="7.556687">
        <ele>266.0</ele>
        <time>2020-07-13T07:28:32Z</time>
      </trkpt>
      <trkpt lat="47.817546" lon="7.556749">
        <ele>266.0</ele>
        <time>2020-07-13T07:28:34Z</time>
      </trkpt>
      <trkpt lat="47.817553" lon="7.556778">
        <ele>266.0</ele>
        <time>2020-07-13T07:28:35Z</time>
      </trkpt>
      <trkpt lat="47.817583" lon="7.556831">
        <ele>265.0</ele>
        <time>2020-07-13T07:28:38Z</time>
      </trkpt>
      <trkpt lat="47.817598" lon="7.556833">
        <ele>265.0</ele>
        <time>2020-07-13T07:28:40Z</time>
      </trkpt>
      <trkpt lat="47.817611" lon="7.556831">
        <ele>266.0</ele>
        <time>2020-07-13T07:28:44Z</time>
      </trkpt>
      <trkpt lat="47.81761" lon="7.556835">
        <ele>267.0</ele>
        <time>2020-07-13T07:28:45Z</time>
      </trkpt>
      <trkpt lat="47.817481" lon="7.55687">
        <ele>259.0</ele>
        <time>2020-07-13T07:31:12Z</time>
      </trkpt>
      <trkpt lat="47.817481" lon="7.55687">
        <ele>259.0</ele>
        <time>2020-07-13T07:31:15Z</time>
      </trkpt>
      <trkpt lat="47.817481" lon="7.55687">
        <ele>259.0</ele>
        <time>2020-07-13T07:31:17Z</time>
      </trkpt>
      <trkpt lat="47.817493" lon="7.556866">
        <ele>260.0</ele>
        <time>2020-07-13T07:31:19Z</time>
      </trkpt>
      <trkpt lat="47.817502" lon="7.556874">
        <ele>260.0</ele>
        <time>2020-07-13T07:31:21Z</time>
      </trkpt>
      <trkpt lat="47.817528" lon="7.556888">
        <ele>261.0</ele>
        <time>2020-07-13T07:31:24Z</time>
      </trkpt>
      <trkpt lat="47.817535" lon="7.556891">
        <ele>261.0</ele>
        <time>2020-07-13T07:31:26Z</time>
      </trkpt>
      <trkpt lat="47.817557" lon="7.556909">
        <ele>261.0</ele>
        <time>2020-07-13T07:31:28Z</time>
      </trkpt>
      <trkpt lat="47.817568" lon="7.556921">
        <ele>261.0</ele>
        <time>2020-07-13T07:31:30Z</time>
      </trkpt>
      <trkpt lat="47.817573" lon="7.556927">
        <ele>261.0</ele>
        <time>2020-07-13T07:31:32Z</time>
      </trkpt>
      <trkpt lat="47.817567" lon="7.55695">
        <ele>261.0</ele>
        <time>2020-07-13T07:31:34Z</time>
      </trkpt>
      <trkpt lat="47.817548" lon="7.556914">
        <ele>261.0</ele>
        <time>2020-07-13T07:31:36Z</time>
      </trkpt>
      <trkpt lat="47.817535" lon="7.556905">
        <ele>261.0</ele>
        <time>2020-07-13T07:31:37Z</time>
      </trkpt>
      <trkpt lat="47.817506" lon="7.556867">
        <ele>260.0</ele>
        <time>2020-07-13T07:31:40Z</time>
      </trkpt>
      <trkpt lat="47.817459" lon="7.556813">
        <ele>260.0</ele>
        <time>2020-07-13T07:31:43Z</time>
      </trkpt>
      <trkpt lat="47.817428" lon="7.556799">
        <ele>260.0</ele>
        <time>2020-07-13T07:31:45Z</time>
      </trkpt>
      <trkpt lat="47.817396" lon="7.556797">
        <ele>260.0</ele>
        <time>2020-07-13T07:31:47Z</time>
      </trkpt>
      <trkpt lat="47.817387" lon="7.556911">
        <ele>260.0</ele>
        <time>2020-07-13T07:31:50Z</time>
      </trkpt>
      <trkpt lat="47.817394" lon="7.556934">
        <ele>260.0</ele>
        <time>2020-07-13T07:31:52Z</time>
      </trkpt>
      <trkpt lat="47.817402" lon="7.556967">
        <ele>261.0</ele>
        <time>2020-07-13T07:31:54Z</time>
      </trkpt>
      <trkpt lat="47.817402" lon="7.556967">
        <ele>261.0</ele>
        <time>2020-07-13T07:31:56Z</time>
      </trkpt>
      <trkpt lat="47.817384" lon="7.557004">
        <ele>261.0</ele>
        <time>2020-07-13T07:31:59Z</time>
      </trkpt>
      <trkpt lat="47.817373" lon="7.557041">
        <ele>261.0</ele>
        <time>2020-07-13T07:32:01Z</time>
      </trkpt>
      <trkpt lat="47.81734" lon="7.557086">
        <ele>261.0</ele>
        <time>2020-07-13T07:32:03Z</time>
      </trkpt>
      <trkpt lat="47.817322" lon="7.557126">
        <ele>261.0</ele>
        <time>2020-07-13T07:32:05Z</time>
      </trkpt>
      <trkpt lat="47.81738" lon="7.557022">
        <ele>261.0</ele>
        <time>2020-07-13T07:32:07Z</time>
      </trkpt>
      <trkpt lat="47.817365" lon="7.557048">
        <ele>260.0</ele>
        <time>2020-07-13T07:32:10Z</time>
      </trkpt>
      <trkpt lat="47.817366" lon="7.55692">
        <ele>260.0</ele>
        <time>2020-07-13T07:32:14Z</time>
      </trkpt>
      <trkpt lat="47.817373" lon="7.556953">
        <ele>260.0</ele>
        <time>2020-07-13T07:32:15Z</time>
      </trkpt>
      <trkpt lat="47.817327" lon="7.556894">
        <ele>260.0</ele>
        <time>2020-07-13T07:32:18Z</time>
      </trkpt>
      <trkpt lat="47.817415" lon="7.55696">
        <ele>260.0</ele>
        <time>2020-07-13T07:32:20Z</time>
      </trkpt>
      <trkpt lat="47.81742" lon="7.557038">
        <ele>261.0</ele>
        <time>2020-07-13T07:32:22Z</time>
      </trkpt>
      <trkpt lat="47.817431" lon="7.557132">
        <ele>260.0</ele>
        <time>2020-07-13T07:32:24Z</time>
      </trkpt>
      <trkpt lat="47.817447" lon="7.557136">
        <ele>260.0</ele>
        <time>2020-07-13T07:32:26Z</time>
      </trkpt>
      <trkpt lat="47.81747" lon="7.55732">
        <ele>261.0</ele>
        <time>2020-07-13T07:32:28Z</time>
      </trkpt>
      <trkpt lat="47.817499" lon="7.557446">
        <ele>260.0</ele>
        <time>2020-07-13T07:32:31Z</time>
      </trkpt>
      <trkpt lat="47.817558" lon="7.557527">
        <ele>260.0</ele>
        <time>2020-07-13T07:32:33Z</time>
      </trkpt>
      <trkpt lat="47.817582" lon="7.557412">
        <ele>260.0</ele>
        <time>2020-07-13T07:32:36Z</time>
      </trkpt>
      <trkpt lat="47.817626" lon="7.557466">
        <ele>260.0</ele>
        <time>2020-07-13T07:32:38Z</time>
      </trkpt>
      <trkpt lat="47.817643" lon="7.557555">
        <ele>260.0</ele>
        <time>2020-07-13T07:32:40Z</time>
      </trkpt>
      <trkpt lat="47.817641" lon="7.557544">
        <ele>260.0</ele>
        <time>2020-07-13T07:32:42Z</time>
      </trkpt>
      <trkpt lat="47.817677" lon="7.55753">
        <ele>260.0</ele>
        <time>2020-07-13T07:32:44Z</time>
      </trkpt>
      <trkpt lat="47.817689" lon="7.557407">
        <ele>259.0</ele>
        <time>2020-07-13T07:32:47Z</time>
      </trkpt>
      <trkpt lat="47.817614" lon="7.557401">
        <ele>259.0</ele>
        <time>2020-07-13T07:32:49Z</time>
      </trkpt>
      <trkpt lat="47.817597" lon="7.557444">
        <ele>259.0</ele>
        <time>2020-07-13T07:32:51Z</time>
      </trkpt>
      <trkpt lat="47.817587" lon="7.5574">
        <ele>259.0</ele>
        <time>2020-07-13T07:32:53Z</time>
      </trkpt>
      <trkpt lat="47.817586" lon="7.557425">
        <ele>258.0</ele>
        <time>2020-07-13T07:32:55Z</time>
      </trkpt>
      <trkpt lat="47.817504" lon="7.557501">
        <ele>258.0</ele>
        <time>2020-07-13T07:32:57Z</time>
      </trkpt>
      <trkpt lat="47.817495" lon="7.557448">
        <ele>258.0</ele>
        <time>2020-07-13T07:32:59Z</time>
      </trkpt>
      <trkpt lat="47.817474" lon="7.557396">
        <ele>257.0</ele>
        <time>2020-07-13T07:33:01Z</time>
      </trkpt>
      <trkpt lat="47.817469" lon="7.557381">
        <ele>257.0</ele>
        <time>2020-07-13T07:33:02Z</time>
      </trkpt>
      <trkpt lat="47.817484" lon="7.557388">
        <ele>257.0</ele>
        <time>2020-07-13T07:33:06Z</time>
      </trkpt>
      <trkpt lat="47.817466" lon="7.55738">
        <ele>256.0</ele>
        <time>2020-07-13T07:33:07Z</time>
      </trkpt>
      <trkpt lat="47.817434" lon="7.557396">
        <ele>256.0</ele>
        <time>2020-07-13T07:33:10Z</time>
      </trkpt>
      <trkpt lat="47.817406" lon="7.557375">
        <ele>256.0</ele>
        <time>2020-07-13T07:33:12Z</time>
      </trkpt>
      <trkpt lat="47.817395" lon="7.557365">
        <ele>256.0</ele>
        <time>2020-07-13T07:33:14Z</time>
      </trkpt>
      <trkpt lat="47.817359" lon="7.557339">
        <ele>256.0</ele>
        <time>2020-07-13T07:33:16Z</time>
      </trkpt>
      <trkpt lat="47.817339" lon="7.557332">
        <ele>256.0</ele>
        <time>2020-07-13T07:33:18Z</time>
      </trkpt>
      <trkpt lat="47.817359" lon="7.557367">
        <ele>256.0</ele>
        <time>2020-07-13T07:33:21Z</time>
      </trkpt>
      <trkpt lat="47.817363" lon="7.557339">
        <ele>255.0</ele>
        <time>2020-07-13T07:33:23Z</time>
      </trkpt>
      <trkpt lat="47.817381" lon="7.557351">
        <ele>255.0</ele>
        <time>2020-07-13T07:33:25Z</time>
      </trkpt>
      <trkpt lat="47.81741" lon="7.557349">
        <ele>255.0</ele>
        <time>2020-07-13T07:33:27Z</time>
      </trkpt>
      <trkpt lat="47.817433" lon="7.557342">
        <ele>255.0</ele>
        <time>2020-07-13T07:33:29Z</time>
      </trkpt>
      <trkpt lat="47.817453" lon="7.557328">
        <ele>255.0</ele>
        <time>2020-07-13T07:33:31Z</time>
      </trkpt>
      <trkpt lat="47.817451" lon="7.55731">
        <ele>255.0</ele>
        <time>2020-07-13T07:33:34Z</time>
      </trkpt>
      <trkpt lat="47.817388" lon="7.557437">
        <ele>250.0</ele>
        <time>2020-07-13T07:34:41Z</time>
      </trkpt>
      <trkpt lat="47.817388" lon="7.557437">
        <ele>250.0</ele>
        <time>2020-07-13T07:34:43Z</time>
      </trkpt>
      <trkpt lat="47.817388" lon="7.557437">
        <ele>250.0</ele>
        <time>2020-07-13T07:34:45Z</time>
      </trkpt>
      <trkpt lat="47.817378" lon="7.557452">
        <ele>250.0</ele>
        <time>2020-07-13T07:34:48Z</time>
      </trkpt>
      <trkpt lat="47.817393" lon="7.557448">
        <ele>250.0</ele>
        <time>2020-07-13T07:34:50Z</time>
      </trkpt>
      <trkpt lat="47.817388" lon="7.557438">
        <ele>250.0</ele>
        <time>2020-07-13T07:34:52Z</time>
      </trkpt>
      <trkpt lat="47.817382" lon="7.557402">
        <ele>250.0</ele>
        <time>2020-07-13T07:34:54Z</time>
      </trkpt>
      <trkpt lat="47.817371" lon="7.557327">
        <ele>249.0</ele>
        <time>2020-07-13T07:34:56Z</time>
      </trkpt>
      <trkpt lat="47.817346" lon="7.557296">
        <ele>249.0</ele>
        <time>2020-07-13T07:34:59Z</time>
      </trkpt>
      <trkpt lat="47.817354" lon="7.557305">
        <ele>249.0</ele>
        <time>2020-07-13T07:35:01Z</time>
      </trkpt>
      <trkpt lat="47.817343" lon="7.557266">
        <ele>250.0</ele>
        <time>2020-07-13T07:35:05Z</time>
      </trkpt>
      <trkpt lat="47.817356" lon="7.557297">
        <ele>251.0</ele>
        <time>2020-07-13T07:35:07Z</time>
      </trkpt>
      <trkpt lat="47.817416" lon="7.557277">
        <ele>250.0</ele>
        <time>2020-07-13T07:35:09Z</time>
      </trkpt>
      <trkpt lat="47.817406" lon="7.557286">
        <ele>251.0</ele>
        <time>2020-07-13T07:35:10Z</time>
      </trkpt>
      <trkpt lat="47.817486" lon="7.557222">
        <ele>250.0</ele>
        <time>2020-07-13T07:35:13Z</time>
      </trkpt>
      <trkpt lat="47.817602" lon="7.556889">
        <ele>260.0</ele>
        <time>2020-07-13T07:56:22Z</time>
      </trkpt>
      <trkpt lat="47.817607" lon="7.556879">
        <ele>260.0</ele>
        <time>2020-07-13T07:56:24Z</time>
      </trkpt>
      <trkpt lat="47.817607" lon="7.556879">
        <ele>260.0</ele>
        <time>2020-07-13T07:56:26Z</time>
      </trkpt>
      <trkpt lat="47.817607" lon="7.556879">
        <ele>260.0</ele>
        <time>2020-07-13T07:56:28Z</time>
      </trkpt>
      <trkpt lat="47.817607" lon="7.556879">
        <ele>260.0</ele>
        <time>2020-07-13T07:56:31Z</time>
      </trkpt>
      <trkpt lat="47.817607" lon="7.556879">
        <ele>260.0</ele>
        <time>2020-07-13T07:56:33Z</time>
      </trkpt>
      <trkpt lat="47.817607" lon="7.556879">
        <ele>260.0</ele>
        <time>2020-07-13T07:56:35Z</time>
      </trkpt>
      <trkpt lat="47.817607" lon="7.556879">
        <ele>260.0</ele>
        <time>2020-07-13T07:56:38Z</time>
      </trkpt>
      <trkpt lat="47.817607" lon="7.556879">
        <ele>260.0</ele>
        <time>2020-07-13T07:56:40Z</time>
      </trkpt>
      <trkpt lat="47.817607" lon="7.556879">
        <ele>260.0</ele>
        <time>2020-07-13T07:56:42Z</time>
      </trkpt>
      <trkpt lat="47.817593" lon="7.556856">
        <ele>260.0</ele>
        <time>2020-07-13T07:56:44Z</time>
      </trkpt>
      <trkpt lat="47.817576" lon="7.556814">
        <ele>261.0</ele>
        <time>2020-07-13T07:56:46Z</time>
      </trkpt>
      <trkpt lat="47.817575" lon="7.556747">
        <ele>263.0</ele>
        <time>2020-07-13T07:56:48Z</time>
      </trkpt>
      <trkpt lat="47.817596" lon="7.556675">
        <ele>263.0</ele>
        <time>2020-07-13T07:56:50Z</time>
      </trkpt>
      <trkpt lat="47.817625" lon="7.556609">
        <ele>264.0</ele>
        <time>2020-07-13T07:56:52Z</time>
      </trkpt>
      <trkpt lat="47.817642" lon="7.556555">
        <ele>264.0</ele>
        <time>2020-07-13T07:56:54Z</time>
      </trkpt>
      <trkpt lat="47.817652" lon="7.556512">
        <ele>264.0</ele>
        <time>2020-07-13T07:56:56Z</time>
      </trkpt>
      <trkpt lat="47.817643" lon="7.556476">
        <ele>264.0</ele>
        <time>2020-07-13T07:56:59Z</time>
      </trkpt>
      <trkpt lat="47.817625" lon="7.556466">
        <ele>264.0</ele>
        <time>2020-07-13T07:57:01Z</time>
      </trkpt>
      <trkpt lat="47.817602" lon="7.556437">
        <ele>265.0</ele>
        <time>2020-07-13T07:57:03Z</time>
      </trkpt>
      <trkpt lat="47.81757" lon="7.556407">
        <ele>266.0</ele>
        <time>2020-07-13T07:57:05Z</time>
      </trkpt>
      <trkpt lat="47.817526" lon="7.556364">
        <ele>266.0</ele>
        <time>2020-07-13T07:57:07Z</time>
      </trkpt>
      <trkpt lat="47.817449" lon="7.55631">
        <ele>267.0</ele>
        <time>2020-07-13T07:57:10Z</time>
      </trkpt>
      <trkpt lat="47.817394" lon="7.556276">
        <ele>267.0</ele>
        <time>2020-07-13T07:57:12Z</time>
      </trkpt>
      <trkpt lat="47.817337" lon="7.556237">
        <ele>267.0</ele>
        <time>2020-07-13T07:57:14Z</time>
      </trkpt>
      <trkpt lat="47.817251" lon="7.556185">
        <ele>268.0</ele>
        <time>2020-07-13T07:57:17Z</time>
      </trkpt>
      <trkpt lat="47.817227" lon="7.556154">
        <ele>267.0</ele>
        <time>2020-07-13T07:57:19Z</time>
      </trkpt>
      <trkpt lat="47.817215" lon="7.556104">
        <ele>268.0</ele>
        <time>2020-07-13T07:57:22Z</time>
      </trkpt>
      <trkpt lat="47.817202" lon="7.556063">
        <ele>267.0</ele>
        <time>2020-07-13T07:57:24Z</time>
      </trkpt>
      <trkpt lat="47.817169" lon="7.556033">
        <ele>267.0</ele>
        <time>2020-07-13T07:57:26Z</time>
      </trkpt>
      <trkpt lat="47.817097" lon="7.555973">
        <ele>268.0</ele>
        <time>2020-07-13T07:57:29Z</time>
      </trkpt>
      <trkpt lat="47.817038" lon="7.555937">
        <ele>269.0</ele>
        <time>2020-07-13T07:57:31Z</time>
      </trkpt>
      <trkpt lat="47.817007" lon="7.555919">
        <ele>269.0</ele>
        <time>2020-07-13T07:57:32Z</time>
      </trkpt>
      <trkpt lat="47.816891" lon="7.555857">
        <ele>269.0</ele>
        <time>2020-07-13T07:57:35Z</time>
      </trkpt>
      <trkpt lat="47.816817" lon="7.555823">
        <ele>268.0</ele>
        <time>2020-07-13T07:57:37Z</time>
      </trkpt>
      <trkpt lat="47.816734" lon="7.555785">
        <ele>268.0</ele>
        <time>2020-07-13T07:57:39Z</time>
      </trkpt>
      <trkpt lat="47.816648" lon="7.555754">
        <ele>268.0</ele>
        <time>2020-07-13T07:57:41Z</time>
      </trkpt>
      <trkpt lat="47.816564" lon="7.555712">
        <ele>267.0</ele>
        <time>2020-07-13T07:57:43Z</time>
      </trkpt>
      <trkpt lat="47.81644" lon="7.555647">
        <ele>266.0</ele>
        <time>2020-07-13T07:57:46Z</time>
      </trkpt>
      <trkpt lat="47.816354" lon="7.555624">
        <ele>266.0</ele>
        <time>2020-07-13T07:57:48Z</time>
      </trkpt>
      <trkpt lat="47.81627" lon="7.555601">
        <ele>267.0</ele>
        <time>2020-07-13T07:57:50Z</time>
      </trkpt>
      <trkpt lat="47.81622" lon="7.555569">
        <ele>267.0</ele>
        <time>2020-07-13T07:57:52Z</time>
      </trkpt>
      <trkpt lat="47.816166" lon="7.555532">
        <ele>267.0</ele>
        <time>2020-07-13T07:57:55Z</time>
      </trkpt>
      <trkpt lat="47.81612" lon="7.555518">
        <ele>267.0</ele>
        <time>2020-07-13T07:57:57Z</time>
      </trkpt>
      <trkpt lat="47.816071" lon="7.55548">
        <ele>267.0</ele>
        <time>2020-07-13T07:57:59Z</time>
      </trkpt>
      <trkpt lat="47.81604" lon="7.555395">
        <ele>266.0</ele>
        <time>2020-07-13T07:58:01Z</time>
      </trkpt>
      <trkpt lat="47.816021" lon="7.555287">
        <ele>266.0</ele>
        <time>2020-07-13T07:58:03Z</time>
      </trkpt>
      <trkpt lat="47.816007" lon="7.555085">
        <ele>265.0</ele>
        <time>2020-07-13T07:58:06Z</time>
      </trkpt>
      <trkpt lat="47.815981" lon="7.554934">
        <ele>265.0</ele>
        <time>2020-07-13T07:58:08Z</time>
      </trkpt>
      <trkpt lat="47.815959" lon="7.554774">
        <ele>265.0</ele>
        <time>2020-07-13T07:58:10Z</time>
      </trkpt>
      <trkpt lat="47.815975" lon="7.554642">
        <ele>265.0</ele>
        <time>2020-07-13T07:58:12Z</time>
      </trkpt>
      <trkpt lat="47.815996" lon="7.554524">
        <ele>264.0</ele>
        <time>2020-07-13T07:58:14Z</time>
      </trkpt>
      <trkpt lat="47.815988" lon="7.554398">
        <ele>264.0</ele>
        <time>2020-07-13T07:58:16Z</time>
      </trkpt>
      <trkpt lat="47.815961" lon="7.554227">
        <ele>264.0</ele>
        <time>2020-07-13T07:58:19Z</time>
      </trkpt>
      <trkpt lat="47.815995" lon="7.554133">
        <ele>264.0</ele>
        <time>2020-07-13T07:58:21Z</time>
      </trkpt>
      <trkpt lat="47.816102" lon="7.553993">
        <ele>262.0</ele>
        <time>2020-07-13T07:58:23Z</time>
      </trkpt>
      <trkpt lat="47.816115" lon="7.553866">
        <ele>262.0</ele>
        <time>2020-07-13T07:58:25Z</time>
      </trkpt>
      <trkpt lat="47.816131" lon="7.553756">
        <ele>262.0</ele>
        <time>2020-07-13T07:58:27Z</time>
      </trkpt>
      <trkpt lat="47.816145" lon="7.553675">
        <ele>262.0</ele>
        <time>2020-07-13T07:58:29Z</time>
      </trkpt>
      <trkpt lat="47.816162" lon="7.553561">
        <ele>263.0</ele>
        <time>2020-07-13T07:58:32Z</time>
      </trkpt>
      <trkpt lat="47.816172" lon="7.553492">
        <ele>264.0</ele>
        <time>2020-07-13T07:58:34Z</time>
      </trkpt>
      <trkpt lat="47.816181" lon="7.553427">
        <ele>265.0</ele>
        <time>2020-07-13T07:58:36Z</time>
      </trkpt>
      <trkpt lat="47.816202" lon="7.553322">
        <ele>265.0</ele>
        <time>2020-07-13T07:58:39Z</time>
      </trkpt>
      <trkpt lat="47.816216" lon="7.55326">
        <ele>266.0</ele>
        <time>2020-07-13T07:58:41Z</time>
      </trkpt>
      <trkpt lat="47.816228" lon="7.553185">
        <ele>266.0</ele>
        <time>2020-07-13T07:58:43Z</time>
      </trkpt>
      <trkpt lat="47.816237" lon="7.55316">
        <ele>266.0</ele>
        <time>2020-07-13T07:58:44Z</time>
      </trkpt>
      <trkpt lat="47.816244" lon="7.553142">
        <ele>266.0</ele>
        <time>2020-07-13T07:58:48Z</time>
      </trkpt>
      <trkpt lat="47.816245" lon="7.553112">
        <ele>267.0</ele>
        <time>2020-07-13T07:58:50Z</time>
      </trkpt>
      <trkpt lat="47.816256" lon="7.553053">
        <ele>267.0</ele>
        <time>2020-07-13T07:58:52Z</time>
      </trkpt>
      <trkpt lat="47.816302" lon="7.552932">
        <ele>267.0</ele>
        <time>2020-07-13T07:58:55Z</time>
      </trkpt>
      <trkpt lat="47.816325" lon="7.552832">
        <ele>267.0</ele>
        <time>2020-07-13T07:58:57Z</time>
      </trkpt>
      <trkpt lat="47.816331" lon="7.552773">
        <ele>268.0</ele>
        <time>2020-07-13T07:58:58Z</time>
      </trkpt>
      <trkpt lat="47.816351" lon="7.552616">
        <ele>268.0</ele>
        <time>2020-07-13T07:59:01Z</time>
      </trkpt>
      <trkpt lat="47.816374" lon="7.552505">
        <ele>268.0</ele>
        <time>2020-07-13T07:59:03Z</time>
      </trkpt>
      <trkpt lat="47.816397" lon="7.552385">
        <ele>267.0</ele>
        <time>2020-07-13T07:59:05Z</time>
      </trkpt>
      <trkpt lat="47.816426" lon="7.552259">
        <ele>267.0</ele>
        <time>2020-07-13T07:59:07Z</time>
      </trkpt>
      <trkpt lat="47.816458" lon="7.55207">
        <ele>267.0</ele>
        <time>2020-07-13T07:59:10Z</time>
      </trkpt>
      <trkpt lat="47.816483" lon="7.551942">
        <ele>268.0</ele>
        <time>2020-07-13T07:59:12Z</time>
      </trkpt>
      <trkpt lat="47.8165" lon="7.551811">
        <ele>268.0</ele>
        <time>2020-07-13T07:59:14Z</time>
      </trkpt>
      <trkpt lat="47.816513" lon="7.551749">
        <ele>268.0</ele>
        <time>2020-07-13T07:59:15Z</time>
      </trkpt>
      <trkpt lat="47.816543" lon="7.55156">
        <ele>268.0</ele>
        <time>2020-07-13T07:59:18Z</time>
      </trkpt>
      <trkpt lat="47.816574" lon="7.551419">
        <ele>268.0</ele>
        <time>2020-07-13T07:59:20Z</time>
      </trkpt>
      <trkpt lat="47.816594" lon="7.551289">
        <ele>268.0</ele>
        <time>2020-07-13T07:59:22Z</time>
      </trkpt>
      <trkpt lat="47.816624" lon="7.551156">
        <ele>269.0</ele>
        <time>2020-07-13T07:59:24Z</time>
      </trkpt>
      <trkpt lat="47.816673" lon="7.550941">
        <ele>269.0</ele>
        <time>2020-07-13T07:59:27Z</time>
      </trkpt>
      <trkpt lat="47.816696" lon="7.550801">
        <ele>269.0</ele>
        <time>2020-07-13T07:59:29Z</time>
      </trkpt>
      <trkpt lat="47.816719" lon="7.55066">
        <ele>269.0</ele>
        <time>2020-07-13T07:59:31Z</time>
      </trkpt>
      <trkpt lat="47.816734" lon="7.550526">
        <ele>269.0</ele>
        <time>2020-07-13T07:59:33Z</time>
      </trkpt>
      <trkpt lat="47.81675" lon="7.55033">
        <ele>269.0</ele>
        <time>2020-07-13T07:59:36Z</time>
      </trkpt>
      <trkpt lat="47.81675" lon="7.550209">
        <ele>269.0</ele>
        <time>2020-07-13T07:59:38Z</time>
      </trkpt>
      <trkpt lat="47.816735" lon="7.550091">
        <ele>269.0</ele>
        <time>2020-07-13T07:59:40Z</time>
      </trkpt>
      <trkpt lat="47.816715" lon="7.549979">
        <ele>269.0</ele>
        <time>2020-07-13T07:59:42Z</time>
      </trkpt>
      <trkpt lat="47.816669" lon="7.549863">
        <ele>268.0</ele>
        <time>2020-07-13T07:59:45Z</time>
      </trkpt>
      <trkpt lat="47.816638" lon="7.549863">
        <ele>269.0</ele>
        <time>2020-07-13T07:59:47Z</time>
      </trkpt>
      <trkpt lat="47.81664" lon="7.549916">
        <ele>269.0</ele>
        <time>2020-07-13T07:59:49Z</time>
      </trkpt>
      <trkpt lat="47.816679" lon="7.549925">
        <ele>269.0</ele>
        <time>2020-07-13T07:59:51Z</time>
      </trkpt>
      <trkpt lat="47.816689" lon="7.54989">
        <ele>269.0</ele>
        <time>2020-07-13T07:59:54Z</time>
      </trkpt>
      <trkpt lat="47.816708" lon="7.549882">
        <ele>269.0</ele>
        <time>2020-07-13T07:59:56Z</time>
      </trkpt>
      <trkpt lat="47.816723" lon="7.549883">
        <ele>268.0</ele>
        <time>2020-07-13T07:59:58Z</time>
      </trkpt>
      <trkpt lat="47.816723" lon="7.549883">
        <ele>268.0</ele>
        <time>2020-07-13T08:00:00Z</time>
      </trkpt>
      <trkpt lat="47.816734" lon="7.549908">
        <ele>268.0</ele>
        <time>2020-07-13T08:00:02Z</time>
      </trkpt>
      <trkpt lat="47.816724" lon="7.549943">
        <ele>269.0</ele>
        <time>2020-07-13T08:00:04Z</time>
      </trkpt>
      <trkpt lat="47.816706" lon="7.549953">
        <ele>268.0</ele>
        <time>2020-07-13T08:00:06Z</time>
      </trkpt>
      <trkpt lat="47.816671" lon="7.549986">
        <ele>269.0</ele>
        <time>2020-07-13T08:00:09Z</time>
      </trkpt>
      <trkpt lat="47.816659" lon="7.550055">
        <ele>269.0</ele>
        <time>2020-07-13T08:00:11Z</time>
      </trkpt>
      <trkpt lat="47.816653" lon="7.550083">
        <ele>268.0</ele>
        <time>2020-07-13T08:00:14Z</time>
      </trkpt>
      <trkpt lat="47.816652" lon="7.550087">
        <ele>268.0</ele>
        <time>2020-07-13T08:00:16Z</time>
      </trkpt>
      <trkpt lat="47.816652" lon="7.550087">
        <ele>268.0</ele>
        <time>2020-07-13T08:00:19Z</time>
      </trkpt>
      <trkpt lat="47.816652" lon="7.550087">
        <ele>268.0</ele>
        <time>2020-07-13T08:00:21Z</time>
      </trkpt>
      <trkpt lat="47.816663" lon="7.550173">
        <ele>270.0</ele>
        <time>2020-07-13T08:01:35Z</time>
      </trkpt>
      <trkpt lat="47.816663" lon="7.550173">
        <ele>270.0</ele>
        <time>2020-07-13T08:01:38Z</time>
      </trkpt>
      <trkpt lat="47.816663" lon="7.550173">
        <ele>270.0</ele>
        <time>2020-07-13T08:01:40Z</time>
      </trkpt>
      <trkpt lat="47.816663" lon="7.550173">
        <ele>270.0</ele>
        <time>2020-07-13T08:01:42Z</time>
      </trkpt>
      <trkpt lat="47.816663" lon="7.550173">
        <ele>270.0</ele>
        <time>2020-07-13T08:01:44Z</time>
      </trkpt>
      <trkpt lat="47.816663" lon="7.550173">
        <ele>270.0</ele>
        <time>2020-07-13T08:01:46Z</time>
      </trkpt>
      <trkpt lat="47.816663" lon="7.550173">
        <ele>270.0</ele>
        <time>2020-07-13T08:01:48Z</time>
      </trkpt>
      <trkpt lat="47.816663" lon="7.550173">
        <ele>270.0</ele>
        <time>2020-07-13T08:01:52Z</time>
      </trkpt>
      <trkpt lat="47.816663" lon="7.550173">
        <ele>270.0</ele>
        <time>2020-07-13T08:01:55Z</time>
      </trkpt>
      <trkpt lat="47.816678" lon="7.550182">
        <ele>270.0</ele>
        <time>2020-07-13T08:01:57Z</time>
      </trkpt>
      <trkpt lat="47.8167" lon="7.550152">
        <ele>270.0</ele>
        <time>2020-07-13T08:01:59Z</time>
      </trkpt>
      <trkpt lat="47.8167" lon="7.550075">
        <ele>270.0</ele>
        <time>2020-07-13T08:02:01Z</time>
      </trkpt>
      <trkpt lat="47.81671" lon="7.549992">
        <ele>270.0</ele>
        <time>2020-07-13T08:02:03Z</time>
      </trkpt>
      <trkpt lat="47.816774" lon="7.549864">
        <ele>270.0</ele>
        <time>2020-07-13T08:02:06Z</time>
      </trkpt>
      <trkpt lat="47.816851" lon="7.549779">
        <ele>269.0</ele>
        <time>2020-07-13T08:02:08Z</time>
      </trkpt>
      <trkpt lat="47.816851" lon="7.549685">
        <ele>268.0</ele>
        <time>2020-07-13T08:02:10Z</time>
      </trkpt>
      <trkpt lat="47.816822" lon="7.54961">
        <ele>268.0</ele>
        <time>2020-07-13T08:02:12Z</time>
      </trkpt>
      <trkpt lat="47.816808" lon="7.549574">
        <ele>268.0</ele>
        <time>2020-07-13T08:02:13Z</time>
      </trkpt>
      <trkpt lat="47.816779" lon="7.549442">
        <ele>269.0</ele>
        <time>2020-07-13T08:02:16Z</time>
      </trkpt>
      <trkpt lat="47.816759" lon="7.549352">
        <ele>269.0</ele>
        <time>2020-07-13T08:02:18Z</time>
      </trkpt>
      <trkpt lat="47.816744" lon="7.549275">
        <ele>268.0</ele>
        <time>2020-07-13T08:02:20Z</time>
      </trkpt>
      <trkpt lat="47.816731" lon="7.549203">
        <ele>268.0</ele>
        <time>2020-07-13T08:02:22Z</time>
      </trkpt>
      <trkpt lat="47.81672" lon="7.549137">
        <ele>268.0</ele>
        <time>2020-07-13T08:02:24Z</time>
      </trkpt>
      <trkpt lat="47.816707" lon="7.549071">
        <ele>269.0</ele>
        <time>2020-07-13T08:02:26Z</time>
      </trkpt>
      <trkpt lat="47.816689" lon="7.549009">
        <ele>268.0</ele>
        <time>2020-07-13T08:02:28Z</time>
      </trkpt>
      <trkpt lat="47.816672" lon="7.548933">
        <ele>268.0</ele>
        <time>2020-07-13T08:02:31Z</time>
      </trkpt>
      <trkpt lat="47.816668" lon="7.548912">
        <ele>268.0</ele>
        <time>2020-07-13T08:02:32Z</time>
      </trkpt>
      <trkpt lat="47.816643" lon="7.548858">
        <ele>269.0</ele>
        <time>2020-07-13T08:02:35Z</time>
      </trkpt>
      <trkpt lat="47.81664" lon="7.548878">
        <ele>269.0</ele>
        <time>2020-07-13T08:02:37Z</time>
      </trkpt>
      <trkpt lat="47.81664" lon="7.548878">
        <ele>269.0</ele>
        <time>2020-07-13T08:02:39Z</time>
      </trkpt>
      <trkpt lat="47.81664" lon="7.548879">
        <ele>269.0</ele>
        <time>2020-07-13T08:02:42Z</time>
      </trkpt>
      <trkpt lat="47.81664" lon="7.548879">
        <ele>269.0</ele>
        <time>2020-07-13T08:02:44Z</time>
      </trkpt>
      <trkpt lat="47.81664" lon="7.548879">
        <ele>269.0</ele>
        <time>2020-07-13T08:02:46Z</time>
      </trkpt>
      <trkpt lat="47.81664" lon="7.548879">
        <ele>269.0</ele>
        <time>2020-07-13T08:02:48Z</time>
      </trkpt>
      <trkpt lat="47.81664" lon="7.548879">
        <ele>269.0</ele>
        <time>2020-07-13T08:02:50Z</time>
      </trkpt>
      <trkpt lat="47.81664" lon="7.548879">
        <ele>269.0</ele>
        <time>2020-07-13T08:02:53Z</time>
      </trkpt>
      <trkpt lat="47.81664" lon="7.548879">
        <ele>269.0</ele>
        <time>2020-07-13T08:02:55Z</time>
      </trkpt>
      <trkpt lat="47.816628" lon="7.54886">
        <ele>270.0</ele>
        <time>2020-07-13T08:02:57Z</time>
      </trkpt>
      <trkpt lat="47.816597" lon="7.548828">
        <ele>269.0</ele>
        <time>2020-07-13T08:02:59Z</time>
      </trkpt>
      <trkpt lat="47.816546" lon="7.548777">
        <ele>269.0</ele>
        <time>2020-07-13T08:03:01Z</time>
      </trkpt>
      <trkpt lat="47.816482" lon="7.548724">
        <ele>269.0</ele>
        <time>2020-07-13T08:03:03Z</time>
      </trkpt>
      <trkpt lat="47.816401" lon="7.548657">
        <ele>268.0</ele>
        <time>2020-07-13T08:03:05Z</time>
      </trkpt>
      <trkpt lat="47.816322" lon="7.548605">
        <ele>268.0</ele>
        <time>2020-07-13T08:03:07Z</time>
      </trkpt>
      <trkpt lat="47.816245" lon="7.54855">
        <ele>267.0</ele>
        <time>2020-07-13T08:03:09Z</time>
      </trkpt>
      <trkpt lat="47.816157" lon="7.548497">
        <ele>267.0</ele>
        <time>2020-07-13T08:03:11Z</time>
      </trkpt>
      <trkpt lat="47.815987" lon="7.548412">
        <ele>268.0</ele>
        <time>2020-07-13T08:03:15Z</time>
      </trkpt>
      <trkpt lat="47.815941" lon="7.548397">
        <ele>268.0</ele>
        <time>2020-07-13T08:03:16Z</time>
      </trkpt>
      <trkpt lat="47.815798" lon="7.548351">
        <ele>268.0</ele>
        <time>2020-07-13T08:03:19Z</time>
      </trkpt>
      <trkpt lat="47.815653" lon="7.548303">
        <ele>268.0</ele>
        <time>2020-07-13T08:03:22Z</time>
      </trkpt>
      <trkpt lat="47.815561" lon="7.548269">
        <ele>267.0</ele>
        <time>2020-07-13T08:03:24Z</time>
      </trkpt>
      <trkpt lat="47.815464" lon="7.548234">
        <ele>267.0</ele>
        <time>2020-07-13T08:03:26Z</time>
      </trkpt>
      <trkpt lat="47.81531" lon="7.548188">
        <ele>268.0</ele>
        <time>2020-07-13T08:03:29Z</time>
      </trkpt>
      <trkpt lat="47.815206" lon="7.54815">
        <ele>267.0</ele>
        <time>2020-07-13T08:03:31Z</time>
      </trkpt>
      <trkpt lat="47.815098" lon="7.5481">
        <ele>267.0</ele>
        <time>2020-07-13T08:03:33Z</time>
      </trkpt>
      <trkpt lat="47.814992" lon="7.548063">
        <ele>267.0</ele>
        <time>2020-07-13T08:03:35Z</time>
      </trkpt>
      <trkpt lat="47.814874" lon="7.548028">
        <ele>266.0</ele>
        <time>2020-07-13T08:03:37Z</time>
      </trkpt>
      <trkpt lat="47.814754" lon="7.547997">
        <ele>267.0</ele>
        <time>2020-07-13T08:03:39Z</time>
      </trkpt>
      <trkpt lat="47.814635" lon="7.547977">
        <ele>268.0</ele>
        <time>2020-07-13T08:03:41Z</time>
      </trkpt>
      <trkpt lat="47.814473" lon="7.547906">
        <ele>268.0</ele>
        <time>2020-07-13T08:03:44Z</time>
      </trkpt>
      <trkpt lat="47.814415" lon="7.547882">
        <ele>267.0</ele>
        <time>2020-07-13T08:03:45Z</time>
      </trkpt>
      <trkpt lat="47.814256" lon="7.547826">
        <ele>268.0</ele>
        <time>2020-07-13T08:03:48Z</time>
      </trkpt>
      <trkpt lat="47.814148" lon="7.547796">
        <ele>268.0</ele>
        <time>2020-07-13T08:03:50Z</time>
      </trkpt>
      <trkpt lat="47.81404" lon="7.547768">
        <ele>269.0</ele>
        <time>2020-07-13T08:03:52Z</time>
      </trkpt>
      <trkpt lat="47.813878" lon="7.5477">
        <ele>270.0</ele>
        <time>2020-07-13T08:03:55Z</time>
      </trkpt>
      <trkpt lat="47.813771" lon="7.54767">
        <ele>270.0</ele>
        <time>2020-07-13T08:03:57Z</time>
      </trkpt>
      <trkpt lat="47.813667" lon="7.547631">
        <ele>270.0</ele>
        <time>2020-07-13T08:03:59Z</time>
      </trkpt>
      <trkpt lat="47.813556" lon="7.547592">
        <ele>270.0</ele>
        <time>2020-07-13T08:04:01Z</time>
      </trkpt>
      <trkpt lat="47.813448" lon="7.547555">
        <ele>270.0</ele>
        <time>2020-07-13T08:04:03Z</time>
      </trkpt>
      <trkpt lat="47.813282" lon="7.547478">
        <ele>269.0</ele>
        <time>2020-07-13T08:04:06Z</time>
      </trkpt>
      <trkpt lat="47.813218" lon="7.547458">
        <ele>269.0</ele>
        <time>2020-07-13T08:04:07Z</time>
      </trkpt>
      <trkpt lat="47.813015" lon="7.547387">
        <ele>268.0</ele>
        <time>2020-07-13T08:04:10Z</time>
      </trkpt>
      <trkpt lat="47.812883" lon="7.547341">
        <ele>268.0</ele>
        <time>2020-07-13T08:04:12Z</time>
      </trkpt>
      <trkpt lat="47.812755" lon="7.547284">
        <ele>268.0</ele>
        <time>2020-07-13T08:04:14Z</time>
      </trkpt>
      <trkpt lat="47.812631" lon="7.547223">
        <ele>266.0</ele>
        <time>2020-07-13T08:04:16Z</time>
      </trkpt>
      <trkpt lat="47.812506" lon="7.547177">
        <ele>266.0</ele>
        <time>2020-07-13T08:04:18Z</time>
      </trkpt>
      <trkpt lat="47.812376" lon="7.54713">
        <ele>265.0</ele>
        <time>2020-07-13T08:04:20Z</time>
      </trkpt>
      <trkpt lat="47.81219" lon="7.547055">
        <ele>265.0</ele>
        <time>2020-07-13T08:04:23Z</time>
      </trkpt>
      <trkpt lat="47.812069" lon="7.547003">
        <ele>264.0</ele>
        <time>2020-07-13T08:04:25Z</time>
      </trkpt>
      <trkpt lat="47.811948" lon="7.546943">
        <ele>265.0</ele>
        <time>2020-07-13T08:04:27Z</time>
      </trkpt>
      <trkpt lat="47.811886" lon="7.546906">
        <ele>265.0</ele>
        <time>2020-07-13T08:04:28Z</time>
      </trkpt>
      <trkpt lat="47.811706" lon="7.546824">
        <ele>264.0</ele>
        <time>2020-07-13T08:04:31Z</time>
      </trkpt>
      <trkpt lat="47.811585" lon="7.546776">
        <ele>264.0</ele>
        <time>2020-07-13T08:04:33Z</time>
      </trkpt>
      <trkpt lat="47.81147" lon="7.546725">
        <ele>264.0</ele>
        <time>2020-07-13T08:04:35Z</time>
      </trkpt>
      <trkpt lat="47.811355" lon="7.546673">
        <ele>265.0</ele>
        <time>2020-07-13T08:04:37Z</time>
      </trkpt>
      <trkpt lat="47.811237" lon="7.546621">
        <ele>265.0</ele>
        <time>2020-07-13T08:04:39Z</time>
      </trkpt>
      <trkpt lat="47.811118" lon="7.546576">
        <ele>265.0</ele>
        <time>2020-07-13T08:04:41Z</time>
      </trkpt>
      <trkpt lat="47.810949" lon="7.546496">
        <ele>266.0</ele>
        <time>2020-07-13T08:04:44Z</time>
      </trkpt>
      <trkpt lat="47.810829" lon="7.546441">
        <ele>266.0</ele>
        <time>2020-07-13T08:04:46Z</time>
      </trkpt>
      <trkpt lat="47.810708" lon="7.546392">
        <ele>266.0</ele>
        <time>2020-07-13T08:04:48Z</time>
      </trkpt>
      <trkpt lat="47.810585" lon="7.54633">
        <ele>267.0</ele>
        <time>2020-07-13T08:04:50Z</time>
      </trkpt>
      <trkpt lat="47.810468" lon="7.546278">
        <ele>267.0</ele>
        <time>2020-07-13T08:04:52Z</time>
      </trkpt>
      <trkpt lat="47.810344" lon="7.546225">
        <ele>267.0</ele>
        <time>2020-07-13T08:04:54Z</time>
      </trkpt>
      <trkpt lat="47.810229" lon="7.546173">
        <ele>268.0</ele>
        <time>2020-07-13T08:04:56Z</time>
      </trkpt>
      <trkpt lat="47.810114" lon="7.546114">
        <ele>268.0</ele>
        <time>2020-07-13T08:04:58Z</time>
      </trkpt>
      <trkpt lat="47.809996" lon="7.546063">
        <ele>268.0</ele>
        <time>2020-07-13T08:05:00Z</time>
      </trkpt>
      <trkpt lat="47.809881" lon="7.546018">
        <ele>268.0</ele>
        <time>2020-07-13T08:05:02Z</time>
      </trkpt>
      <trkpt lat="47.809763" lon="7.545989">
        <ele>269.0</ele>
        <time>2020-07-13T08:05:04Z</time>
      </trkpt>
      <trkpt lat="47.809645" lon="7.545966">
        <ele>269.0</ele>
        <time>2020-07-13T08:05:06Z</time>
      </trkpt>
      <trkpt lat="47.809525" lon="7.545954">
        <ele>269.0</ele>
        <time>2020-07-13T08:05:08Z</time>
      </trkpt>
      <trkpt lat="47.809403" lon="7.545945">
        <ele>268.0</ele>
        <time>2020-07-13T08:05:10Z</time>
      </trkpt>
      <trkpt lat="47.809286" lon="7.545911">
        <ele>268.0</ele>
        <time>2020-07-13T08:05:12Z</time>
      </trkpt>
      <trkpt lat="47.809173" lon="7.54583">
        <ele>269.0</ele>
        <time>2020-07-13T08:05:14Z</time>
      </trkpt>
      <trkpt lat="47.809066" lon="7.545727">
        <ele>269.0</ele>
        <time>2020-07-13T08:05:16Z</time>
      </trkpt>
      <trkpt lat="47.808963" lon="7.54564">
        <ele>269.0</ele>
        <time>2020-07-13T08:05:18Z</time>
      </trkpt>
      <trkpt lat="47.808858" lon="7.545552">
        <ele>269.0</ele>
        <time>2020-07-13T08:05:20Z</time>
      </trkpt>
      <trkpt lat="47.808754" lon="7.545468">
        <ele>268.0</ele>
        <time>2020-07-13T08:05:22Z</time>
      </trkpt>
      <trkpt lat="47.80864" lon="7.545411">
        <ele>268.0</ele>
        <time>2020-07-13T08:05:24Z</time>
      </trkpt>
      <trkpt lat="47.808509" lon="7.545351">
        <ele>267.0</ele>
        <time>2020-07-13T08:05:26Z</time>
      </trkpt>
      <trkpt lat="47.808396" lon="7.545303">
        <ele>267.0</ele>
        <time>2020-07-13T08:05:28Z</time>
      </trkpt>
      <trkpt lat="47.808288" lon="7.54527">
        <ele>266.0</ele>
        <time>2020-07-13T08:05:30Z</time>
      </trkpt>
      <trkpt lat="47.808173" lon="7.545209">
        <ele>265.0</ele>
        <time>2020-07-13T08:05:32Z</time>
      </trkpt>
      <trkpt lat="47.808062" lon="7.545137">
        <ele>266.0</ele>
        <time>2020-07-13T08:05:34Z</time>
      </trkpt>
      <trkpt lat="47.807951" lon="7.545077">
        <ele>266.0</ele>
        <time>2020-07-13T08:05:36Z</time>
      </trkpt>
      <trkpt lat="47.807838" lon="7.545022">
        <ele>266.0</ele>
        <time>2020-07-13T08:05:38Z</time>
      </trkpt>
      <trkpt lat="47.807719" lon="7.544958">
        <ele>265.0</ele>
        <time>2020-07-13T08:05:40Z</time>
      </trkpt>
      <trkpt lat="47.807608" lon="7.544882">
        <ele>265.0</ele>
        <time>2020-07-13T08:05:42Z</time>
      </trkpt>
      <trkpt lat="47.807494" lon="7.544815">
        <ele>266.0</ele>
        <time>2020-07-13T08:05:44Z</time>
      </trkpt>
      <trkpt lat="47.807386" lon="7.54475">
        <ele>266.0</ele>
        <time>2020-07-13T08:05:46Z</time>
      </trkpt>
      <trkpt lat="47.807276" lon="7.544689">
        <ele>266.0</ele>
        <time>2020-07-13T08:05:48Z</time>
      </trkpt>
      <trkpt lat="47.807159" lon="7.544631">
        <ele>266.0</ele>
        <time>2020-07-13T08:05:50Z</time>
      </trkpt>
      <trkpt lat="47.80705" lon="7.544569">
        <ele>267.0</ele>
        <time>2020-07-13T08:05:52Z</time>
      </trkpt>
      <trkpt lat="47.806941" lon="7.544506">
        <ele>267.0</ele>
        <time>2020-07-13T08:05:54Z</time>
      </trkpt>
      <trkpt lat="47.806827" lon="7.544444">
        <ele>268.0</ele>
        <time>2020-07-13T08:05:56Z</time>
      </trkpt>
      <trkpt lat="47.806715" lon="7.544383">
        <ele>268.0</ele>
        <time>2020-07-13T08:05:58Z</time>
      </trkpt>
      <trkpt lat="47.806605" lon="7.544322">
        <ele>268.0</ele>
        <time>2020-07-13T08:06:00Z</time>
      </trkpt>
      <trkpt lat="47.806493" lon="7.54426">
        <ele>268.0</ele>
        <time>2020-07-13T08:06:02Z</time>
      </trkpt>
      <trkpt lat="47.806382" lon="7.544197">
        <ele>268.0</ele>
        <time>2020-07-13T08:06:04Z</time>
      </trkpt>
      <trkpt lat="47.806279" lon="7.54413">
        <ele>267.0</ele>
        <time>2020-07-13T08:06:06Z</time>
      </trkpt>
      <trkpt lat="47.80617" lon="7.544067">
        <ele>267.0</ele>
        <time>2020-07-13T08:06:08Z</time>
      </trkpt>
      <trkpt lat="47.806066" lon="7.544005">
        <ele>268.0</ele>
        <time>2020-07-13T08:06:10Z</time>
      </trkpt>
      <trkpt lat="47.805909" lon="7.543924">
        <ele>267.0</ele>
        <time>2020-07-13T08:06:13Z</time>
      </trkpt>
      <trkpt lat="47.805803" lon="7.543849">
        <ele>268.0</ele>
        <time>2020-07-13T08:06:15Z</time>
      </trkpt>
      <trkpt lat="47.805687" lon="7.54377">
        <ele>268.0</ele>
        <time>2020-07-13T08:06:17Z</time>
      </trkpt>
      <trkpt lat="47.805577" lon="7.5437">
        <ele>268.0</ele>
        <time>2020-07-13T08:06:19Z</time>
      </trkpt>
      <trkpt lat="47.805465" lon="7.543636">
        <ele>268.0</ele>
        <time>2020-07-13T08:06:21Z</time>
      </trkpt>
      <trkpt lat="47.805359" lon="7.543575">
        <ele>268.0</ele>
        <time>2020-07-13T08:06:23Z</time>
      </trkpt>
      <trkpt lat="47.805255" lon="7.543503">
        <ele>268.0</ele>
        <time>2020-07-13T08:06:25Z</time>
      </trkpt>
      <trkpt lat="47.805148" lon="7.54344">
        <ele>268.0</ele>
        <time>2020-07-13T08:06:27Z</time>
      </trkpt>
      <trkpt lat="47.805041" lon="7.543381">
        <ele>269.0</ele>
        <time>2020-07-13T08:06:29Z</time>
      </trkpt>
      <trkpt lat="47.804931" lon="7.543312">
        <ele>269.0</ele>
        <time>2020-07-13T08:06:31Z</time>
      </trkpt>
      <trkpt lat="47.804823" lon="7.543245">
        <ele>269.0</ele>
        <time>2020-07-13T08:06:33Z</time>
      </trkpt>
      <trkpt lat="47.804717" lon="7.543175">
        <ele>269.0</ele>
        <time>2020-07-13T08:06:35Z</time>
      </trkpt>
      <trkpt lat="47.80461" lon="7.543113">
        <ele>269.0</ele>
        <time>2020-07-13T08:06:37Z</time>
      </trkpt>
      <trkpt lat="47.804508" lon="7.543044">
        <ele>269.0</ele>
        <time>2020-07-13T08:06:39Z</time>
      </trkpt>
      <trkpt lat="47.804402" lon="7.542974">
        <ele>270.0</ele>
        <time>2020-07-13T08:06:41Z</time>
      </trkpt>
      <trkpt lat="47.804291" lon="7.542922">
        <ele>270.0</ele>
        <time>2020-07-13T08:06:43Z</time>
      </trkpt>
      <trkpt lat="47.804179" lon="7.542863">
        <ele>270.0</ele>
        <time>2020-07-13T08:06:45Z</time>
      </trkpt>
      <trkpt lat="47.804071" lon="7.542799">
        <ele>270.0</ele>
        <time>2020-07-13T08:06:47Z</time>
      </trkpt>
      <trkpt lat="47.803967" lon="7.542738">
        <ele>270.0</ele>
        <time>2020-07-13T08:06:49Z</time>
      </trkpt>
      <trkpt lat="47.803863" lon="7.542669">
        <ele>270.0</ele>
        <time>2020-07-13T08:06:51Z</time>
      </trkpt>
      <trkpt lat="47.803754" lon="7.542607">
        <ele>269.0</ele>
        <time>2020-07-13T08:06:53Z</time>
      </trkpt>
      <trkpt lat="47.803645" lon="7.542548">
        <ele>270.0</ele>
        <time>2020-07-13T08:06:55Z</time>
      </trkpt>
      <trkpt lat="47.803532" lon="7.542486">
        <ele>269.0</ele>
        <time>2020-07-13T08:06:57Z</time>
      </trkpt>
      <trkpt lat="47.803424" lon="7.542426">
        <ele>269.0</ele>
        <time>2020-07-13T08:06:59Z</time>
      </trkpt>
      <trkpt lat="47.803315" lon="7.542362">
        <ele>269.0</ele>
        <time>2020-07-13T08:07:01Z</time>
      </trkpt>
      <trkpt lat="47.803206" lon="7.542308">
        <ele>269.0</ele>
        <time>2020-07-13T08:07:03Z</time>
      </trkpt>
      <trkpt lat="47.803052" lon="7.542218">
        <ele>269.0</ele>
        <time>2020-07-13T08:07:06Z</time>
      </trkpt>
      <trkpt lat="47.80295" lon="7.54215">
        <ele>269.0</ele>
        <time>2020-07-13T08:07:08Z</time>
      </trkpt>
      <trkpt lat="47.802844" lon="7.542082">
        <ele>269.0</ele>
        <time>2020-07-13T08:07:10Z</time>
      </trkpt>
      <trkpt lat="47.802737" lon="7.542023">
        <ele>269.0</ele>
        <time>2020-07-13T08:07:12Z</time>
      </trkpt>
      <trkpt lat="47.802637" lon="7.541965">
        <ele>269.0</ele>
        <time>2020-07-13T08:07:14Z</time>
      </trkpt>
      <trkpt lat="47.802536" lon="7.541902">
        <ele>270.0</ele>
        <time>2020-07-13T08:07:16Z</time>
      </trkpt>
      <trkpt lat="47.802431" lon="7.541839">
        <ele>270.0</ele>
        <time>2020-07-13T08:07:18Z</time>
      </trkpt>
      <trkpt lat="47.802322" lon="7.541773">
        <ele>270.0</ele>
        <time>2020-07-13T08:07:20Z</time>
      </trkpt>
      <trkpt lat="47.802221" lon="7.541715">
        <ele>270.0</ele>
        <time>2020-07-13T08:07:22Z</time>
      </trkpt>
      <trkpt lat="47.802112" lon="7.541665">
        <ele>271.0</ele>
        <time>2020-07-13T08:07:24Z</time>
      </trkpt>
      <trkpt lat="47.802007" lon="7.541605">
        <ele>271.0</ele>
        <time>2020-07-13T08:07:26Z</time>
      </trkpt>
      <trkpt lat="47.801903" lon="7.541539">
        <ele>271.0</ele>
        <time>2020-07-13T08:07:28Z</time>
      </trkpt>
      <trkpt lat="47.80185" lon="7.54151">
        <ele>271.0</ele>
        <time>2020-07-13T08:07:29Z</time>
      </trkpt>
      <trkpt lat="47.801697" lon="7.541429">
        <ele>270.0</ele>
        <time>2020-07-13T08:07:32Z</time>
      </trkpt>
      <trkpt lat="47.801584" lon="7.541374">
        <ele>269.0</ele>
        <time>2020-07-13T08:07:34Z</time>
      </trkpt>
      <trkpt lat="47.801473" lon="7.54131">
        <ele>269.0</ele>
        <time>2020-07-13T08:07:36Z</time>
      </trkpt>
      <trkpt lat="47.80137" lon="7.541247">
        <ele>270.0</ele>
        <time>2020-07-13T08:07:38Z</time>
      </trkpt>
      <trkpt lat="47.801276" lon="7.541182">
        <ele>270.0</ele>
        <time>2020-07-13T08:07:40Z</time>
      </trkpt>
      <trkpt lat="47.801175" lon="7.541119">
        <ele>270.0</ele>
        <time>2020-07-13T08:07:42Z</time>
      </trkpt>
      <trkpt lat="47.801069" lon="7.541056">
        <ele>270.0</ele>
        <time>2020-07-13T08:07:44Z</time>
      </trkpt>
      <trkpt lat="47.800969" lon="7.540992">
        <ele>270.0</ele>
        <time>2020-07-13T08:07:46Z</time>
      </trkpt>
      <trkpt lat="47.800865" lon="7.540937">
        <ele>269.0</ele>
        <time>2020-07-13T08:07:48Z</time>
      </trkpt>
      <trkpt lat="47.80076" lon="7.540878">
        <ele>270.0</ele>
        <time>2020-07-13T08:07:50Z</time>
      </trkpt>
      <trkpt lat="47.800608" lon="7.540792">
        <ele>270.0</ele>
        <time>2020-07-13T08:07:53Z</time>
      </trkpt>
      <trkpt lat="47.800499" lon="7.540731">
        <ele>270.0</ele>
        <time>2020-07-13T08:07:55Z</time>
      </trkpt>
      <trkpt lat="47.800397" lon="7.540666">
        <ele>269.0</ele>
        <time>2020-07-13T08:07:57Z</time>
      </trkpt>
      <trkpt lat="47.800294" lon="7.540607">
        <ele>269.0</ele>
        <time>2020-07-13T08:07:59Z</time>
      </trkpt>
      <trkpt lat="47.800188" lon="7.540557">
        <ele>270.0</ele>
        <time>2020-07-13T08:08:01Z</time>
      </trkpt>
      <trkpt lat="47.800029" lon="7.540472">
        <ele>269.0</ele>
        <time>2020-07-13T08:08:04Z</time>
      </trkpt>
      <trkpt lat="47.799977" lon="7.540442">
        <ele>269.0</ele>
        <time>2020-07-13T08:08:05Z</time>
      </trkpt>
      <trkpt lat="47.799872" lon="7.540382">
        <ele>269.0</ele>
        <time>2020-07-13T08:08:07Z</time>
      </trkpt>
      <trkpt lat="47.799773" lon="7.540322">
        <ele>269.0</ele>
        <time>2020-07-13T08:08:09Z</time>
      </trkpt>
      <trkpt lat="47.799622" lon="7.540239">
        <ele>269.0</ele>
        <time>2020-07-13T08:08:12Z</time>
      </trkpt>
      <trkpt lat="47.799522" lon="7.540185">
        <ele>269.0</ele>
        <time>2020-07-13T08:08:14Z</time>
      </trkpt>
      <trkpt lat="47.799423" lon="7.540129">
        <ele>268.0</ele>
        <time>2020-07-13T08:08:16Z</time>
      </trkpt>
      <trkpt lat="47.79932" lon="7.540072">
        <ele>269.0</ele>
        <time>2020-07-13T08:08:18Z</time>
      </trkpt>
      <trkpt lat="47.799223" lon="7.540013">
        <ele>269.0</ele>
        <time>2020-07-13T08:08:20Z</time>
      </trkpt>
      <trkpt lat="47.799117" lon="7.539953">
        <ele>269.0</ele>
        <time>2020-07-13T08:08:22Z</time>
      </trkpt>
      <trkpt lat="47.799015" lon="7.539886">
        <ele>269.0</ele>
        <time>2020-07-13T08:08:24Z</time>
      </trkpt>
      <trkpt lat="47.798913" lon="7.539812">
        <ele>269.0</ele>
        <time>2020-07-13T08:08:26Z</time>
      </trkpt>
      <trkpt lat="47.798763" lon="7.539711">
        <ele>269.0</ele>
        <time>2020-07-13T08:08:29Z</time>
      </trkpt>
      <trkpt lat="47.798668" lon="7.539662">
        <ele>269.0</ele>
        <time>2020-07-13T08:08:31Z</time>
      </trkpt>
      <trkpt lat="47.798567" lon="7.539608">
        <ele>268.0</ele>
        <time>2020-07-13T08:08:33Z</time>
      </trkpt>
      <trkpt lat="47.798462" lon="7.539552">
        <ele>268.0</ele>
        <time>2020-07-13T08:08:35Z</time>
      </trkpt>
      <trkpt lat="47.798304" lon="7.539466">
        <ele>269.0</ele>
        <time>2020-07-13T08:08:38Z</time>
      </trkpt>
      <trkpt lat="47.7982" lon="7.539406">
        <ele>269.0</ele>
        <time>2020-07-13T08:08:40Z</time>
      </trkpt>
      <trkpt lat="47.798037" lon="7.539321">
        <ele>268.0</ele>
        <time>2020-07-13T08:08:43Z</time>
      </trkpt>
      <trkpt lat="47.797933" lon="7.539261">
        <ele>268.0</ele>
        <time>2020-07-13T08:08:45Z</time>
      </trkpt>
      <trkpt lat="47.797828" lon="7.539202">
        <ele>268.0</ele>
        <time>2020-07-13T08:08:47Z</time>
      </trkpt>
      <trkpt lat="47.797731" lon="7.539147">
        <ele>268.0</ele>
        <time>2020-07-13T08:08:49Z</time>
      </trkpt>
      <trkpt lat="47.79768" lon="7.539121">
        <ele>268.0</ele>
        <time>2020-07-13T08:08:50Z</time>
      </trkpt>
      <trkpt lat="47.797526" lon="7.539023">
        <ele>267.0</ele>
        <time>2020-07-13T08:08:53Z</time>
      </trkpt>
      <trkpt lat="47.797427" lon="7.538962">
        <ele>267.0</ele>
        <time>2020-07-13T08:08:55Z</time>
      </trkpt>
      <trkpt lat="47.797329" lon="7.538895">
        <ele>268.0</ele>
        <time>2020-07-13T08:08:57Z</time>
      </trkpt>
      <trkpt lat="47.797285" lon="7.538866">
        <ele>268.0</ele>
        <time>2020-07-13T08:08:58Z</time>
      </trkpt>
      <trkpt lat="47.797126" lon="7.538774">
        <ele>268.0</ele>
        <time>2020-07-13T08:09:01Z</time>
      </trkpt>
      <trkpt lat="47.797014" lon="7.538701">
        <ele>268.0</ele>
        <time>2020-07-13T08:09:03Z</time>
      </trkpt>
      <trkpt lat="47.79691" lon="7.538641">
        <ele>267.0</ele>
        <time>2020-07-13T08:09:05Z</time>
      </trkpt>
      <trkpt lat="47.796808" lon="7.53859">
        <ele>267.0</ele>
        <time>2020-07-13T08:09:07Z</time>
      </trkpt>
      <trkpt lat="47.796655" lon="7.538503">
        <ele>268.0</ele>
        <time>2020-07-13T08:09:10Z</time>
      </trkpt>
      <trkpt lat="47.796556" lon="7.538444">
        <ele>268.0</ele>
        <time>2020-07-13T08:09:12Z</time>
      </trkpt>
      <trkpt lat="47.796505" lon="7.538411">
        <ele>268.0</ele>
        <time>2020-07-13T08:09:13Z</time>
      </trkpt>
      <trkpt lat="47.796358" lon="7.538322">
        <ele>268.0</ele>
        <time>2020-07-13T08:09:16Z</time>
      </trkpt>
      <trkpt lat="47.796305" lon="7.538286">
        <ele>267.0</ele>
        <time>2020-07-13T08:09:17Z</time>
      </trkpt>
      <trkpt lat="47.796092" lon="7.538165">
        <ele>267.0</ele>
        <time>2020-07-13T08:09:21Z</time>
      </trkpt>
      <trkpt lat="47.795984" lon="7.538111">
        <ele>266.0</ele>
        <time>2020-07-13T08:09:23Z</time>
      </trkpt>
      <trkpt lat="47.795882" lon="7.538051">
        <ele>267.0</ele>
        <time>2020-07-13T08:09:25Z</time>
      </trkpt>
      <trkpt lat="47.795828" lon="7.538019">
        <ele>267.0</ele>
        <time>2020-07-13T08:09:26Z</time>
      </trkpt>
      <trkpt lat="47.79562" lon="7.537912">
        <ele>267.0</ele>
        <time>2020-07-13T08:09:30Z</time>
      </trkpt>
      <trkpt lat="47.795513" lon="7.537862">
        <ele>267.0</ele>
        <time>2020-07-13T08:09:32Z</time>
      </trkpt>
      <trkpt lat="47.795421" lon="7.537827">
        <ele>267.0</ele>
        <time>2020-07-13T08:09:34Z</time>
      </trkpt>
      <trkpt lat="47.795344" lon="7.537793">
        <ele>268.0</ele>
        <time>2020-07-13T08:09:36Z</time>
      </trkpt>
      <trkpt lat="47.795282" lon="7.537755">
        <ele>268.0</ele>
        <time>2020-07-13T08:09:38Z</time>
      </trkpt>
      <trkpt lat="47.795214" lon="7.537721">
        <ele>268.0</ele>
        <time>2020-07-13T08:09:40Z</time>
      </trkpt>
      <trkpt lat="47.795145" lon="7.537678">
        <ele>268.0</ele>
        <time>2020-07-13T08:09:42Z</time>
      </trkpt>
      <trkpt lat="47.795064" lon="7.537624">
        <ele>268.0</ele>
        <time>2020-07-13T08:09:44Z</time>
      </trkpt>
      <trkpt lat="47.794978" lon="7.537578">
        <ele>268.0</ele>
        <time>2020-07-13T08:09:46Z</time>
      </trkpt>
      <trkpt lat="47.794847" lon="7.537496">
        <ele>268.0</ele>
        <time>2020-07-13T08:09:49Z</time>
      </trkpt>
      <trkpt lat="47.794757" lon="7.537438">
        <ele>268.0</ele>
        <time>2020-07-13T08:09:51Z</time>
      </trkpt>
      <trkpt lat="47.794653" lon="7.537368">
        <ele>268.0</ele>
        <time>2020-07-13T08:09:53Z</time>
      </trkpt>
      <trkpt lat="47.794531" lon="7.537289">
        <ele>268.0</ele>
        <time>2020-07-13T08:09:55Z</time>
      </trkpt>
      <trkpt lat="47.794417" lon="7.537215">
        <ele>269.0</ele>
        <time>2020-07-13T08:09:57Z</time>
      </trkpt>
      <trkpt lat="47.794253" lon="7.53712">
        <ele>268.0</ele>
        <time>2020-07-13T08:10:00Z</time>
      </trkpt>
      <trkpt lat="47.794146" lon="7.537053">
        <ele>268.0</ele>
        <time>2020-07-13T08:10:02Z</time>
      </trkpt>
      <trkpt lat="47.794091" lon="7.537022">
        <ele>268.0</ele>
        <time>2020-07-13T08:10:03Z</time>
      </trkpt>
      <trkpt lat="47.793872" lon="7.536911">
        <ele>268.0</ele>
        <time>2020-07-13T08:10:07Z</time>
      </trkpt>
      <trkpt lat="47.793768" lon="7.536858">
        <ele>267.0</ele>
        <time>2020-07-13T08:10:09Z</time>
      </trkpt>
      <trkpt lat="47.793658" lon="7.536798">
        <ele>266.0</ele>
        <time>2020-07-13T08:10:11Z</time>
      </trkpt>
      <trkpt lat="47.793508" lon="7.536708">
        <ele>266.0</ele>
        <time>2020-07-13T08:10:14Z</time>
      </trkpt>
      <trkpt lat="47.79341" lon="7.536636">
        <ele>266.0</ele>
        <time>2020-07-13T08:10:16Z</time>
      </trkpt>
      <trkpt lat="47.793312" lon="7.536564">
        <ele>266.0</ele>
        <time>2020-07-13T08:10:18Z</time>
      </trkpt>
      <trkpt lat="47.793213" lon="7.536501">
        <ele>266.0</ele>
        <time>2020-07-13T08:10:20Z</time>
      </trkpt>
      <trkpt lat="47.793113" lon="7.536448">
        <ele>266.0</ele>
        <time>2020-07-13T08:10:22Z</time>
      </trkpt>
      <trkpt lat="47.793006" lon="7.53639">
        <ele>266.0</ele>
        <time>2020-07-13T08:10:24Z</time>
      </trkpt>
      <trkpt lat="47.792902" lon="7.536331">
        <ele>266.0</ele>
        <time>2020-07-13T08:10:26Z</time>
      </trkpt>
      <trkpt lat="47.792794" lon="7.53627">
        <ele>266.0</ele>
        <time>2020-07-13T08:10:28Z</time>
      </trkpt>
      <trkpt lat="47.792688" lon="7.536211">
        <ele>266.0</ele>
        <time>2020-07-13T08:10:30Z</time>
      </trkpt>
      <trkpt lat="47.79258" lon="7.53615">
        <ele>266.0</ele>
        <time>2020-07-13T08:10:32Z</time>
      </trkpt>
      <trkpt lat="47.792471" lon="7.536082">
        <ele>266.0</ele>
        <time>2020-07-13T08:10:34Z</time>
      </trkpt>
      <trkpt lat="47.792367" lon="7.536016">
        <ele>267.0</ele>
        <time>2020-07-13T08:10:36Z</time>
      </trkpt>
      <trkpt lat="47.792256" lon="7.535957">
        <ele>267.0</ele>
        <time>2020-07-13T08:10:38Z</time>
      </trkpt>
      <trkpt lat="47.792154" lon="7.535891">
        <ele>267.0</ele>
        <time>2020-07-13T08:10:40Z</time>
      </trkpt>
      <trkpt lat="47.791996" lon="7.535799">
        <ele>267.0</ele>
        <time>2020-07-13T08:10:43Z</time>
      </trkpt>
      <trkpt lat="47.791885" lon="7.535737">
        <ele>267.0</ele>
        <time>2020-07-13T08:10:45Z</time>
      </trkpt>
      <trkpt lat="47.791778" lon="7.535676">
        <ele>267.0</ele>
        <time>2020-07-13T08:10:47Z</time>
      </trkpt>
      <trkpt lat="47.791672" lon="7.535613">
        <ele>267.0</ele>
        <time>2020-07-13T08:10:49Z</time>
      </trkpt>
      <trkpt lat="47.791566" lon="7.535556">
        <ele>267.0</ele>
        <time>2020-07-13T08:10:51Z</time>
      </trkpt>
      <trkpt lat="47.791408" lon="7.535476">
        <ele>268.0</ele>
        <time>2020-07-13T08:10:54Z</time>
      </trkpt>
      <trkpt lat="47.791303" lon="7.535426">
        <ele>268.0</ele>
        <time>2020-07-13T08:10:56Z</time>
      </trkpt>
      <trkpt lat="47.791143" lon="7.53534">
        <ele>267.0</ele>
        <time>2020-07-13T08:10:59Z</time>
      </trkpt>
      <trkpt lat="47.79104" lon="7.535279">
        <ele>267.0</ele>
        <time>2020-07-13T08:11:01Z</time>
      </trkpt>
      <trkpt lat="47.790891" lon="7.535178">
        <ele>268.0</ele>
        <time>2020-07-13T08:11:04Z</time>
      </trkpt>
      <trkpt lat="47.790784" lon="7.535109">
        <ele>268.0</ele>
        <time>2020-07-13T08:11:06Z</time>
      </trkpt>
      <trkpt lat="47.790674" lon="7.535031">
        <ele>268.0</ele>
        <time>2020-07-13T08:11:08Z</time>
      </trkpt>
      <trkpt lat="47.790561" lon="7.53497">
        <ele>267.0</ele>
        <time>2020-07-13T08:11:10Z</time>
      </trkpt>
      <trkpt lat="47.790456" lon="7.534904">
        <ele>266.0</ele>
        <time>2020-07-13T08:11:12Z</time>
      </trkpt>
      <trkpt lat="47.790343" lon="7.534844">
        <ele>266.0</ele>
        <time>2020-07-13T08:11:14Z</time>
      </trkpt>
      <trkpt lat="47.790238" lon="7.534787">
        <ele>266.0</ele>
        <time>2020-07-13T08:11:16Z</time>
      </trkpt>
      <trkpt lat="47.790133" lon="7.534729">
        <ele>266.0</ele>
        <time>2020-07-13T08:11:18Z</time>
      </trkpt>
      <trkpt lat="47.790081" lon="7.5347">
        <ele>266.0</ele>
        <time>2020-07-13T08:11:19Z</time>
      </trkpt>
      <trkpt lat="47.789933" lon="7.534604">
        <ele>266.0</ele>
        <time>2020-07-13T08:11:22Z</time>
      </trkpt>
      <trkpt lat="47.789826" lon="7.534559">
        <ele>267.0</ele>
        <time>2020-07-13T08:11:24Z</time>
      </trkpt>
      <trkpt lat="47.789721" lon="7.534501">
        <ele>267.0</ele>
        <time>2020-07-13T08:11:26Z</time>
      </trkpt>
      <trkpt lat="47.789615" lon="7.534438">
        <ele>267.0</ele>
        <time>2020-07-13T08:11:28Z</time>
      </trkpt>
      <trkpt lat="47.789515" lon="7.53437">
        <ele>267.0</ele>
        <time>2020-07-13T08:11:30Z</time>
      </trkpt>
      <trkpt lat="47.789356" lon="7.534268">
        <ele>266.0</ele>
        <time>2020-07-13T08:11:33Z</time>
      </trkpt>
      <trkpt lat="47.789301" lon="7.534237">
        <ele>266.0</ele>
        <time>2020-07-13T08:11:34Z</time>
      </trkpt>
      <trkpt lat="47.789143" lon="7.53417">
        <ele>266.0</ele>
        <time>2020-07-13T08:11:37Z</time>
      </trkpt>
      <trkpt lat="47.789035" lon="7.534127">
        <ele>266.0</ele>
        <time>2020-07-13T08:11:39Z</time>
      </trkpt>
      <trkpt lat="47.788935" lon="7.534087">
        <ele>266.0</ele>
        <time>2020-07-13T08:11:41Z</time>
      </trkpt>
      <trkpt lat="47.788835" lon="7.534017">
        <ele>266.0</ele>
        <time>2020-07-13T08:11:43Z</time>
      </trkpt>
      <trkpt lat="47.788735" lon="7.533939">
        <ele>267.0</ele>
        <time>2020-07-13T08:11:45Z</time>
      </trkpt>
      <trkpt lat="47.788628" lon="7.533868">
        <ele>267.0</ele>
        <time>2020-07-13T08:11:47Z</time>
      </trkpt>
      <trkpt lat="47.788465" lon="7.533762">
        <ele>267.0</ele>
        <time>2020-07-13T08:11:50Z</time>
      </trkpt>
      <trkpt lat="47.788361" lon="7.533695">
        <ele>267.0</ele>
        <time>2020-07-13T08:11:52Z</time>
      </trkpt>
      <trkpt lat="47.788254" lon="7.533625">
        <ele>268.0</ele>
        <time>2020-07-13T08:11:54Z</time>
      </trkpt>
      <trkpt lat="47.788148" lon="7.53356">
        <ele>268.0</ele>
        <time>2020-07-13T08:11:56Z</time>
      </trkpt>
      <trkpt lat="47.788038" lon="7.533504">
        <ele>268.0</ele>
        <time>2020-07-13T08:11:58Z</time>
      </trkpt>
      <trkpt lat="47.787928" lon="7.53345">
        <ele>269.0</ele>
        <time>2020-07-13T08:12:00Z</time>
      </trkpt>
      <trkpt lat="47.787823" lon="7.5334">
        <ele>269.0</ele>
        <time>2020-07-13T08:12:02Z</time>
      </trkpt>
      <trkpt lat="47.787716" lon="7.533356">
        <ele>268.0</ele>
        <time>2020-07-13T08:12:04Z</time>
      </trkpt>
      <trkpt lat="47.787548" lon="7.533282">
        <ele>268.0</ele>
        <time>2020-07-13T08:12:07Z</time>
      </trkpt>
      <trkpt lat="47.787442" lon="7.533232">
        <ele>268.0</ele>
        <time>2020-07-13T08:12:09Z</time>
      </trkpt>
      <trkpt lat="47.787342" lon="7.533185">
        <ele>268.0</ele>
        <time>2020-07-13T08:12:11Z</time>
      </trkpt>
      <trkpt lat="47.787238" lon="7.533141">
        <ele>268.0</ele>
        <time>2020-07-13T08:12:13Z</time>
      </trkpt>
      <trkpt lat="47.787127" lon="7.533101">
        <ele>268.0</ele>
        <time>2020-07-13T08:12:15Z</time>
      </trkpt>
      <trkpt lat="47.787027" lon="7.53306">
        <ele>268.0</ele>
        <time>2020-07-13T08:12:17Z</time>
      </trkpt>
      <trkpt lat="47.786878" lon="7.532991">
        <ele>268.0</ele>
        <time>2020-07-13T08:12:20Z</time>
      </trkpt>
      <trkpt lat="47.786776" lon="7.532941">
        <ele>268.0</ele>
        <time>2020-07-13T08:12:22Z</time>
      </trkpt>
      <trkpt lat="47.786666" lon="7.532882">
        <ele>269.0</ele>
        <time>2020-07-13T08:12:24Z</time>
      </trkpt>
      <trkpt lat="47.786562" lon="7.532823">
        <ele>269.0</ele>
        <time>2020-07-13T08:12:26Z</time>
      </trkpt>
      <trkpt lat="47.786463" lon="7.532777">
        <ele>270.0</ele>
        <time>2020-07-13T08:12:28Z</time>
      </trkpt>
      <trkpt lat="47.786307" lon="7.532712">
        <ele>269.0</ele>
        <time>2020-07-13T08:12:31Z</time>
      </trkpt>
      <trkpt lat="47.786208" lon="7.532682">
        <ele>268.0</ele>
        <time>2020-07-13T08:12:33Z</time>
      </trkpt>
      <trkpt lat="47.786106" lon="7.53264">
        <ele>268.0</ele>
        <time>2020-07-13T08:12:35Z</time>
      </trkpt>
      <trkpt lat="47.786005" lon="7.532601">
        <ele>267.0</ele>
        <time>2020-07-13T08:12:37Z</time>
      </trkpt>
      <trkpt lat="47.785915" lon="7.532582">
        <ele>268.0</ele>
        <time>2020-07-13T08:12:39Z</time>
      </trkpt>
      <trkpt lat="47.78584" lon="7.532546">
        <ele>268.0</ele>
        <time>2020-07-13T08:12:41Z</time>
      </trkpt>
      <trkpt lat="47.785779" lon="7.532514">
        <ele>268.0</ele>
        <time>2020-07-13T08:12:43Z</time>
      </trkpt>
      <trkpt lat="47.785752" lon="7.532497">
        <ele>268.0</ele>
        <time>2020-07-13T08:12:46Z</time>
      </trkpt>
      <trkpt lat="47.785759" lon="7.532496">
        <ele>269.0</ele>
        <time>2020-07-13T08:12:48Z</time>
      </trkpt>
      <trkpt lat="47.785755" lon="7.532493">
        <ele>269.0</ele>
        <time>2020-07-13T08:12:50Z</time>
      </trkpt>
      <trkpt lat="47.785748" lon="7.532489">
        <ele>268.0</ele>
        <time>2020-07-13T08:12:52Z</time>
      </trkpt>
      <trkpt lat="47.785745" lon="7.532489">
        <ele>268.0</ele>
        <time>2020-07-13T08:13:16Z</time>
      </trkpt>
      <trkpt lat="47.785745" lon="7.532489">
        <ele>268.0</ele>
        <time>2020-07-13T08:13:19Z</time>
      </trkpt>
      <trkpt lat="47.785745" lon="7.532489">
        <ele>268.0</ele>
        <time>2020-07-13T08:13:21Z</time>
      </trkpt>
      <trkpt lat="47.785745" lon="7.532489">
        <ele>268.0</ele>
        <time>2020-07-13T08:13:23Z</time>
      </trkpt>
      <trkpt lat="47.785745" lon="7.532489">
        <ele>268.0</ele>
        <time>2020-07-13T08:13:25Z</time>
      </trkpt>
      <trkpt lat="47.785745" lon="7.532489">
        <ele>268.0</ele>
        <time>2020-07-13T08:13:27Z</time>
      </trkpt>
      <trkpt lat="47.785745" lon="7.532489">
        <ele>268.0</ele>
        <time>2020-07-13T08:13:29Z</time>
      </trkpt>
      <trkpt lat="47.785735" lon="7.532497">
        <ele>268.0</ele>
        <time>2020-07-13T08:13:32Z</time>
      </trkpt>
      <trkpt lat="47.78574" lon="7.532496">
        <ele>267.0</ele>
        <time>2020-07-13T08:13:34Z</time>
      </trkpt>
      <trkpt lat="47.785736" lon="7.532489">
        <ele>268.0</ele>
        <time>2020-07-13T08:13:36Z</time>
      </trkpt>
      <trkpt lat="47.785721" lon="7.532478">
        <ele>268.0</ele>
        <time>2020-07-13T08:13:38Z</time>
      </trkpt>
      <trkpt lat="47.785687" lon="7.532462">
        <ele>268.0</ele>
        <time>2020-07-13T08:13:40Z</time>
      </trkpt>
      <trkpt lat="47.78563" lon="7.53244">
        <ele>268.0</ele>
        <time>2020-07-13T08:13:42Z</time>
      </trkpt>
      <trkpt lat="47.785566" lon="7.532414">
        <ele>269.0</ele>
        <time>2020-07-13T08:13:44Z</time>
      </trkpt>
      <trkpt lat="47.785498" lon="7.532388">
        <ele>269.0</ele>
        <time>2020-07-13T08:13:46Z</time>
      </trkpt>
      <trkpt lat="47.785423" lon="7.532367">
        <ele>270.0</ele>
        <time>2020-07-13T08:13:48Z</time>
      </trkpt>
      <trkpt lat="47.785335" lon="7.532338">
        <ele>270.0</ele>
        <time>2020-07-13T08:13:50Z</time>
      </trkpt>
      <trkpt lat="47.785201" lon="7.53229">
        <ele>270.0</ele>
        <time>2020-07-13T08:13:53Z</time>
      </trkpt>
      <trkpt lat="47.785101" lon="7.532259">
        <ele>270.0</ele>
        <time>2020-07-13T08:13:55Z</time>
      </trkpt>
      <trkpt lat="47.785001" lon="7.532229">
        <ele>270.0</ele>
        <time>2020-07-13T08:13:57Z</time>
      </trkpt>
      <trkpt lat="47.784854" lon="7.532176">
        <ele>270.0</ele>
        <time>2020-07-13T08:14:00Z</time>
      </trkpt>
      <trkpt lat="47.784757" lon="7.532141">
        <ele>270.0</ele>
        <time>2020-07-13T08:14:02Z</time>
      </trkpt>
      <trkpt lat="47.784663" lon="7.532113">
        <ele>271.0</ele>
        <time>2020-07-13T08:14:04Z</time>
      </trkpt>
      <trkpt lat="47.784512" lon="7.532076">
        <ele>271.0</ele>
        <time>2020-07-13T08:14:07Z</time>
      </trkpt>
      <trkpt lat="47.784408" lon="7.532054">
        <ele>270.0</ele>
        <time>2020-07-13T08:14:09Z</time>
      </trkpt>
      <trkpt lat="47.784302" lon="7.532025">
        <ele>271.0</ele>
        <time>2020-07-13T08:14:11Z</time>
      </trkpt>
      <trkpt lat="47.784199" lon="7.531999">
        <ele>271.0</ele>
        <time>2020-07-13T08:14:13Z</time>
      </trkpt>
      <trkpt lat="47.784044" lon="7.531949">
        <ele>271.0</ele>
        <time>2020-07-13T08:14:16Z</time>
      </trkpt>
      <trkpt lat="47.78393" lon="7.53192">
        <ele>270.0</ele>
        <time>2020-07-13T08:14:18Z</time>
      </trkpt>
      <trkpt lat="47.783771" lon="7.531866">
        <ele>270.0</ele>
        <time>2020-07-13T08:14:21Z</time>
      </trkpt>
      <trkpt lat="47.783671" lon="7.531834">
        <ele>269.0</ele>
        <time>2020-07-13T08:14:23Z</time>
      </trkpt>
      <trkpt lat="47.783562" lon="7.531804">
        <ele>269.0</ele>
        <time>2020-07-13T08:14:25Z</time>
      </trkpt>
      <trkpt lat="47.783449" lon="7.531773">
        <ele>269.0</ele>
        <time>2020-07-13T08:14:27Z</time>
      </trkpt>
      <trkpt lat="47.783336" lon="7.531768">
        <ele>269.0</ele>
        <time>2020-07-13T08:14:29Z</time>
      </trkpt>
      <trkpt lat="47.783224" lon="7.531752">
        <ele>269.0</ele>
        <time>2020-07-13T08:14:31Z</time>
      </trkpt>
      <trkpt lat="47.783115" lon="7.531726">
        <ele>269.0</ele>
        <time>2020-07-13T08:14:33Z</time>
      </trkpt>
      <trkpt lat="47.783002" lon="7.531707">
        <ele>269.0</ele>
        <time>2020-07-13T08:14:35Z</time>
      </trkpt>
      <trkpt lat="47.782828" lon="7.531672">
        <ele>268.0</ele>
        <time>2020-07-13T08:14:38Z</time>
      </trkpt>
      <trkpt lat="47.782721" lon="7.53165">
        <ele>268.0</ele>
        <time>2020-07-13T08:14:40Z</time>
      </trkpt>
      <trkpt lat="47.782617" lon="7.531617">
        <ele>269.0</ele>
        <time>2020-07-13T08:14:42Z</time>
      </trkpt>
      <trkpt lat="47.782511" lon="7.531584">
        <ele>269.0</ele>
        <time>2020-07-13T08:14:44Z</time>
      </trkpt>
      <trkpt lat="47.782354" lon="7.531538">
        <ele>269.0</ele>
        <time>2020-07-13T08:14:47Z</time>
      </trkpt>
      <trkpt lat="47.782246" lon="7.531519">
        <ele>269.0</ele>
        <time>2020-07-13T08:14:49Z</time>
      </trkpt>
      <trkpt lat="47.782075" lon="7.531494">
        <ele>269.0</ele>
        <time>2020-07-13T08:14:52Z</time>
      </trkpt>
      <trkpt lat="47.782017" lon="7.531487">
        <ele>269.0</ele>
        <time>2020-07-13T08:14:53Z</time>
      </trkpt>
      <trkpt lat="47.781855" lon="7.531468">
        <ele>269.0</ele>
        <time>2020-07-13T08:14:56Z</time>
      </trkpt>
      <trkpt lat="47.78175" lon="7.531449">
        <ele>269.0</ele>
        <time>2020-07-13T08:14:58Z</time>
      </trkpt>
      <trkpt lat="47.78157" lon="7.531407">
        <ele>269.0</ele>
        <time>2020-07-13T08:15:01Z</time>
      </trkpt>
      <trkpt lat="47.781452" lon="7.531381">
        <ele>269.0</ele>
        <time>2020-07-13T08:15:03Z</time>
      </trkpt>
      <trkpt lat="47.781332" lon="7.531365">
        <ele>269.0</ele>
        <time>2020-07-13T08:15:05Z</time>
      </trkpt>
      <trkpt lat="47.781219" lon="7.531346">
        <ele>269.0</ele>
        <time>2020-07-13T08:15:07Z</time>
      </trkpt>
      <trkpt lat="47.781105" lon="7.531336">
        <ele>269.0</ele>
        <time>2020-07-13T08:15:09Z</time>
      </trkpt>
      <trkpt lat="47.780931" lon="7.531313">
        <ele>268.0</ele>
        <time>2020-07-13T08:15:12Z</time>
      </trkpt>
      <trkpt lat="47.780815" lon="7.531302">
        <ele>268.0</ele>
        <time>2020-07-13T08:15:14Z</time>
      </trkpt>
      <trkpt lat="47.780695" lon="7.531294">
        <ele>268.0</ele>
        <time>2020-07-13T08:15:16Z</time>
      </trkpt>
      <trkpt lat="47.780575" lon="7.531282">
        <ele>268.0</ele>
        <time>2020-07-13T08:15:18Z</time>
      </trkpt>
      <trkpt lat="47.780462" lon="7.531256">
        <ele>268.0</ele>
        <time>2020-07-13T08:15:20Z</time>
      </trkpt>
      <trkpt lat="47.780408" lon="7.531244">
        <ele>268.0</ele>
        <time>2020-07-13T08:15:21Z</time>
      </trkpt>
      <trkpt lat="47.780245" lon="7.53122">
        <ele>269.0</ele>
        <time>2020-07-13T08:15:24Z</time>
      </trkpt>
      <trkpt lat="47.780134" lon="7.531208">
        <ele>269.0</ele>
        <time>2020-07-13T08:15:26Z</time>
      </trkpt>
      <trkpt lat="47.780017" lon="7.531187">
        <ele>268.0</ele>
        <time>2020-07-13T08:15:28Z</time>
      </trkpt>
      <trkpt lat="47.779898" lon="7.531173">
        <ele>268.0</ele>
        <time>2020-07-13T08:15:30Z</time>
      </trkpt>
      <trkpt lat="47.779735" lon="7.531155">
        <ele>267.0</ele>
        <time>2020-07-13T08:15:33Z</time>
      </trkpt>
      <trkpt lat="47.77957" lon="7.531128">
        <ele>267.0</ele>
        <time>2020-07-13T08:15:36Z</time>
      </trkpt>
      <trkpt lat="47.779458" lon="7.531127">
        <ele>267.0</ele>
        <time>2020-07-13T08:15:38Z</time>
      </trkpt>
      <trkpt lat="47.779346" lon="7.531138">
        <ele>268.0</ele>
        <time>2020-07-13T08:15:40Z</time>
      </trkpt>
      <trkpt lat="47.779168" lon="7.531136">
        <ele>268.0</ele>
        <time>2020-07-13T08:15:43Z</time>
      </trkpt>
      <trkpt lat="47.779048" lon="7.531128">
        <ele>267.0</ele>
        <time>2020-07-13T08:15:45Z</time>
      </trkpt>
      <trkpt lat="47.778929" lon="7.531136">
        <ele>268.0</ele>
        <time>2020-07-13T08:15:47Z</time>
      </trkpt>
      <trkpt lat="47.778817" lon="7.531144">
        <ele>268.0</ele>
        <time>2020-07-13T08:15:49Z</time>
      </trkpt>
      <trkpt lat="47.778649" lon="7.531142">
        <ele>268.0</ele>
        <time>2020-07-13T08:15:52Z</time>
      </trkpt>
      <trkpt lat="47.77853" lon="7.531134">
        <ele>268.0</ele>
        <time>2020-07-13T08:15:54Z</time>
      </trkpt>
      <trkpt lat="47.778408" lon="7.531142">
        <ele>268.0</ele>
        <time>2020-07-13T08:15:56Z</time>
      </trkpt>
      <trkpt lat="47.778281" lon="7.53115">
        <ele>267.0</ele>
        <time>2020-07-13T08:15:58Z</time>
      </trkpt>
      <trkpt lat="47.778161" lon="7.531158">
        <ele>267.0</ele>
        <time>2020-07-13T08:16:00Z</time>
      </trkpt>
      <trkpt lat="47.778042" lon="7.531164">
        <ele>267.0</ele>
        <time>2020-07-13T08:16:02Z</time>
      </trkpt>
      <trkpt lat="47.777927" lon="7.531169">
        <ele>267.0</ele>
        <time>2020-07-13T08:16:04Z</time>
      </trkpt>
      <trkpt lat="47.777816" lon="7.531172">
        <ele>267.0</ele>
        <time>2020-07-13T08:16:06Z</time>
      </trkpt>
      <trkpt lat="47.77764" lon="7.531174">
        <ele>266.0</ele>
        <time>2020-07-13T08:16:09Z</time>
      </trkpt>
      <trkpt lat="47.777525" lon="7.531185">
        <ele>266.0</ele>
        <time>2020-07-13T08:16:11Z</time>
      </trkpt>
      <trkpt lat="47.777405" lon="7.531198">
        <ele>266.0</ele>
        <time>2020-07-13T08:16:13Z</time>
      </trkpt>
      <trkpt lat="47.777294" lon="7.531208">
        <ele>267.0</ele>
        <time>2020-07-13T08:16:15Z</time>
      </trkpt>
      <trkpt lat="47.77718" lon="7.531213">
        <ele>267.0</ele>
        <time>2020-07-13T08:16:17Z</time>
      </trkpt>
      <trkpt lat="47.777011" lon="7.531224">
        <ele>267.0</ele>
        <time>2020-07-13T08:16:20Z</time>
      </trkpt>
      <trkpt lat="47.776902" lon="7.531223">
        <ele>267.0</ele>
        <time>2020-07-13T08:16:22Z</time>
      </trkpt>
      <trkpt lat="47.77679" lon="7.531238">
        <ele>267.0</ele>
        <time>2020-07-13T08:16:24Z</time>
      </trkpt>
      <trkpt lat="47.776675" lon="7.531261">
        <ele>267.0</ele>
        <time>2020-07-13T08:16:26Z</time>
      </trkpt>
      <trkpt lat="47.776557" lon="7.531281">
        <ele>267.0</ele>
        <time>2020-07-13T08:16:28Z</time>
      </trkpt>
      <trkpt lat="47.776436" lon="7.531293">
        <ele>268.0</ele>
        <time>2020-07-13T08:16:30Z</time>
      </trkpt>
      <trkpt lat="47.77633" lon="7.531313">
        <ele>268.0</ele>
        <time>2020-07-13T08:16:32Z</time>
      </trkpt>
      <trkpt lat="47.776224" lon="7.531314">
        <ele>268.0</ele>
        <time>2020-07-13T08:16:34Z</time>
      </trkpt>
      <trkpt lat="47.77611" lon="7.531322">
        <ele>269.0</ele>
        <time>2020-07-13T08:16:36Z</time>
      </trkpt>
      <trkpt lat="47.775948" lon="7.531326">
        <ele>269.0</ele>
        <time>2020-07-13T08:16:39Z</time>
      </trkpt>
      <trkpt lat="47.77584" lon="7.531345">
        <ele>270.0</ele>
        <time>2020-07-13T08:16:41Z</time>
      </trkpt>
      <trkpt lat="47.775729" lon="7.531373">
        <ele>269.0</ele>
        <time>2020-07-13T08:16:43Z</time>
      </trkpt>
      <trkpt lat="47.775677" lon="7.531382">
        <ele>270.0</ele>
        <time>2020-07-13T08:16:44Z</time>
      </trkpt>
      <trkpt lat="47.775547" lon="7.531414">
        <ele>270.0</ele>
        <time>2020-07-13T08:16:47Z</time>
      </trkpt>
      <trkpt lat="47.775464" lon="7.531451">
        <ele>271.0</ele>
        <time>2020-07-13T08:16:49Z</time>
      </trkpt>
      <trkpt lat="47.775384" lon="7.531473">
        <ele>271.0</ele>
        <time>2020-07-13T08:16:51Z</time>
      </trkpt>
      <trkpt lat="47.775296" lon="7.531481">
        <ele>272.0</ele>
        <time>2020-07-13T08:16:53Z</time>
      </trkpt>
      <trkpt lat="47.775165" lon="7.531491">
        <ele>272.0</ele>
        <time>2020-07-13T08:16:56Z</time>
      </trkpt>
      <trkpt lat="47.775071" lon="7.531511">
        <ele>273.0</ele>
        <time>2020-07-13T08:16:58Z</time>
      </trkpt>
      <trkpt lat="47.774982" lon="7.531528">
        <ele>274.0</ele>
        <time>2020-07-13T08:17:00Z</time>
      </trkpt>
      <trkpt lat="47.774814" lon="7.531527">
        <ele>273.0</ele>
        <time>2020-07-13T08:17:03Z</time>
      </trkpt>
      <trkpt lat="47.774694" lon="7.531517">
        <ele>274.0</ele>
        <time>2020-07-13T08:17:05Z</time>
      </trkpt>
      <trkpt lat="47.774632" lon="7.53152">
        <ele>274.0</ele>
        <time>2020-07-13T08:17:06Z</time>
      </trkpt>
      <trkpt lat="47.774367" lon="7.531559">
        <ele>273.0</ele>
        <time>2020-07-13T08:17:10Z</time>
      </trkpt>
      <trkpt lat="47.774237" lon="7.531581">
        <ele>273.0</ele>
        <time>2020-07-13T08:17:12Z</time>
      </trkpt>
      <trkpt lat="47.774105" lon="7.531609">
        <ele>273.0</ele>
        <time>2020-07-13T08:17:14Z</time>
      </trkpt>
      <trkpt lat="47.773986" lon="7.531636">
        <ele>273.0</ele>
        <time>2020-07-13T08:17:16Z</time>
      </trkpt>
      <trkpt lat="47.773869" lon="7.531662">
        <ele>273.0</ele>
        <time>2020-07-13T08:17:18Z</time>
      </trkpt>
      <trkpt lat="47.773746" lon="7.531686">
        <ele>272.0</ele>
        <time>2020-07-13T08:17:20Z</time>
      </trkpt>
      <trkpt lat="47.773628" lon="7.531717">
        <ele>272.0</ele>
        <time>2020-07-13T08:17:22Z</time>
      </trkpt>
      <trkpt lat="47.773451" lon="7.531773">
        <ele>272.0</ele>
        <time>2020-07-13T08:17:25Z</time>
      </trkpt>
      <trkpt lat="47.77334" lon="7.531795">
        <ele>273.0</ele>
        <time>2020-07-13T08:17:27Z</time>
      </trkpt>
      <trkpt lat="47.77323" lon="7.531818">
        <ele>273.0</ele>
        <time>2020-07-13T08:17:29Z</time>
      </trkpt>
      <trkpt lat="47.773117" lon="7.531854">
        <ele>273.0</ele>
        <time>2020-07-13T08:17:31Z</time>
      </trkpt>
      <trkpt lat="47.773007" lon="7.531883">
        <ele>273.0</ele>
        <time>2020-07-13T08:17:33Z</time>
      </trkpt>
      <trkpt lat="47.77289" lon="7.531924">
        <ele>272.0</ele>
        <time>2020-07-13T08:17:35Z</time>
      </trkpt>
      <trkpt lat="47.772777" lon="7.531957">
        <ele>272.0</ele>
        <time>2020-07-13T08:17:37Z</time>
      </trkpt>
      <trkpt lat="47.772662" lon="7.531986">
        <ele>272.0</ele>
        <time>2020-07-13T08:17:39Z</time>
      </trkpt>
      <trkpt lat="47.772545" lon="7.532024">
        <ele>272.0</ele>
        <time>2020-07-13T08:17:41Z</time>
      </trkpt>
      <trkpt lat="47.772432" lon="7.532054">
        <ele>271.0</ele>
        <time>2020-07-13T08:17:43Z</time>
      </trkpt>
      <trkpt lat="47.772318" lon="7.532086">
        <ele>271.0</ele>
        <time>2020-07-13T08:17:45Z</time>
      </trkpt>
      <trkpt lat="47.772151" lon="7.532129">
        <ele>271.0</ele>
        <time>2020-07-13T08:17:48Z</time>
      </trkpt>
      <trkpt lat="47.772045" lon="7.532157">
        <ele>271.0</ele>
        <time>2020-07-13T08:17:50Z</time>
      </trkpt>
      <trkpt lat="47.771936" lon="7.532194">
        <ele>272.0</ele>
        <time>2020-07-13T08:17:52Z</time>
      </trkpt>
      <trkpt lat="47.771768" lon="7.532254">
        <ele>271.0</ele>
        <time>2020-07-13T08:17:55Z</time>
      </trkpt>
      <trkpt lat="47.771648" lon="7.532293">
        <ele>271.0</ele>
        <time>2020-07-13T08:17:57Z</time>
      </trkpt>
      <trkpt lat="47.771531" lon="7.532333">
        <ele>272.0</ele>
        <time>2020-07-13T08:17:59Z</time>
      </trkpt>
      <trkpt lat="47.771365" lon="7.532398">
        <ele>272.0</ele>
        <time>2020-07-13T08:18:02Z</time>
      </trkpt>
      <trkpt lat="47.771256" lon="7.532444">
        <ele>273.0</ele>
        <time>2020-07-13T08:18:04Z</time>
      </trkpt>
      <trkpt lat="47.771145" lon="7.532487">
        <ele>273.0</ele>
        <time>2020-07-13T08:18:06Z</time>
      </trkpt>
      <trkpt lat="47.771035" lon="7.532533">
        <ele>273.0</ele>
        <time>2020-07-13T08:18:08Z</time>
      </trkpt>
      <trkpt lat="47.770932" lon="7.532569">
        <ele>273.0</ele>
        <time>2020-07-13T08:18:10Z</time>
      </trkpt>
      <trkpt lat="47.770821" lon="7.532603">
        <ele>272.0</ele>
        <time>2020-07-13T08:18:12Z</time>
      </trkpt>
      <trkpt lat="47.77071" lon="7.532643">
        <ele>272.0</ele>
        <time>2020-07-13T08:18:14Z</time>
      </trkpt>
      <trkpt lat="47.770602" lon="7.532698">
        <ele>272.0</ele>
        <time>2020-07-13T08:18:16Z</time>
      </trkpt>
      <trkpt lat="47.770493" lon="7.532741">
        <ele>272.0</ele>
        <time>2020-07-13T08:18:18Z</time>
      </trkpt>
      <trkpt lat="47.77038" lon="7.532777">
        <ele>272.0</ele>
        <time>2020-07-13T08:18:20Z</time>
      </trkpt>
      <trkpt lat="47.770271" lon="7.532827">
        <ele>272.0</ele>
        <time>2020-07-13T08:18:22Z</time>
      </trkpt>
      <trkpt lat="47.770169" lon="7.532869">
        <ele>272.0</ele>
        <time>2020-07-13T08:18:24Z</time>
      </trkpt>
      <trkpt lat="47.770058" lon="7.532898">
        <ele>273.0</ele>
        <time>2020-07-13T08:18:26Z</time>
      </trkpt>
      <trkpt lat="47.769946" lon="7.53294">
        <ele>273.0</ele>
        <time>2020-07-13T08:18:28Z</time>
      </trkpt>
      <trkpt lat="47.769835" lon="7.532987">
        <ele>272.0</ele>
        <time>2020-07-13T08:18:30Z</time>
      </trkpt>
      <trkpt lat="47.769729" lon="7.533041">
        <ele>273.0</ele>
        <time>2020-07-13T08:18:32Z</time>
      </trkpt>
      <trkpt lat="47.769623" lon="7.53309">
        <ele>273.0</ele>
        <time>2020-07-13T08:18:34Z</time>
      </trkpt>
      <trkpt lat="47.769516" lon="7.533137">
        <ele>273.0</ele>
        <time>2020-07-13T08:18:36Z</time>
      </trkpt>
      <trkpt lat="47.769413" lon="7.533195">
        <ele>273.0</ele>
        <time>2020-07-13T08:18:38Z</time>
      </trkpt>
      <trkpt lat="47.769301" lon="7.533243">
        <ele>272.0</ele>
        <time>2020-07-13T08:18:40Z</time>
      </trkpt>
      <trkpt lat="47.769195" lon="7.533286">
        <ele>272.0</ele>
        <time>2020-07-13T08:18:42Z</time>
      </trkpt>
      <trkpt lat="47.769091" lon="7.533334">
        <ele>272.0</ele>
        <time>2020-07-13T08:18:44Z</time>
      </trkpt>
      <trkpt lat="47.768984" lon="7.533385">
        <ele>273.0</ele>
        <time>2020-07-13T08:18:46Z</time>
      </trkpt>
      <trkpt lat="47.76888" lon="7.533437">
        <ele>273.0</ele>
        <time>2020-07-13T08:18:48Z</time>
      </trkpt>
      <trkpt lat="47.768778" lon="7.533496">
        <ele>273.0</ele>
        <time>2020-07-13T08:18:50Z</time>
      </trkpt>
      <trkpt lat="47.768676" lon="7.533554">
        <ele>274.0</ele>
        <time>2020-07-13T08:18:52Z</time>
      </trkpt>
      <trkpt lat="47.768574" lon="7.533618">
        <ele>274.0</ele>
        <time>2020-07-13T08:18:54Z</time>
      </trkpt>
      <trkpt lat="47.768473" lon="7.533674">
        <ele>275.0</ele>
        <time>2020-07-13T08:18:56Z</time>
      </trkpt>
      <trkpt lat="47.768383" lon="7.533762">
        <ele>275.0</ele>
        <time>2020-07-13T08:18:58Z</time>
      </trkpt>
      <trkpt lat="47.76832" lon="7.53388">
        <ele>274.0</ele>
        <time>2020-07-13T08:19:00Z</time>
      </trkpt>
      <trkpt lat="47.768287" lon="7.534016">
        <ele>274.0</ele>
        <time>2020-07-13T08:19:02Z</time>
      </trkpt>
      <trkpt lat="47.768294" lon="7.534144">
        <ele>273.0</ele>
        <time>2020-07-13T08:19:04Z</time>
      </trkpt>
      <trkpt lat="47.768301" lon="7.534279">
        <ele>273.0</ele>
        <time>2020-07-13T08:19:06Z</time>
      </trkpt>
      <trkpt lat="47.768284" lon="7.534409">
        <ele>273.0</ele>
        <time>2020-07-13T08:19:08Z</time>
      </trkpt>
      <trkpt lat="47.768246" lon="7.534519">
        <ele>273.0</ele>
        <time>2020-07-13T08:19:10Z</time>
      </trkpt>
      <trkpt lat="47.768181" lon="7.534556">
        <ele>273.0</ele>
        <time>2020-07-13T08:19:12Z</time>
      </trkpt>
      <trkpt lat="47.768125" lon="7.534594">
        <ele>273.0</ele>
        <time>2020-07-13T08:19:14Z</time>
      </trkpt>
      <trkpt lat="47.768082" lon="7.534616">
        <ele>273.0</ele>
        <time>2020-07-13T08:19:16Z</time>
      </trkpt>
      <trkpt lat="47.768066" lon="7.534605">
        <ele>273.0</ele>
        <time>2020-07-13T08:19:18Z</time>
      </trkpt>
      <trkpt lat="47.76807" lon="7.534607">
        <ele>273.0</ele>
        <time>2020-07-13T08:19:20Z</time>
      </trkpt>
      <trkpt lat="47.768079" lon="7.534613">
        <ele>273.0</ele>
        <time>2020-07-13T08:19:22Z</time>
      </trkpt>
      <trkpt lat="47.768082" lon="7.534614">
        <ele>273.0</ele>
        <time>2020-07-13T08:19:24Z</time>
      </trkpt>
      <trkpt lat="47.768082" lon="7.534614">
        <ele>273.0</ele>
        <time>2020-07-13T08:19:31Z</time>
      </trkpt>
      <trkpt lat="47.768082" lon="7.534614">
        <ele>273.0</ele>
        <time>2020-07-13T08:19:33Z</time>
      </trkpt>
      <trkpt lat="47.768082" lon="7.534614">
        <ele>273.0</ele>
        <time>2020-07-13T08:19:35Z</time>
      </trkpt>
      <trkpt lat="47.768082" lon="7.534614">
        <ele>273.0</ele>
        <time>2020-07-13T08:19:37Z</time>
      </trkpt>
      <trkpt lat="47.768082" lon="7.534614">
        <ele>273.0</ele>
        <time>2020-07-13T08:19:39Z</time>
      </trkpt>
      <trkpt lat="47.768082" lon="7.534614">
        <ele>273.0</ele>
        <time>2020-07-13T08:19:41Z</time>
      </trkpt>
      <trkpt lat="47.768082" lon="7.534614">
        <ele>273.0</ele>
        <time>2020-07-13T08:19:43Z</time>
      </trkpt>
      <trkpt lat="47.768082" lon="7.534614">
        <ele>273.0</ele>
        <time>2020-07-13T08:19:45Z</time>
      </trkpt>
      <trkpt lat="47.768082" lon="7.534614">
        <ele>273.0</ele>
        <time>2020-07-13T08:19:46Z</time>
      </trkpt>
      <trkpt lat="47.768082" lon="7.534614">
        <ele>273.0</ele>
        <time>2020-07-13T08:19:49Z</time>
      </trkpt>
      <trkpt lat="47.768082" lon="7.534614">
        <ele>273.0</ele>
        <time>2020-07-13T08:19:51Z</time>
      </trkpt>
      <trkpt lat="47.768082" lon="7.534614">
        <ele>273.0</ele>
        <time>2020-07-13T08:19:53Z</time>
      </trkpt>
      <trkpt lat="47.768065" lon="7.534604">
        <ele>273.0</ele>
        <time>2020-07-13T08:19:55Z</time>
      </trkpt>
      <trkpt lat="47.768041" lon="7.534581">
        <ele>273.0</ele>
        <time>2020-07-13T08:19:57Z</time>
      </trkpt>
      <trkpt lat="47.768003" lon="7.534524">
        <ele>273.0</ele>
        <time>2020-07-13T08:19:59Z</time>
      </trkpt>
      <trkpt lat="47.767955" lon="7.534445">
        <ele>273.0</ele>
        <time>2020-07-13T08:20:01Z</time>
      </trkpt>
      <trkpt lat="47.767907" lon="7.534352">
        <ele>273.0</ele>
        <time>2020-07-13T08:20:03Z</time>
      </trkpt>
      <trkpt lat="47.76785" lon="7.534251">
        <ele>274.0</ele>
        <time>2020-07-13T08:20:05Z</time>
      </trkpt>
      <trkpt lat="47.767772" lon="7.53418">
        <ele>274.0</ele>
        <time>2020-07-13T08:20:07Z</time>
      </trkpt>
      <trkpt lat="47.767675" lon="7.534159">
        <ele>273.0</ele>
        <time>2020-07-13T08:20:09Z</time>
      </trkpt>
      <trkpt lat="47.76757" lon="7.534185">
        <ele>272.0</ele>
        <time>2020-07-13T08:20:11Z</time>
      </trkpt>
      <trkpt lat="47.76746" lon="7.534222">
        <ele>270.0</ele>
        <time>2020-07-13T08:20:13Z</time>
      </trkpt>
      <trkpt lat="47.767348" lon="7.534261">
        <ele>270.0</ele>
        <time>2020-07-13T08:20:15Z</time>
      </trkpt>
      <trkpt lat="47.767239" lon="7.53432">
        <ele>269.0</ele>
        <time>2020-07-13T08:20:17Z</time>
      </trkpt>
      <trkpt lat="47.767137" lon="7.534381">
        <ele>268.0</ele>
        <time>2020-07-13T08:20:19Z</time>
      </trkpt>
      <trkpt lat="47.767038" lon="7.534429">
        <ele>268.0</ele>
        <time>2020-07-13T08:20:21Z</time>
      </trkpt>
      <trkpt lat="47.766939" lon="7.534479">
        <ele>267.0</ele>
        <time>2020-07-13T08:20:23Z</time>
      </trkpt>
      <trkpt lat="47.766842" lon="7.534535">
        <ele>266.0</ele>
        <time>2020-07-13T08:20:25Z</time>
      </trkpt>
      <trkpt lat="47.766749" lon="7.534588">
        <ele>266.0</ele>
        <time>2020-07-13T08:20:27Z</time>
      </trkpt>
      <trkpt lat="47.76665" lon="7.534646">
        <ele>266.0</ele>
        <time>2020-07-13T08:20:29Z</time>
      </trkpt>
      <trkpt lat="47.766547" lon="7.534701">
        <ele>266.0</ele>
        <time>2020-07-13T08:20:31Z</time>
      </trkpt>
      <trkpt lat="47.766443" lon="7.534763">
        <ele>266.0</ele>
        <time>2020-07-13T08:20:33Z</time>
      </trkpt>
      <trkpt lat="47.766341" lon="7.534826">
        <ele>267.0</ele>
        <time>2020-07-13T08:20:35Z</time>
      </trkpt>
      <trkpt lat="47.766242" lon="7.534879">
        <ele>266.0</ele>
        <time>2020-07-13T08:20:37Z</time>
      </trkpt>
      <trkpt lat="47.766145" lon="7.534928">
        <ele>266.0</ele>
        <time>2020-07-13T08:20:39Z</time>
      </trkpt>
      <trkpt lat="47.766045" lon="7.534998">
        <ele>267.0</ele>
        <time>2020-07-13T08:20:41Z</time>
      </trkpt>
      <trkpt lat="47.765941" lon="7.535065">
        <ele>267.0</ele>
        <time>2020-07-13T08:20:43Z</time>
      </trkpt>
      <trkpt lat="47.765824" lon="7.535126">
        <ele>267.0</ele>
        <time>2020-07-13T08:20:45Z</time>
      </trkpt>
      <trkpt lat="47.765721" lon="7.535184">
        <ele>268.0</ele>
        <time>2020-07-13T08:20:47Z</time>
      </trkpt>
      <trkpt lat="47.765617" lon="7.535244">
        <ele>267.0</ele>
        <time>2020-07-13T08:20:49Z</time>
      </trkpt>
      <trkpt lat="47.765513" lon="7.535294">
        <ele>268.0</ele>
        <time>2020-07-13T08:20:51Z</time>
      </trkpt>
      <trkpt lat="47.765411" lon="7.535351">
        <ele>268.0</ele>
        <time>2020-07-13T08:20:53Z</time>
      </trkpt>
      <trkpt lat="47.765308" lon="7.535404">
        <ele>268.0</ele>
        <time>2020-07-13T08:20:55Z</time>
      </trkpt>
      <trkpt lat="47.765206" lon="7.53546">
        <ele>268.0</ele>
        <time>2020-07-13T08:20:57Z</time>
      </trkpt>
      <trkpt lat="47.765102" lon="7.535504">
        <ele>267.0</ele>
        <time>2020-07-13T08:20:59Z</time>
      </trkpt>
      <trkpt lat="47.765003" lon="7.535549">
        <ele>267.0</ele>
        <time>2020-07-13T08:21:01Z</time>
      </trkpt>
      <trkpt lat="47.764897" lon="7.535606">
        <ele>266.0</ele>
        <time>2020-07-13T08:21:03Z</time>
      </trkpt>
      <trkpt lat="47.764789" lon="7.53567">
        <ele>266.0</ele>
        <time>2020-07-13T08:21:05Z</time>
      </trkpt>
      <trkpt lat="47.764683" lon="7.535729">
        <ele>267.0</ele>
        <time>2020-07-13T08:21:07Z</time>
      </trkpt>
      <trkpt lat="47.76458" lon="7.535781">
        <ele>267.0</ele>
        <time>2020-07-13T08:21:09Z</time>
      </trkpt>
      <trkpt lat="47.764479" lon="7.53584">
        <ele>267.0</ele>
        <time>2020-07-13T08:21:11Z</time>
      </trkpt>
      <trkpt lat="47.764377" lon="7.535899">
        <ele>266.0</ele>
        <time>2020-07-13T08:21:13Z</time>
      </trkpt>
      <trkpt lat="47.764268" lon="7.535964">
        <ele>266.0</ele>
        <time>2020-07-13T08:21:15Z</time>
      </trkpt>
      <trkpt lat="47.764161" lon="7.536028">
        <ele>266.0</ele>
        <time>2020-07-13T08:21:17Z</time>
      </trkpt>
      <trkpt lat="47.764054" lon="7.53609">
        <ele>266.0</ele>
        <time>2020-07-13T08:21:19Z</time>
      </trkpt>
      <trkpt lat="47.763946" lon="7.536145">
        <ele>266.0</ele>
        <time>2020-07-13T08:21:21Z</time>
      </trkpt>
      <trkpt lat="47.763844" lon="7.536201">
        <ele>266.0</ele>
        <time>2020-07-13T08:21:23Z</time>
      </trkpt>
      <trkpt lat="47.763735" lon="7.53626">
        <ele>266.0</ele>
        <time>2020-07-13T08:21:25Z</time>
      </trkpt>
      <trkpt lat="47.763629" lon="7.536317">
        <ele>267.0</ele>
        <time>2020-07-13T08:21:27Z</time>
      </trkpt>
      <trkpt lat="47.763515" lon="7.536377">
        <ele>267.0</ele>
        <time>2020-07-13T08:21:29Z</time>
      </trkpt>
      <trkpt lat="47.763398" lon="7.536438">
        <ele>267.0</ele>
        <time>2020-07-13T08:21:31Z</time>
      </trkpt>
      <trkpt lat="47.763293" lon="7.536497">
        <ele>267.0</ele>
        <time>2020-07-13T08:21:33Z</time>
      </trkpt>
      <trkpt lat="47.763142" lon="7.536591">
        <ele>266.0</ele>
        <time>2020-07-13T08:21:36Z</time>
      </trkpt>
      <trkpt lat="47.763091" lon="7.536618">
        <ele>266.0</ele>
        <time>2020-07-13T08:21:37Z</time>
      </trkpt>
      <trkpt lat="47.762987" lon="7.53667">
        <ele>266.0</ele>
        <time>2020-07-13T08:21:39Z</time>
      </trkpt>
      <trkpt lat="47.76283" lon="7.536759">
        <ele>266.0</ele>
        <time>2020-07-13T08:21:42Z</time>
      </trkpt>
      <trkpt lat="47.76272" lon="7.536816">
        <ele>266.0</ele>
        <time>2020-07-13T08:21:44Z</time>
      </trkpt>
      <trkpt lat="47.762607" lon="7.536877">
        <ele>267.0</ele>
        <time>2020-07-13T08:21:46Z</time>
      </trkpt>
      <trkpt lat="47.762498" lon="7.536939">
        <ele>267.0</ele>
        <time>2020-07-13T08:21:48Z</time>
      </trkpt>
      <trkpt lat="47.76239" lon="7.536999">
        <ele>268.0</ele>
        <time>2020-07-13T08:21:50Z</time>
      </trkpt>
      <trkpt lat="47.762278" lon="7.537051">
        <ele>268.0</ele>
        <time>2020-07-13T08:21:52Z</time>
      </trkpt>
      <trkpt lat="47.762171" lon="7.537109">
        <ele>269.0</ele>
        <time>2020-07-13T08:21:54Z</time>
      </trkpt>
      <trkpt lat="47.762072" lon="7.537181">
        <ele>269.0</ele>
        <time>2020-07-13T08:21:56Z</time>
      </trkpt>
      <trkpt lat="47.761966" lon="7.537244">
        <ele>269.0</ele>
        <time>2020-07-13T08:21:58Z</time>
      </trkpt>
      <trkpt lat="47.761861" lon="7.537304">
        <ele>269.0</ele>
        <time>2020-07-13T08:22:00Z</time>
      </trkpt>
      <trkpt lat="47.761759" lon="7.537366">
        <ele>269.0</ele>
        <time>2020-07-13T08:22:02Z</time>
      </trkpt>
      <trkpt lat="47.761654" lon="7.537427">
        <ele>270.0</ele>
        <time>2020-07-13T08:22:04Z</time>
      </trkpt>
      <trkpt lat="47.761548" lon="7.537491">
        <ele>270.0</ele>
        <time>2020-07-13T08:22:06Z</time>
      </trkpt>
      <trkpt lat="47.76144" lon="7.53755">
        <ele>270.0</ele>
        <time>2020-07-13T08:22:08Z</time>
      </trkpt>
      <trkpt lat="47.761328" lon="7.537606">
        <ele>270.0</ele>
        <time>2020-07-13T08:22:10Z</time>
      </trkpt>
      <trkpt lat="47.761225" lon="7.537662">
        <ele>270.0</ele>
        <time>2020-07-13T08:22:12Z</time>
      </trkpt>
      <trkpt lat="47.761121" lon="7.53772">
        <ele>269.0</ele>
        <time>2020-07-13T08:22:14Z</time>
      </trkpt>
      <trkpt lat="47.761023" lon="7.537785">
        <ele>269.0</ele>
        <time>2020-07-13T08:22:16Z</time>
      </trkpt>
      <trkpt lat="47.760922" lon="7.537843">
        <ele>269.0</ele>
        <time>2020-07-13T08:22:18Z</time>
      </trkpt>
      <trkpt lat="47.760818" lon="7.537906">
        <ele>270.0</ele>
        <time>2020-07-13T08:22:20Z</time>
      </trkpt>
      <trkpt lat="47.760712" lon="7.537978">
        <ele>270.0</ele>
        <time>2020-07-13T08:22:22Z</time>
      </trkpt>
      <trkpt lat="47.760606" lon="7.538038">
        <ele>270.0</ele>
        <time>2020-07-13T08:22:24Z</time>
      </trkpt>
      <trkpt lat="47.760506" lon="7.538093">
        <ele>270.0</ele>
        <time>2020-07-13T08:22:26Z</time>
      </trkpt>
      <trkpt lat="47.760408" lon="7.538145">
        <ele>270.0</ele>
        <time>2020-07-13T08:22:28Z</time>
      </trkpt>
      <trkpt lat="47.760315" lon="7.538202">
        <ele>270.0</ele>
        <time>2020-07-13T08:22:30Z</time>
      </trkpt>
      <trkpt lat="47.760214" lon="7.538261">
        <ele>270.0</ele>
        <time>2020-07-13T08:22:32Z</time>
      </trkpt>
      <trkpt lat="47.760108" lon="7.538318">
        <ele>271.0</ele>
        <time>2020-07-13T08:22:34Z</time>
      </trkpt>
      <trkpt lat="47.760007" lon="7.538377">
        <ele>271.0</ele>
        <time>2020-07-13T08:22:36Z</time>
      </trkpt>
      <trkpt lat="47.759907" lon="7.538437">
        <ele>270.0</ele>
        <time>2020-07-13T08:22:38Z</time>
      </trkpt>
      <trkpt lat="47.759802" lon="7.538491">
        <ele>270.0</ele>
        <time>2020-07-13T08:22:40Z</time>
      </trkpt>
      <trkpt lat="47.759697" lon="7.538547">
        <ele>270.0</ele>
        <time>2020-07-13T08:22:42Z</time>
      </trkpt>
      <trkpt lat="47.7596" lon="7.538599">
        <ele>270.0</ele>
        <time>2020-07-13T08:22:44Z</time>
      </trkpt>
      <trkpt lat="47.759499" lon="7.538652">
        <ele>270.0</ele>
        <time>2020-07-13T08:22:46Z</time>
      </trkpt>
      <trkpt lat="47.759398" lon="7.538697">
        <ele>270.0</ele>
        <time>2020-07-13T08:22:48Z</time>
      </trkpt>
      <trkpt lat="47.759298" lon="7.538746">
        <ele>269.0</ele>
        <time>2020-07-13T08:22:50Z</time>
      </trkpt>
      <trkpt lat="47.759195" lon="7.538799">
        <ele>269.0</ele>
        <time>2020-07-13T08:22:52Z</time>
      </trkpt>
      <trkpt lat="47.759088" lon="7.538856">
        <ele>270.0</ele>
        <time>2020-07-13T08:22:54Z</time>
      </trkpt>
      <trkpt lat="47.758985" lon="7.538921">
        <ele>270.0</ele>
        <time>2020-07-13T08:22:56Z</time>
      </trkpt>
      <trkpt lat="47.758885" lon="7.538983">
        <ele>271.0</ele>
        <time>2020-07-13T08:22:58Z</time>
      </trkpt>
      <trkpt lat="47.758782" lon="7.539042">
        <ele>271.0</ele>
        <time>2020-07-13T08:23:00Z</time>
      </trkpt>
      <trkpt lat="47.758681" lon="7.539102">
        <ele>271.0</ele>
        <time>2020-07-13T08:23:02Z</time>
      </trkpt>
      <trkpt lat="47.758576" lon="7.539158">
        <ele>272.0</ele>
        <time>2020-07-13T08:23:04Z</time>
      </trkpt>
      <trkpt lat="47.758468" lon="7.539215">
        <ele>272.0</ele>
        <time>2020-07-13T08:23:06Z</time>
      </trkpt>
      <trkpt lat="47.758365" lon="7.539273">
        <ele>272.0</ele>
        <time>2020-07-13T08:23:08Z</time>
      </trkpt>
      <trkpt lat="47.758261" lon="7.539334">
        <ele>272.0</ele>
        <time>2020-07-13T08:23:10Z</time>
      </trkpt>
      <trkpt lat="47.758162" lon="7.539395">
        <ele>272.0</ele>
        <time>2020-07-13T08:23:12Z</time>
      </trkpt>
      <trkpt lat="47.758051" lon="7.539453">
        <ele>272.0</ele>
        <time>2020-07-13T08:23:14Z</time>
      </trkpt>
      <trkpt lat="47.757945" lon="7.539512">
        <ele>272.0</ele>
        <time>2020-07-13T08:23:16Z</time>
      </trkpt>
      <trkpt lat="47.757793" lon="7.539591">
        <ele>272.0</ele>
        <time>2020-07-13T08:23:19Z</time>
      </trkpt>
      <trkpt lat="47.757692" lon="7.539655">
        <ele>272.0</ele>
        <time>2020-07-13T08:23:21Z</time>
      </trkpt>
      <trkpt lat="47.757591" lon="7.539716">
        <ele>272.0</ele>
        <time>2020-07-13T08:23:23Z</time>
      </trkpt>
      <trkpt lat="47.757486" lon="7.539781">
        <ele>272.0</ele>
        <time>2020-07-13T08:23:25Z</time>
      </trkpt>
      <trkpt lat="47.757386" lon="7.539843">
        <ele>272.0</ele>
        <time>2020-07-13T08:23:27Z</time>
      </trkpt>
      <trkpt lat="47.757277" lon="7.539889">
        <ele>272.0</ele>
        <time>2020-07-13T08:23:29Z</time>
      </trkpt>
      <trkpt lat="47.757165" lon="7.539942">
        <ele>272.0</ele>
        <time>2020-07-13T08:23:31Z</time>
      </trkpt>
      <trkpt lat="47.757057" lon="7.539991">
        <ele>271.0</ele>
        <time>2020-07-13T08:23:33Z</time>
      </trkpt>
      <trkpt lat="47.75695" lon="7.54004">
        <ele>272.0</ele>
        <time>2020-07-13T08:23:35Z</time>
      </trkpt>
      <trkpt lat="47.756844" lon="7.540086">
        <ele>271.0</ele>
        <time>2020-07-13T08:23:37Z</time>
      </trkpt>
      <trkpt lat="47.756741" lon="7.540144">
        <ele>272.0</ele>
        <time>2020-07-13T08:23:39Z</time>
      </trkpt>
      <trkpt lat="47.756636" lon="7.540208">
        <ele>271.0</ele>
        <time>2020-07-13T08:23:41Z</time>
      </trkpt>
      <trkpt lat="47.756532" lon="7.540271">
        <ele>271.0</ele>
        <time>2020-07-13T08:23:43Z</time>
      </trkpt>
      <trkpt lat="47.756428" lon="7.540335">
        <ele>270.0</ele>
        <time>2020-07-13T08:23:45Z</time>
      </trkpt>
      <trkpt lat="47.756319" lon="7.5404">
        <ele>271.0</ele>
        <time>2020-07-13T08:23:47Z</time>
      </trkpt>
      <trkpt lat="47.756215" lon="7.540456">
        <ele>272.0</ele>
        <time>2020-07-13T08:23:49Z</time>
      </trkpt>
      <trkpt lat="47.756112" lon="7.540514">
        <ele>272.0</ele>
        <time>2020-07-13T08:23:51Z</time>
      </trkpt>
      <trkpt lat="47.756009" lon="7.540578">
        <ele>273.0</ele>
        <time>2020-07-13T08:23:53Z</time>
      </trkpt>
      <trkpt lat="47.755908" lon="7.540631">
        <ele>273.0</ele>
        <time>2020-07-13T08:23:55Z</time>
      </trkpt>
      <trkpt lat="47.755807" lon="7.540694">
        <ele>273.0</ele>
        <time>2020-07-13T08:23:57Z</time>
      </trkpt>
      <trkpt lat="47.755708" lon="7.540753">
        <ele>273.0</ele>
        <time>2020-07-13T08:23:59Z</time>
      </trkpt>
      <trkpt lat="47.755607" lon="7.540814">
        <ele>273.0</ele>
        <time>2020-07-13T08:24:01Z</time>
      </trkpt>
      <trkpt lat="47.755507" lon="7.540874">
        <ele>272.0</ele>
        <time>2020-07-13T08:24:03Z</time>
      </trkpt>
      <trkpt lat="47.755403" lon="7.540932">
        <ele>272.0</ele>
        <time>2020-07-13T08:24:05Z</time>
      </trkpt>
      <trkpt lat="47.755297" lon="7.540986">
        <ele>271.0</ele>
        <time>2020-07-13T08:24:07Z</time>
      </trkpt>
      <trkpt lat="47.755192" lon="7.541044">
        <ele>271.0</ele>
        <time>2020-07-13T08:24:09Z</time>
      </trkpt>
      <trkpt lat="47.755081" lon="7.541103">
        <ele>271.0</ele>
        <time>2020-07-13T08:24:11Z</time>
      </trkpt>
      <trkpt lat="47.754972" lon="7.541168">
        <ele>271.0</ele>
        <time>2020-07-13T08:24:13Z</time>
      </trkpt>
      <trkpt lat="47.754868" lon="7.541231">
        <ele>271.0</ele>
        <time>2020-07-13T08:24:15Z</time>
      </trkpt>
      <trkpt lat="47.754763" lon="7.541284">
        <ele>271.0</ele>
        <time>2020-07-13T08:24:17Z</time>
      </trkpt>
      <trkpt lat="47.754657" lon="7.541327">
        <ele>271.0</ele>
        <time>2020-07-13T08:24:19Z</time>
      </trkpt>
      <trkpt lat="47.754549" lon="7.54138">
        <ele>271.0</ele>
        <time>2020-07-13T08:24:21Z</time>
      </trkpt>
      <trkpt lat="47.754442" lon="7.541437">
        <ele>271.0</ele>
        <time>2020-07-13T08:24:23Z</time>
      </trkpt>
      <trkpt lat="47.754333" lon="7.541495">
        <ele>271.0</ele>
        <time>2020-07-13T08:24:25Z</time>
      </trkpt>
      <trkpt lat="47.754224" lon="7.541542">
        <ele>270.0</ele>
        <time>2020-07-13T08:24:27Z</time>
      </trkpt>
      <trkpt lat="47.754122" lon="7.541598">
        <ele>270.0</ele>
        <time>2020-07-13T08:24:29Z</time>
      </trkpt>
      <trkpt lat="47.754014" lon="7.54166">
        <ele>271.0</ele>
        <time>2020-07-13T08:24:31Z</time>
      </trkpt>
      <trkpt lat="47.753902" lon="7.541719">
        <ele>271.0</ele>
        <time>2020-07-13T08:24:33Z</time>
      </trkpt>
      <trkpt lat="47.753795" lon="7.541779">
        <ele>271.0</ele>
        <time>2020-07-13T08:24:35Z</time>
      </trkpt>
      <trkpt lat="47.753685" lon="7.541839">
        <ele>271.0</ele>
        <time>2020-07-13T08:24:37Z</time>
      </trkpt>
      <trkpt lat="47.753578" lon="7.541907">
        <ele>271.0</ele>
        <time>2020-07-13T08:24:39Z</time>
      </trkpt>
      <trkpt lat="47.753472" lon="7.54196">
        <ele>271.0</ele>
        <time>2020-07-13T08:24:41Z</time>
      </trkpt>
      <trkpt lat="47.753368" lon="7.542021">
        <ele>271.0</ele>
        <time>2020-07-13T08:24:43Z</time>
      </trkpt>
      <trkpt lat="47.753275" lon="7.54208">
        <ele>271.0</ele>
        <time>2020-07-13T08:24:45Z</time>
      </trkpt>
      <trkpt lat="47.753176" lon="7.542141">
        <ele>270.0</ele>
        <time>2020-07-13T08:24:47Z</time>
      </trkpt>
      <trkpt lat="47.75307" lon="7.542202">
        <ele>270.0</ele>
        <time>2020-07-13T08:24:49Z</time>
      </trkpt>
      <trkpt lat="47.75296" lon="7.542256">
        <ele>270.0</ele>
        <time>2020-07-13T08:24:51Z</time>
      </trkpt>
      <trkpt lat="47.752855" lon="7.542306">
        <ele>270.0</ele>
        <time>2020-07-13T08:24:53Z</time>
      </trkpt>
      <trkpt lat="47.752746" lon="7.542367">
        <ele>270.0</ele>
        <time>2020-07-13T08:24:55Z</time>
      </trkpt>
      <trkpt lat="47.752644" lon="7.542425">
        <ele>270.0</ele>
        <time>2020-07-13T08:24:57Z</time>
      </trkpt>
      <trkpt lat="47.752539" lon="7.542482">
        <ele>270.0</ele>
        <time>2020-07-13T08:24:59Z</time>
      </trkpt>
      <trkpt lat="47.752382" lon="7.542574">
        <ele>270.0</ele>
        <time>2020-07-13T08:25:02Z</time>
      </trkpt>
      <trkpt lat="47.752279" lon="7.542628">
        <ele>270.0</ele>
        <time>2020-07-13T08:25:04Z</time>
      </trkpt>
      <trkpt lat="47.752179" lon="7.542677">
        <ele>270.0</ele>
        <time>2020-07-13T08:25:06Z</time>
      </trkpt>
      <trkpt lat="47.752069" lon="7.542727">
        <ele>269.0</ele>
        <time>2020-07-13T08:25:08Z</time>
      </trkpt>
      <trkpt lat="47.751961" lon="7.542787">
        <ele>269.0</ele>
        <time>2020-07-13T08:25:10Z</time>
      </trkpt>
      <trkpt lat="47.751852" lon="7.54284">
        <ele>270.0</ele>
        <time>2020-07-13T08:25:12Z</time>
      </trkpt>
      <trkpt lat="47.751747" lon="7.542895">
        <ele>270.0</ele>
        <time>2020-07-13T08:25:14Z</time>
      </trkpt>
      <trkpt lat="47.751649" lon="7.542951">
        <ele>270.0</ele>
        <time>2020-07-13T08:25:16Z</time>
      </trkpt>
      <trkpt lat="47.75155" lon="7.543012">
        <ele>270.0</ele>
        <time>2020-07-13T08:25:18Z</time>
      </trkpt>
      <trkpt lat="47.751449" lon="7.543072">
        <ele>270.0</ele>
        <time>2020-07-13T08:25:20Z</time>
      </trkpt>
      <trkpt lat="47.751342" lon="7.54313">
        <ele>270.0</ele>
        <time>2020-07-13T08:25:22Z</time>
      </trkpt>
      <trkpt lat="47.751233" lon="7.543194">
        <ele>270.0</ele>
        <time>2020-07-13T08:25:24Z</time>
      </trkpt>
      <trkpt lat="47.75113" lon="7.543253">
        <ele>270.0</ele>
        <time>2020-07-13T08:25:26Z</time>
      </trkpt>
      <trkpt lat="47.751026" lon="7.543313">
        <ele>270.0</ele>
        <time>2020-07-13T08:25:28Z</time>
      </trkpt>
      <trkpt lat="47.750918" lon="7.543374">
        <ele>270.0</ele>
        <time>2020-07-13T08:25:30Z</time>
      </trkpt>
      <trkpt lat="47.750806" lon="7.543445">
        <ele>269.0</ele>
        <time>2020-07-13T08:25:32Z</time>
      </trkpt>
      <trkpt lat="47.750698" lon="7.543506">
        <ele>270.0</ele>
        <time>2020-07-13T08:25:34Z</time>
      </trkpt>
      <trkpt lat="47.750591" lon="7.543562">
        <ele>270.0</ele>
        <time>2020-07-13T08:25:36Z</time>
      </trkpt>
      <trkpt lat="47.75048" lon="7.543621">
        <ele>269.0</ele>
        <time>2020-07-13T08:25:38Z</time>
      </trkpt>
      <trkpt lat="47.750367" lon="7.543676">
        <ele>269.0</ele>
        <time>2020-07-13T08:25:40Z</time>
      </trkpt>
      <trkpt lat="47.750256" lon="7.543738">
        <ele>269.0</ele>
        <time>2020-07-13T08:25:42Z</time>
      </trkpt>
      <trkpt lat="47.750148" lon="7.543799">
        <ele>270.0</ele>
        <time>2020-07-13T08:25:44Z</time>
      </trkpt>
      <trkpt lat="47.750039" lon="7.54386">
        <ele>270.0</ele>
        <time>2020-07-13T08:25:46Z</time>
      </trkpt>
      <trkpt lat="47.749929" lon="7.54393">
        <ele>270.0</ele>
        <time>2020-07-13T08:25:48Z</time>
      </trkpt>
      <trkpt lat="47.749817" lon="7.543983">
        <ele>270.0</ele>
        <time>2020-07-13T08:25:50Z</time>
      </trkpt>
      <trkpt lat="47.749704" lon="7.544038">
        <ele>271.0</ele>
        <time>2020-07-13T08:25:52Z</time>
      </trkpt>
      <trkpt lat="47.749599" lon="7.544096">
        <ele>271.0</ele>
        <time>2020-07-13T08:25:54Z</time>
      </trkpt>
      <trkpt lat="47.74949" lon="7.544159">
        <ele>271.0</ele>
        <time>2020-07-13T08:25:56Z</time>
      </trkpt>
      <trkpt lat="47.749387" lon="7.544224">
        <ele>271.0</ele>
        <time>2020-07-13T08:25:58Z</time>
      </trkpt>
      <trkpt lat="47.749281" lon="7.544287">
        <ele>271.0</ele>
        <time>2020-07-13T08:26:00Z</time>
      </trkpt>
      <trkpt lat="47.749174" lon="7.54435">
        <ele>270.0</ele>
        <time>2020-07-13T08:26:02Z</time>
      </trkpt>
      <trkpt lat="47.749066" lon="7.544406">
        <ele>271.0</ele>
        <time>2020-07-13T08:26:04Z</time>
      </trkpt>
      <trkpt lat="47.748962" lon="7.54446">
        <ele>271.0</ele>
        <time>2020-07-13T08:26:06Z</time>
      </trkpt>
      <trkpt lat="47.748857" lon="7.544513">
        <ele>271.0</ele>
        <time>2020-07-13T08:26:08Z</time>
      </trkpt>
      <trkpt lat="47.748747" lon="7.544565">
        <ele>271.0</ele>
        <time>2020-07-13T08:26:10Z</time>
      </trkpt>
      <trkpt lat="47.748643" lon="7.544625">
        <ele>271.0</ele>
        <time>2020-07-13T08:26:12Z</time>
      </trkpt>
      <trkpt lat="47.748543" lon="7.544698">
        <ele>271.0</ele>
        <time>2020-07-13T08:26:14Z</time>
      </trkpt>
      <trkpt lat="47.748436" lon="7.54476">
        <ele>271.0</ele>
        <time>2020-07-13T08:26:16Z</time>
      </trkpt>
      <trkpt lat="47.748332" lon="7.544814">
        <ele>271.0</ele>
        <time>2020-07-13T08:26:18Z</time>
      </trkpt>
      <trkpt lat="47.748233" lon="7.544861">
        <ele>270.0</ele>
        <time>2020-07-13T08:26:20Z</time>
      </trkpt>
      <trkpt lat="47.748131" lon="7.544922">
        <ele>270.0</ele>
        <time>2020-07-13T08:26:22Z</time>
      </trkpt>
      <trkpt lat="47.748032" lon="7.544985">
        <ele>270.0</ele>
        <time>2020-07-13T08:26:24Z</time>
      </trkpt>
      <trkpt lat="47.747929" lon="7.545036">
        <ele>269.0</ele>
        <time>2020-07-13T08:26:26Z</time>
      </trkpt>
      <trkpt lat="47.747825" lon="7.545088">
        <ele>269.0</ele>
        <time>2020-07-13T08:26:28Z</time>
      </trkpt>
      <trkpt lat="47.747725" lon="7.545147">
        <ele>269.0</ele>
        <time>2020-07-13T08:26:30Z</time>
      </trkpt>
      <trkpt lat="47.747624" lon="7.545205">
        <ele>269.0</ele>
        <time>2020-07-13T08:26:32Z</time>
      </trkpt>
      <trkpt lat="47.747529" lon="7.545264">
        <ele>269.0</ele>
        <time>2020-07-13T08:26:34Z</time>
      </trkpt>
      <trkpt lat="47.747431" lon="7.545314">
        <ele>270.0</ele>
        <time>2020-07-13T08:26:36Z</time>
      </trkpt>
      <trkpt lat="47.747358" lon="7.545393">
        <ele>269.0</ele>
        <time>2020-07-13T08:26:38Z</time>
      </trkpt>
      <trkpt lat="47.747328" lon="7.545525">
        <ele>270.0</ele>
        <time>2020-07-13T08:26:40Z</time>
      </trkpt>
      <trkpt lat="47.747325" lon="7.545671">
        <ele>270.0</ele>
        <time>2020-07-13T08:26:42Z</time>
      </trkpt>
      <trkpt lat="47.747316" lon="7.545865">
        <ele>271.0</ele>
        <time>2020-07-13T08:26:45Z</time>
      </trkpt>
      <trkpt lat="47.74731" lon="7.545983">
        <ele>271.0</ele>
        <time>2020-07-13T08:26:47Z</time>
      </trkpt>
      <trkpt lat="47.747303" lon="7.546036">
        <ele>272.0</ele>
        <time>2020-07-13T08:26:48Z</time>
      </trkpt>
      <trkpt lat="47.747285" lon="7.546207">
        <ele>272.0</ele>
        <time>2020-07-13T08:26:51Z</time>
      </trkpt>
      <trkpt lat="47.747261" lon="7.546329">
        <ele>272.0</ele>
        <time>2020-07-13T08:26:53Z</time>
      </trkpt>
      <trkpt lat="47.747212" lon="7.546439">
        <ele>272.0</ele>
        <time>2020-07-13T08:26:55Z</time>
      </trkpt>
      <trkpt lat="47.747146" lon="7.546542">
        <ele>272.0</ele>
        <time>2020-07-13T08:26:57Z</time>
      </trkpt>
      <trkpt lat="47.747076" lon="7.546627">
        <ele>273.0</ele>
        <time>2020-07-13T08:26:59Z</time>
      </trkpt>
      <trkpt lat="47.746992" lon="7.546694">
        <ele>273.0</ele>
        <time>2020-07-13T08:27:01Z</time>
      </trkpt>
      <trkpt lat="47.746919" lon="7.546777">
        <ele>273.0</ele>
        <time>2020-07-13T08:27:03Z</time>
      </trkpt>
      <trkpt lat="47.746859" lon="7.546867">
        <ele>273.0</ele>
        <time>2020-07-13T08:27:05Z</time>
      </trkpt>
      <trkpt lat="47.746768" lon="7.546931">
        <ele>273.0</ele>
        <time>2020-07-13T08:27:07Z</time>
      </trkpt>
      <trkpt lat="47.746628" lon="7.547017">
        <ele>273.0</ele>
        <time>2020-07-13T08:27:10Z</time>
      </trkpt>
      <trkpt lat="47.746531" lon="7.547069">
        <ele>273.0</ele>
        <time>2020-07-13T08:27:12Z</time>
      </trkpt>
      <trkpt lat="47.746441" lon="7.547122">
        <ele>272.0</ele>
        <time>2020-07-13T08:27:14Z</time>
      </trkpt>
      <trkpt lat="47.746348" lon="7.547168">
        <ele>272.0</ele>
        <time>2020-07-13T08:27:16Z</time>
      </trkpt>
      <trkpt lat="47.746257" lon="7.547223">
        <ele>273.0</ele>
        <time>2020-07-13T08:27:18Z</time>
      </trkpt>
      <trkpt lat="47.74616" lon="7.547274">
        <ele>273.0</ele>
        <time>2020-07-13T08:27:20Z</time>
      </trkpt>
      <trkpt lat="47.746066" lon="7.547319">
        <ele>272.0</ele>
        <time>2020-07-13T08:27:22Z</time>
      </trkpt>
      <trkpt lat="47.745968" lon="7.547374">
        <ele>273.0</ele>
        <time>2020-07-13T08:27:24Z</time>
      </trkpt>
      <trkpt lat="47.745867" lon="7.54744">
        <ele>273.0</ele>
        <time>2020-07-13T08:27:26Z</time>
      </trkpt>
      <trkpt lat="47.745713" lon="7.547517">
        <ele>272.0</ele>
        <time>2020-07-13T08:27:29Z</time>
      </trkpt>
      <trkpt lat="47.745616" lon="7.54758">
        <ele>272.0</ele>
        <time>2020-07-13T08:27:31Z</time>
      </trkpt>
      <trkpt lat="47.745518" lon="7.547636">
        <ele>272.0</ele>
        <time>2020-07-13T08:27:33Z</time>
      </trkpt>
      <trkpt lat="47.745423" lon="7.547685">
        <ele>272.0</ele>
        <time>2020-07-13T08:27:35Z</time>
      </trkpt>
      <trkpt lat="47.745335" lon="7.547739">
        <ele>271.0</ele>
        <time>2020-07-13T08:27:37Z</time>
      </trkpt>
      <trkpt lat="47.745246" lon="7.547792">
        <ele>271.0</ele>
        <time>2020-07-13T08:27:39Z</time>
      </trkpt>
      <trkpt lat="47.745163" lon="7.547834">
        <ele>272.0</ele>
        <time>2020-07-13T08:27:41Z</time>
      </trkpt>
      <trkpt lat="47.745082" lon="7.547877">
        <ele>272.0</ele>
        <time>2020-07-13T08:27:43Z</time>
      </trkpt>
      <trkpt lat="47.744991" lon="7.547897">
        <ele>272.0</ele>
        <time>2020-07-13T08:27:45Z</time>
      </trkpt>
      <trkpt lat="47.744901" lon="7.547855">
        <ele>272.0</ele>
        <time>2020-07-13T08:27:47Z</time>
      </trkpt>
      <trkpt lat="47.74483" lon="7.547755">
        <ele>272.0</ele>
        <time>2020-07-13T08:27:49Z</time>
      </trkpt>
      <trkpt lat="47.744784" lon="7.547635">
        <ele>272.0</ele>
        <time>2020-07-13T08:27:51Z</time>
      </trkpt>
      <trkpt lat="47.74475" lon="7.547508">
        <ele>272.0</ele>
        <time>2020-07-13T08:27:53Z</time>
      </trkpt>
      <trkpt lat="47.744706" lon="7.547307">
        <ele>272.0</ele>
        <time>2020-07-13T08:27:56Z</time>
      </trkpt>
      <trkpt lat="47.744672" lon="7.547087">
        <ele>272.0</ele>
        <time>2020-07-13T08:27:59Z</time>
      </trkpt>
      <trkpt lat="47.744595" lon="7.546998">
        <ele>273.0</ele>
        <time>2020-07-13T08:28:01Z</time>
      </trkpt>
      <trkpt lat="47.744484" lon="7.546991">
        <ele>273.0</ele>
        <time>2020-07-13T08:28:03Z</time>
      </trkpt>
      <trkpt lat="47.744432" lon="7.547012">
        <ele>273.0</ele>
        <time>2020-07-13T08:28:04Z</time>
      </trkpt>
      <trkpt lat="47.74433" lon="7.547057">
        <ele>272.0</ele>
        <time>2020-07-13T08:28:06Z</time>
      </trkpt>
      <trkpt lat="47.744197" lon="7.547149">
        <ele>272.0</ele>
        <time>2020-07-13T08:28:09Z</time>
      </trkpt>
      <trkpt lat="47.744106" lon="7.54723">
        <ele>271.0</ele>
        <time>2020-07-13T08:28:11Z</time>
      </trkpt>
      <trkpt lat="47.744019" lon="7.547316">
        <ele>271.0</ele>
        <time>2020-07-13T08:28:13Z</time>
      </trkpt>
      <trkpt lat="47.743938" lon="7.547411">
        <ele>271.0</ele>
        <time>2020-07-13T08:28:15Z</time>
      </trkpt>
      <trkpt lat="47.743863" lon="7.54751">
        <ele>272.0</ele>
        <time>2020-07-13T08:28:17Z</time>
      </trkpt>
      <trkpt lat="47.743787" lon="7.547607">
        <ele>273.0</ele>
        <time>2020-07-13T08:28:19Z</time>
      </trkpt>
      <trkpt lat="47.743711" lon="7.54768">
        <ele>274.0</ele>
        <time>2020-07-13T08:28:21Z</time>
      </trkpt>
      <trkpt lat="47.743561" lon="7.547693">
        <ele>274.0</ele>
        <time>2020-07-13T08:28:24Z</time>
      </trkpt>
      <trkpt lat="47.743505" lon="7.54767">
        <ele>274.0</ele>
        <time>2020-07-13T08:28:25Z</time>
      </trkpt>
      <trkpt lat="47.743324" lon="7.547617">
        <ele>274.0</ele>
        <time>2020-07-13T08:28:28Z</time>
      </trkpt>
      <trkpt lat="47.743195" lon="7.547639">
        <ele>274.0</ele>
        <time>2020-07-13T08:28:30Z</time>
      </trkpt>
      <trkpt lat="47.743134" lon="7.547655">
        <ele>274.0</ele>
        <time>2020-07-13T08:28:31Z</time>
      </trkpt>
      <trkpt lat="47.742957" lon="7.547738">
        <ele>272.0</ele>
        <time>2020-07-13T08:28:34Z</time>
      </trkpt>
      <trkpt lat="47.742845" lon="7.547807">
        <ele>271.0</ele>
        <time>2020-07-13T08:28:36Z</time>
      </trkpt>
      <trkpt lat="47.74273" lon="7.547873">
        <ele>271.0</ele>
        <time>2020-07-13T08:28:38Z</time>
      </trkpt>
      <trkpt lat="47.742573" lon="7.547966">
        <ele>271.0</ele>
        <time>2020-07-13T08:28:41Z</time>
      </trkpt>
      <trkpt lat="47.74247" lon="7.548021">
        <ele>271.0</ele>
        <time>2020-07-13T08:28:43Z</time>
      </trkpt>
      <trkpt lat="47.742311" lon="7.548112">
        <ele>271.0</ele>
        <time>2020-07-13T08:28:46Z</time>
      </trkpt>
      <trkpt lat="47.742199" lon="7.548177">
        <ele>270.0</ele>
        <time>2020-07-13T08:28:48Z</time>
      </trkpt>
      <trkpt lat="47.742091" lon="7.548244">
        <ele>270.0</ele>
        <time>2020-07-13T08:28:50Z</time>
      </trkpt>
      <trkpt lat="47.741981" lon="7.548304">
        <ele>270.0</ele>
        <time>2020-07-13T08:28:52Z</time>
      </trkpt>
      <trkpt lat="47.741869" lon="7.548365">
        <ele>271.0</ele>
        <time>2020-07-13T08:28:54Z</time>
      </trkpt>
      <trkpt lat="47.741759" lon="7.548439">
        <ele>271.0</ele>
        <time>2020-07-13T08:28:56Z</time>
      </trkpt>
      <trkpt lat="47.74165" lon="7.548514">
        <ele>271.0</ele>
        <time>2020-07-13T08:28:58Z</time>
      </trkpt>
      <trkpt lat="47.741542" lon="7.548589">
        <ele>271.0</ele>
        <time>2020-07-13T08:29:00Z</time>
      </trkpt>
      <trkpt lat="47.74144" lon="7.548657">
        <ele>271.0</ele>
        <time>2020-07-13T08:29:02Z</time>
      </trkpt>
      <trkpt lat="47.741343" lon="7.548729">
        <ele>271.0</ele>
        <time>2020-07-13T08:29:04Z</time>
      </trkpt>
      <trkpt lat="47.741251" lon="7.548796">
        <ele>271.0</ele>
        <time>2020-07-13T08:29:06Z</time>
      </trkpt>
      <trkpt lat="47.741157" lon="7.548855">
        <ele>272.0</ele>
        <time>2020-07-13T08:29:08Z</time>
      </trkpt>
      <trkpt lat="47.741071" lon="7.548892">
        <ele>272.0</ele>
        <time>2020-07-13T08:29:10Z</time>
      </trkpt>
      <trkpt lat="47.740982" lon="7.548927">
        <ele>272.0</ele>
        <time>2020-07-13T08:29:12Z</time>
      </trkpt>
      <trkpt lat="47.740882" lon="7.548975">
        <ele>272.0</ele>
        <time>2020-07-13T08:29:14Z</time>
      </trkpt>
      <trkpt lat="47.740778" lon="7.549029">
        <ele>271.0</ele>
        <time>2020-07-13T08:29:16Z</time>
      </trkpt>
      <trkpt lat="47.740673" lon="7.549074">
        <ele>271.0</ele>
        <time>2020-07-13T08:29:18Z</time>
      </trkpt>
      <trkpt lat="47.740574" lon="7.54912">
        <ele>271.0</ele>
        <time>2020-07-13T08:29:20Z</time>
      </trkpt>
      <trkpt lat="47.740476" lon="7.549165">
        <ele>271.0</ele>
        <time>2020-07-13T08:29:22Z</time>
      </trkpt>
      <trkpt lat="47.740367" lon="7.54921">
        <ele>271.0</ele>
        <time>2020-07-13T08:29:24Z</time>
      </trkpt>
      <trkpt lat="47.740258" lon="7.549255">
        <ele>271.0</ele>
        <time>2020-07-13T08:29:26Z</time>
      </trkpt>
      <trkpt lat="47.740147" lon="7.549299">
        <ele>271.0</ele>
        <time>2020-07-13T08:29:28Z</time>
      </trkpt>
      <trkpt lat="47.740046" lon="7.54934">
        <ele>271.0</ele>
        <time>2020-07-13T08:29:30Z</time>
      </trkpt>
      <trkpt lat="47.739943" lon="7.549374">
        <ele>271.0</ele>
        <time>2020-07-13T08:29:32Z</time>
      </trkpt>
      <trkpt lat="47.739838" lon="7.54941">
        <ele>272.0</ele>
        <time>2020-07-13T08:29:34Z</time>
      </trkpt>
      <trkpt lat="47.739732" lon="7.549445">
        <ele>272.0</ele>
        <time>2020-07-13T08:29:36Z</time>
      </trkpt>
      <trkpt lat="47.739622" lon="7.549478">
        <ele>272.0</ele>
        <time>2020-07-13T08:29:38Z</time>
      </trkpt>
      <trkpt lat="47.739516" lon="7.549506">
        <ele>272.0</ele>
        <time>2020-07-13T08:29:40Z</time>
      </trkpt>
      <trkpt lat="47.739406" lon="7.549537">
        <ele>272.0</ele>
        <time>2020-07-13T08:29:42Z</time>
      </trkpt>
      <trkpt lat="47.739304" lon="7.549566">
        <ele>272.0</ele>
        <time>2020-07-13T08:29:44Z</time>
      </trkpt>
      <trkpt lat="47.739198" lon="7.549605">
        <ele>272.0</ele>
        <time>2020-07-13T08:29:46Z</time>
      </trkpt>
      <trkpt lat="47.73909" lon="7.549658">
        <ele>273.0</ele>
        <time>2020-07-13T08:29:48Z</time>
      </trkpt>
      <trkpt lat="47.738987" lon="7.549712">
        <ele>273.0</ele>
        <time>2020-07-13T08:29:50Z</time>
      </trkpt>
      <trkpt lat="47.738884" lon="7.549741">
        <ele>273.0</ele>
        <time>2020-07-13T08:29:52Z</time>
      </trkpt>
      <trkpt lat="47.738776" lon="7.549752">
        <ele>273.0</ele>
        <time>2020-07-13T08:29:54Z</time>
      </trkpt>
      <trkpt lat="47.738668" lon="7.549777">
        <ele>273.0</ele>
        <time>2020-07-13T08:29:56Z</time>
      </trkpt>
      <trkpt lat="47.738566" lon="7.549799">
        <ele>273.0</ele>
        <time>2020-07-13T08:29:58Z</time>
      </trkpt>
      <trkpt lat="47.738462" lon="7.549841">
        <ele>273.0</ele>
        <time>2020-07-13T08:30:00Z</time>
      </trkpt>
      <trkpt lat="47.738357" lon="7.549871">
        <ele>273.0</ele>
        <time>2020-07-13T08:30:02Z</time>
      </trkpt>
      <trkpt lat="47.738252" lon="7.549884">
        <ele>272.0</ele>
        <time>2020-07-13T08:30:04Z</time>
      </trkpt>
      <trkpt lat="47.738139" lon="7.549904">
        <ele>273.0</ele>
        <time>2020-07-13T08:30:06Z</time>
      </trkpt>
      <trkpt lat="47.738024" lon="7.549917">
        <ele>273.0</ele>
        <time>2020-07-13T08:30:08Z</time>
      </trkpt>
      <trkpt lat="47.737909" lon="7.549928">
        <ele>273.0</ele>
        <time>2020-07-13T08:30:10Z</time>
      </trkpt>
      <trkpt lat="47.737795" lon="7.549939">
        <ele>273.0</ele>
        <time>2020-07-13T08:30:12Z</time>
      </trkpt>
      <trkpt lat="47.737686" lon="7.549954">
        <ele>273.0</ele>
        <time>2020-07-13T08:30:14Z</time>
      </trkpt>
      <trkpt lat="47.737586" lon="7.54996">
        <ele>272.0</ele>
        <time>2020-07-13T08:30:16Z</time>
      </trkpt>
      <trkpt lat="47.737479" lon="7.549962">
        <ele>272.0</ele>
        <time>2020-07-13T08:30:18Z</time>
      </trkpt>
      <trkpt lat="47.737376" lon="7.549957">
        <ele>272.0</ele>
        <time>2020-07-13T08:30:20Z</time>
      </trkpt>
      <trkpt lat="47.737271" lon="7.54997">
        <ele>272.0</ele>
        <time>2020-07-13T08:30:22Z</time>
      </trkpt>
      <trkpt lat="47.73716" lon="7.549979">
        <ele>272.0</ele>
        <time>2020-07-13T08:30:24Z</time>
      </trkpt>
      <trkpt lat="47.737054" lon="7.549977">
        <ele>272.0</ele>
        <time>2020-07-13T08:30:26Z</time>
      </trkpt>
      <trkpt lat="47.736948" lon="7.549981">
        <ele>272.0</ele>
        <time>2020-07-13T08:30:28Z</time>
      </trkpt>
      <trkpt lat="47.736839" lon="7.549986">
        <ele>272.0</ele>
        <time>2020-07-13T08:30:30Z</time>
      </trkpt>
      <trkpt lat="47.73673" lon="7.549992">
        <ele>271.0</ele>
        <time>2020-07-13T08:30:32Z</time>
      </trkpt>
      <trkpt lat="47.736616" lon="7.549999">
        <ele>271.0</ele>
        <time>2020-07-13T08:30:34Z</time>
      </trkpt>
      <trkpt lat="47.73651" lon="7.550006">
        <ele>272.0</ele>
        <time>2020-07-13T08:30:36Z</time>
      </trkpt>
      <trkpt lat="47.736408" lon="7.550012">
        <ele>272.0</ele>
        <time>2020-07-13T08:30:38Z</time>
      </trkpt>
      <trkpt lat="47.736299" lon="7.549999">
        <ele>272.0</ele>
        <time>2020-07-13T08:30:40Z</time>
      </trkpt>
      <trkpt lat="47.736189" lon="7.550002">
        <ele>272.0</ele>
        <time>2020-07-13T08:30:42Z</time>
      </trkpt>
      <trkpt lat="47.736084" lon="7.550006">
        <ele>272.0</ele>
        <time>2020-07-13T08:30:44Z</time>
      </trkpt>
      <trkpt lat="47.73598" lon="7.550002">
        <ele>271.0</ele>
        <time>2020-07-13T08:30:46Z</time>
      </trkpt>
      <trkpt lat="47.735869" lon="7.550002">
        <ele>271.0</ele>
        <time>2020-07-13T08:30:48Z</time>
      </trkpt>
      <trkpt lat="47.735762" lon="7.549994">
        <ele>271.0</ele>
        <time>2020-07-13T08:30:50Z</time>
      </trkpt>
      <trkpt lat="47.735655" lon="7.549976">
        <ele>272.0</ele>
        <time>2020-07-13T08:30:52Z</time>
      </trkpt>
      <trkpt lat="47.735545" lon="7.549965">
        <ele>272.0</ele>
        <time>2020-07-13T08:30:54Z</time>
      </trkpt>
      <trkpt lat="47.735437" lon="7.549959">
        <ele>272.0</ele>
        <time>2020-07-13T08:30:56Z</time>
      </trkpt>
      <trkpt lat="47.735328" lon="7.549952">
        <ele>272.0</ele>
        <time>2020-07-13T08:30:58Z</time>
      </trkpt>
      <trkpt lat="47.735224" lon="7.54995">
        <ele>272.0</ele>
        <time>2020-07-13T08:31:00Z</time>
      </trkpt>
      <trkpt lat="47.735123" lon="7.549952">
        <ele>273.0</ele>
        <time>2020-07-13T08:31:02Z</time>
      </trkpt>
      <trkpt lat="47.735011" lon="7.549947">
        <ele>273.0</ele>
        <time>2020-07-13T08:31:04Z</time>
      </trkpt>
      <trkpt lat="47.734906" lon="7.549937">
        <ele>273.0</ele>
        <time>2020-07-13T08:31:06Z</time>
      </trkpt>
      <trkpt lat="47.7348" lon="7.54993">
        <ele>274.0</ele>
        <time>2020-07-13T08:31:08Z</time>
      </trkpt>
      <trkpt lat="47.734696" lon="7.54992">
        <ele>274.0</ele>
        <time>2020-07-13T08:31:10Z</time>
      </trkpt>
      <trkpt lat="47.734593" lon="7.549907">
        <ele>274.0</ele>
        <time>2020-07-13T08:31:12Z</time>
      </trkpt>
      <trkpt lat="47.73449" lon="7.549891">
        <ele>274.0</ele>
        <time>2020-07-13T08:31:14Z</time>
      </trkpt>
      <trkpt lat="47.734387" lon="7.549882">
        <ele>274.0</ele>
        <time>2020-07-13T08:31:16Z</time>
      </trkpt>
      <trkpt lat="47.734283" lon="7.549875">
        <ele>274.0</ele>
        <time>2020-07-13T08:31:18Z</time>
      </trkpt>
      <trkpt lat="47.734181" lon="7.549866">
        <ele>274.0</ele>
        <time>2020-07-13T08:31:20Z</time>
      </trkpt>
      <trkpt lat="47.734076" lon="7.549852">
        <ele>274.0</ele>
        <time>2020-07-13T08:31:22Z</time>
      </trkpt>
      <trkpt lat="47.733923" lon="7.549844">
        <ele>274.0</ele>
        <time>2020-07-13T08:31:25Z</time>
      </trkpt>
      <trkpt lat="47.73382" lon="7.549839">
        <ele>274.0</ele>
        <time>2020-07-13T08:31:27Z</time>
      </trkpt>
      <trkpt lat="47.733772" lon="7.549829">
        <ele>274.0</ele>
        <time>2020-07-13T08:31:28Z</time>
      </trkpt>
      <trkpt lat="47.733613" lon="7.549811">
        <ele>275.0</ele>
        <time>2020-07-13T08:31:31Z</time>
      </trkpt>
      <trkpt lat="47.733507" lon="7.54979">
        <ele>274.0</ele>
        <time>2020-07-13T08:31:33Z</time>
      </trkpt>
      <trkpt lat="47.733404" lon="7.549776">
        <ele>274.0</ele>
        <time>2020-07-13T08:31:35Z</time>
      </trkpt>
      <trkpt lat="47.733297" lon="7.549762">
        <ele>274.0</ele>
        <time>2020-07-13T08:31:37Z</time>
      </trkpt>
      <trkpt lat="47.733196" lon="7.549752">
        <ele>274.0</ele>
        <time>2020-07-13T08:31:39Z</time>
      </trkpt>
      <trkpt lat="47.733089" lon="7.549737">
        <ele>273.0</ele>
        <time>2020-07-13T08:31:41Z</time>
      </trkpt>
      <trkpt lat="47.732983" lon="7.54972">
        <ele>273.0</ele>
        <time>2020-07-13T08:31:43Z</time>
      </trkpt>
      <trkpt lat="47.732875" lon="7.549699">
        <ele>273.0</ele>
        <time>2020-07-13T08:31:45Z</time>
      </trkpt>
      <trkpt lat="47.732767" lon="7.54968">
        <ele>273.0</ele>
        <time>2020-07-13T08:31:47Z</time>
      </trkpt>
      <trkpt lat="47.732662" lon="7.549669">
        <ele>273.0</ele>
        <time>2020-07-13T08:31:49Z</time>
      </trkpt>
      <trkpt lat="47.732554" lon="7.549658">
        <ele>273.0</ele>
        <time>2020-07-13T08:31:51Z</time>
      </trkpt>
      <trkpt lat="47.732449" lon="7.549637">
        <ele>274.0</ele>
        <time>2020-07-13T08:31:53Z</time>
      </trkpt>
      <trkpt lat="47.732345" lon="7.549619">
        <ele>274.0</ele>
        <time>2020-07-13T08:31:55Z</time>
      </trkpt>
      <trkpt lat="47.73225" lon="7.549611">
        <ele>274.0</ele>
        <time>2020-07-13T08:31:57Z</time>
      </trkpt>
      <trkpt lat="47.732167" lon="7.549608">
        <ele>275.0</ele>
        <time>2020-07-13T08:31:59Z</time>
      </trkpt>
      <trkpt lat="47.7321" lon="7.549604">
        <ele>275.0</ele>
        <time>2020-07-13T08:32:01Z</time>
      </trkpt>
      <trkpt lat="47.732034" lon="7.549607">
        <ele>275.0</ele>
        <time>2020-07-13T08:32:03Z</time>
      </trkpt>
      <trkpt lat="47.731973" lon="7.549635">
        <ele>275.0</ele>
        <time>2020-07-13T08:32:05Z</time>
      </trkpt>
      <trkpt lat="47.731903" lon="7.549684">
        <ele>275.0</ele>
        <time>2020-07-13T08:32:07Z</time>
      </trkpt>
      <trkpt lat="47.73184" lon="7.549751">
        <ele>275.0</ele>
        <time>2020-07-13T08:32:09Z</time>
      </trkpt>
      <trkpt lat="47.731773" lon="7.549834">
        <ele>275.0</ele>
        <time>2020-07-13T08:32:11Z</time>
      </trkpt>
      <trkpt lat="47.731691" lon="7.549911">
        <ele>275.0</ele>
        <time>2020-07-13T08:32:13Z</time>
      </trkpt>
      <trkpt lat="47.731438" lon="7.549809">
        <ele>276.0</ele>
        <time>2020-07-13T08:32:19Z</time>
      </trkpt>
      <trkpt lat="47.731403" lon="7.549699">
        <ele>276.0</ele>
        <time>2020-07-13T08:32:21Z</time>
      </trkpt>
      <trkpt lat="47.731373" lon="7.54957">
        <ele>277.0</ele>
        <time>2020-07-13T08:32:23Z</time>
      </trkpt>
      <trkpt lat="47.731306" lon="7.549447">
        <ele>276.0</ele>
        <time>2020-07-13T08:32:25Z</time>
      </trkpt>
      <trkpt lat="47.731214" lon="7.549366">
        <ele>276.0</ele>
        <time>2020-07-13T08:32:27Z</time>
      </trkpt>
      <trkpt lat="47.731119" lon="7.549315">
        <ele>276.0</ele>
        <time>2020-07-13T08:32:29Z</time>
      </trkpt>
      <trkpt lat="47.731023" lon="7.549281">
        <ele>277.0</ele>
        <time>2020-07-13T08:32:31Z</time>
      </trkpt>
      <trkpt lat="47.730934" lon="7.549255">
        <ele>277.0</ele>
        <time>2020-07-13T08:32:33Z</time>
      </trkpt>
      <trkpt lat="47.730834" lon="7.549238">
        <ele>277.0</ele>
        <time>2020-07-13T08:32:35Z</time>
      </trkpt>
      <trkpt lat="47.730726" lon="7.54922">
        <ele>277.0</ele>
        <time>2020-07-13T08:32:37Z</time>
      </trkpt>
      <trkpt lat="47.730628" lon="7.549195">
        <ele>276.0</ele>
        <time>2020-07-13T08:32:39Z</time>
      </trkpt>
      <trkpt lat="47.730528" lon="7.54915">
        <ele>277.0</ele>
        <time>2020-07-13T08:32:41Z</time>
      </trkpt>
      <trkpt lat="47.73043" lon="7.549119">
        <ele>277.0</ele>
        <time>2020-07-13T08:32:43Z</time>
      </trkpt>
      <trkpt lat="47.73034" lon="7.549091">
        <ele>277.0</ele>
        <time>2020-07-13T08:32:45Z</time>
      </trkpt>
      <trkpt lat="47.730249" lon="7.549065">
        <ele>277.0</ele>
        <time>2020-07-13T08:32:47Z</time>
      </trkpt>
      <trkpt lat="47.730154" lon="7.549039">
        <ele>277.0</ele>
        <time>2020-07-13T08:32:49Z</time>
      </trkpt>
      <trkpt lat="47.730066" lon="7.549016">
        <ele>276.0</ele>
        <time>2020-07-13T08:32:51Z</time>
      </trkpt>
      <trkpt lat="47.729985" lon="7.54899">
        <ele>276.0</ele>
        <time>2020-07-13T08:32:53Z</time>
      </trkpt>
      <trkpt lat="47.729907" lon="7.548969">
        <ele>276.0</ele>
        <time>2020-07-13T08:32:55Z</time>
      </trkpt>
      <trkpt lat="47.729828" lon="7.548948">
        <ele>276.0</ele>
        <time>2020-07-13T08:32:57Z</time>
      </trkpt>
      <trkpt lat="47.729744" lon="7.54892">
        <ele>276.0</ele>
        <time>2020-07-13T08:32:59Z</time>
      </trkpt>
      <trkpt lat="47.729655" lon="7.548897">
        <ele>276.0</ele>
        <time>2020-07-13T08:33:01Z</time>
      </trkpt>
      <trkpt lat="47.729566" lon="7.548867">
        <ele>276.0</ele>
        <time>2020-07-13T08:33:03Z</time>
      </trkpt>
      <trkpt lat="47.729475" lon="7.548838">
        <ele>275.0</ele>
        <time>2020-07-13T08:33:05Z</time>
      </trkpt>
      <trkpt lat="47.729384" lon="7.54881">
        <ele>276.0</ele>
        <time>2020-07-13T08:33:07Z</time>
      </trkpt>
      <trkpt lat="47.729293" lon="7.548782">
        <ele>276.0</ele>
        <time>2020-07-13T08:33:09Z</time>
      </trkpt>
      <trkpt lat="47.729202" lon="7.548755">
        <ele>276.0</ele>
        <time>2020-07-13T08:33:11Z</time>
      </trkpt>
      <trkpt lat="47.729111" lon="7.54873">
        <ele>276.0</ele>
        <time>2020-07-13T08:33:13Z</time>
      </trkpt>
      <trkpt lat="47.729018" lon="7.548706">
        <ele>276.0</ele>
        <time>2020-07-13T08:33:15Z</time>
      </trkpt>
      <trkpt lat="47.728928" lon="7.548678">
        <ele>277.0</ele>
        <time>2020-07-13T08:33:17Z</time>
      </trkpt>
      <trkpt lat="47.728839" lon="7.54865">
        <ele>277.0</ele>
        <time>2020-07-13T08:33:19Z</time>
      </trkpt>
      <trkpt lat="47.728749" lon="7.548618">
        <ele>277.0</ele>
        <time>2020-07-13T08:33:21Z</time>
      </trkpt>
      <trkpt lat="47.728661" lon="7.548586">
        <ele>277.0</ele>
        <time>2020-07-13T08:33:23Z</time>
      </trkpt>
      <trkpt lat="47.728579" lon="7.54857">
        <ele>277.0</ele>
        <time>2020-07-13T08:33:25Z</time>
      </trkpt>
      <trkpt lat="47.728493" lon="7.54856">
        <ele>277.0</ele>
        <time>2020-07-13T08:33:27Z</time>
      </trkpt>
      <trkpt lat="47.728418" lon="7.548549">
        <ele>277.0</ele>
        <time>2020-07-13T08:33:29Z</time>
      </trkpt>
      <trkpt lat="47.728355" lon="7.548556">
        <ele>277.0</ele>
        <time>2020-07-13T08:33:31Z</time>
      </trkpt>
      <trkpt lat="47.72829" lon="7.548547">
        <ele>277.0</ele>
        <time>2020-07-13T08:33:33Z</time>
      </trkpt>
      <trkpt lat="47.728216" lon="7.548541">
        <ele>277.0</ele>
        <time>2020-07-13T08:33:35Z</time>
      </trkpt>
      <trkpt lat="47.728139" lon="7.548537">
        <ele>277.0</ele>
        <time>2020-07-13T08:33:37Z</time>
      </trkpt>
      <trkpt lat="47.728073" lon="7.548508">
        <ele>277.0</ele>
        <time>2020-07-13T08:33:39Z</time>
      </trkpt>
      <trkpt lat="47.728003" lon="7.548481">
        <ele>276.0</ele>
        <time>2020-07-13T08:33:41Z</time>
      </trkpt>
      <trkpt lat="47.727932" lon="7.548443">
        <ele>276.0</ele>
        <time>2020-07-13T08:33:43Z</time>
      </trkpt>
      <trkpt lat="47.727859" lon="7.548418">
        <ele>276.0</ele>
        <time>2020-07-13T08:33:45Z</time>
      </trkpt>
      <trkpt lat="47.727791" lon="7.548375">
        <ele>275.0</ele>
        <time>2020-07-13T08:33:47Z</time>
      </trkpt>
      <trkpt lat="47.727747" lon="7.548289">
        <ele>275.0</ele>
        <time>2020-07-13T08:33:49Z</time>
      </trkpt>
      <trkpt lat="47.727673" lon="7.548235">
        <ele>275.0</ele>
        <time>2020-07-13T08:33:51Z</time>
      </trkpt>
      <trkpt lat="47.727589" lon="7.548192">
        <ele>275.0</ele>
        <time>2020-07-13T08:33:53Z</time>
      </trkpt>
      <trkpt lat="47.727503" lon="7.548152">
        <ele>275.0</ele>
        <time>2020-07-13T08:33:55Z</time>
      </trkpt>
      <trkpt lat="47.727413" lon="7.548118">
        <ele>275.0</ele>
        <time>2020-07-13T08:33:57Z</time>
      </trkpt>
      <trkpt lat="47.727317" lon="7.548072">
        <ele>276.0</ele>
        <time>2020-07-13T08:33:59Z</time>
      </trkpt>
      <trkpt lat="47.727218" lon="7.548036">
        <ele>276.0</ele>
        <time>2020-07-13T08:34:01Z</time>
      </trkpt>
      <trkpt lat="47.727125" lon="7.54798">
        <ele>276.0</ele>
        <time>2020-07-13T08:34:03Z</time>
      </trkpt>
      <trkpt lat="47.727025" lon="7.547934">
        <ele>276.0</ele>
        <time>2020-07-13T08:34:05Z</time>
      </trkpt>
      <trkpt lat="47.726927" lon="7.547892">
        <ele>276.0</ele>
        <time>2020-07-13T08:34:07Z</time>
      </trkpt>
      <trkpt lat="47.726828" lon="7.547844">
        <ele>276.0</ele>
        <time>2020-07-13T08:34:09Z</time>
      </trkpt>
      <trkpt lat="47.726733" lon="7.547794">
        <ele>276.0</ele>
        <time>2020-07-13T08:34:11Z</time>
      </trkpt>
      <trkpt lat="47.726634" lon="7.547762">
        <ele>276.0</ele>
        <time>2020-07-13T08:34:13Z</time>
      </trkpt>
      <trkpt lat="47.726498" lon="7.547693">
        <ele>276.0</ele>
        <time>2020-07-13T08:34:16Z</time>
      </trkpt>
      <trkpt lat="47.726453" lon="7.547674">
        <ele>276.0</ele>
        <time>2020-07-13T08:34:17Z</time>
      </trkpt>
      <trkpt lat="47.726303" lon="7.547621">
        <ele>276.0</ele>
        <time>2020-07-13T08:34:20Z</time>
      </trkpt>
      <trkpt lat="47.726206" lon="7.54758">
        <ele>277.0</ele>
        <time>2020-07-13T08:34:22Z</time>
      </trkpt>
      <trkpt lat="47.726157" lon="7.54756">
        <ele>276.0</ele>
        <time>2020-07-13T08:34:23Z</time>
      </trkpt>
      <trkpt lat="47.726009" lon="7.547491">
        <ele>277.0</ele>
        <time>2020-07-13T08:34:26Z</time>
      </trkpt>
      <trkpt lat="47.725842" lon="7.547423">
        <ele>276.0</ele>
        <time>2020-07-13T08:34:29Z</time>
      </trkpt>
      <trkpt lat="47.725718" lon="7.54739">
        <ele>276.0</ele>
        <time>2020-07-13T08:34:31Z</time>
      </trkpt>
      <trkpt lat="47.725537" lon="7.547308">
        <ele>276.0</ele>
        <time>2020-07-13T08:34:34Z</time>
      </trkpt>
      <trkpt lat="47.725418" lon="7.547231">
        <ele>275.0</ele>
        <time>2020-07-13T08:34:36Z</time>
      </trkpt>
      <trkpt lat="47.725299" lon="7.547153">
        <ele>275.0</ele>
        <time>2020-07-13T08:34:38Z</time>
      </trkpt>
      <trkpt lat="47.725186" lon="7.547073">
        <ele>275.0</ele>
        <time>2020-07-13T08:34:40Z</time>
      </trkpt>
      <trkpt lat="47.725079" lon="7.547005">
        <ele>274.0</ele>
        <time>2020-07-13T08:34:42Z</time>
      </trkpt>
      <trkpt lat="47.724972" lon="7.546944">
        <ele>275.0</ele>
        <time>2020-07-13T08:34:44Z</time>
      </trkpt>
      <trkpt lat="47.724864" lon="7.546894">
        <ele>275.0</ele>
        <time>2020-07-13T08:34:46Z</time>
      </trkpt>
      <trkpt lat="47.724753" lon="7.546839">
        <ele>275.0</ele>
        <time>2020-07-13T08:34:48Z</time>
      </trkpt>
      <trkpt lat="47.724645" lon="7.546778">
        <ele>275.0</ele>
        <time>2020-07-13T08:34:50Z</time>
      </trkpt>
      <trkpt lat="47.724536" lon="7.546708">
        <ele>275.0</ele>
        <time>2020-07-13T08:34:52Z</time>
      </trkpt>
      <trkpt lat="47.724434" lon="7.546648">
        <ele>275.0</ele>
        <time>2020-07-13T08:34:54Z</time>
      </trkpt>
      <trkpt lat="47.724332" lon="7.546593">
        <ele>276.0</ele>
        <time>2020-07-13T08:34:56Z</time>
      </trkpt>
      <trkpt lat="47.72423" lon="7.546534">
        <ele>275.0</ele>
        <time>2020-07-13T08:34:58Z</time>
      </trkpt>
      <trkpt lat="47.724077" lon="7.546445">
        <ele>275.0</ele>
        <time>2020-07-13T08:35:01Z</time>
      </trkpt>
      <trkpt lat="47.723979" lon="7.546385">
        <ele>275.0</ele>
        <time>2020-07-13T08:35:03Z</time>
      </trkpt>
      <trkpt lat="47.723875" lon="7.546331">
        <ele>275.0</ele>
        <time>2020-07-13T08:35:05Z</time>
      </trkpt>
      <trkpt lat="47.723774" lon="7.546271">
        <ele>275.0</ele>
        <time>2020-07-13T08:35:07Z</time>
      </trkpt>
      <trkpt lat="47.723667" lon="7.546209">
        <ele>275.0</ele>
        <time>2020-07-13T08:35:09Z</time>
      </trkpt>
      <trkpt lat="47.72356" lon="7.546149">
        <ele>275.0</ele>
        <time>2020-07-13T08:35:11Z</time>
      </trkpt>
      <trkpt lat="47.723445" lon="7.546076">
        <ele>274.0</ele>
        <time>2020-07-13T08:35:13Z</time>
      </trkpt>
      <trkpt lat="47.723337" lon="7.546013">
        <ele>274.0</ele>
        <time>2020-07-13T08:35:15Z</time>
      </trkpt>
      <trkpt lat="47.723225" lon="7.545956">
        <ele>275.0</ele>
        <time>2020-07-13T08:35:17Z</time>
      </trkpt>
      <trkpt lat="47.723115" lon="7.545894">
        <ele>275.0</ele>
        <time>2020-07-13T08:35:19Z</time>
      </trkpt>
      <trkpt lat="47.723016" lon="7.545812">
        <ele>274.0</ele>
        <time>2020-07-13T08:35:21Z</time>
      </trkpt>
      <trkpt lat="47.722917" lon="7.54573">
        <ele>274.0</ele>
        <time>2020-07-13T08:35:23Z</time>
      </trkpt>
      <trkpt lat="47.722819" lon="7.545654">
        <ele>274.0</ele>
        <time>2020-07-13T08:35:25Z</time>
      </trkpt>
      <trkpt lat="47.722719" lon="7.545581">
        <ele>274.0</ele>
        <time>2020-07-13T08:35:27Z</time>
      </trkpt>
      <trkpt lat="47.72262" lon="7.54551">
        <ele>274.0</ele>
        <time>2020-07-13T08:35:29Z</time>
      </trkpt>
      <trkpt lat="47.722476" lon="7.545395">
        <ele>275.0</ele>
        <time>2020-07-13T08:35:32Z</time>
      </trkpt>
      <trkpt lat="47.722375" lon="7.545327">
        <ele>275.0</ele>
        <time>2020-07-13T08:35:34Z</time>
      </trkpt>
      <trkpt lat="47.722267" lon="7.545244">
        <ele>276.0</ele>
        <time>2020-07-13T08:35:36Z</time>
      </trkpt>
      <trkpt lat="47.722164" lon="7.545175">
        <ele>276.0</ele>
        <time>2020-07-13T08:35:38Z</time>
      </trkpt>
      <trkpt lat="47.722059" lon="7.545108">
        <ele>275.0</ele>
        <time>2020-07-13T08:35:40Z</time>
      </trkpt>
      <trkpt lat="47.721957" lon="7.545034">
        <ele>275.0</ele>
        <time>2020-07-13T08:35:42Z</time>
      </trkpt>
      <trkpt lat="47.721861" lon="7.544961">
        <ele>275.0</ele>
        <time>2020-07-13T08:35:44Z</time>
      </trkpt>
      <trkpt lat="47.721763" lon="7.544887">
        <ele>275.0</ele>
        <time>2020-07-13T08:35:46Z</time>
      </trkpt>
      <trkpt lat="47.721661" lon="7.544814">
        <ele>275.0</ele>
        <time>2020-07-13T08:35:48Z</time>
      </trkpt>
      <trkpt lat="47.721508" lon="7.544696">
        <ele>275.0</ele>
        <time>2020-07-13T08:35:51Z</time>
      </trkpt>
      <trkpt lat="47.721407" lon="7.544607">
        <ele>276.0</ele>
        <time>2020-07-13T08:35:53Z</time>
      </trkpt>
      <trkpt lat="47.721302" lon="7.544532">
        <ele>276.0</ele>
        <time>2020-07-13T08:35:55Z</time>
      </trkpt>
      <trkpt lat="47.721207" lon="7.544457">
        <ele>276.0</ele>
        <time>2020-07-13T08:35:57Z</time>
      </trkpt>
      <trkpt lat="47.721113" lon="7.544381">
        <ele>276.0</ele>
        <time>2020-07-13T08:35:59Z</time>
      </trkpt>
      <trkpt lat="47.72101" lon="7.544307">
        <ele>276.0</ele>
        <time>2020-07-13T08:36:01Z</time>
      </trkpt>
      <trkpt lat="47.720958" lon="7.544272">
        <ele>276.0</ele>
        <time>2020-07-13T08:36:02Z</time>
      </trkpt>
      <trkpt lat="47.720804" lon="7.544151">
        <ele>276.0</ele>
        <time>2020-07-13T08:36:05Z</time>
      </trkpt>
      <trkpt lat="47.720705" lon="7.544076">
        <ele>276.0</ele>
        <time>2020-07-13T08:36:07Z</time>
      </trkpt>
      <trkpt lat="47.720561" lon="7.543955">
        <ele>276.0</ele>
        <time>2020-07-13T08:36:10Z</time>
      </trkpt>
      <trkpt lat="47.720465" lon="7.543873">
        <ele>276.0</ele>
        <time>2020-07-13T08:36:12Z</time>
      </trkpt>
      <trkpt lat="47.720363" lon="7.543784">
        <ele>276.0</ele>
        <time>2020-07-13T08:36:14Z</time>
      </trkpt>
      <trkpt lat="47.720264" lon="7.543681">
        <ele>276.0</ele>
        <time>2020-07-13T08:36:16Z</time>
      </trkpt>
      <trkpt lat="47.720161" lon="7.543589">
        <ele>276.0</ele>
        <time>2020-07-13T08:36:18Z</time>
      </trkpt>
      <trkpt lat="47.720007" lon="7.543449">
        <ele>275.0</ele>
        <time>2020-07-13T08:36:21Z</time>
      </trkpt>
      <trkpt lat="47.719899" lon="7.543355">
        <ele>275.0</ele>
        <time>2020-07-13T08:36:23Z</time>
      </trkpt>
      <trkpt lat="47.719791" lon="7.543261">
        <ele>275.0</ele>
        <time>2020-07-13T08:36:25Z</time>
      </trkpt>
      <trkpt lat="47.71974" lon="7.543204">
        <ele>274.0</ele>
        <time>2020-07-13T08:36:26Z</time>
      </trkpt>
      <trkpt lat="47.719596" lon="7.543058">
        <ele>275.0</ele>
        <time>2020-07-13T08:36:29Z</time>
      </trkpt>
      <trkpt lat="47.719502" lon="7.542965">
        <ele>275.0</ele>
        <time>2020-07-13T08:36:31Z</time>
      </trkpt>
      <trkpt lat="47.719407" lon="7.542886">
        <ele>275.0</ele>
        <time>2020-07-13T08:36:33Z</time>
      </trkpt>
      <trkpt lat="47.719272" lon="7.542763">
        <ele>275.0</ele>
        <time>2020-07-13T08:36:36Z</time>
      </trkpt>
      <trkpt lat="47.719186" lon="7.542682">
        <ele>275.0</ele>
        <time>2020-07-13T08:36:38Z</time>
      </trkpt>
      <trkpt lat="47.719109" lon="7.542604">
        <ele>276.0</ele>
        <time>2020-07-13T08:36:40Z</time>
      </trkpt>
      <trkpt lat="47.719026" lon="7.542522">
        <ele>276.0</ele>
        <time>2020-07-13T08:36:42Z</time>
      </trkpt>
      <trkpt lat="47.71894" lon="7.542439">
        <ele>276.0</ele>
        <time>2020-07-13T08:36:44Z</time>
      </trkpt>
      <trkpt lat="47.718854" lon="7.542359">
        <ele>276.0</ele>
        <time>2020-07-13T08:36:46Z</time>
      </trkpt>
      <trkpt lat="47.718772" lon="7.542282">
        <ele>276.0</ele>
        <time>2020-07-13T08:36:48Z</time>
      </trkpt>
      <trkpt lat="47.718646" lon="7.54216">
        <ele>277.0</ele>
        <time>2020-07-13T08:36:51Z</time>
      </trkpt>
      <trkpt lat="47.718566" lon="7.54208">
        <ele>277.0</ele>
        <time>2020-07-13T08:36:53Z</time>
      </trkpt>
      <trkpt lat="47.718493" lon="7.541997">
        <ele>276.0</ele>
        <time>2020-07-13T08:36:55Z</time>
      </trkpt>
      <trkpt lat="47.71841" lon="7.541916">
        <ele>276.0</ele>
        <time>2020-07-13T08:36:57Z</time>
      </trkpt>
      <trkpt lat="47.718281" lon="7.541798">
        <ele>276.0</ele>
        <time>2020-07-13T08:37:00Z</time>
      </trkpt>
      <trkpt lat="47.718192" lon="7.54171">
        <ele>276.0</ele>
        <time>2020-07-13T08:37:02Z</time>
      </trkpt>
      <trkpt lat="47.718104" lon="7.541622">
        <ele>276.0</ele>
        <time>2020-07-13T08:37:04Z</time>
      </trkpt>
      <trkpt lat="47.718016" lon="7.541527">
        <ele>276.0</ele>
        <time>2020-07-13T08:37:06Z</time>
      </trkpt>
      <trkpt lat="47.717934" lon="7.541432">
        <ele>276.0</ele>
        <time>2020-07-13T08:37:08Z</time>
      </trkpt>
      <trkpt lat="47.717847" lon="7.541338">
        <ele>276.0</ele>
        <time>2020-07-13T08:37:10Z</time>
      </trkpt>
      <trkpt lat="47.717758" lon="7.54124">
        <ele>277.0</ele>
        <time>2020-07-13T08:37:12Z</time>
      </trkpt>
      <trkpt lat="47.717668" lon="7.541144">
        <ele>277.0</ele>
        <time>2020-07-13T08:37:14Z</time>
      </trkpt>
      <trkpt lat="47.717576" lon="7.541048">
        <ele>277.0</ele>
        <time>2020-07-13T08:37:16Z</time>
      </trkpt>
      <trkpt lat="47.717484" lon="7.54095">
        <ele>277.0</ele>
        <time>2020-07-13T08:37:18Z</time>
      </trkpt>
      <trkpt lat="47.717401" lon="7.540853">
        <ele>277.0</ele>
        <time>2020-07-13T08:37:20Z</time>
      </trkpt>
      <trkpt lat="47.717308" lon="7.540754">
        <ele>277.0</ele>
        <time>2020-07-13T08:37:22Z</time>
      </trkpt>
      <trkpt lat="47.717226" lon="7.540654">
        <ele>277.0</ele>
        <time>2020-07-13T08:37:24Z</time>
      </trkpt>
      <trkpt lat="47.717148" lon="7.540558">
        <ele>277.0</ele>
        <time>2020-07-13T08:37:26Z</time>
      </trkpt>
      <trkpt lat="47.71704" lon="7.540415">
        <ele>276.0</ele>
        <time>2020-07-13T08:37:29Z</time>
      </trkpt>
      <trkpt lat="47.716963" lon="7.540319">
        <ele>276.0</ele>
        <time>2020-07-13T08:37:31Z</time>
      </trkpt>
      <trkpt lat="47.716847" lon="7.540174">
        <ele>275.0</ele>
        <time>2020-07-13T08:37:34Z</time>
      </trkpt>
      <trkpt lat="47.716767" lon="7.540072">
        <ele>275.0</ele>
        <time>2020-07-13T08:37:36Z</time>
      </trkpt>
      <trkpt lat="47.716683" lon="7.539971">
        <ele>274.0</ele>
        <time>2020-07-13T08:37:38Z</time>
      </trkpt>
      <trkpt lat="47.716556" lon="7.539824">
        <ele>274.0</ele>
        <time>2020-07-13T08:37:41Z</time>
      </trkpt>
      <trkpt lat="47.716474" lon="7.539714">
        <ele>274.0</ele>
        <time>2020-07-13T08:37:43Z</time>
      </trkpt>
      <trkpt lat="47.716393" lon="7.539604">
        <ele>275.0</ele>
        <time>2020-07-13T08:37:45Z</time>
      </trkpt>
      <trkpt lat="47.716262" lon="7.539453">
        <ele>275.0</ele>
        <time>2020-07-13T08:37:48Z</time>
      </trkpt>
      <trkpt lat="47.716185" lon="7.539354">
        <ele>274.0</ele>
        <time>2020-07-13T08:37:50Z</time>
      </trkpt>
      <trkpt lat="47.716104" lon="7.539249">
        <ele>275.0</ele>
        <time>2020-07-13T08:37:52Z</time>
      </trkpt>
      <trkpt lat="47.715991" lon="7.539085">
        <ele>274.0</ele>
        <time>2020-07-13T08:37:55Z</time>
      </trkpt>
      <trkpt lat="47.715912" lon="7.538981">
        <ele>273.0</ele>
        <time>2020-07-13T08:37:57Z</time>
      </trkpt>
      <trkpt lat="47.715836" lon="7.538865">
        <ele>274.0</ele>
        <time>2020-07-13T08:37:59Z</time>
      </trkpt>
      <trkpt lat="47.715756" lon="7.538753">
        <ele>274.0</ele>
        <time>2020-07-13T08:38:01Z</time>
      </trkpt>
      <trkpt lat="47.715671" lon="7.538642">
        <ele>273.0</ele>
        <time>2020-07-13T08:38:03Z</time>
      </trkpt>
      <trkpt lat="47.715586" lon="7.53853">
        <ele>274.0</ele>
        <time>2020-07-13T08:38:05Z</time>
      </trkpt>
      <trkpt lat="47.715466" lon="7.538365">
        <ele>274.0</ele>
        <time>2020-07-13T08:38:08Z</time>
      </trkpt>
      <trkpt lat="47.715394" lon="7.538255">
        <ele>274.0</ele>
        <time>2020-07-13T08:38:10Z</time>
      </trkpt>
      <trkpt lat="47.715312" lon="7.538151">
        <ele>275.0</ele>
        <time>2020-07-13T08:38:12Z</time>
      </trkpt>
      <trkpt lat="47.715233" lon="7.538036">
        <ele>275.0</ele>
        <time>2020-07-13T08:38:14Z</time>
      </trkpt>
      <trkpt lat="47.715147" lon="7.537927">
        <ele>275.0</ele>
        <time>2020-07-13T08:38:16Z</time>
      </trkpt>
      <trkpt lat="47.715069" lon="7.537811">
        <ele>276.0</ele>
        <time>2020-07-13T08:38:18Z</time>
      </trkpt>
      <trkpt lat="47.714988" lon="7.537693">
        <ele>276.0</ele>
        <time>2020-07-13T08:38:20Z</time>
      </trkpt>
      <trkpt lat="47.714911" lon="7.537568">
        <ele>276.0</ele>
        <time>2020-07-13T08:38:22Z</time>
      </trkpt>
      <trkpt lat="47.714795" lon="7.537393">
        <ele>276.0</ele>
        <time>2020-07-13T08:38:25Z</time>
      </trkpt>
      <trkpt lat="47.714719" lon="7.537274">
        <ele>276.0</ele>
        <time>2020-07-13T08:38:27Z</time>
      </trkpt>
      <trkpt lat="47.714604" lon="7.537102">
        <ele>276.0</ele>
        <time>2020-07-13T08:38:30Z</time>
      </trkpt>
      <trkpt lat="47.714526" lon="7.536982">
        <ele>276.0</ele>
        <time>2020-07-13T08:38:32Z</time>
      </trkpt>
      <trkpt lat="47.714448" lon="7.536865">
        <ele>276.0</ele>
        <time>2020-07-13T08:38:34Z</time>
      </trkpt>
      <trkpt lat="47.71433" lon="7.536691">
        <ele>276.0</ele>
        <time>2020-07-13T08:38:37Z</time>
      </trkpt>
      <trkpt lat="47.714254" lon="7.536571">
        <ele>276.0</ele>
        <time>2020-07-13T08:38:39Z</time>
      </trkpt>
      <trkpt lat="47.714179" lon="7.53645">
        <ele>277.0</ele>
        <time>2020-07-13T08:38:41Z</time>
      </trkpt>
      <trkpt lat="47.714069" lon="7.536268">
        <ele>277.0</ele>
        <time>2020-07-13T08:38:44Z</time>
      </trkpt>
      <trkpt lat="47.71399" lon="7.536142">
        <ele>277.0</ele>
        <time>2020-07-13T08:38:46Z</time>
      </trkpt>
      <trkpt lat="47.713915" lon="7.536021">
        <ele>277.0</ele>
        <time>2020-07-13T08:38:48Z</time>
      </trkpt>
      <trkpt lat="47.713844" lon="7.535901">
        <ele>277.0</ele>
        <time>2020-07-13T08:38:50Z</time>
      </trkpt>
      <trkpt lat="47.713773" lon="7.535779">
        <ele>276.0</ele>
        <time>2020-07-13T08:38:52Z</time>
      </trkpt>
      <trkpt lat="47.713703" lon="7.535649">
        <ele>277.0</ele>
        <time>2020-07-13T08:38:54Z</time>
      </trkpt>
      <trkpt lat="47.713629" lon="7.535522">
        <ele>277.0</ele>
        <time>2020-07-13T08:38:56Z</time>
      </trkpt>
      <trkpt lat="47.713561" lon="7.535403">
        <ele>277.0</ele>
        <time>2020-07-13T08:38:58Z</time>
      </trkpt>
      <trkpt lat="47.713488" lon="7.535281">
        <ele>277.0</ele>
        <time>2020-07-13T08:39:00Z</time>
      </trkpt>
      <trkpt lat="47.713418" lon="7.535153">
        <ele>277.0</ele>
        <time>2020-07-13T08:39:02Z</time>
      </trkpt>
      <trkpt lat="47.713349" lon="7.535025">
        <ele>276.0</ele>
        <time>2020-07-13T08:39:04Z</time>
      </trkpt>
      <trkpt lat="47.713279" lon="7.534901">
        <ele>276.0</ele>
        <time>2020-07-13T08:39:06Z</time>
      </trkpt>
      <trkpt lat="47.713206" lon="7.534771">
        <ele>277.0</ele>
        <time>2020-07-13T08:39:08Z</time>
      </trkpt>
      <trkpt lat="47.713132" lon="7.534645">
        <ele>276.0</ele>
        <time>2020-07-13T08:39:10Z</time>
      </trkpt>
      <trkpt lat="47.713062" lon="7.534523">
        <ele>277.0</ele>
        <time>2020-07-13T08:39:12Z</time>
      </trkpt>
      <trkpt lat="47.712987" lon="7.534402">
        <ele>277.0</ele>
        <time>2020-07-13T08:39:14Z</time>
      </trkpt>
      <trkpt lat="47.712914" lon="7.534268">
        <ele>278.0</ele>
        <time>2020-07-13T08:39:16Z</time>
      </trkpt>
      <trkpt lat="47.712832" lon="7.534147">
        <ele>278.0</ele>
        <time>2020-07-13T08:39:18Z</time>
      </trkpt>
      <trkpt lat="47.712764" lon="7.534025">
        <ele>278.0</ele>
        <time>2020-07-13T08:39:20Z</time>
      </trkpt>
      <trkpt lat="47.712692" lon="7.533903">
        <ele>278.0</ele>
        <time>2020-07-13T08:39:22Z</time>
      </trkpt>
      <trkpt lat="47.712618" lon="7.533774">
        <ele>278.0</ele>
        <time>2020-07-13T08:39:24Z</time>
      </trkpt>
      <trkpt lat="47.712542" lon="7.533632">
        <ele>278.0</ele>
        <time>2020-07-13T08:39:26Z</time>
      </trkpt>
      <trkpt lat="47.712419" lon="7.533424">
        <ele>277.0</ele>
        <time>2020-07-13T08:39:29Z</time>
      </trkpt>
      <trkpt lat="47.712342" lon="7.533282">
        <ele>277.0</ele>
        <time>2020-07-13T08:39:31Z</time>
      </trkpt>
      <trkpt lat="47.712269" lon="7.533146">
        <ele>278.0</ele>
        <time>2020-07-13T08:39:33Z</time>
      </trkpt>
      <trkpt lat="47.7122" lon="7.533013">
        <ele>278.0</ele>
        <time>2020-07-13T08:39:35Z</time>
      </trkpt>
      <trkpt lat="47.712136" lon="7.532884">
        <ele>278.0</ele>
        <time>2020-07-13T08:39:37Z</time>
      </trkpt>
      <trkpt lat="47.712068" lon="7.532765">
        <ele>278.0</ele>
        <time>2020-07-13T08:39:39Z</time>
      </trkpt>
      <trkpt lat="47.712001" lon="7.532644">
        <ele>278.0</ele>
        <time>2020-07-13T08:39:41Z</time>
      </trkpt>
      <trkpt lat="47.711933" lon="7.532521">
        <ele>278.0</ele>
        <time>2020-07-13T08:39:43Z</time>
      </trkpt>
      <trkpt lat="47.711866" lon="7.532398">
        <ele>278.0</ele>
        <time>2020-07-13T08:39:45Z</time>
      </trkpt>
      <trkpt lat="47.711802" lon="7.532279">
        <ele>277.0</ele>
        <time>2020-07-13T08:39:47Z</time>
      </trkpt>
      <trkpt lat="47.711742" lon="7.532161">
        <ele>277.0</ele>
        <time>2020-07-13T08:39:49Z</time>
      </trkpt>
      <trkpt lat="47.711676" lon="7.532038">
        <ele>278.0</ele>
        <time>2020-07-13T08:39:51Z</time>
      </trkpt>
      <trkpt lat="47.711604" lon="7.531915">
        <ele>278.0</ele>
        <time>2020-07-13T08:39:53Z</time>
      </trkpt>
      <trkpt lat="47.711532" lon="7.531791">
        <ele>278.0</ele>
        <time>2020-07-13T08:39:55Z</time>
      </trkpt>
      <trkpt lat="47.71146" lon="7.531674">
        <ele>278.0</ele>
        <time>2020-07-13T08:39:57Z</time>
      </trkpt>
      <trkpt lat="47.71134" lon="7.531516">
        <ele>278.0</ele>
        <time>2020-07-13T08:40:00Z</time>
      </trkpt>
      <trkpt lat="47.711261" lon="7.531401">
        <ele>278.0</ele>
        <time>2020-07-13T08:40:02Z</time>
      </trkpt>
      <trkpt lat="47.711187" lon="7.531273">
        <ele>278.0</ele>
        <time>2020-07-13T08:40:04Z</time>
      </trkpt>
      <trkpt lat="47.711083" lon="7.531071">
        <ele>278.0</ele>
        <time>2020-07-13T08:40:07Z</time>
      </trkpt>
      <trkpt lat="47.71101" lon="7.530941">
        <ele>279.0</ele>
        <time>2020-07-13T08:40:09Z</time>
      </trkpt>
      <trkpt lat="47.710939" lon="7.530811">
        <ele>279.0</ele>
        <time>2020-07-13T08:40:11Z</time>
      </trkpt>
      <trkpt lat="47.710834" lon="7.530619">
        <ele>279.0</ele>
        <time>2020-07-13T08:40:14Z</time>
      </trkpt>
      <trkpt lat="47.710764" lon="7.530486">
        <ele>279.0</ele>
        <time>2020-07-13T08:40:16Z</time>
      </trkpt>
      <trkpt lat="47.71073" lon="7.530423">
        <ele>278.0</ele>
        <time>2020-07-13T08:40:17Z</time>
      </trkpt>
      <trkpt lat="47.710625" lon="7.530225">
        <ele>278.0</ele>
        <time>2020-07-13T08:40:20Z</time>
      </trkpt>
      <trkpt lat="47.710553" lon="7.530095">
        <ele>278.0</ele>
        <time>2020-07-13T08:40:22Z</time>
      </trkpt>
      <trkpt lat="47.710481" lon="7.529974">
        <ele>278.0</ele>
        <time>2020-07-13T08:40:24Z</time>
      </trkpt>
      <trkpt lat="47.710409" lon="7.529848">
        <ele>278.0</ele>
        <time>2020-07-13T08:40:26Z</time>
      </trkpt>
      <trkpt lat="47.710307" lon="7.529656">
        <ele>278.0</ele>
        <time>2020-07-13T08:40:29Z</time>
      </trkpt>
      <trkpt lat="47.710239" lon="7.529528">
        <ele>277.0</ele>
        <time>2020-07-13T08:40:31Z</time>
      </trkpt>
      <trkpt lat="47.710165" lon="7.529396">
        <ele>278.0</ele>
        <time>2020-07-13T08:40:33Z</time>
      </trkpt>
      <trkpt lat="47.710094" lon="7.529263">
        <ele>278.0</ele>
        <time>2020-07-13T08:40:35Z</time>
      </trkpt>
      <trkpt lat="47.710022" lon="7.529136">
        <ele>278.0</ele>
        <time>2020-07-13T08:40:37Z</time>
      </trkpt>
      <trkpt lat="47.70995" lon="7.529008">
        <ele>277.0</ele>
        <time>2020-07-13T08:40:39Z</time>
      </trkpt>
      <trkpt lat="47.709876" lon="7.528877">
        <ele>277.0</ele>
        <time>2020-07-13T08:40:41Z</time>
      </trkpt>
      <trkpt lat="47.709755" lon="7.52869">
        <ele>277.0</ele>
        <time>2020-07-13T08:40:44Z</time>
      </trkpt>
      <trkpt lat="47.709676" lon="7.528552">
        <ele>277.0</ele>
        <time>2020-07-13T08:40:46Z</time>
      </trkpt>
      <trkpt lat="47.709598" lon="7.528409">
        <ele>277.0</ele>
        <time>2020-07-13T08:40:48Z</time>
      </trkpt>
      <trkpt lat="47.709486" lon="7.528191">
        <ele>277.0</ele>
        <time>2020-07-13T08:40:51Z</time>
      </trkpt>
      <trkpt lat="47.709449" lon="7.528115">
        <ele>277.0</ele>
        <time>2020-07-13T08:40:52Z</time>
      </trkpt>
      <trkpt lat="47.709333" lon="7.527893">
        <ele>277.0</ele>
        <time>2020-07-13T08:40:55Z</time>
      </trkpt>
      <trkpt lat="47.709201" lon="7.527666">
        <ele>276.0</ele>
        <time>2020-07-13T08:40:58Z</time>
      </trkpt>
      <trkpt lat="47.709117" lon="7.527505">
        <ele>276.0</ele>
        <time>2020-07-13T08:41:00Z</time>
      </trkpt>
      <trkpt lat="47.709027" lon="7.527353">
        <ele>276.0</ele>
        <time>2020-07-13T08:41:02Z</time>
      </trkpt>
      <trkpt lat="47.7089" lon="7.527126">
        <ele>276.0</ele>
        <time>2020-07-13T08:41:05Z</time>
      </trkpt>
      <trkpt lat="47.708856" lon="7.527054">
        <ele>276.0</ele>
        <time>2020-07-13T08:41:06Z</time>
      </trkpt>
      <trkpt lat="47.708721" lon="7.526825">
        <ele>277.0</ele>
        <time>2020-07-13T08:41:09Z</time>
      </trkpt>
      <trkpt lat="47.708632" lon="7.526669">
        <ele>277.0</ele>
        <time>2020-07-13T08:41:11Z</time>
      </trkpt>
      <trkpt lat="47.708544" lon="7.526517">
        <ele>277.0</ele>
        <time>2020-07-13T08:41:13Z</time>
      </trkpt>
      <trkpt lat="47.708418" lon="7.526297">
        <ele>277.0</ele>
        <time>2020-07-13T08:41:16Z</time>
      </trkpt>
      <trkpt lat="47.708336" lon="7.52615">
        <ele>277.0</ele>
        <time>2020-07-13T08:41:18Z</time>
      </trkpt>
      <trkpt lat="47.708254" lon="7.525996">
        <ele>276.0</ele>
        <time>2020-07-13T08:41:20Z</time>
      </trkpt>
      <trkpt lat="47.708216" lon="7.525923">
        <ele>276.0</ele>
        <time>2020-07-13T08:41:21Z</time>
      </trkpt>
      <trkpt lat="47.708102" lon="7.525702">
        <ele>275.0</ele>
        <time>2020-07-13T08:41:24Z</time>
      </trkpt>
      <trkpt lat="47.708025" lon="7.52556">
        <ele>276.0</ele>
        <time>2020-07-13T08:41:26Z</time>
      </trkpt>
      <trkpt lat="47.707949" lon="7.525415">
        <ele>276.0</ele>
        <time>2020-07-13T08:41:28Z</time>
      </trkpt>
      <trkpt lat="47.707871" lon="7.525281">
        <ele>277.0</ele>
        <time>2020-07-13T08:41:30Z</time>
      </trkpt>
      <trkpt lat="47.707796" lon="7.525144">
        <ele>277.0</ele>
        <time>2020-07-13T08:41:32Z</time>
      </trkpt>
      <trkpt lat="47.707684" lon="7.524939">
        <ele>277.0</ele>
        <time>2020-07-13T08:41:35Z</time>
      </trkpt>
      <trkpt lat="47.707608" lon="7.52481">
        <ele>277.0</ele>
        <time>2020-07-13T08:41:37Z</time>
      </trkpt>
      <trkpt lat="47.707568" lon="7.524748">
        <ele>277.0</ele>
        <time>2020-07-13T08:41:38Z</time>
      </trkpt>
      <trkpt lat="47.707454" lon="7.524569">
        <ele>275.0</ele>
        <time>2020-07-13T08:41:41Z</time>
      </trkpt>
      <trkpt lat="47.707378" lon="7.52444">
        <ele>275.0</ele>
        <time>2020-07-13T08:41:43Z</time>
      </trkpt>
      <trkpt lat="47.707254" lon="7.524233">
        <ele>276.0</ele>
        <time>2020-07-13T08:41:46Z</time>
      </trkpt>
      <trkpt lat="47.70718" lon="7.524079">
        <ele>275.0</ele>
        <time>2020-07-13T08:41:48Z</time>
      </trkpt>
      <trkpt lat="47.707066" lon="7.52386">
        <ele>276.0</ele>
        <time>2020-07-13T08:41:51Z</time>
      </trkpt>
      <trkpt lat="47.707024" lon="7.523787">
        <ele>276.0</ele>
        <time>2020-07-13T08:41:52Z</time>
      </trkpt>
      <trkpt lat="47.706918" lon="7.52359">
        <ele>276.0</ele>
        <time>2020-07-13T08:41:55Z</time>
      </trkpt>
      <trkpt lat="47.706844" lon="7.52345">
        <ele>276.0</ele>
        <time>2020-07-13T08:41:57Z</time>
      </trkpt>
      <trkpt lat="47.706768" lon="7.523308">
        <ele>277.0</ele>
        <time>2020-07-13T08:41:59Z</time>
      </trkpt>
      <trkpt lat="47.706656" lon="7.52311">
        <ele>276.0</ele>
        <time>2020-07-13T08:42:02Z</time>
      </trkpt>
      <trkpt lat="47.70658" lon="7.522975">
        <ele>276.0</ele>
        <time>2020-07-13T08:42:04Z</time>
      </trkpt>
      <trkpt lat="47.706502" lon="7.522838">
        <ele>276.0</ele>
        <time>2020-07-13T08:42:06Z</time>
      </trkpt>
      <trkpt lat="47.706425" lon="7.522706">
        <ele>277.0</ele>
        <time>2020-07-13T08:42:08Z</time>
      </trkpt>
      <trkpt lat="47.706351" lon="7.522572">
        <ele>277.0</ele>
        <time>2020-07-13T08:42:10Z</time>
      </trkpt>
      <trkpt lat="47.706278" lon="7.522438">
        <ele>277.0</ele>
        <time>2020-07-13T08:42:12Z</time>
      </trkpt>
      <trkpt lat="47.706204" lon="7.522301">
        <ele>277.0</ele>
        <time>2020-07-13T08:42:14Z</time>
      </trkpt>
      <trkpt lat="47.706133" lon="7.522178">
        <ele>276.0</ele>
        <time>2020-07-13T08:42:16Z</time>
      </trkpt>
      <trkpt lat="47.706061" lon="7.52205">
        <ele>277.0</ele>
        <time>2020-07-13T08:42:18Z</time>
      </trkpt>
      <trkpt lat="47.705992" lon="7.521912">
        <ele>277.0</ele>
        <time>2020-07-13T08:42:20Z</time>
      </trkpt>
      <trkpt lat="47.705917" lon="7.521779">
        <ele>277.0</ele>
        <time>2020-07-13T08:42:22Z</time>
      </trkpt>
      <trkpt lat="47.70584" lon="7.521657">
        <ele>277.0</ele>
        <time>2020-07-13T08:42:24Z</time>
      </trkpt>
      <trkpt lat="47.705723" lon="7.521468">
        <ele>277.0</ele>
        <time>2020-07-13T08:42:27Z</time>
      </trkpt>
      <trkpt lat="47.705651" lon="7.521335">
        <ele>277.0</ele>
        <time>2020-07-13T08:42:29Z</time>
      </trkpt>
      <trkpt lat="47.705612" lon="7.521266">
        <ele>277.0</ele>
        <time>2020-07-13T08:42:30Z</time>
      </trkpt>
      <trkpt lat="47.705499" lon="7.521056">
        <ele>277.0</ele>
        <time>2020-07-13T08:42:33Z</time>
      </trkpt>
      <trkpt lat="47.705426" lon="7.520918">
        <ele>276.0</ele>
        <time>2020-07-13T08:42:35Z</time>
      </trkpt>
      <trkpt lat="47.705309" lon="7.520709">
        <ele>276.0</ele>
        <time>2020-07-13T08:42:38Z</time>
      </trkpt>
      <trkpt lat="47.705227" lon="7.520568">
        <ele>275.0</ele>
        <time>2020-07-13T08:42:40Z</time>
      </trkpt>
      <trkpt lat="47.705149" lon="7.520434">
        <ele>275.0</ele>
        <time>2020-07-13T08:42:42Z</time>
      </trkpt>
      <trkpt lat="47.70507" lon="7.520293">
        <ele>275.0</ele>
        <time>2020-07-13T08:42:44Z</time>
      </trkpt>
      <trkpt lat="47.704995" lon="7.52016">
        <ele>275.0</ele>
        <time>2020-07-13T08:42:46Z</time>
      </trkpt>
      <trkpt lat="47.70488" lon="7.519962">
        <ele>275.0</ele>
        <time>2020-07-13T08:42:49Z</time>
      </trkpt>
      <trkpt lat="47.704804" lon="7.519826">
        <ele>275.0</ele>
        <time>2020-07-13T08:42:51Z</time>
      </trkpt>
      <trkpt lat="47.704724" lon="7.51969">
        <ele>276.0</ele>
        <time>2020-07-13T08:42:53Z</time>
      </trkpt>
      <trkpt lat="47.704644" lon="7.519556">
        <ele>276.0</ele>
        <time>2020-07-13T08:42:55Z</time>
      </trkpt>
      <trkpt lat="47.704607" lon="7.519483">
        <ele>276.0</ele>
        <time>2020-07-13T08:42:56Z</time>
      </trkpt>
      <trkpt lat="47.704493" lon="7.519281">
        <ele>276.0</ele>
        <time>2020-07-13T08:42:59Z</time>
      </trkpt>
      <trkpt lat="47.704416" lon="7.51914">
        <ele>277.0</ele>
        <time>2020-07-13T08:43:01Z</time>
      </trkpt>
      <trkpt lat="47.70434" lon="7.518998">
        <ele>277.0</ele>
        <time>2020-07-13T08:43:03Z</time>
      </trkpt>
      <trkpt lat="47.704222" lon="7.518792">
        <ele>277.0</ele>
        <time>2020-07-13T08:43:06Z</time>
      </trkpt>
      <trkpt lat="47.704143" lon="7.518653">
        <ele>278.0</ele>
        <time>2020-07-13T08:43:08Z</time>
      </trkpt>
      <trkpt lat="47.704063" lon="7.518512">
        <ele>278.0</ele>
        <time>2020-07-13T08:43:10Z</time>
      </trkpt>
      <trkpt lat="47.703986" lon="7.518373">
        <ele>278.0</ele>
        <time>2020-07-13T08:43:12Z</time>
      </trkpt>
      <trkpt lat="47.703869" lon="7.518175">
        <ele>278.0</ele>
        <time>2020-07-13T08:43:15Z</time>
      </trkpt>
      <trkpt lat="47.703794" lon="7.518038">
        <ele>278.0</ele>
        <time>2020-07-13T08:43:17Z</time>
      </trkpt>
      <trkpt lat="47.703757" lon="7.517971">
        <ele>277.0</ele>
        <time>2020-07-13T08:43:18Z</time>
      </trkpt>
      <trkpt lat="47.703639" lon="7.517772">
        <ele>277.0</ele>
        <time>2020-07-13T08:43:21Z</time>
      </trkpt>
      <trkpt lat="47.703559" lon="7.517636">
        <ele>278.0</ele>
        <time>2020-07-13T08:43:23Z</time>
      </trkpt>
      <trkpt lat="47.703484" lon="7.517489">
        <ele>277.0</ele>
        <time>2020-07-13T08:43:25Z</time>
      </trkpt>
      <trkpt lat="47.703364" lon="7.517294">
        <ele>278.0</ele>
        <time>2020-07-13T08:43:28Z</time>
      </trkpt>
      <trkpt lat="47.703291" lon="7.517159">
        <ele>278.0</ele>
        <time>2020-07-13T08:43:30Z</time>
      </trkpt>
      <trkpt lat="47.703223" lon="7.517028">
        <ele>278.0</ele>
        <time>2020-07-13T08:43:32Z</time>
      </trkpt>
      <trkpt lat="47.703186" lon="7.51697">
        <ele>278.0</ele>
        <time>2020-07-13T08:43:33Z</time>
      </trkpt>
      <trkpt lat="47.703076" lon="7.516775">
        <ele>279.0</ele>
        <time>2020-07-13T08:43:36Z</time>
      </trkpt>
      <trkpt lat="47.702998" lon="7.516651">
        <ele>279.0</ele>
        <time>2020-07-13T08:43:38Z</time>
      </trkpt>
      <trkpt lat="47.702913" lon="7.516541">
        <ele>279.0</ele>
        <time>2020-07-13T08:43:40Z</time>
      </trkpt>
      <trkpt lat="47.702829" lon="7.516437">
        <ele>279.0</ele>
        <time>2020-07-13T08:43:42Z</time>
      </trkpt>
      <trkpt lat="47.702751" lon="7.516321">
        <ele>279.0</ele>
        <time>2020-07-13T08:43:44Z</time>
      </trkpt>
      <trkpt lat="47.70266" lon="7.516199">
        <ele>279.0</ele>
        <time>2020-07-13T08:43:46Z</time>
      </trkpt>
      <trkpt lat="47.702571" lon="7.516068">
        <ele>279.0</ele>
        <time>2020-07-13T08:43:48Z</time>
      </trkpt>
      <trkpt lat="47.702485" lon="7.515941">
        <ele>278.0</ele>
        <time>2020-07-13T08:43:50Z</time>
      </trkpt>
      <trkpt lat="47.70236" lon="7.515777">
        <ele>277.0</ele>
        <time>2020-07-13T08:43:53Z</time>
      </trkpt>
      <trkpt lat="47.702289" lon="7.515677">
        <ele>278.0</ele>
        <time>2020-07-13T08:43:55Z</time>
      </trkpt>
      <trkpt lat="47.702213" lon="7.515582">
        <ele>278.0</ele>
        <time>2020-07-13T08:43:57Z</time>
      </trkpt>
      <trkpt lat="47.702137" lon="7.515486">
        <ele>278.0</ele>
        <time>2020-07-13T08:43:59Z</time>
      </trkpt>
      <trkpt lat="47.702021" lon="7.515347">
        <ele>277.0</ele>
        <time>2020-07-13T08:44:02Z</time>
      </trkpt>
      <trkpt lat="47.701939" lon="7.515259">
        <ele>277.0</ele>
        <time>2020-07-13T08:44:04Z</time>
      </trkpt>
      <trkpt lat="47.701855" lon="7.515162">
        <ele>278.0</ele>
        <time>2020-07-13T08:44:06Z</time>
      </trkpt>
      <trkpt lat="47.701716" lon="7.515022">
        <ele>278.0</ele>
        <time>2020-07-13T08:44:09Z</time>
      </trkpt>
      <trkpt lat="47.701629" lon="7.51494">
        <ele>278.0</ele>
        <time>2020-07-13T08:44:11Z</time>
      </trkpt>
      <trkpt lat="47.701542" lon="7.51486">
        <ele>278.0</ele>
        <time>2020-07-13T08:44:13Z</time>
      </trkpt>
      <trkpt lat="47.701445" lon="7.51477">
        <ele>278.0</ele>
        <time>2020-07-13T08:44:15Z</time>
      </trkpt>
      <trkpt lat="47.70135" lon="7.514689">
        <ele>279.0</ele>
        <time>2020-07-13T08:44:17Z</time>
      </trkpt>
      <trkpt lat="47.701252" lon="7.514595">
        <ele>279.0</ele>
        <time>2020-07-13T08:44:19Z</time>
      </trkpt>
      <trkpt lat="47.701156" lon="7.514506">
        <ele>279.0</ele>
        <time>2020-07-13T08:44:21Z</time>
      </trkpt>
      <trkpt lat="47.701062" lon="7.514423">
        <ele>280.0</ele>
        <time>2020-07-13T08:44:23Z</time>
      </trkpt>
      <trkpt lat="47.700965" lon="7.514342">
        <ele>280.0</ele>
        <time>2020-07-13T08:44:25Z</time>
      </trkpt>
      <trkpt lat="47.700874" lon="7.514269">
        <ele>280.0</ele>
        <time>2020-07-13T08:44:27Z</time>
      </trkpt>
      <trkpt lat="47.700781" lon="7.51421">
        <ele>279.0</ele>
        <time>2020-07-13T08:44:29Z</time>
      </trkpt>
      <trkpt lat="47.700688" lon="7.514136">
        <ele>279.0</ele>
        <time>2020-07-13T08:44:31Z</time>
      </trkpt>
      <trkpt lat="47.700595" lon="7.514071">
        <ele>279.0</ele>
        <time>2020-07-13T08:44:33Z</time>
      </trkpt>
      <trkpt lat="47.700504" lon="7.514001">
        <ele>279.0</ele>
        <time>2020-07-13T08:44:35Z</time>
      </trkpt>
      <trkpt lat="47.700409" lon="7.513933">
        <ele>279.0</ele>
        <time>2020-07-13T08:44:37Z</time>
      </trkpt>
      <trkpt lat="47.700304" lon="7.513884">
        <ele>280.0</ele>
        <time>2020-07-13T08:44:39Z</time>
      </trkpt>
      <trkpt lat="47.700203" lon="7.513832">
        <ele>280.0</ele>
        <time>2020-07-13T08:44:41Z</time>
      </trkpt>
      <trkpt lat="47.700103" lon="7.513784">
        <ele>280.0</ele>
        <time>2020-07-13T08:44:43Z</time>
      </trkpt>
      <trkpt lat="47.699952" lon="7.513714">
        <ele>280.0</ele>
        <time>2020-07-13T08:44:46Z</time>
      </trkpt>
      <trkpt lat="47.699897" lon="7.513689">
        <ele>280.0</ele>
        <time>2020-07-13T08:44:47Z</time>
      </trkpt>
      <trkpt lat="47.699738" lon="7.513616">
        <ele>280.0</ele>
        <time>2020-07-13T08:44:50Z</time>
      </trkpt>
      <trkpt lat="47.699638" lon="7.513568">
        <ele>280.0</ele>
        <time>2020-07-13T08:44:52Z</time>
      </trkpt>
      <trkpt lat="47.699534" lon="7.513531">
        <ele>280.0</ele>
        <time>2020-07-13T08:44:54Z</time>
      </trkpt>
      <trkpt lat="47.69937" lon="7.513461">
        <ele>280.0</ele>
        <time>2020-07-13T08:44:57Z</time>
      </trkpt>
      <trkpt lat="47.69927" lon="7.513425">
        <ele>280.0</ele>
        <time>2020-07-13T08:44:59Z</time>
      </trkpt>
      <trkpt lat="47.699164" lon="7.513382">
        <ele>279.0</ele>
        <time>2020-07-13T08:45:01Z</time>
      </trkpt>
      <trkpt lat="47.699058" lon="7.51334">
        <ele>280.0</ele>
        <time>2020-07-13T08:45:03Z</time>
      </trkpt>
      <trkpt lat="47.698959" lon="7.513304">
        <ele>280.0</ele>
        <time>2020-07-13T08:45:05Z</time>
      </trkpt>
      <trkpt lat="47.698796" lon="7.513267">
        <ele>279.0</ele>
        <time>2020-07-13T08:45:08Z</time>
      </trkpt>
      <trkpt lat="47.698686" lon="7.513245">
        <ele>279.0</ele>
        <time>2020-07-13T08:45:10Z</time>
      </trkpt>
      <trkpt lat="47.698585" lon="7.513229">
        <ele>279.0</ele>
        <time>2020-07-13T08:45:12Z</time>
      </trkpt>
      <trkpt lat="47.698478" lon="7.513216">
        <ele>278.0</ele>
        <time>2020-07-13T08:45:14Z</time>
      </trkpt>
      <trkpt lat="47.698423" lon="7.513213">
        <ele>278.0</ele>
        <time>2020-07-13T08:45:15Z</time>
      </trkpt>
      <trkpt lat="47.698252" lon="7.51319">
        <ele>278.0</ele>
        <time>2020-07-13T08:45:18Z</time>
      </trkpt>
      <trkpt lat="47.698137" lon="7.513176">
        <ele>279.0</ele>
        <time>2020-07-13T08:45:20Z</time>
      </trkpt>
      <trkpt lat="47.698032" lon="7.513165">
        <ele>278.0</ele>
        <time>2020-07-13T08:45:22Z</time>
      </trkpt>
      <trkpt lat="47.697925" lon="7.513148">
        <ele>278.0</ele>
        <time>2020-07-13T08:45:24Z</time>
      </trkpt>
      <trkpt lat="47.697816" lon="7.513153">
        <ele>278.0</ele>
        <time>2020-07-13T08:45:26Z</time>
      </trkpt>
      <trkpt lat="47.697705" lon="7.513152">
        <ele>278.0</ele>
        <time>2020-07-13T08:45:28Z</time>
      </trkpt>
      <trkpt lat="47.697588" lon="7.513156">
        <ele>278.0</ele>
        <time>2020-07-13T08:45:30Z</time>
      </trkpt>
      <trkpt lat="47.697471" lon="7.51317">
        <ele>278.0</ele>
        <time>2020-07-13T08:45:32Z</time>
      </trkpt>
      <trkpt lat="47.697296" lon="7.51318">
        <ele>279.0</ele>
        <time>2020-07-13T08:45:35Z</time>
      </trkpt>
      <trkpt lat="47.69718" lon="7.513191">
        <ele>278.0</ele>
        <time>2020-07-13T08:45:37Z</time>
      </trkpt>
      <trkpt lat="47.697122" lon="7.513197">
        <ele>279.0</ele>
        <time>2020-07-13T08:45:38Z</time>
      </trkpt>
      <trkpt lat="47.697005" lon="7.513207">
        <ele>279.0</ele>
        <time>2020-07-13T08:45:40Z</time>
      </trkpt>
      <trkpt lat="47.696839" lon="7.513226">
        <ele>279.0</ele>
        <time>2020-07-13T08:45:43Z</time>
      </trkpt>
      <trkpt lat="47.696784" lon="7.513235">
        <ele>279.0</ele>
        <time>2020-07-13T08:45:44Z</time>
      </trkpt>
      <trkpt lat="47.696621" lon="7.513279">
        <ele>280.0</ele>
        <time>2020-07-13T08:45:47Z</time>
      </trkpt>
      <trkpt lat="47.696518" lon="7.513306">
        <ele>280.0</ele>
        <time>2020-07-13T08:45:49Z</time>
      </trkpt>
      <trkpt lat="47.696411" lon="7.513352">
        <ele>280.0</ele>
        <time>2020-07-13T08:45:51Z</time>
      </trkpt>
      <trkpt lat="47.696303" lon="7.513388">
        <ele>280.0</ele>
        <time>2020-07-13T08:45:53Z</time>
      </trkpt>
      <trkpt lat="47.696194" lon="7.513434">
        <ele>280.0</ele>
        <time>2020-07-13T08:45:55Z</time>
      </trkpt>
      <trkpt lat="47.696089" lon="7.513467">
        <ele>280.0</ele>
        <time>2020-07-13T08:45:57Z</time>
      </trkpt>
      <trkpt lat="47.695999" lon="7.5135">
        <ele>281.0</ele>
        <time>2020-07-13T08:45:59Z</time>
      </trkpt>
      <trkpt lat="47.69589" lon="7.513539">
        <ele>282.0</ele>
        <time>2020-07-13T08:46:02Z</time>
      </trkpt>
      <trkpt lat="47.695817" lon="7.513567">
        <ele>282.0</ele>
        <time>2020-07-13T08:46:04Z</time>
      </trkpt>
      <trkpt lat="47.695731" lon="7.513593">
        <ele>281.0</ele>
        <time>2020-07-13T08:46:06Z</time>
      </trkpt>
      <trkpt lat="47.695603" lon="7.513632">
        <ele>280.0</ele>
        <time>2020-07-13T08:46:09Z</time>
      </trkpt>
      <trkpt lat="47.695522" lon="7.513678">
        <ele>280.0</ele>
        <time>2020-07-13T08:46:11Z</time>
      </trkpt>
      <trkpt lat="47.695437" lon="7.513709">
        <ele>280.0</ele>
        <time>2020-07-13T08:46:13Z</time>
      </trkpt>
      <trkpt lat="47.69534" lon="7.513743">
        <ele>280.0</ele>
        <time>2020-07-13T08:46:15Z</time>
      </trkpt>
      <trkpt lat="47.695225" lon="7.513788">
        <ele>280.0</ele>
        <time>2020-07-13T08:46:17Z</time>
      </trkpt>
      <trkpt lat="47.695048" lon="7.513876">
        <ele>280.0</ele>
        <time>2020-07-13T08:46:20Z</time>
      </trkpt>
      <trkpt lat="47.694883" lon="7.513983">
        <ele>280.0</ele>
        <time>2020-07-13T08:46:23Z</time>
      </trkpt>
      <trkpt lat="47.694776" lon="7.514052">
        <ele>280.0</ele>
        <time>2020-07-13T08:46:25Z</time>
      </trkpt>
      <trkpt lat="47.694669" lon="7.51412">
        <ele>279.0</ele>
        <time>2020-07-13T08:46:27Z</time>
      </trkpt>
      <trkpt lat="47.69451" lon="7.514236">
        <ele>279.0</ele>
        <time>2020-07-13T08:46:30Z</time>
      </trkpt>
      <trkpt lat="47.694403" lon="7.514322">
        <ele>279.0</ele>
        <time>2020-07-13T08:46:32Z</time>
      </trkpt>
      <trkpt lat="47.694299" lon="7.514406">
        <ele>279.0</ele>
        <time>2020-07-13T08:46:34Z</time>
      </trkpt>
      <trkpt lat="47.694193" lon="7.514468">
        <ele>278.0</ele>
        <time>2020-07-13T08:46:36Z</time>
      </trkpt>
      <trkpt lat="47.694081" lon="7.514554">
        <ele>278.0</ele>
        <time>2020-07-13T08:46:38Z</time>
      </trkpt>
      <trkpt lat="47.693972" lon="7.514634">
        <ele>278.0</ele>
        <time>2020-07-13T08:46:40Z</time>
      </trkpt>
      <trkpt lat="47.693868" lon="7.514712">
        <ele>279.0</ele>
        <time>2020-07-13T08:46:42Z</time>
      </trkpt>
      <trkpt lat="47.693723" lon="7.514829">
        <ele>278.0</ele>
        <time>2020-07-13T08:46:45Z</time>
      </trkpt>
      <trkpt lat="47.693676" lon="7.514864">
        <ele>278.0</ele>
        <time>2020-07-13T08:46:46Z</time>
      </trkpt>
      <trkpt lat="47.693586" lon="7.514938">
        <ele>278.0</ele>
        <time>2020-07-13T08:46:48Z</time>
      </trkpt>
      <trkpt lat="47.693447" lon="7.515052">
        <ele>278.0</ele>
        <time>2020-07-13T08:46:51Z</time>
      </trkpt>
      <trkpt lat="47.693351" lon="7.515127">
        <ele>279.0</ele>
        <time>2020-07-13T08:46:53Z</time>
      </trkpt>
      <trkpt lat="47.693204" lon="7.515238">
        <ele>279.0</ele>
        <time>2020-07-13T08:46:56Z</time>
      </trkpt>
      <trkpt lat="47.693154" lon="7.515278">
        <ele>279.0</ele>
        <time>2020-07-13T08:46:57Z</time>
      </trkpt>
      <trkpt lat="47.692998" lon="7.515396">
        <ele>279.0</ele>
        <time>2020-07-13T08:47:00Z</time>
      </trkpt>
      <trkpt lat="47.692899" lon="7.515467">
        <ele>279.0</ele>
        <time>2020-07-13T08:47:02Z</time>
      </trkpt>
      <trkpt lat="47.692851" lon="7.515505">
        <ele>279.0</ele>
        <time>2020-07-13T08:47:03Z</time>
      </trkpt>
      <trkpt lat="47.692758" lon="7.515589">
        <ele>279.0</ele>
        <time>2020-07-13T08:47:05Z</time>
      </trkpt>
      <trkpt lat="47.692605" lon="7.515702">
        <ele>279.0</ele>
        <time>2020-07-13T08:47:08Z</time>
      </trkpt>
      <trkpt lat="47.692507" lon="7.515785">
        <ele>279.0</ele>
        <time>2020-07-13T08:47:10Z</time>
      </trkpt>
      <trkpt lat="47.692362" lon="7.515902">
        <ele>279.0</ele>
        <time>2020-07-13T08:47:13Z</time>
      </trkpt>
      <trkpt lat="47.692258" lon="7.515978">
        <ele>279.0</ele>
        <time>2020-07-13T08:47:15Z</time>
      </trkpt>
      <trkpt lat="47.692158" lon="7.516051">
        <ele>280.0</ele>
        <time>2020-07-13T08:47:17Z</time>
      </trkpt>
      <trkpt lat="47.692068" lon="7.516121">
        <ele>280.0</ele>
        <time>2020-07-13T08:47:19Z</time>
      </trkpt>
      <trkpt lat="47.691974" lon="7.516196">
        <ele>280.0</ele>
        <time>2020-07-13T08:47:21Z</time>
      </trkpt>
      <trkpt lat="47.691885" lon="7.516255">
        <ele>280.0</ele>
        <time>2020-07-13T08:47:23Z</time>
      </trkpt>
      <trkpt lat="47.691796" lon="7.516332">
        <ele>280.0</ele>
        <time>2020-07-13T08:47:25Z</time>
      </trkpt>
      <trkpt lat="47.691663" lon="7.516438">
        <ele>279.0</ele>
        <time>2020-07-13T08:47:28Z</time>
      </trkpt>
      <trkpt lat="47.69157" lon="7.516515">
        <ele>279.0</ele>
        <time>2020-07-13T08:47:30Z</time>
      </trkpt>
      <trkpt lat="47.691477" lon="7.516586">
        <ele>280.0</ele>
        <time>2020-07-13T08:47:32Z</time>
      </trkpt>
      <trkpt lat="47.691385" lon="7.51666">
        <ele>279.0</ele>
        <time>2020-07-13T08:47:34Z</time>
      </trkpt>
      <trkpt lat="47.691343" lon="7.516696">
        <ele>280.0</ele>
        <time>2020-07-13T08:47:35Z</time>
      </trkpt>
      <trkpt lat="47.691212" lon="7.516808">
        <ele>280.0</ele>
        <time>2020-07-13T08:47:38Z</time>
      </trkpt>
      <trkpt lat="47.691116" lon="7.516876">
        <ele>280.0</ele>
        <time>2020-07-13T08:47:40Z</time>
      </trkpt>
      <trkpt lat="47.691026" lon="7.516944">
        <ele>280.0</ele>
        <time>2020-07-13T08:47:42Z</time>
      </trkpt>
      <trkpt lat="47.690977" lon="7.51698">
        <ele>280.0</ele>
        <time>2020-07-13T08:47:43Z</time>
      </trkpt>
      <trkpt lat="47.690883" lon="7.517052">
        <ele>280.0</ele>
        <time>2020-07-13T08:47:45Z</time>
      </trkpt>
      <trkpt lat="47.690713" lon="7.517186">
        <ele>278.0</ele>
        <time>2020-07-13T08:47:49Z</time>
      </trkpt>
      <trkpt lat="47.690631" lon="7.517255">
        <ele>278.0</ele>
        <time>2020-07-13T08:47:51Z</time>
      </trkpt>
      <trkpt lat="47.690541" lon="7.517324">
        <ele>277.0</ele>
        <time>2020-07-13T08:47:53Z</time>
      </trkpt>
      <trkpt lat="47.690435" lon="7.517409">
        <ele>277.0</ele>
        <time>2020-07-13T08:47:55Z</time>
      </trkpt>
      <trkpt lat="47.69028" lon="7.517521">
        <ele>278.0</ele>
        <time>2020-07-13T08:47:58Z</time>
      </trkpt>
      <trkpt lat="47.69023" lon="7.517561">
        <ele>278.0</ele>
        <time>2020-07-13T08:47:59Z</time>
      </trkpt>
      <trkpt lat="47.690079" lon="7.517677">
        <ele>277.0</ele>
        <time>2020-07-13T08:48:02Z</time>
      </trkpt>
      <trkpt lat="47.689933" lon="7.517788">
        <ele>278.0</ele>
        <time>2020-07-13T08:48:05Z</time>
      </trkpt>
      <trkpt lat="47.689839" lon="7.51786">
        <ele>278.0</ele>
        <time>2020-07-13T08:48:07Z</time>
      </trkpt>
      <trkpt lat="47.68975" lon="7.517917">
        <ele>279.0</ele>
        <time>2020-07-13T08:48:09Z</time>
      </trkpt>
      <trkpt lat="47.689662" lon="7.517975">
        <ele>279.0</ele>
        <time>2020-07-13T08:48:11Z</time>
      </trkpt>
      <trkpt lat="47.689614" lon="7.518004">
        <ele>279.0</ele>
        <time>2020-07-13T08:48:12Z</time>
      </trkpt>
      <trkpt lat="47.689435" lon="7.518137">
        <ele>279.0</ele>
        <time>2020-07-13T08:48:16Z</time>
      </trkpt>
      <trkpt lat="47.689334" lon="7.518199">
        <ele>279.0</ele>
        <time>2020-07-13T08:48:18Z</time>
      </trkpt>
      <trkpt lat="47.689237" lon="7.518268">
        <ele>280.0</ele>
        <time>2020-07-13T08:48:20Z</time>
      </trkpt>
      <trkpt lat="47.689187" lon="7.518303">
        <ele>281.0</ele>
        <time>2020-07-13T08:48:21Z</time>
      </trkpt>
      <trkpt lat="47.689047" lon="7.5184">
        <ele>282.0</ele>
        <time>2020-07-13T08:48:24Z</time>
      </trkpt>
      <trkpt lat="47.688955" lon="7.518465">
        <ele>282.0</ele>
        <time>2020-07-13T08:48:26Z</time>
      </trkpt>
      <trkpt lat="47.688856" lon="7.518531">
        <ele>281.0</ele>
        <time>2020-07-13T08:48:28Z</time>
      </trkpt>
      <trkpt lat="47.688707" lon="7.518635">
        <ele>281.0</ele>
        <time>2020-07-13T08:48:31Z</time>
      </trkpt>
      <trkpt lat="47.688605" lon="7.518697">
        <ele>281.0</ele>
        <time>2020-07-13T08:48:33Z</time>
      </trkpt>
      <trkpt lat="47.688502" lon="7.518751">
        <ele>281.0</ele>
        <time>2020-07-13T08:48:35Z</time>
      </trkpt>
      <trkpt lat="47.688352" lon="7.51883">
        <ele>281.0</ele>
        <time>2020-07-13T08:48:38Z</time>
      </trkpt>
      <trkpt lat="47.688303" lon="7.518857">
        <ele>281.0</ele>
        <time>2020-07-13T08:48:39Z</time>
      </trkpt>
      <trkpt lat="47.688152" lon="7.518939">
        <ele>281.0</ele>
        <time>2020-07-13T08:48:42Z</time>
      </trkpt>
      <trkpt lat="47.688052" lon="7.519001">
        <ele>282.0</ele>
        <time>2020-07-13T08:48:44Z</time>
      </trkpt>
      <trkpt lat="47.688003" lon="7.519034">
        <ele>282.0</ele>
        <time>2020-07-13T08:48:45Z</time>
      </trkpt>
      <trkpt lat="47.687853" lon="7.519131">
        <ele>282.0</ele>
        <time>2020-07-13T08:48:48Z</time>
      </trkpt>
      <trkpt lat="47.687702" lon="7.51921">
        <ele>281.0</ele>
        <time>2020-07-13T08:48:51Z</time>
      </trkpt>
      <trkpt lat="47.687596" lon="7.519254">
        <ele>281.0</ele>
        <time>2020-07-13T08:48:53Z</time>
      </trkpt>
      <trkpt lat="47.68749" lon="7.51931">
        <ele>281.0</ele>
        <time>2020-07-13T08:48:55Z</time>
      </trkpt>
      <trkpt lat="47.687387" lon="7.519361">
        <ele>281.0</ele>
        <time>2020-07-13T08:48:57Z</time>
      </trkpt>
      <trkpt lat="47.687282" lon="7.519411">
        <ele>282.0</ele>
        <time>2020-07-13T08:48:59Z</time>
      </trkpt>
      <trkpt lat="47.687122" lon="7.519476">
        <ele>281.0</ele>
        <time>2020-07-13T08:49:02Z</time>
      </trkpt>
      <trkpt lat="47.687022" lon="7.519516">
        <ele>282.0</ele>
        <time>2020-07-13T08:49:04Z</time>
      </trkpt>
      <trkpt lat="47.686916" lon="7.519562">
        <ele>282.0</ele>
        <time>2020-07-13T08:49:06Z</time>
      </trkpt>
      <trkpt lat="47.686861" lon="7.51959">
        <ele>282.0</ele>
        <time>2020-07-13T08:49:07Z</time>
      </trkpt>
      <trkpt lat="47.686702" lon="7.519661">
        <ele>282.0</ele>
        <time>2020-07-13T08:49:10Z</time>
      </trkpt>
      <trkpt lat="47.686595" lon="7.519715">
        <ele>282.0</ele>
        <time>2020-07-13T08:49:12Z</time>
      </trkpt>
      <trkpt lat="47.68649" lon="7.519766">
        <ele>282.0</ele>
        <time>2020-07-13T08:49:14Z</time>
      </trkpt>
      <trkpt lat="47.686327" lon="7.519856">
        <ele>282.0</ele>
        <time>2020-07-13T08:49:17Z</time>
      </trkpt>
      <trkpt lat="47.686226" lon="7.519916">
        <ele>283.0</ele>
        <time>2020-07-13T08:49:19Z</time>
      </trkpt>
      <trkpt lat="47.686065" lon="7.519992">
        <ele>283.0</ele>
        <time>2020-07-13T08:49:22Z</time>
      </trkpt>
      <trkpt lat="47.686012" lon="7.520017">
        <ele>283.0</ele>
        <time>2020-07-13T08:49:23Z</time>
      </trkpt>
      <trkpt lat="47.685853" lon="7.520071">
        <ele>283.0</ele>
        <time>2020-07-13T08:49:26Z</time>
      </trkpt>
      <trkpt lat="47.685694" lon="7.520128">
        <ele>283.0</ele>
        <time>2020-07-13T08:49:29Z</time>
      </trkpt>
      <trkpt lat="47.685589" lon="7.520178">
        <ele>283.0</ele>
        <time>2020-07-13T08:49:31Z</time>
      </trkpt>
      <trkpt lat="47.685488" lon="7.520227">
        <ele>283.0</ele>
        <time>2020-07-13T08:49:33Z</time>
      </trkpt>
      <trkpt lat="47.685378" lon="7.520266">
        <ele>283.0</ele>
        <time>2020-07-13T08:49:35Z</time>
      </trkpt>
      <trkpt lat="47.685208" lon="7.520329">
        <ele>283.0</ele>
        <time>2020-07-13T08:49:38Z</time>
      </trkpt>
      <trkpt lat="47.685103" lon="7.52037">
        <ele>282.0</ele>
        <time>2020-07-13T08:49:40Z</time>
      </trkpt>
      <trkpt lat="47.684988" lon="7.520412">
        <ele>282.0</ele>
        <time>2020-07-13T08:49:42Z</time>
      </trkpt>
      <trkpt lat="47.684859" lon="7.520452">
        <ele>283.0</ele>
        <time>2020-07-13T08:49:44Z</time>
      </trkpt>
      <trkpt lat="47.684742" lon="7.520491">
        <ele>283.0</ele>
        <time>2020-07-13T08:49:46Z</time>
      </trkpt>
      <trkpt lat="47.684633" lon="7.520529">
        <ele>283.0</ele>
        <time>2020-07-13T08:49:48Z</time>
      </trkpt>
      <trkpt lat="47.684535" lon="7.520557">
        <ele>283.0</ele>
        <time>2020-07-13T08:49:50Z</time>
      </trkpt>
      <trkpt lat="47.684435" lon="7.520581">
        <ele>283.0</ele>
        <time>2020-07-13T08:49:52Z</time>
      </trkpt>
      <trkpt lat="47.684334" lon="7.520619">
        <ele>283.0</ele>
        <time>2020-07-13T08:49:54Z</time>
      </trkpt>
      <trkpt lat="47.684174" lon="7.520665">
        <ele>282.0</ele>
        <time>2020-07-13T08:49:57Z</time>
      </trkpt>
      <trkpt lat="47.684072" lon="7.520688">
        <ele>282.0</ele>
        <time>2020-07-13T08:49:59Z</time>
      </trkpt>
      <trkpt lat="47.683968" lon="7.520723">
        <ele>282.0</ele>
        <time>2020-07-13T08:50:01Z</time>
      </trkpt>
      <trkpt lat="47.683925" lon="7.520737">
        <ele>282.0</ele>
        <time>2020-07-13T08:50:02Z</time>
      </trkpt>
      <trkpt lat="47.683756" lon="7.520774">
        <ele>282.0</ele>
        <time>2020-07-13T08:50:05Z</time>
      </trkpt>
      <trkpt lat="47.68359" lon="7.520819">
        <ele>282.0</ele>
        <time>2020-07-13T08:50:08Z</time>
      </trkpt>
      <trkpt lat="47.68348" lon="7.520848">
        <ele>281.0</ele>
        <time>2020-07-13T08:50:10Z</time>
      </trkpt>
      <trkpt lat="47.683374" lon="7.520883">
        <ele>281.0</ele>
        <time>2020-07-13T08:50:12Z</time>
      </trkpt>
      <trkpt lat="47.683267" lon="7.520893">
        <ele>281.0</ele>
        <time>2020-07-13T08:50:14Z</time>
      </trkpt>
      <trkpt lat="47.683158" lon="7.520914">
        <ele>281.0</ele>
        <time>2020-07-13T08:50:16Z</time>
      </trkpt>
      <trkpt lat="47.682995" lon="7.520945">
        <ele>281.0</ele>
        <time>2020-07-13T08:50:19Z</time>
      </trkpt>
      <trkpt lat="47.682884" lon="7.520971">
        <ele>280.0</ele>
        <time>2020-07-13T08:50:21Z</time>
      </trkpt>
      <trkpt lat="47.682776" lon="7.521017">
        <ele>280.0</ele>
        <time>2020-07-13T08:50:23Z</time>
      </trkpt>
      <trkpt lat="47.682732" lon="7.521053">
        <ele>280.0</ele>
        <time>2020-07-13T08:50:24Z</time>
      </trkpt>
      <trkpt lat="47.682635" lon="7.521192">
        <ele>280.0</ele>
        <time>2020-07-13T08:50:27Z</time>
      </trkpt>
      <trkpt lat="47.682536" lon="7.521336">
        <ele>280.0</ele>
        <time>2020-07-13T08:50:30Z</time>
      </trkpt>
      <trkpt lat="47.682468" lon="7.521433">
        <ele>279.0</ele>
        <time>2020-07-13T08:50:32Z</time>
      </trkpt>
      <trkpt lat="47.682393" lon="7.521536">
        <ele>279.0</ele>
        <time>2020-07-13T08:50:34Z</time>
      </trkpt>
      <trkpt lat="47.682285" lon="7.521709">
        <ele>279.0</ele>
        <time>2020-07-13T08:50:37Z</time>
      </trkpt>
      <trkpt lat="47.682216" lon="7.521826">
        <ele>280.0</ele>
        <time>2020-07-13T08:50:39Z</time>
      </trkpt>
      <trkpt lat="47.682144" lon="7.521935">
        <ele>280.0</ele>
        <time>2020-07-13T08:50:41Z</time>
      </trkpt>
      <trkpt lat="47.682073" lon="7.522037">
        <ele>280.0</ele>
        <time>2020-07-13T08:50:43Z</time>
      </trkpt>
      <trkpt lat="47.682" lon="7.522139">
        <ele>281.0</ele>
        <time>2020-07-13T08:50:45Z</time>
      </trkpt>
      <trkpt lat="47.681944" lon="7.522241">
        <ele>281.0</ele>
        <time>2020-07-13T08:50:47Z</time>
      </trkpt>
      <trkpt lat="47.681866" lon="7.522312">
        <ele>281.0</ele>
        <time>2020-07-13T08:50:50Z</time>
      </trkpt>
      <trkpt lat="47.681837" lon="7.522319">
        <ele>281.0</ele>
        <time>2020-07-13T08:50:51Z</time>
      </trkpt>
      <trkpt lat="47.681738" lon="7.522328">
        <ele>281.0</ele>
        <time>2020-07-13T08:50:54Z</time>
      </trkpt>
      <trkpt lat="47.68165" lon="7.522334">
        <ele>281.0</ele>
        <time>2020-07-13T08:50:56Z</time>
      </trkpt>
      <trkpt lat="47.68156" lon="7.522351">
        <ele>281.0</ele>
        <time>2020-07-13T08:50:58Z</time>
      </trkpt>
      <trkpt lat="47.681407" lon="7.522379">
        <ele>282.0</ele>
        <time>2020-07-13T08:51:01Z</time>
      </trkpt>
      <trkpt lat="47.681305" lon="7.522388">
        <ele>283.0</ele>
        <time>2020-07-13T08:51:03Z</time>
      </trkpt>
      <trkpt lat="47.681199" lon="7.522402">
        <ele>283.0</ele>
        <time>2020-07-13T08:51:05Z</time>
      </trkpt>
      <trkpt lat="47.681043" lon="7.522422">
        <ele>283.0</ele>
        <time>2020-07-13T08:51:08Z</time>
      </trkpt>
      <trkpt lat="47.680881" lon="7.522436">
        <ele>283.0</ele>
        <time>2020-07-13T08:51:11Z</time>
      </trkpt>
      <trkpt lat="47.680718" lon="7.522437">
        <ele>283.0</ele>
        <time>2020-07-13T08:51:14Z</time>
      </trkpt>
      <trkpt lat="47.680605" lon="7.522437">
        <ele>283.0</ele>
        <time>2020-07-13T08:51:16Z</time>
      </trkpt>
      <trkpt lat="47.680494" lon="7.522438">
        <ele>284.0</ele>
        <time>2020-07-13T08:51:18Z</time>
      </trkpt>
      <trkpt lat="47.680375" lon="7.522438">
        <ele>283.0</ele>
        <time>2020-07-13T08:51:20Z</time>
      </trkpt>
      <trkpt lat="47.680191" lon="7.522446">
        <ele>283.0</ele>
        <time>2020-07-13T08:51:23Z</time>
      </trkpt>
      <trkpt lat="47.680074" lon="7.522443">
        <ele>284.0</ele>
        <time>2020-07-13T08:51:25Z</time>
      </trkpt>
      <trkpt lat="47.679957" lon="7.522439">
        <ele>285.0</ele>
        <time>2020-07-13T08:51:27Z</time>
      </trkpt>
      <trkpt lat="47.679834" lon="7.52243">
        <ele>285.0</ele>
        <time>2020-07-13T08:51:29Z</time>
      </trkpt>
      <trkpt lat="47.679715" lon="7.522426">
        <ele>285.0</ele>
        <time>2020-07-13T08:51:31Z</time>
      </trkpt>
      <trkpt lat="47.679602" lon="7.522422">
        <ele>285.0</ele>
        <time>2020-07-13T08:51:33Z</time>
      </trkpt>
      <trkpt lat="47.679486" lon="7.52242">
        <ele>284.0</ele>
        <time>2020-07-13T08:51:35Z</time>
      </trkpt>
      <trkpt lat="47.679313" lon="7.52242">
        <ele>284.0</ele>
        <time>2020-07-13T08:51:38Z</time>
      </trkpt>
      <trkpt lat="47.679195" lon="7.522418">
        <ele>284.0</ele>
        <time>2020-07-13T08:51:40Z</time>
      </trkpt>
      <trkpt lat="47.67908" lon="7.522405">
        <ele>284.0</ele>
        <time>2020-07-13T08:51:42Z</time>
      </trkpt>
      <trkpt lat="47.678973" lon="7.522348">
        <ele>285.0</ele>
        <time>2020-07-13T08:51:44Z</time>
      </trkpt>
      <trkpt lat="47.678875" lon="7.52225">
        <ele>284.0</ele>
        <time>2020-07-13T08:51:46Z</time>
      </trkpt>
      <trkpt lat="47.678784" lon="7.522148">
        <ele>284.0</ele>
        <time>2020-07-13T08:51:48Z</time>
      </trkpt>
      <trkpt lat="47.678635" lon="7.52202">
        <ele>285.0</ele>
        <time>2020-07-13T08:51:51Z</time>
      </trkpt>
      <trkpt lat="47.678527" lon="7.521971">
        <ele>285.0</ele>
        <time>2020-07-13T08:51:53Z</time>
      </trkpt>
      <trkpt lat="47.678416" lon="7.521954">
        <ele>285.0</ele>
        <time>2020-07-13T08:51:55Z</time>
      </trkpt>
      <trkpt lat="47.678256" lon="7.521943">
        <ele>285.0</ele>
        <time>2020-07-13T08:51:58Z</time>
      </trkpt>
      <trkpt lat="47.678153" lon="7.521939">
        <ele>285.0</ele>
        <time>2020-07-13T08:52:00Z</time>
      </trkpt>
      <trkpt lat="47.678048" lon="7.52193">
        <ele>286.0</ele>
        <time>2020-07-13T08:52:02Z</time>
      </trkpt>
      <trkpt lat="47.6779" lon="7.521923">
        <ele>285.0</ele>
        <time>2020-07-13T08:52:05Z</time>
      </trkpt>
      <trkpt lat="47.677852" lon="7.521928">
        <ele>285.0</ele>
        <time>2020-07-13T08:52:06Z</time>
      </trkpt>
      <trkpt lat="47.677701" lon="7.521921">
        <ele>285.0</ele>
        <time>2020-07-13T08:52:09Z</time>
      </trkpt>
      <trkpt lat="47.677588" lon="7.521918">
        <ele>285.0</ele>
        <time>2020-07-13T08:52:11Z</time>
      </trkpt>
      <trkpt lat="47.677463" lon="7.521924">
        <ele>285.0</ele>
        <time>2020-07-13T08:52:13Z</time>
      </trkpt>
      <trkpt lat="47.677338" lon="7.521938">
        <ele>285.0</ele>
        <time>2020-07-13T08:52:15Z</time>
      </trkpt>
      <trkpt lat="47.677209" lon="7.521975">
        <ele>285.0</ele>
        <time>2020-07-13T08:52:17Z</time>
      </trkpt>
      <trkpt lat="47.677082" lon="7.522031">
        <ele>285.0</ele>
        <time>2020-07-13T08:52:19Z</time>
      </trkpt>
      <trkpt lat="47.676955" lon="7.522093">
        <ele>284.0</ele>
        <time>2020-07-13T08:52:21Z</time>
      </trkpt>
      <trkpt lat="47.676769" lon="7.522117">
        <ele>284.0</ele>
        <time>2020-07-13T08:52:24Z</time>
      </trkpt>
      <trkpt lat="47.676649" lon="7.522085">
        <ele>284.0</ele>
        <time>2020-07-13T08:52:26Z</time>
      </trkpt>
      <trkpt lat="47.676525" lon="7.522055">
        <ele>284.0</ele>
        <time>2020-07-13T08:52:28Z</time>
      </trkpt>
      <trkpt lat="47.676402" lon="7.522014">
        <ele>284.0</ele>
        <time>2020-07-13T08:52:30Z</time>
      </trkpt>
      <trkpt lat="47.676216" lon="7.521979">
        <ele>283.0</ele>
        <time>2020-07-13T08:52:33Z</time>
      </trkpt>
      <trkpt lat="47.676089" lon="7.521955">
        <ele>284.0</ele>
        <time>2020-07-13T08:52:35Z</time>
      </trkpt>
      <trkpt lat="47.675961" lon="7.521929">
        <ele>284.0</ele>
        <time>2020-07-13T08:52:37Z</time>
      </trkpt>
      <trkpt lat="47.675831" lon="7.521899">
        <ele>284.0</ele>
        <time>2020-07-13T08:52:39Z</time>
      </trkpt>
      <trkpt lat="47.675706" lon="7.521871">
        <ele>284.0</ele>
        <time>2020-07-13T08:52:41Z</time>
      </trkpt>
      <trkpt lat="47.67564" lon="7.521856">
        <ele>284.0</ele>
        <time>2020-07-13T08:52:42Z</time>
      </trkpt>
      <trkpt lat="47.675449" lon="7.521817">
        <ele>284.0</ele>
        <time>2020-07-13T08:52:45Z</time>
      </trkpt>
      <trkpt lat="47.675257" lon="7.521784">
        <ele>283.0</ele>
        <time>2020-07-13T08:52:48Z</time>
      </trkpt>
      <trkpt lat="47.675126" lon="7.521758">
        <ele>283.0</ele>
        <time>2020-07-13T08:52:50Z</time>
      </trkpt>
      <trkpt lat="47.674996" lon="7.521731">
        <ele>283.0</ele>
        <time>2020-07-13T08:52:52Z</time>
      </trkpt>
      <trkpt lat="47.674871" lon="7.52172">
        <ele>284.0</ele>
        <time>2020-07-13T08:52:54Z</time>
      </trkpt>
      <trkpt lat="47.674737" lon="7.521703">
        <ele>284.0</ele>
        <time>2020-07-13T08:52:56Z</time>
      </trkpt>
      <trkpt lat="47.674602" lon="7.521687">
        <ele>284.0</ele>
        <time>2020-07-13T08:52:58Z</time>
      </trkpt>
      <trkpt lat="47.674396" lon="7.52166">
        <ele>283.0</ele>
        <time>2020-07-13T08:53:01Z</time>
      </trkpt>
      <trkpt lat="47.674262" lon="7.521648">
        <ele>283.0</ele>
        <time>2020-07-13T08:53:03Z</time>
      </trkpt>
      <trkpt lat="47.674129" lon="7.521639">
        <ele>283.0</ele>
        <time>2020-07-13T08:53:05Z</time>
      </trkpt>
      <trkpt lat="47.674001" lon="7.521627">
        <ele>283.0</ele>
        <time>2020-07-13T08:53:07Z</time>
      </trkpt>
      <trkpt lat="47.67388" lon="7.521619">
        <ele>283.0</ele>
        <time>2020-07-13T08:53:09Z</time>
      </trkpt>
      <trkpt lat="47.673761" lon="7.521607">
        <ele>283.0</ele>
        <time>2020-07-13T08:53:11Z</time>
      </trkpt>
      <trkpt lat="47.673639" lon="7.521596">
        <ele>283.0</ele>
        <time>2020-07-13T08:53:13Z</time>
      </trkpt>
      <trkpt lat="47.673522" lon="7.521586">
        <ele>282.0</ele>
        <time>2020-07-13T08:53:15Z</time>
      </trkpt>
      <trkpt lat="47.673348" lon="7.521578">
        <ele>282.0</ele>
        <time>2020-07-13T08:53:18Z</time>
      </trkpt>
      <trkpt lat="47.673225" lon="7.521564">
        <ele>283.0</ele>
        <time>2020-07-13T08:53:20Z</time>
      </trkpt>
      <trkpt lat="47.673042" lon="7.521561">
        <ele>282.0</ele>
        <time>2020-07-13T08:53:23Z</time>
      </trkpt>
      <trkpt lat="47.672984" lon="7.521559">
        <ele>282.0</ele>
        <time>2020-07-13T08:53:24Z</time>
      </trkpt>
      <trkpt lat="47.672798" lon="7.521558">
        <ele>283.0</ele>
        <time>2020-07-13T08:53:27Z</time>
      </trkpt>
      <trkpt lat="47.672681" lon="7.521553">
        <ele>283.0</ele>
        <time>2020-07-13T08:53:29Z</time>
      </trkpt>
      <trkpt lat="47.672506" lon="7.521544">
        <ele>282.0</ele>
        <time>2020-07-13T08:53:32Z</time>
      </trkpt>
      <trkpt lat="47.672446" lon="7.521538">
        <ele>282.0</ele>
        <time>2020-07-13T08:53:33Z</time>
      </trkpt>
      <trkpt lat="47.672211" lon="7.52152">
        <ele>282.0</ele>
        <time>2020-07-13T08:53:37Z</time>
      </trkpt>
      <trkpt lat="47.672154" lon="7.521519">
        <ele>282.0</ele>
        <time>2020-07-13T08:53:38Z</time>
      </trkpt>
      <trkpt lat="47.671975" lon="7.521526">
        <ele>282.0</ele>
        <time>2020-07-13T08:53:41Z</time>
      </trkpt>
      <trkpt lat="47.671864" lon="7.521539">
        <ele>282.0</ele>
        <time>2020-07-13T08:53:43Z</time>
      </trkpt>
      <trkpt lat="47.671753" lon="7.52154">
        <ele>282.0</ele>
        <time>2020-07-13T08:53:45Z</time>
      </trkpt>
      <trkpt lat="47.671639" lon="7.521547">
        <ele>282.0</ele>
        <time>2020-07-13T08:53:47Z</time>
      </trkpt>
      <trkpt lat="47.671471" lon="7.521564">
        <ele>282.0</ele>
        <time>2020-07-13T08:53:50Z</time>
      </trkpt>
      <trkpt lat="47.671357" lon="7.521575">
        <ele>283.0</ele>
        <time>2020-07-13T08:53:52Z</time>
      </trkpt>
      <trkpt lat="47.671245" lon="7.521582">
        <ele>283.0</ele>
        <time>2020-07-13T08:53:54Z</time>
      </trkpt>
      <trkpt lat="47.671168" lon="7.521596">
        <ele>283.0</ele>
        <time>2020-07-13T08:53:56Z</time>
      </trkpt>
      <trkpt lat="47.671086" lon="7.52162">
        <ele>283.0</ele>
        <time>2020-07-13T08:53:58Z</time>
      </trkpt>
      <trkpt lat="47.670986" lon="7.521626">
        <ele>283.0</ele>
        <time>2020-07-13T08:54:00Z</time>
      </trkpt>
      <trkpt lat="47.670881" lon="7.521645">
        <ele>283.0</ele>
        <time>2020-07-13T08:54:02Z</time>
      </trkpt>
      <trkpt lat="47.670783" lon="7.521669">
        <ele>283.0</ele>
        <time>2020-07-13T08:54:04Z</time>
      </trkpt>
      <trkpt lat="47.670691" lon="7.521725">
        <ele>283.0</ele>
        <time>2020-07-13T08:54:06Z</time>
      </trkpt>
      <trkpt lat="47.670646" lon="7.521863">
        <ele>284.0</ele>
        <time>2020-07-13T08:54:08Z</time>
      </trkpt>
      <trkpt lat="47.670663" lon="7.522158">
        <ele>284.0</ele>
        <time>2020-07-13T08:54:12Z</time>
      </trkpt>
      <trkpt lat="47.670672" lon="7.522314">
        <ele>284.0</ele>
        <time>2020-07-13T08:54:14Z</time>
      </trkpt>
      <trkpt lat="47.670673" lon="7.52247">
        <ele>285.0</ele>
        <time>2020-07-13T08:54:16Z</time>
      </trkpt>
      <trkpt lat="47.670674" lon="7.522711">
        <ele>285.0</ele>
        <time>2020-07-13T08:54:19Z</time>
      </trkpt>
      <trkpt lat="47.670679" lon="7.52287">
        <ele>284.0</ele>
        <time>2020-07-13T08:54:21Z</time>
      </trkpt>
      <trkpt lat="47.670669" lon="7.523028">
        <ele>284.0</ele>
        <time>2020-07-13T08:54:23Z</time>
      </trkpt>
      <trkpt lat="47.670609" lon="7.523258">
        <ele>284.0</ele>
        <time>2020-07-13T08:54:26Z</time>
      </trkpt>
      <trkpt lat="47.670512" lon="7.523341">
        <ele>283.0</ele>
        <time>2020-07-13T08:54:28Z</time>
      </trkpt>
      <trkpt lat="47.670392" lon="7.523381">
        <ele>283.0</ele>
        <time>2020-07-13T08:54:30Z</time>
      </trkpt>
      <trkpt lat="47.670277" lon="7.523394">
        <ele>283.0</ele>
        <time>2020-07-13T08:54:32Z</time>
      </trkpt>
      <trkpt lat="47.670162" lon="7.523409">
        <ele>283.0</ele>
        <time>2020-07-13T08:54:34Z</time>
      </trkpt>
      <trkpt lat="47.670107" lon="7.523412">
        <ele>283.0</ele>
        <time>2020-07-13T08:54:35Z</time>
      </trkpt>
      <trkpt lat="47.669941" lon="7.523441">
        <ele>283.0</ele>
        <time>2020-07-13T08:54:38Z</time>
      </trkpt>
      <trkpt lat="47.669819" lon="7.523453">
        <ele>283.0</ele>
        <time>2020-07-13T08:54:40Z</time>
      </trkpt>
      <trkpt lat="47.669701" lon="7.523472">
        <ele>283.0</ele>
        <time>2020-07-13T08:54:42Z</time>
      </trkpt>
      <trkpt lat="47.669581" lon="7.523488">
        <ele>283.0</ele>
        <time>2020-07-13T08:54:44Z</time>
      </trkpt>
      <trkpt lat="47.669462" lon="7.523502">
        <ele>283.0</ele>
        <time>2020-07-13T08:54:46Z</time>
      </trkpt>
      <trkpt lat="47.669341" lon="7.523523">
        <ele>283.0</ele>
        <time>2020-07-13T08:54:48Z</time>
      </trkpt>
      <trkpt lat="47.669218" lon="7.52355">
        <ele>283.0</ele>
        <time>2020-07-13T08:54:50Z</time>
      </trkpt>
      <trkpt lat="47.669101" lon="7.523571">
        <ele>283.0</ele>
        <time>2020-07-13T08:54:52Z</time>
      </trkpt>
      <trkpt lat="47.668987" lon="7.523598">
        <ele>283.0</ele>
        <time>2020-07-13T08:54:54Z</time>
      </trkpt>
      <trkpt lat="47.668866" lon="7.523619">
        <ele>283.0</ele>
        <time>2020-07-13T08:54:56Z</time>
      </trkpt>
      <trkpt lat="47.668744" lon="7.523633">
        <ele>283.0</ele>
        <time>2020-07-13T08:54:58Z</time>
      </trkpt>
      <trkpt lat="47.668632" lon="7.523656">
        <ele>283.0</ele>
        <time>2020-07-13T08:55:00Z</time>
      </trkpt>
      <trkpt lat="47.668513" lon="7.52368">
        <ele>283.0</ele>
        <time>2020-07-13T08:55:02Z</time>
      </trkpt>
      <trkpt lat="47.668394" lon="7.523706">
        <ele>283.0</ele>
        <time>2020-07-13T08:55:04Z</time>
      </trkpt>
      <trkpt lat="47.66828" lon="7.523732">
        <ele>283.0</ele>
        <time>2020-07-13T08:55:06Z</time>
      </trkpt>
      <trkpt lat="47.668107" lon="7.523769">
        <ele>284.0</ele>
        <time>2020-07-13T08:55:09Z</time>
      </trkpt>
      <trkpt lat="47.667997" lon="7.523794">
        <ele>284.0</ele>
        <time>2020-07-13T08:55:11Z</time>
      </trkpt>
      <trkpt lat="47.667895" lon="7.523818">
        <ele>284.0</ele>
        <time>2020-07-13T08:55:13Z</time>
      </trkpt>
      <trkpt lat="47.6678" lon="7.523811">
        <ele>284.0</ele>
        <time>2020-07-13T08:55:15Z</time>
      </trkpt>
      <trkpt lat="47.667706" lon="7.523761">
        <ele>284.0</ele>
        <time>2020-07-13T08:55:17Z</time>
      </trkpt>
      <trkpt lat="47.667566" lon="7.523665">
        <ele>284.0</ele>
        <time>2020-07-13T08:55:20Z</time>
      </trkpt>
      <trkpt lat="47.66747" lon="7.523598">
        <ele>284.0</ele>
        <time>2020-07-13T08:55:22Z</time>
      </trkpt>
      <trkpt lat="47.667376" lon="7.523548">
        <ele>284.0</ele>
        <time>2020-07-13T08:55:24Z</time>
      </trkpt>
      <trkpt lat="47.667285" lon="7.523493">
        <ele>284.0</ele>
        <time>2020-07-13T08:55:26Z</time>
      </trkpt>
      <trkpt lat="47.667201" lon="7.523432">
        <ele>283.0</ele>
        <time>2020-07-13T08:55:28Z</time>
      </trkpt>
      <trkpt lat="47.667116" lon="7.523427">
        <ele>283.0</ele>
        <time>2020-07-13T08:55:30Z</time>
      </trkpt>
      <trkpt lat="47.666981" lon="7.523469">
        <ele>284.0</ele>
        <time>2020-07-13T08:55:33Z</time>
      </trkpt>
      <trkpt lat="47.666896" lon="7.523531">
        <ele>284.0</ele>
        <time>2020-07-13T08:55:35Z</time>
      </trkpt>
      <trkpt lat="47.666814" lon="7.523608">
        <ele>284.0</ele>
        <time>2020-07-13T08:55:37Z</time>
      </trkpt>
      <trkpt lat="47.666727" lon="7.52368">
        <ele>284.0</ele>
        <time>2020-07-13T08:55:39Z</time>
      </trkpt>
      <trkpt lat="47.666638" lon="7.523752">
        <ele>284.0</ele>
        <time>2020-07-13T08:55:41Z</time>
      </trkpt>
      <trkpt lat="47.666539" lon="7.523811">
        <ele>284.0</ele>
        <time>2020-07-13T08:55:43Z</time>
      </trkpt>
      <trkpt lat="47.666433" lon="7.523858">
        <ele>283.0</ele>
        <time>2020-07-13T08:55:45Z</time>
      </trkpt>
      <trkpt lat="47.666329" lon="7.523918">
        <ele>283.0</ele>
        <time>2020-07-13T08:55:47Z</time>
      </trkpt>
      <trkpt lat="47.666186" lon="7.524019">
        <ele>283.0</ele>
        <time>2020-07-13T08:55:50Z</time>
      </trkpt>
      <trkpt lat="47.666088" lon="7.524084">
        <ele>283.0</ele>
        <time>2020-07-13T08:55:52Z</time>
      </trkpt>
      <trkpt lat="47.665994" lon="7.524168">
        <ele>283.0</ele>
        <time>2020-07-13T08:55:54Z</time>
      </trkpt>
      <trkpt lat="47.665847" lon="7.524285">
        <ele>283.0</ele>
        <time>2020-07-13T08:55:57Z</time>
      </trkpt>
      <trkpt lat="47.665756" lon="7.524352">
        <ele>283.0</ele>
        <time>2020-07-13T08:55:59Z</time>
      </trkpt>
      <trkpt lat="47.665666" lon="7.52442">
        <ele>284.0</ele>
        <time>2020-07-13T08:56:01Z</time>
      </trkpt>
      <trkpt lat="47.665519" lon="7.524512">
        <ele>284.0</ele>
        <time>2020-07-13T08:56:04Z</time>
      </trkpt>
      <trkpt lat="47.665419" lon="7.524566">
        <ele>284.0</ele>
        <time>2020-07-13T08:56:06Z</time>
      </trkpt>
      <trkpt lat="47.665366" lon="7.524586">
        <ele>284.0</ele>
        <time>2020-07-13T08:56:07Z</time>
      </trkpt>
      <trkpt lat="47.665202" lon="7.524665">
        <ele>284.0</ele>
        <time>2020-07-13T08:56:10Z</time>
      </trkpt>
      <trkpt lat="47.665094" lon="7.524735">
        <ele>285.0</ele>
        <time>2020-07-13T08:56:12Z</time>
      </trkpt>
      <trkpt lat="47.664925" lon="7.524835">
        <ele>285.0</ele>
        <time>2020-07-13T08:56:15Z</time>
      </trkpt>
      <trkpt lat="47.664816" lon="7.524904">
        <ele>284.0</ele>
        <time>2020-07-13T08:56:17Z</time>
      </trkpt>
      <trkpt lat="47.664715" lon="7.524972">
        <ele>285.0</ele>
        <time>2020-07-13T08:56:19Z</time>
      </trkpt>
      <trkpt lat="47.66461" lon="7.52504">
        <ele>285.0</ele>
        <time>2020-07-13T08:56:21Z</time>
      </trkpt>
      <trkpt lat="47.664499" lon="7.525113">
        <ele>285.0</ele>
        <time>2020-07-13T08:56:23Z</time>
      </trkpt>
      <trkpt lat="47.664389" lon="7.525187">
        <ele>285.0</ele>
        <time>2020-07-13T08:56:25Z</time>
      </trkpt>
      <trkpt lat="47.664279" lon="7.525266">
        <ele>285.0</ele>
        <time>2020-07-13T08:56:27Z</time>
      </trkpt>
      <trkpt lat="47.664167" lon="7.525341">
        <ele>285.0</ele>
        <time>2020-07-13T08:56:29Z</time>
      </trkpt>
      <trkpt lat="47.664059" lon="7.525411">
        <ele>284.0</ele>
        <time>2020-07-13T08:56:31Z</time>
      </trkpt>
      <trkpt lat="47.66395" lon="7.525484">
        <ele>284.0</ele>
        <time>2020-07-13T08:56:33Z</time>
      </trkpt>
      <trkpt lat="47.66384" lon="7.525557">
        <ele>284.0</ele>
        <time>2020-07-13T08:56:35Z</time>
      </trkpt>
      <trkpt lat="47.66373" lon="7.525627">
        <ele>284.0</ele>
        <time>2020-07-13T08:56:37Z</time>
      </trkpt>
      <trkpt lat="47.663622" lon="7.525699">
        <ele>284.0</ele>
        <time>2020-07-13T08:56:39Z</time>
      </trkpt>
      <trkpt lat="47.663521" lon="7.525773">
        <ele>284.0</ele>
        <time>2020-07-13T08:56:41Z</time>
      </trkpt>
      <trkpt lat="47.663421" lon="7.525847">
        <ele>284.0</ele>
        <time>2020-07-13T08:56:43Z</time>
      </trkpt>
      <trkpt lat="47.663348" lon="7.525852">
        <ele>284.0</ele>
        <time>2020-07-13T08:56:45Z</time>
      </trkpt>
      <trkpt lat="47.663308" lon="7.525781">
        <ele>284.0</ele>
        <time>2020-07-13T08:56:47Z</time>
      </trkpt>
      <trkpt lat="47.663278" lon="7.525699">
        <ele>284.0</ele>
        <time>2020-07-13T08:56:49Z</time>
      </trkpt>
      <trkpt lat="47.663239" lon="7.525587">
        <ele>284.0</ele>
        <time>2020-07-13T08:56:52Z</time>
      </trkpt>
      <trkpt lat="47.663228" lon="7.525563">
        <ele>283.0</ele>
        <time>2020-07-13T08:56:53Z</time>
      </trkpt>
      <trkpt lat="47.663139" lon="7.525532">
        <ele>283.0</ele>
        <time>2020-07-13T08:56:56Z</time>
      </trkpt>
      <trkpt lat="47.663065" lon="7.525537">
        <ele>283.0</ele>
        <time>2020-07-13T08:56:58Z</time>
      </trkpt>
      <trkpt lat="47.662992" lon="7.525543">
        <ele>283.0</ele>
        <time>2020-07-13T08:57:00Z</time>
      </trkpt>
      <trkpt lat="47.662924" lon="7.525531">
        <ele>283.0</ele>
        <time>2020-07-13T08:57:02Z</time>
      </trkpt>
      <trkpt lat="47.66286" lon="7.525531">
        <ele>283.0</ele>
        <time>2020-07-13T08:57:04Z</time>
      </trkpt>
      <trkpt lat="47.662789" lon="7.525544">
        <ele>283.0</ele>
        <time>2020-07-13T08:57:06Z</time>
      </trkpt>
      <trkpt lat="47.662706" lon="7.525562">
        <ele>283.0</ele>
        <time>2020-07-13T08:57:08Z</time>
      </trkpt>
      <trkpt lat="47.662624" lon="7.525561">
        <ele>282.0</ele>
        <time>2020-07-13T08:57:10Z</time>
      </trkpt>
      <trkpt lat="47.662539" lon="7.525554">
        <ele>282.0</ele>
        <time>2020-07-13T08:57:12Z</time>
      </trkpt>
      <trkpt lat="47.662415" lon="7.525517">
        <ele>282.0</ele>
        <time>2020-07-13T08:57:15Z</time>
      </trkpt>
      <trkpt lat="47.662328" lon="7.525482">
        <ele>282.0</ele>
        <time>2020-07-13T08:57:17Z</time>
      </trkpt>
      <trkpt lat="47.662242" lon="7.525455">
        <ele>282.0</ele>
        <time>2020-07-13T08:57:19Z</time>
      </trkpt>
      <trkpt lat="47.662164" lon="7.525402">
        <ele>282.0</ele>
        <time>2020-07-13T08:57:21Z</time>
      </trkpt>
      <trkpt lat="47.66204" lon="7.525314">
        <ele>282.0</ele>
        <time>2020-07-13T08:57:24Z</time>
      </trkpt>
      <trkpt lat="47.661968" lon="7.525254">
        <ele>282.0</ele>
        <time>2020-07-13T08:57:26Z</time>
      </trkpt>
      <trkpt lat="47.661896" lon="7.525186">
        <ele>282.0</ele>
        <time>2020-07-13T08:57:28Z</time>
      </trkpt>
      <trkpt lat="47.661786" lon="7.525081">
        <ele>281.0</ele>
        <time>2020-07-13T08:57:31Z</time>
      </trkpt>
      <trkpt lat="47.661714" lon="7.525034">
        <ele>282.0</ele>
        <time>2020-07-13T08:57:33Z</time>
      </trkpt>
      <trkpt lat="47.661636" lon="7.524979">
        <ele>282.0</ele>
        <time>2020-07-13T08:57:35Z</time>
      </trkpt>
      <trkpt lat="47.661516" lon="7.524944">
        <ele>282.0</ele>
        <time>2020-07-13T08:57:38Z</time>
      </trkpt>
      <trkpt lat="47.661435" lon="7.524947">
        <ele>283.0</ele>
        <time>2020-07-13T08:57:40Z</time>
      </trkpt>
      <trkpt lat="47.661354" lon="7.524981">
        <ele>283.0</ele>
        <time>2020-07-13T08:57:42Z</time>
      </trkpt>
      <trkpt lat="47.661318" lon="7.524982">
        <ele>283.0</ele>
        <time>2020-07-13T08:57:44Z</time>
      </trkpt>
      <trkpt lat="47.661308" lon="7.524951">
        <ele>283.0</ele>
        <time>2020-07-13T08:57:46Z</time>
      </trkpt>
      <trkpt lat="47.661318" lon="7.524914">
        <ele>283.0</ele>
        <time>2020-07-13T08:57:48Z</time>
      </trkpt>
      <trkpt lat="47.661368" lon="7.524867">
        <ele>283.0</ele>
        <time>2020-07-13T08:57:51Z</time>
      </trkpt>
      <trkpt lat="47.661417" lon="7.524826">
        <ele>283.0</ele>
        <time>2020-07-13T08:57:53Z</time>
      </trkpt>
      <trkpt lat="47.661467" lon="7.52478">
        <ele>282.0</ele>
        <time>2020-07-13T08:57:55Z</time>
      </trkpt>
      <trkpt lat="47.661518" lon="7.524737">
        <ele>282.0</ele>
        <time>2020-07-13T08:57:57Z</time>
      </trkpt>
      <trkpt lat="47.66156" lon="7.524691">
        <ele>282.0</ele>
        <time>2020-07-13T08:57:59Z</time>
      </trkpt>
      <trkpt lat="47.661602" lon="7.524654">
        <ele>281.0</ele>
        <time>2020-07-13T08:58:01Z</time>
      </trkpt>
      <trkpt lat="47.661643" lon="7.524615">
        <ele>281.0</ele>
        <time>2020-07-13T08:58:03Z</time>
      </trkpt>
      <trkpt lat="47.661683" lon="7.524581">
        <ele>281.0</ele>
        <time>2020-07-13T08:58:05Z</time>
      </trkpt>
      <trkpt lat="47.661715" lon="7.524549">
        <ele>281.0</ele>
        <time>2020-07-13T08:58:07Z</time>
      </trkpt>
      <trkpt lat="47.66174" lon="7.52452">
        <ele>280.0</ele>
        <time>2020-07-13T08:58:09Z</time>
      </trkpt>
      <trkpt lat="47.661769" lon="7.524499">
        <ele>280.0</ele>
        <time>2020-07-13T08:58:11Z</time>
      </trkpt>
      <trkpt lat="47.66178" lon="7.524487">
        <ele>280.0</ele>
        <time>2020-07-13T08:58:13Z</time>
      </trkpt>
      <trkpt lat="47.661782" lon="7.524499">
        <ele>280.0</ele>
        <time>2020-07-13T08:58:15Z</time>
      </trkpt>
      <trkpt lat="47.66179" lon="7.5245">
        <ele>279.0</ele>
        <time>2020-07-13T08:58:18Z</time>
      </trkpt>
      <trkpt lat="47.661797" lon="7.524494">
        <ele>279.0</ele>
        <time>2020-07-13T08:58:20Z</time>
      </trkpt>
      <trkpt lat="47.661783" lon="7.524479">
        <ele>279.0</ele>
        <time>2020-07-13T08:58:37Z</time>
      </trkpt>
      <trkpt lat="47.661783" lon="7.524479">
        <ele>279.0</ele>
        <time>2020-07-13T08:58:39Z</time>
      </trkpt>
      <trkpt lat="47.661783" lon="7.524479">
        <ele>279.0</ele>
        <time>2020-07-13T08:58:41Z</time>
      </trkpt>
      <trkpt lat="47.661783" lon="7.524479">
        <ele>279.0</ele>
        <time>2020-07-13T08:58:43Z</time>
      </trkpt>
      <trkpt lat="47.661783" lon="7.524479">
        <ele>279.0</ele>
        <time>2020-07-13T08:58:45Z</time>
      </trkpt>
      <trkpt lat="47.661783" lon="7.524479">
        <ele>279.0</ele>
        <time>2020-07-13T08:58:47Z</time>
      </trkpt>
      <trkpt lat="47.661784" lon="7.524487">
        <ele>279.0</ele>
        <time>2020-07-13T08:58:49Z</time>
      </trkpt>
      <trkpt lat="47.661783" lon="7.52449">
        <ele>279.0</ele>
        <time>2020-07-13T08:58:51Z</time>
      </trkpt>
      <trkpt lat="47.66178" lon="7.5245">
        <ele>279.0</ele>
        <time>2020-07-13T08:58:53Z</time>
      </trkpt>
      <trkpt lat="47.66178" lon="7.5245">
        <ele>279.0</ele>
        <time>2020-07-13T08:58:55Z</time>
      </trkpt>
      <trkpt lat="47.661777" lon="7.524499">
        <ele>279.0</ele>
        <time>2020-07-13T08:58:57Z</time>
      </trkpt>
      <trkpt lat="47.661757" lon="7.524483">
        <ele>279.0</ele>
        <time>2020-07-13T08:59:00Z</time>
      </trkpt>
      <trkpt lat="47.661747" lon="7.524451">
        <ele>279.0</ele>
        <time>2020-07-13T08:59:02Z</time>
      </trkpt>
      <trkpt lat="47.661743" lon="7.524426">
        <ele>279.0</ele>
        <time>2020-07-13T08:59:04Z</time>
      </trkpt>
      <trkpt lat="47.661754" lon="7.52439">
        <ele>279.0</ele>
        <time>2020-07-13T08:59:06Z</time>
      </trkpt>
      <trkpt lat="47.661754" lon="7.524358">
        <ele>279.0</ele>
        <time>2020-07-13T08:59:08Z</time>
      </trkpt>
      <trkpt lat="47.661751" lon="7.524326">
        <ele>279.0</ele>
        <time>2020-07-13T08:59:10Z</time>
      </trkpt>
      <trkpt lat="47.66176" lon="7.524296">
        <ele>278.0</ele>
        <time>2020-07-13T08:59:12Z</time>
      </trkpt>
      <trkpt lat="47.661775" lon="7.524284">
        <ele>278.0</ele>
        <time>2020-07-13T08:59:14Z</time>
      </trkpt>
      <trkpt lat="47.661777" lon="7.524282">
        <ele>279.0</ele>
        <time>2020-07-13T08:59:16Z</time>
      </trkpt>
      <trkpt lat="47.661777" lon="7.524282">
        <ele>278.0</ele>
        <time>2020-07-13T08:59:18Z</time>
      </trkpt>
      <trkpt lat="47.661781" lon="7.52427">
        <ele>278.0</ele>
        <time>2020-07-13T08:59:20Z</time>
      </trkpt>
      <trkpt lat="47.661795" lon="7.524243">
        <ele>278.0</ele>
        <time>2020-07-13T08:59:22Z</time>
      </trkpt>
      <trkpt lat="47.661804" lon="7.524206">
        <ele>278.0</ele>
        <time>2020-07-13T08:59:24Z</time>
      </trkpt>
      <trkpt lat="47.66181" lon="7.524166">
        <ele>278.0</ele>
        <time>2020-07-13T08:59:26Z</time>
      </trkpt>
      <trkpt lat="47.661825" lon="7.524133">
        <ele>279.0</ele>
        <time>2020-07-13T08:59:28Z</time>
      </trkpt>
      <trkpt lat="47.661832" lon="7.52411">
        <ele>279.0</ele>
        <time>2020-07-13T08:59:30Z</time>
      </trkpt>
      <trkpt lat="47.66183" lon="7.524097">
        <ele>279.0</ele>
        <time>2020-07-13T08:59:32Z</time>
      </trkpt>
      <trkpt lat="47.661826" lon="7.524077">
        <ele>279.0</ele>
        <time>2020-07-13T08:59:34Z</time>
      </trkpt>
      <trkpt lat="47.661822" lon="7.524081">
        <ele>279.0</ele>
        <time>2020-07-13T08:59:36Z</time>
      </trkpt>
      <trkpt lat="47.661822" lon="7.524081">
        <ele>279.0</ele>
        <time>2020-07-13T08:59:38Z</time>
      </trkpt>
      <trkpt lat="47.661822" lon="7.524081">
        <ele>279.0</ele>
        <time>2020-07-13T08:59:40Z</time>
      </trkpt>
      <trkpt lat="47.661822" lon="7.524081">
        <ele>279.0</ele>
        <time>2020-07-13T08:59:42Z</time>
      </trkpt>
      <trkpt lat="47.661813" lon="7.524102">
        <ele>280.0</ele>
        <time>2020-07-13T09:00:20Z</time>
      </trkpt>
      <trkpt lat="47.661813" lon="7.524102">
        <ele>280.0</ele>
        <time>2020-07-13T09:00:22Z</time>
      </trkpt>
      <trkpt lat="47.661813" lon="7.524102">
        <ele>280.0</ele>
        <time>2020-07-13T09:00:24Z</time>
      </trkpt>
      <trkpt lat="47.661813" lon="7.524102">
        <ele>280.0</ele>
        <time>2020-07-13T09:00:26Z</time>
      </trkpt>
      <trkpt lat="47.661813" lon="7.524102">
        <ele>280.0</ele>
        <time>2020-07-13T09:00:28Z</time>
      </trkpt>
      <trkpt lat="47.661816" lon="7.52412">
        <ele>280.0</ele>
        <time>2020-07-13T09:00:30Z</time>
      </trkpt>
      <trkpt lat="47.661817" lon="7.524143">
        <ele>280.0</ele>
        <time>2020-07-13T09:00:32Z</time>
      </trkpt>
      <trkpt lat="47.661811" lon="7.524175">
        <ele>280.0</ele>
        <time>2020-07-13T09:00:34Z</time>
      </trkpt>
      <trkpt lat="47.661795" lon="7.52421">
        <ele>279.0</ele>
        <time>2020-07-13T09:00:37Z</time>
      </trkpt>
      <trkpt lat="47.66179" lon="7.524237">
        <ele>278.0</ele>
        <time>2020-07-13T09:00:39Z</time>
      </trkpt>
      <trkpt lat="47.661788" lon="7.524279">
        <ele>278.0</ele>
        <time>2020-07-13T09:00:41Z</time>
      </trkpt>
      <trkpt lat="47.661783" lon="7.524305">
        <ele>278.0</ele>
        <time>2020-07-13T09:00:43Z</time>
      </trkpt>
      <trkpt lat="47.66177" lon="7.524334">
        <ele>278.0</ele>
        <time>2020-07-13T09:00:45Z</time>
      </trkpt>
      <trkpt lat="47.661756" lon="7.524364">
        <ele>278.0</ele>
        <time>2020-07-13T09:00:47Z</time>
      </trkpt>
      <trkpt lat="47.661756" lon="7.524383">
        <ele>278.0</ele>
        <time>2020-07-13T09:00:49Z</time>
      </trkpt>
      <trkpt lat="47.661755" lon="7.524399">
        <ele>278.0</ele>
        <time>2020-07-13T09:00:51Z</time>
      </trkpt>
      <trkpt lat="47.661768" lon="7.524428">
        <ele>278.0</ele>
        <time>2020-07-13T09:00:53Z</time>
      </trkpt>
      <trkpt lat="47.661779" lon="7.524441">
        <ele>278.0</ele>
        <time>2020-07-13T09:00:55Z</time>
      </trkpt>
      <trkpt lat="47.661784" lon="7.524452">
        <ele>279.0</ele>
        <time>2020-07-13T09:00:57Z</time>
      </trkpt>
      <trkpt lat="47.661791" lon="7.52448">
        <ele>278.0</ele>
        <time>2020-07-13T09:00:59Z</time>
      </trkpt>
      <trkpt lat="47.661792" lon="7.524485">
        <ele>277.0</ele>
        <time>2020-07-13T09:01:01Z</time>
      </trkpt>
      <trkpt lat="47.661789" lon="7.524488">
        <ele>277.0</ele>
        <time>2020-07-13T09:01:03Z</time>
      </trkpt>
      <trkpt lat="47.66179" lon="7.524503">
        <ele>278.0</ele>
        <time>2020-07-13T09:01:05Z</time>
      </trkpt>
      <trkpt lat="47.661783" lon="7.524516">
        <ele>278.0</ele>
        <time>2020-07-13T09:01:07Z</time>
      </trkpt>
      <trkpt lat="47.661771" lon="7.524524">
        <ele>278.0</ele>
        <time>2020-07-13T09:01:09Z</time>
      </trkpt>
      <trkpt lat="47.661771" lon="7.524524">
        <ele>278.0</ele>
        <time>2020-07-13T09:01:11Z</time>
      </trkpt>
      <trkpt lat="47.661735" lon="7.524553">
        <ele>278.0</ele>
        <time>2020-07-13T09:01:13Z</time>
      </trkpt>
      <trkpt lat="47.661719" lon="7.524559">
        <ele>277.0</ele>
        <time>2020-07-13T09:01:15Z</time>
      </trkpt>
      <trkpt lat="47.661702" lon="7.524575">
        <ele>278.0</ele>
        <time>2020-07-13T09:01:17Z</time>
      </trkpt>
      <trkpt lat="47.661683" lon="7.524595">
        <ele>278.0</ele>
        <time>2020-07-13T09:01:19Z</time>
      </trkpt>
      <trkpt lat="47.66166" lon="7.524619">
        <ele>279.0</ele>
        <time>2020-07-13T09:01:21Z</time>
      </trkpt>
      <trkpt lat="47.661637" lon="7.524641">
        <ele>278.0</ele>
        <time>2020-07-13T09:01:23Z</time>
      </trkpt>
      <trkpt lat="47.661615" lon="7.524658">
        <ele>279.0</ele>
        <time>2020-07-13T09:01:25Z</time>
      </trkpt>
      <trkpt lat="47.66159" lon="7.524674">
        <ele>279.0</ele>
        <time>2020-07-13T09:01:27Z</time>
      </trkpt>
      <trkpt lat="47.66157" lon="7.524696">
        <ele>280.0</ele>
        <time>2020-07-13T09:01:29Z</time>
      </trkpt>
      <trkpt lat="47.661549" lon="7.524718">
        <ele>280.0</ele>
        <time>2020-07-13T09:01:31Z</time>
      </trkpt>
      <trkpt lat="47.661525" lon="7.524738">
        <ele>280.0</ele>
        <time>2020-07-13T09:01:33Z</time>
      </trkpt>
      <trkpt lat="47.661506" lon="7.524766">
        <ele>281.0</ele>
        <time>2020-07-13T09:01:35Z</time>
      </trkpt>
      <trkpt lat="47.661487" lon="7.524786">
        <ele>282.0</ele>
        <time>2020-07-13T09:01:37Z</time>
      </trkpt>
      <trkpt lat="47.661468" lon="7.524803">
        <ele>282.0</ele>
        <time>2020-07-13T09:01:39Z</time>
      </trkpt>
      <trkpt lat="47.661446" lon="7.524821">
        <ele>282.0</ele>
        <time>2020-07-13T09:01:41Z</time>
      </trkpt>
      <trkpt lat="47.661421" lon="7.52484">
        <ele>281.0</ele>
        <time>2020-07-13T09:01:43Z</time>
      </trkpt>
      <trkpt lat="47.661401" lon="7.524856">
        <ele>282.0</ele>
        <time>2020-07-13T09:01:45Z</time>
      </trkpt>
      <trkpt lat="47.661381" lon="7.524875">
        <ele>282.0</ele>
        <time>2020-07-13T09:01:47Z</time>
      </trkpt>
      <trkpt lat="47.661362" lon="7.524897">
        <ele>282.0</ele>
        <time>2020-07-13T09:01:49Z</time>
      </trkpt>
      <trkpt lat="47.661345" lon="7.524912">
        <ele>283.0</ele>
        <time>2020-07-13T09:01:51Z</time>
      </trkpt>
      <trkpt lat="47.661338" lon="7.524919">
        <ele>283.0</ele>
        <time>2020-07-13T09:01:53Z</time>
      </trkpt>
      <trkpt lat="47.661323" lon="7.524948">
        <ele>283.0</ele>
        <time>2020-07-13T09:01:55Z</time>
      </trkpt>
      <trkpt lat="47.66132" lon="7.524969">
        <ele>284.0</ele>
        <time>2020-07-13T09:01:57Z</time>
      </trkpt>
      <trkpt lat="47.661314" lon="7.52498">
        <ele>284.0</ele>
        <time>2020-07-13T09:01:59Z</time>
      </trkpt>
      <trkpt lat="47.661299" lon="7.524985">
        <ele>283.0</ele>
        <time>2020-07-13T09:02:01Z</time>
      </trkpt>
      <trkpt lat="47.661295" lon="7.524986">
        <ele>282.0</ele>
        <time>2020-07-13T09:02:03Z</time>
      </trkpt>
      <trkpt lat="47.661285" lon="7.525005">
        <ele>282.0</ele>
        <time>2020-07-13T09:02:05Z</time>
      </trkpt>
      <trkpt lat="47.66125" lon="7.525027">
        <ele>282.0</ele>
        <time>2020-07-13T09:02:07Z</time>
      </trkpt>
      <trkpt lat="47.661196" lon="7.525051">
        <ele>283.0</ele>
        <time>2020-07-13T09:02:09Z</time>
      </trkpt>
      <trkpt lat="47.661137" lon="7.525095">
        <ele>284.0</ele>
        <time>2020-07-13T09:02:11Z</time>
      </trkpt>
      <trkpt lat="47.661082" lon="7.525148">
        <ele>284.0</ele>
        <time>2020-07-13T09:02:13Z</time>
      </trkpt>
      <trkpt lat="47.661016" lon="7.525202">
        <ele>284.0</ele>
        <time>2020-07-13T09:02:15Z</time>
      </trkpt>
      <trkpt lat="47.660955" lon="7.525263">
        <ele>284.0</ele>
        <time>2020-07-13T09:02:17Z</time>
      </trkpt>
      <trkpt lat="47.660893" lon="7.525333">
        <ele>284.0</ele>
        <time>2020-07-13T09:02:19Z</time>
      </trkpt>
      <trkpt lat="47.660823" lon="7.525419">
        <ele>284.0</ele>
        <time>2020-07-13T09:02:21Z</time>
      </trkpt>
      <trkpt lat="47.660753" lon="7.525496">
        <ele>284.0</ele>
        <time>2020-07-13T09:02:23Z</time>
      </trkpt>
      <trkpt lat="47.660693" lon="7.525606">
        <ele>285.0</ele>
        <time>2020-07-13T09:02:25Z</time>
      </trkpt>
      <trkpt lat="47.66063" lon="7.5257">
        <ele>286.0</ele>
        <time>2020-07-13T09:02:27Z</time>
      </trkpt>
      <trkpt lat="47.660551" lon="7.525777">
        <ele>286.0</ele>
        <time>2020-07-13T09:02:29Z</time>
      </trkpt>
      <trkpt lat="47.660469" lon="7.525848">
        <ele>286.0</ele>
        <time>2020-07-13T09:02:31Z</time>
      </trkpt>
      <trkpt lat="47.66038" lon="7.525927">
        <ele>286.0</ele>
        <time>2020-07-13T09:02:33Z</time>
      </trkpt>
      <trkpt lat="47.660297" lon="7.526001">
        <ele>286.0</ele>
        <time>2020-07-13T09:02:35Z</time>
      </trkpt>
      <trkpt lat="47.660212" lon="7.526075">
        <ele>287.0</ele>
        <time>2020-07-13T09:02:37Z</time>
      </trkpt>
      <trkpt lat="47.660135" lon="7.526156">
        <ele>288.0</ele>
        <time>2020-07-13T09:02:39Z</time>
      </trkpt>
      <trkpt lat="47.660055" lon="7.52623">
        <ele>287.0</ele>
        <time>2020-07-13T09:02:41Z</time>
      </trkpt>
      <trkpt lat="47.659967" lon="7.526312">
        <ele>287.0</ele>
        <time>2020-07-13T09:02:43Z</time>
      </trkpt>
      <trkpt lat="47.659877" lon="7.526395">
        <ele>286.0</ele>
        <time>2020-07-13T09:02:45Z</time>
      </trkpt>
      <trkpt lat="47.659784" lon="7.526475">
        <ele>287.0</ele>
        <time>2020-07-13T09:02:47Z</time>
      </trkpt>
      <trkpt lat="47.65965" lon="7.526587">
        <ele>286.0</ele>
        <time>2020-07-13T09:02:50Z</time>
      </trkpt>
      <trkpt lat="47.659561" lon="7.526665">
        <ele>286.0</ele>
        <time>2020-07-13T09:02:52Z</time>
      </trkpt>
      <trkpt lat="47.659468" lon="7.526766">
        <ele>285.0</ele>
        <time>2020-07-13T09:02:54Z</time>
      </trkpt>
      <trkpt lat="47.659378" lon="7.526872">
        <ele>285.0</ele>
        <time>2020-07-13T09:02:56Z</time>
      </trkpt>
      <trkpt lat="47.659337" lon="7.526924">
        <ele>285.0</ele>
        <time>2020-07-13T09:02:57Z</time>
      </trkpt>
      <trkpt lat="47.65918" lon="7.527149">
        <ele>285.0</ele>
        <time>2020-07-13T09:03:01Z</time>
      </trkpt>
      <trkpt lat="47.6591" lon="7.527245">
        <ele>285.0</ele>
        <time>2020-07-13T09:03:03Z</time>
      </trkpt>
      <trkpt lat="47.65902" lon="7.527346">
        <ele>285.0</ele>
        <time>2020-07-13T09:03:05Z</time>
      </trkpt>
      <trkpt lat="47.658931" lon="7.527455">
        <ele>285.0</ele>
        <time>2020-07-13T09:03:07Z</time>
      </trkpt>
      <trkpt lat="47.658841" lon="7.527565">
        <ele>285.0</ele>
        <time>2020-07-13T09:03:09Z</time>
      </trkpt>
      <trkpt lat="47.658754" lon="7.527682">
        <ele>285.0</ele>
        <time>2020-07-13T09:03:11Z</time>
      </trkpt>
      <trkpt lat="47.658666" lon="7.527793">
        <ele>285.0</ele>
        <time>2020-07-13T09:03:13Z</time>
      </trkpt>
      <trkpt lat="47.658626" lon="7.527844">
        <ele>285.0</ele>
        <time>2020-07-13T09:03:14Z</time>
      </trkpt>
      <trkpt lat="47.658541" lon="7.527949">
        <ele>285.0</ele>
        <time>2020-07-13T09:03:16Z</time>
      </trkpt>
      <trkpt lat="47.658412" lon="7.52811">
        <ele>285.0</ele>
        <time>2020-07-13T09:03:19Z</time>
      </trkpt>
      <trkpt lat="47.658333" lon="7.528224">
        <ele>285.0</ele>
        <time>2020-07-13T09:03:21Z</time>
      </trkpt>
      <trkpt lat="47.658205" lon="7.528391">
        <ele>285.0</ele>
        <time>2020-07-13T09:03:24Z</time>
      </trkpt>
      <trkpt lat="47.658123" lon="7.528494">
        <ele>285.0</ele>
        <time>2020-07-13T09:03:26Z</time>
      </trkpt>
      <trkpt lat="47.658047" lon="7.528587">
        <ele>285.0</ele>
        <time>2020-07-13T09:03:28Z</time>
      </trkpt>
      <trkpt lat="47.657974" lon="7.528685">
        <ele>285.0</ele>
        <time>2020-07-13T09:03:30Z</time>
      </trkpt>
      <trkpt lat="47.657856" lon="7.528785">
        <ele>285.0</ele>
        <time>2020-07-13T09:03:33Z</time>
      </trkpt>
      <trkpt lat="47.657767" lon="7.528849">
        <ele>284.0</ele>
        <time>2020-07-13T09:03:35Z</time>
      </trkpt>
      <trkpt lat="47.657699" lon="7.528911">
        <ele>284.0</ele>
        <time>2020-07-13T09:03:37Z</time>
      </trkpt>
      <trkpt lat="47.657681" lon="7.528952">
        <ele>284.0</ele>
        <time>2020-07-13T09:03:39Z</time>
      </trkpt>
      <trkpt lat="47.657686" lon="7.528959">
        <ele>284.0</ele>
        <time>2020-07-13T09:03:41Z</time>
      </trkpt>
      <trkpt lat="47.657698" lon="7.528966">
        <ele>284.0</ele>
        <time>2020-07-13T09:03:44Z</time>
      </trkpt>
      <trkpt lat="47.657698" lon="7.528966">
        <ele>284.0</ele>
        <time>2020-07-13T09:03:46Z</time>
      </trkpt>
      <trkpt lat="47.657703" lon="7.528975">
        <ele>284.0</ele>
        <time>2020-07-13T09:03:48Z</time>
      </trkpt>
      <trkpt lat="47.501062" lon="8.018877">
        <ele>426.0</ele>
        <time>2020-07-13T15:33:03Z</time>
      </trkpt>
      <trkpt lat="47.50105" lon="8.018878">
        <ele>422.0</ele>
        <time>2020-07-13T15:33:05Z</time>
      </trkpt>
      <trkpt lat="47.501033" lon="8.018875">
        <ele>419.0</ele>
        <time>2020-07-13T15:33:07Z</time>
      </trkpt>
      <trkpt lat="47.501033" lon="8.018875">
        <ele>419.0</ele>
        <time>2020-07-13T15:33:09Z</time>
      </trkpt>
      <trkpt lat="47.501033" lon="8.018875">
        <ele>419.0</ele>
        <time>2020-07-13T15:33:11Z</time>
      </trkpt>
      <trkpt lat="47.501033" lon="8.018875">
        <ele>419.0</ele>
        <time>2020-07-13T15:33:13Z</time>
      </trkpt>
      <trkpt lat="47.501028" lon="8.018892">
        <ele>419.0</ele>
        <time>2020-07-13T15:33:15Z</time>
      </trkpt>
      <trkpt lat="47.501032" lon="8.018906">
        <ele>418.0</ele>
        <time>2020-07-13T15:33:17Z</time>
      </trkpt>
      <trkpt lat="47.50103" lon="8.018927">
        <ele>417.0</ele>
        <time>2020-07-13T15:33:19Z</time>
      </trkpt>
      <trkpt lat="47.501036" lon="8.018948">
        <ele>415.0</ele>
        <time>2020-07-13T15:33:21Z</time>
      </trkpt>
      <trkpt lat="47.50105" lon="8.018971">
        <ele>414.0</ele>
        <time>2020-07-13T15:33:23Z</time>
      </trkpt>
      <trkpt lat="47.501051" lon="8.01899">
        <ele>414.0</ele>
        <time>2020-07-13T15:33:25Z</time>
      </trkpt>
      <trkpt lat="47.501037" lon="8.018975">
        <ele>414.0</ele>
        <time>2020-07-13T15:33:27Z</time>
      </trkpt>
      <trkpt lat="47.501022" lon="8.018945">
        <ele>414.0</ele>
        <time>2020-07-13T15:33:29Z</time>
      </trkpt>
      <trkpt lat="47.501011" lon="8.018926">
        <ele>413.0</ele>
        <time>2020-07-13T15:33:31Z</time>
      </trkpt>
      <trkpt lat="47.501003" lon="8.018901">
        <ele>413.0</ele>
        <time>2020-07-13T15:33:33Z</time>
      </trkpt>
      <trkpt lat="47.500997" lon="8.018877">
        <ele>413.0</ele>
        <time>2020-07-13T15:33:35Z</time>
      </trkpt>
      <trkpt lat="47.500991" lon="8.018861">
        <ele>414.0</ele>
        <time>2020-07-13T15:33:37Z</time>
      </trkpt>
      <trkpt lat="47.500989" lon="8.018857">
        <ele>414.0</ele>
        <time>2020-07-13T15:33:39Z</time>
      </trkpt>
    </trkseg>
  </trk>
</gpx>
